<?xml version='1.0' encoding='UTF-8'?><gpx version="1.1" creator="JPX - https://github.com/jenetics/jpx" xmlns="http://www.topografix.com/GPX/1/1"><trk><trkseg><trkpt lat="45.4096595" lon="7.6247352"><ele>466.00000000000006</ele><time>2026-05-01T08:07:59.061Z</time></trkpt><trkpt lat="45.4097477" lon="7.6247449"><ele>466.0</ele><time>2026-05-01T08:08:04.064Z</time></trkpt><trkpt lat="45.4098285" lon="7.6247116"><ele>466.0</ele><time>2026-05-01T08:08:07.064Z</time></trkpt><trkpt lat="45.4098893" lon="7.6246832"><ele>466.0</ele><time>2026-05-01T08:08:09.057Z</time></trkpt><trkpt lat="45.4099632" lon="7.6246631"><ele>466.00000000000006</ele><time>2026-05-01T08:08:12.063Z</time></trkpt><trkpt lat="45.4100341" lon="7.6246949"><ele>466.0</ele><time>2026-05-01T08:08:16.059Z</time></trkpt><trkpt lat="45.4100182" lon="7.6247826"><ele>466.0</ele><time>2026-05-01T08:08:21.064Z</time></trkpt><trkpt lat="45.4100142" lon="7.624876"><ele>466.0</ele><time>2026-05-01T08:08:26.064Z</time></trkpt><trkpt lat="45.4099649" lon="7.6249394"><ele>466.0</ele><time>2026-05-01T08:08:30.065Z</time></trkpt><trkpt lat="45.409913" lon="7.625017"><ele>466.0</ele><time>2026-05-01T08:08:33.063Z</time></trkpt><trkpt lat="45.4098663" lon="7.6251208"><ele>466.0</ele><time>2026-05-01T08:08:36.061Z</time></trkpt><trkpt lat="45.4098327" lon="7.6252031"><ele>466.0</ele><time>2026-05-01T08:08:38.056Z</time></trkpt><trkpt lat="45.4097691" lon="7.6252582"><ele>466.0</ele><time>2026-05-01T08:08:41.058Z</time></trkpt><trkpt lat="45.4096996" lon="7.6253481"><ele>464.28571428571433</ele><time>2026-05-01T08:08:44.063Z</time></trkpt><trkpt lat="45.409656" lon="7.625466"><ele>462.57142857142856</ele><time>2026-05-01T08:08:47.06Z</time></trkpt><trkpt lat="45.4096788" lon="7.6255573"><ele>460.8571428571429</ele><time>2026-05-01T08:08:53.058Z</time></trkpt><trkpt lat="45.4097161" lon="7.6256428"><ele>459.14285714285717</ele><time>2026-05-01T08:09:11.06Z</time></trkpt><trkpt lat="45.4097822" lon="7.6256388"><ele>457.42857142857144</ele><time>2026-05-01T08:09:14.055Z</time></trkpt><trkpt lat="45.4098544" lon="7.6256397"><ele>455.7142857142857</ele><time>2026-05-01T08:09:18.057Z</time></trkpt><trkpt lat="45.4099114" lon="7.6255924"><ele>454.0</ele><time>2026-05-01T08:09:22.063Z</time></trkpt><trkpt lat="45.4099702" lon="7.6255497"><ele>456.00000000000006</ele><time>2026-05-01T08:09:25.058Z</time></trkpt><trkpt lat="45.4100378" lon="7.6255108"><ele>458.0</ele><time>2026-05-01T08:09:31.062Z</time></trkpt><trkpt lat="45.4101118" lon="7.6254631"><ele>460.0</ele><time>2026-05-01T08:09:43.057Z</time></trkpt><trkpt lat="45.410183" lon="7.6254112"><ele>462.0</ele><time>2026-05-01T08:09:46.065Z</time></trkpt><trkpt lat="45.4102437" lon="7.6253568"><ele>464.00000000000006</ele><time>2026-05-01T08:09:52.029Z</time></trkpt><trkpt lat="45.4103044" lon="7.6253099"><ele>466.0</ele><time>2026-05-01T08:09:54.008Z</time></trkpt><trkpt lat="45.4103918" lon="7.6252834"><ele>466.0</ele><time>2026-05-01T08:09:56.949Z</time></trkpt><trkpt lat="45.4104569" lon="7.6252973"><ele>466.0</ele><time>2026-05-01T08:09:58.943Z</time></trkpt><trkpt lat="45.4105343" lon="7.6253236"><ele>466.0</ele><time>2026-05-01T08:10:01.943Z</time></trkpt><trkpt lat="45.410605" lon="7.6253633"><ele>466.0</ele><time>2026-05-01T08:10:04.945Z</time></trkpt><trkpt lat="45.4106713" lon="7.6253998"><ele>466.0</ele><time>2026-05-01T08:10:08.946Z</time></trkpt><trkpt lat="45.4106145" lon="7.6254812"><ele>466.0</ele><time>2026-05-01T08:10:58.025Z</time></trkpt><trkpt lat="45.4105625" lon="7.6255322"><ele>466.0</ele><time>2026-05-01T08:11:00.943Z</time></trkpt><trkpt lat="45.4105037" lon="7.6255786"><ele>474.57142857142856</ele><time>2026-05-01T08:11:03.947Z</time></trkpt><trkpt lat="45.4105653" lon="7.6256103"><ele>483.1428571428571</ele><time>2026-05-01T08:11:13.946Z</time></trkpt><trkpt lat="45.4106347" lon="7.6256189"><ele>491.71428571428567</ele><time>2026-05-01T08:11:16.95Z</time></trkpt><trkpt lat="45.4107042" lon="7.6256527"><ele>500.2857142857143</ele><time>2026-05-01T08:11:20.126Z</time></trkpt><trkpt lat="45.4107846" lon="7.6256451"><ele>508.8571428571428</ele><time>2026-05-01T08:11:24.124Z</time></trkpt><trkpt lat="45.4108482" lon="7.6256439"><ele>517.4285714285714</ele><time>2026-05-01T08:11:27.129Z</time></trkpt><trkpt lat="45.410915" lon="7.6256188"><ele>526.0</ele><time>2026-05-01T08:11:31.983Z</time></trkpt><trkpt lat="45.4110258" lon="7.6256498"><ele>526.0</ele><time>2026-05-01T08:11:58.986Z</time></trkpt><trkpt lat="45.4110601" lon="7.6257275"><ele>526.0</ele><time>2026-05-01T08:12:12.98Z</time></trkpt><trkpt lat="45.4111308" lon="7.6257324"><ele>526.0</ele><time>2026-05-01T08:12:55.946Z</time></trkpt><trkpt lat="45.4111938" lon="7.6257525"><ele>526.0</ele><time>2026-05-01T08:13:52.942Z</time></trkpt><trkpt lat="45.4112519" lon="7.6257055"><ele>526.0</ele><time>2026-05-01T08:13:56.943Z</time></trkpt><trkpt lat="45.4113041" lon="7.6256325"><ele>526.0</ele><time>2026-05-01T08:13:59.948Z</time></trkpt><trkpt lat="45.4113639" lon="7.6255898"><ele>526.0</ele><time>2026-05-01T08:14:02.936Z</time></trkpt><trkpt lat="45.4114422" lon="7.6255553"><ele>528.3333333333334</ele><time>2026-05-01T08:14:05.942Z</time></trkpt><trkpt lat="45.4115074" lon="7.6255421"><ele>530.6666666666667</ele><time>2026-05-01T08:14:09.945Z</time></trkpt><trkpt lat="45.411552" lon="7.625468"><ele>533.0</ele><time>2026-05-01T08:14:12.942Z</time></trkpt><trkpt lat="45.4116239" lon="7.6253948"><ele>535.3333333333334</ele><time>2026-05-01T08:14:15.942Z</time></trkpt><trkpt lat="45.4116962" lon="7.6253337"><ele>537.6666666666666</ele><time>2026-05-01T08:14:18.939Z</time></trkpt><trkpt lat="45.4117777" lon="7.6252798"><ele>540.0</ele><time>2026-05-01T08:14:21.941Z</time></trkpt><trkpt lat="45.4118627" lon="7.6252259"><ele>540.0</ele><time>2026-05-01T08:14:24.949Z</time></trkpt><trkpt lat="45.4119309" lon="7.6251894"><ele>540.0</ele><time>2026-05-01T08:14:27.947Z</time></trkpt><trkpt lat="45.4119965" lon="7.6252058"><ele>540.0</ele><time>2026-05-01T08:14:30.952Z</time></trkpt><trkpt lat="45.412092" lon="7.6252225"><ele>540.0</ele><time>2026-05-01T08:14:33.948Z</time></trkpt><trkpt lat="45.412158" lon="7.6252307"><ele>540.0</ele><time>2026-05-01T08:14:35.948Z</time></trkpt><trkpt lat="45.4122403" lon="7.6252519"><ele>540.0</ele><time>2026-05-01T08:14:38.945Z</time></trkpt><trkpt lat="45.4123143" lon="7.6252748"><ele>543.3333333333334</ele><time>2026-05-01T08:14:41.937Z</time></trkpt><trkpt lat="45.4123805" lon="7.6252917"><ele>546.6666666666666</ele><time>2026-05-01T08:14:43.942Z</time></trkpt><trkpt lat="45.4124502" lon="7.6252789"><ele>550.0</ele><time>2026-05-01T08:14:45.939Z</time></trkpt><trkpt lat="45.4125244" lon="7.6252243"><ele>553.3333333333333</ele><time>2026-05-01T08:14:48.936Z</time></trkpt><trkpt lat="45.4126032" lon="7.6252125"><ele>556.6666666666666</ele><time>2026-05-01T08:14:52.935Z</time></trkpt><trkpt lat="45.4126786" lon="7.6252199"><ele>560.0</ele><time>2026-05-01T08:14:56.942Z</time></trkpt><trkpt lat="45.4127518" lon="7.6252047"><ele>560.0</ele><time>2026-05-01T08:15:00.038Z</time></trkpt><trkpt lat="45.4128374" lon="7.6251986"><ele>560.0</ele><time>2026-05-01T08:15:02.942Z</time></trkpt><trkpt lat="45.4129028" lon="7.625222"><ele>560.0</ele><time>2026-05-01T08:15:04.944Z</time></trkpt><trkpt lat="45.4129915" lon="7.625219"><ele>560.0</ele><time>2026-05-01T08:15:07.945Z</time></trkpt><trkpt lat="45.4130702" lon="7.6251895"><ele>560.0</ele><time>2026-05-01T08:15:12.036Z</time></trkpt><trkpt lat="45.4131332" lon="7.625176"><ele>560.0</ele><time>2026-05-01T08:15:14.944Z</time></trkpt><trkpt lat="45.413214" lon="7.6251669"><ele>562.2857142857143</ele><time>2026-05-01T08:15:19.945Z</time></trkpt><trkpt lat="45.4132812" lon="7.6251755"><ele>564.5714285714286</ele><time>2026-05-01T08:15:23.939Z</time></trkpt><trkpt lat="45.4133554" lon="7.6251309"><ele>566.8571428571429</ele><time>2026-05-01T08:15:27.947Z</time></trkpt><trkpt lat="45.4134249" lon="7.6251109"><ele>569.1428571428571</ele><time>2026-05-01T08:15:30.944Z</time></trkpt><trkpt lat="45.4134908" lon="7.6251358"><ele>571.4285714285714</ele><time>2026-05-01T08:15:34.946Z</time></trkpt><trkpt lat="45.4135389" lon="7.6251973"><ele>573.7142857142858</ele><time>2026-05-01T08:15:39.949Z</time></trkpt><trkpt lat="45.4136174" lon="7.6252288"><ele>576.0</ele><time>2026-05-01T08:15:53.989Z</time></trkpt><trkpt lat="45.4136849" lon="7.6252533"><ele>576.0</ele><time>2026-05-01T08:16:26.94Z</time></trkpt><trkpt lat="45.4137476" lon="7.6252128"><ele>576.0</ele><time>2026-05-01T08:17:02.944Z</time></trkpt><trkpt lat="45.413816" lon="7.6251844"><ele>576.0</ele><time>2026-05-01T08:17:12.95Z</time></trkpt><trkpt lat="45.4139169" lon="7.6251503"><ele>576.0</ele><time>2026-05-01T08:17:45.949Z</time></trkpt><trkpt lat="45.4140247" lon="7.6251645"><ele>576.0</ele><time>2026-05-01T08:19:33.948Z</time></trkpt><trkpt lat="45.4140173" lon="7.6252633"><ele>576.0</ele><time>2026-05-01T08:19:43.945Z</time></trkpt><trkpt lat="45.4140259" lon="7.6253562"><ele>580.8571428571429</ele><time>2026-05-01T08:19:48.948Z</time></trkpt><trkpt lat="45.4140317" lon="7.6254488"><ele>585.7142857142858</ele><time>2026-05-01T08:19:55.039Z</time></trkpt><trkpt lat="45.4140394" lon="7.6255427"><ele>590.5714285714287</ele><time>2026-05-01T08:20:04.007Z</time></trkpt><trkpt lat="45.4140837" lon="7.6256247"><ele>595.4285714285714</ele><time>2026-05-01T08:20:13.947Z</time></trkpt><trkpt lat="45.4141128" lon="7.6257346"><ele>600.2857142857142</ele><time>2026-05-01T08:20:17.939Z</time></trkpt><trkpt lat="45.4141478" lon="7.6258196"><ele>605.1428571428572</ele><time>2026-05-01T08:20:20.958Z</time></trkpt><trkpt lat="45.4141788" lon="7.6259248"><ele>610.0</ele><time>2026-05-01T08:20:23.952Z</time></trkpt><trkpt lat="45.4141929" lon="7.6260464"><ele>612.0</ele><time>2026-05-01T08:20:26.947Z</time></trkpt><trkpt lat="45.4141855" lon="7.6261674"><ele>614.0</ele><time>2026-05-01T08:20:29.962Z</time></trkpt><trkpt lat="45.4142228" lon="7.626279"><ele>616.0</ele><time>2026-05-01T08:20:32.939Z</time></trkpt><trkpt lat="45.4142707" lon="7.6263583"><ele>618.0</ele><time>2026-05-01T08:20:34.946Z</time></trkpt><trkpt lat="45.4143083" lon="7.6264339"><ele>620.0</ele><time>2026-05-01T08:20:37.031Z</time></trkpt><trkpt lat="45.4143758" lon="7.6265376"><ele>622.0</ele><time>2026-05-01T08:20:39.955Z</time></trkpt><trkpt lat="45.4144654" lon="7.6266344"><ele>622.0</ele><time>2026-05-01T08:20:41.946Z</time></trkpt><trkpt lat="45.4145186" lon="7.6266867"><ele>622.0</ele><time>2026-05-01T08:20:42.948Z</time></trkpt><trkpt lat="45.4145605" lon="7.6267939"><ele>622.0</ele><time>2026-05-01T08:20:44.946Z</time></trkpt><trkpt lat="45.4146021" lon="7.6268742"><ele>622.0</ele><time>2026-05-01T08:20:47.962Z</time></trkpt><trkpt lat="45.4145759" lon="7.6269653"><ele>622.0</ele><time>2026-05-01T08:20:53.946Z</time></trkpt><trkpt lat="45.4145129" lon="7.6270368"><ele>622.0</ele><time>2026-05-01T08:20:58.052Z</time></trkpt><trkpt lat="45.4144674" lon="7.6271349"><ele>622.0</ele><time>2026-05-01T08:21:00.942Z</time></trkpt><trkpt lat="45.4145455" lon="7.6270569"><ele>622.0</ele><time>2026-05-01T08:21:56.947Z</time></trkpt><trkpt lat="45.414651" lon="7.6270245"><ele>622.0</ele><time>2026-05-01T08:21:58.942Z</time></trkpt><trkpt lat="45.4147249" lon="7.6269401"><ele>622.0</ele><time>2026-05-01T08:22:00.948Z</time></trkpt><trkpt lat="45.4147345" lon="7.6268505"><ele>622.0</ele><time>2026-05-01T08:22:02.951Z</time></trkpt><trkpt lat="45.4146845" lon="7.6267535"><ele>622.0</ele><time>2026-05-01T08:22:04.96Z</time></trkpt><trkpt lat="45.4146092" lon="7.626654"><ele>622.0</ele><time>2026-05-01T08:22:07.026Z</time></trkpt><trkpt lat="45.4145546" lon="7.6265662"><ele>622.0</ele><time>2026-05-01T08:22:08.951Z</time></trkpt><trkpt lat="45.4145967" lon="7.6264814"><ele>622.0</ele><time>2026-05-01T08:22:12.946Z</time></trkpt><trkpt lat="45.4146527" lon="7.6264242"><ele>622.0</ele><time>2026-05-01T08:22:15.947Z</time></trkpt><trkpt lat="45.4145936" lon="7.6264585"><ele>622.0</ele><time>2026-05-01T08:22:49.941Z</time></trkpt><trkpt lat="45.4145326" lon="7.6264861"><ele>622.0</ele><time>2026-05-01T08:23:27.95Z</time></trkpt><trkpt lat="45.4144654" lon="7.626437"><ele>622.0</ele><time>2026-05-01T08:23:34.946Z</time></trkpt><trkpt lat="45.41441" lon="7.6263721"><ele>622.0</ele><time>2026-05-01T08:23:39.942Z</time></trkpt><trkpt lat="45.4143963" lon="7.6262695"><ele>622.0</ele><time>2026-05-01T08:23:46.944Z</time></trkpt><trkpt lat="45.4143658" lon="7.6261816"><ele>622.0</ele><time>2026-05-01T08:24:00.026Z</time></trkpt><trkpt lat="45.4143128" lon="7.6261201"><ele>622.0</ele><time>2026-05-01T08:24:08.95Z</time></trkpt><trkpt lat="45.4143451" lon="7.62604"><ele>622.0</ele><time>2026-05-01T08:24:32.947Z</time></trkpt><trkpt lat="45.4143811" lon="7.6261172"><ele>622.0</ele><time>2026-05-01T08:25:16.953Z</time></trkpt><trkpt lat="45.4143492" lon="7.6261979"><ele>622.0</ele><time>2026-05-01T08:25:23.947Z</time></trkpt><trkpt lat="45.4143567" lon="7.6262917"><ele>622.0</ele><time>2026-05-01T08:25:33.949Z</time></trkpt><trkpt lat="45.4143914" lon="7.6263813"><ele>622.0</ele><time>2026-05-01T08:25:40.948Z</time></trkpt><trkpt lat="45.414434" lon="7.6264592"><ele>622.0</ele><time>2026-05-01T08:25:46.944Z</time></trkpt><trkpt lat="45.4144749" lon="7.6265329"><ele>622.0</ele><time>2026-05-01T08:26:02.943Z</time></trkpt><trkpt lat="45.4145007" lon="7.626617"><ele>622.0</ele><time>2026-05-01T08:26:05.943Z</time></trkpt><trkpt lat="45.4145306" lon="7.6267059"><ele>622.0</ele><time>2026-05-01T08:26:07.947Z</time></trkpt><trkpt lat="45.4146653" lon="7.6268346"><ele>622.2</ele><time>2026-05-01T08:26:10.031Z</time></trkpt><trkpt lat="45.414708" lon="7.6269343"><ele>622.4000000000001</ele><time>2026-05-01T08:26:11.94Z</time></trkpt><trkpt lat="45.4146293" lon="7.6269918"><ele>622.5999999999999</ele><time>2026-05-01T08:26:13.953Z</time></trkpt><trkpt lat="45.4145269" lon="7.6270515"><ele>622.8</ele><time>2026-05-01T08:26:15.949Z</time></trkpt><trkpt lat="45.4144663" lon="7.6271704"><ele>623.0</ele><time>2026-05-01T08:26:17.952Z</time></trkpt><trkpt lat="45.414414" lon="7.627302"><ele>622.6</ele><time>2026-05-01T08:26:19.951Z</time></trkpt><trkpt lat="45.4143808" lon="7.6273783"><ele>622.1999999999999</ele><time>2026-05-01T08:26:20.949Z</time></trkpt><trkpt lat="45.414326" lon="7.6275235"><ele>621.8</ele><time>2026-05-01T08:26:22.949Z</time></trkpt><trkpt lat="45.4142717" lon="7.6276497"><ele>621.4</ele><time>2026-05-01T08:26:25.026Z</time></trkpt><trkpt lat="45.4142101" lon="7.6277612"><ele>621.0</ele><time>2026-05-01T08:26:26.948Z</time></trkpt><trkpt lat="45.4141494" lon="7.6278875"><ele>620.0</ele><time>2026-05-01T08:26:28.938Z</time></trkpt><trkpt lat="45.4140922" lon="7.6280081"><ele>619.0</ele><time>2026-05-01T08:26:30.942Z</time></trkpt><trkpt lat="45.414048" lon="7.6281246"><ele>618.0</ele><time>2026-05-01T08:26:32.946Z</time></trkpt><trkpt lat="45.4139908" lon="7.6282473"><ele>617.0</ele><time>2026-05-01T08:26:34.948Z</time></trkpt><trkpt lat="45.4139313" lon="7.6283639"><ele>616.0</ele><time>2026-05-01T08:26:36.952Z</time></trkpt><trkpt lat="45.4138462" lon="7.6284883"><ele>615.8333333333334</ele><time>2026-05-01T08:26:38.949Z</time></trkpt><trkpt lat="45.4138067" lon="7.6285729"><ele>615.6666666666667</ele><time>2026-05-01T08:26:39.943Z</time></trkpt><trkpt lat="45.4137651" lon="7.6286764"><ele>615.5</ele><time>2026-05-01T08:26:41.032Z</time></trkpt><trkpt lat="45.4137298" lon="7.6287765"><ele>615.3333333333334</ele><time>2026-05-01T08:26:42.012Z</time></trkpt><trkpt lat="45.4136935" lon="7.628871"><ele>615.1666666666666</ele><time>2026-05-01T08:26:42.949Z</time></trkpt><trkpt lat="45.4136521" lon="7.6289733"><ele>615.0</ele><time>2026-05-01T08:26:43.954Z</time></trkpt><trkpt lat="45.4136128" lon="7.6290819"><ele>614.0</ele><time>2026-05-01T08:26:44.94Z</time></trkpt><trkpt lat="45.4135767" lon="7.629201"><ele>613.0</ele><time>2026-05-01T08:26:45.952Z</time></trkpt><trkpt lat="45.4135421" lon="7.6293089"><ele>612.0</ele><time>2026-05-01T08:26:46.948Z</time></trkpt><trkpt lat="45.4135109" lon="7.6293985"><ele>611.0</ele><time>2026-05-01T08:26:47.946Z</time></trkpt><trkpt lat="45.4134727" lon="7.6294761"><ele>610.0</ele><time>2026-05-01T08:26:49.065Z</time></trkpt><trkpt lat="45.4134263" lon="7.6295397"><ele>609.0</ele><time>2026-05-01T08:26:49.957Z</time></trkpt><trkpt lat="45.4133676" lon="7.6296071"><ele>609.0</ele><time>2026-05-01T08:26:50.951Z</time></trkpt><trkpt lat="45.4133098" lon="7.6296714"><ele>609.0</ele><time>2026-05-01T08:26:51.948Z</time></trkpt><trkpt lat="45.4132502" lon="7.6297363"><ele>609.0</ele><time>2026-05-01T08:26:52.944Z</time></trkpt><trkpt lat="45.4131932" lon="7.6297982"><ele>609.0</ele><time>2026-05-01T08:26:54.011Z</time></trkpt><trkpt lat="45.4131362" lon="7.6298639"><ele>609.0</ele><time>2026-05-01T08:26:55.016Z</time></trkpt><trkpt lat="45.4130764" lon="7.6299269"><ele>609.0</ele><time>2026-05-01T08:26:55.949Z</time></trkpt><trkpt lat="45.4130145" lon="7.6300041"><ele>606.1666666666666</ele><time>2026-05-01T08:26:56.948Z</time></trkpt><trkpt lat="45.4129489" lon="7.6300764"><ele>603.3333333333334</ele><time>2026-05-01T08:26:57.975Z</time></trkpt><trkpt lat="45.4128835" lon="7.6301419"><ele>600.5</ele><time>2026-05-01T08:26:59.007Z</time></trkpt><trkpt lat="45.4128157" lon="7.6301889"><ele>597.6666666666667</ele><time>2026-05-01T08:27:00.011Z</time></trkpt><trkpt lat="45.4127458" lon="7.6302218"><ele>594.8333333333334</ele><time>2026-05-01T08:27:00.952Z</time></trkpt><trkpt lat="45.4126669" lon="7.6302387"><ele>592.0</ele><time>2026-05-01T08:27:01.947Z</time></trkpt><trkpt lat="45.412584" lon="7.6302499"><ele>592.0</ele><time>2026-05-01T08:27:02.951Z</time></trkpt><trkpt lat="45.4125005" lon="7.6302584"><ele>592.0</ele><time>2026-05-01T08:27:04.024Z</time></trkpt><trkpt lat="45.4124156" lon="7.6302645"><ele>592.0</ele><time>2026-05-01T08:27:05.021Z</time></trkpt><trkpt lat="45.4123375" lon="7.6302713"><ele>592.0</ele><time>2026-05-01T08:27:05.953Z</time></trkpt><trkpt lat="45.4122614" lon="7.6302839"><ele>592.0</ele><time>2026-05-01T08:27:06.948Z</time></trkpt><trkpt lat="45.4122001" lon="7.6303071"><ele>592.0</ele><time>2026-05-01T08:27:07.957Z</time></trkpt><trkpt lat="45.4121413" lon="7.6303406"><ele>591.6</ele><time>2026-05-01T08:27:08.952Z</time></trkpt><trkpt lat="45.4120535" lon="7.6304275"><ele>591.2</ele><time>2026-05-01T08:27:10.95Z</time></trkpt><trkpt lat="45.412015" lon="7.6305518"><ele>590.8</ele><time>2026-05-01T08:27:12.949Z</time></trkpt><trkpt lat="45.4119991" lon="7.6307126"><ele>590.4</ele><time>2026-05-01T08:27:14.947Z</time></trkpt><trkpt lat="45.4119903" lon="7.6308055"><ele>590.0</ele><time>2026-05-01T08:27:15.96Z</time></trkpt><trkpt lat="45.4119814" lon="7.630911"><ele>590.0</ele><time>2026-05-01T08:27:16.955Z</time></trkpt><trkpt lat="45.4119767" lon="7.6310137"><ele>590.0</ele><time>2026-05-01T08:27:17.95Z</time></trkpt><trkpt lat="45.4119758" lon="7.6311256"><ele>590.0</ele><time>2026-05-01T08:27:18.97Z</time></trkpt><trkpt lat="45.4119922" lon="7.6312236"><ele>590.0</ele><time>2026-05-01T08:27:19.952Z</time></trkpt><trkpt lat="45.4120847" lon="7.6313484"><ele>590.0</ele><time>2026-05-01T08:27:21.943Z</time></trkpt><trkpt lat="45.4121553" lon="7.6313807"><ele>590.0</ele><time>2026-05-01T08:27:22.946Z</time></trkpt><trkpt lat="45.412227" lon="7.6314074"><ele>592.6666666666666</ele><time>2026-05-01T08:27:23.953Z</time></trkpt><trkpt lat="45.4123089" lon="7.63143"><ele>595.3333333333333</ele><time>2026-05-01T08:27:24.952Z</time></trkpt><trkpt lat="45.4123874" lon="7.6314562"><ele>598.0</ele><time>2026-05-01T08:27:25.95Z</time></trkpt><trkpt lat="45.4124567" lon="7.6314914"><ele>600.6666666666666</ele><time>2026-05-01T08:27:26.945Z</time></trkpt><trkpt lat="45.4125237" lon="7.6315332"><ele>603.3333333333334</ele><time>2026-05-01T08:27:27.949Z</time></trkpt><trkpt lat="45.4125866" lon="7.6315815"><ele>606.0</ele><time>2026-05-01T08:27:28.948Z</time></trkpt><trkpt lat="45.4126492" lon="7.6316283"><ele>606.0</ele><time>2026-05-01T08:27:29.951Z</time></trkpt><trkpt lat="45.4127086" lon="7.6316694"><ele>606.0</ele><time>2026-05-01T08:27:30.949Z</time></trkpt><trkpt lat="45.4127897" lon="7.6317669"><ele>606.0</ele><time>2026-05-01T08:27:32.953Z</time></trkpt><trkpt lat="45.412863" lon="7.6319152"><ele>606.0</ele><time>2026-05-01T08:27:34.953Z</time></trkpt><trkpt lat="45.4129392" lon="7.6320429"><ele>606.0</ele><time>2026-05-01T08:27:36.949Z</time></trkpt><trkpt lat="45.4130463" lon="7.6321255"><ele>607.6666666666666</ele><time>2026-05-01T08:27:38.944Z</time></trkpt><trkpt lat="45.4131679" lon="7.6321135"><ele>609.3333333333334</ele><time>2026-05-01T08:27:40.951Z</time></trkpt><trkpt lat="45.4132339" lon="7.6320749"><ele>611.0</ele><time>2026-05-01T08:27:41.942Z</time></trkpt><trkpt lat="45.4132908" lon="7.6320328"><ele>612.6666666666667</ele><time>2026-05-01T08:27:42.945Z</time></trkpt><trkpt lat="45.4133509" lon="7.6319908"><ele>614.3333333333334</ele><time>2026-05-01T08:27:43.946Z</time></trkpt><trkpt lat="45.413458" lon="7.6319258"><ele>616.0</ele><time>2026-05-01T08:27:45.949Z</time></trkpt><trkpt lat="45.4135598" lon="7.6319245"><ele>616.0</ele><time>2026-05-01T08:27:47.944Z</time></trkpt><trkpt lat="45.4136215" lon="7.6319513"><ele>616.0</ele><time>2026-05-01T08:27:49.87Z</time></trkpt><trkpt lat="45.4136526" lon="7.6320651"><ele>616.0</ele><time>2026-05-01T08:27:52.945Z</time></trkpt><trkpt lat="45.4136601" lon="7.6322489"><ele>616.0</ele><time>2026-05-01T08:27:54.954Z</time></trkpt><trkpt lat="45.4136685" lon="7.6323633"><ele>616.0</ele><time>2026-05-01T08:27:56.947Z</time></trkpt><trkpt lat="45.413757" lon="7.6323548"><ele>616.0</ele><time>2026-05-01T08:28:00.944Z</time></trkpt><trkpt lat="45.4138012" lon="7.6322069"><ele>616.0</ele><time>2026-05-01T08:28:02.955Z</time></trkpt><trkpt lat="45.4138208" lon="7.6320919"><ele>616.0</ele><time>2026-05-01T08:28:03.954Z</time></trkpt><trkpt lat="45.4138427" lon="7.6319545"><ele>616.0</ele><time>2026-05-01T08:28:04.95Z</time></trkpt><trkpt lat="45.4138654" lon="7.6318045"><ele>616.0</ele><time>2026-05-01T08:28:05.947Z</time></trkpt><trkpt lat="45.413879" lon="7.6316397"><ele>616.0</ele><time>2026-05-01T08:28:06.953Z</time></trkpt><trkpt lat="45.4138813" lon="7.6314511"><ele>620.5</ele><time>2026-05-01T08:28:07.976Z</time></trkpt><trkpt lat="45.4138727" lon="7.6312452"><ele>625.0</ele><time>2026-05-01T08:28:08.944Z</time></trkpt><trkpt lat="45.4138665" lon="7.6310696"><ele>629.5</ele><time>2026-05-01T08:28:09.951Z</time></trkpt><trkpt lat="45.4138518" lon="7.6309385"><ele>634.0</ele><time>2026-05-01T08:28:10.95Z</time></trkpt><trkpt lat="45.413844" lon="7.6308051"><ele>633.8333333333334</ele><time>2026-05-01T08:28:11.949Z</time></trkpt><trkpt lat="45.4138462" lon="7.630688"><ele>633.6666666666667</ele><time>2026-05-01T08:28:12.954Z</time></trkpt><trkpt lat="45.413871" lon="7.6305718"><ele>633.5</ele><time>2026-05-01T08:28:13.947Z</time></trkpt><trkpt lat="45.4139076" lon="7.6304612"><ele>633.3333333333334</ele><time>2026-05-01T08:28:14.957Z</time></trkpt><trkpt lat="45.4139655" lon="7.6303586"><ele>633.1666666666666</ele><time>2026-05-01T08:28:15.948Z</time></trkpt><trkpt lat="45.4140299" lon="7.6302551"><ele>633.0</ele><time>2026-05-01T08:28:16.948Z</time></trkpt><trkpt lat="45.4141017" lon="7.6301484"><ele>633.0</ele><time>2026-05-01T08:28:17.952Z</time></trkpt><trkpt lat="45.4141888" lon="7.6300442"><ele>633.0</ele><time>2026-05-01T08:28:18.953Z</time></trkpt><trkpt lat="45.4142642" lon="7.6299459"><ele>633.0</ele><time>2026-05-01T08:28:19.951Z</time></trkpt><trkpt lat="45.4143441" lon="7.6298507"><ele>633.0</ele><time>2026-05-01T08:28:20.951Z</time></trkpt><trkpt lat="45.4144113" lon="7.6297574"><ele>633.0</ele><time>2026-05-01T08:28:21.953Z</time></trkpt><trkpt lat="45.4144698" lon="7.6296673"><ele>633.0</ele><time>2026-05-01T08:28:22.949Z</time></trkpt><trkpt lat="45.4145135" lon="7.629586"><ele>633.0</ele><time>2026-05-01T08:28:23.95Z</time></trkpt><trkpt lat="45.4145639" lon="7.6294824"><ele>633.0</ele><time>2026-05-01T08:28:25.957Z</time></trkpt><trkpt lat="45.4145497" lon="7.6296028"><ele>633.0</ele><time>2026-05-01T08:29:05.944Z</time></trkpt><trkpt lat="45.4145071" lon="7.6297424"><ele>633.0</ele><time>2026-05-01T08:29:07.944Z</time></trkpt><trkpt lat="45.4144943" lon="7.629842"><ele>633.0</ele><time>2026-05-01T08:29:08.95Z</time></trkpt><trkpt lat="45.4144906" lon="7.6299549"><ele>633.0</ele><time>2026-05-01T08:29:09.941Z</time></trkpt><trkpt lat="45.414488" lon="7.6300631"><ele>633.0</ele><time>2026-05-01T08:29:10.947Z</time></trkpt><trkpt lat="45.4144794" lon="7.6301769"><ele>633.0</ele><time>2026-05-01T08:29:11.944Z</time></trkpt><trkpt lat="45.4144736" lon="7.6302807"><ele>633.0</ele><time>2026-05-01T08:29:12.946Z</time></trkpt><trkpt lat="45.414466" lon="7.6303832"><ele>633.0</ele><time>2026-05-01T08:29:13.949Z</time></trkpt><trkpt lat="45.4144785" lon="7.6305208"><ele>633.0</ele><time>2026-05-01T08:29:15.952Z</time></trkpt><trkpt lat="45.4145529" lon="7.6306297"><ele>633.8571428571429</ele><time>2026-05-01T08:29:17.944Z</time></trkpt><trkpt lat="45.4146131" lon="7.6305866"><ele>634.7142857142858</ele><time>2026-05-01T08:29:19.943Z</time></trkpt><trkpt lat="45.4146723" lon="7.6305189"><ele>635.5714285714287</ele><time>2026-05-01T08:29:21.95Z</time></trkpt><trkpt lat="45.4147384" lon="7.6304947"><ele>636.4285714285714</ele><time>2026-05-01T08:29:23.947Z</time></trkpt><trkpt lat="45.4147994" lon="7.6305174"><ele>637.2857142857143</ele><time>2026-05-01T08:29:25.953Z</time></trkpt><trkpt lat="45.4148659" lon="7.6306011"><ele>638.1428571428572</ele><time>2026-05-01T08:29:27.948Z</time></trkpt><trkpt lat="45.4149044" lon="7.6306778"><ele>639.0</ele><time>2026-05-01T08:29:29.947Z</time></trkpt><trkpt lat="45.4149646" lon="7.6307095"><ele>642.8</ele><time>2026-05-01T08:29:31.95Z</time></trkpt><trkpt lat="45.4150412" lon="7.6307172"><ele>646.5999999999999</ele><time>2026-05-01T08:29:33.951Z</time></trkpt><trkpt lat="45.4151052" lon="7.630752"><ele>650.4</ele><time>2026-05-01T08:29:35.95Z</time></trkpt><trkpt lat="45.415175" lon="7.6309046"><ele>654.1999999999999</ele><time>2026-05-01T08:29:38.946Z</time></trkpt><trkpt lat="45.4152076" lon="7.6310148"><ele>658.0</ele><time>2026-05-01T08:29:40.946Z</time></trkpt><trkpt lat="45.4152624" lon="7.6311529"><ele>658.0</ele><time>2026-05-01T08:29:42.949Z</time></trkpt><trkpt lat="45.4153405" lon="7.6312782"><ele>658.0</ele><time>2026-05-01T08:29:44.955Z</time></trkpt><trkpt lat="45.4154321" lon="7.6314032"><ele>658.0</ele><time>2026-05-01T08:29:46.947Z</time></trkpt><trkpt lat="45.4154883" lon="7.6314932"><ele>658.0</ele><time>2026-05-01T08:29:47.946Z</time></trkpt><trkpt lat="45.415542" lon="7.6315632"><ele>658.0</ele><time>2026-05-01T08:29:48.949Z</time></trkpt><trkpt lat="45.4155831" lon="7.6316318"><ele>661.0</ele><time>2026-05-01T08:29:49.946Z</time></trkpt><trkpt lat="45.4156365" lon="7.6317872"><ele>664.0</ele><time>2026-05-01T08:29:51.951Z</time></trkpt><trkpt lat="45.4156874" lon="7.6319148"><ele>667.0</ele><time>2026-05-01T08:29:53.949Z</time></trkpt><trkpt lat="45.415728" lon="7.6319965"><ele>670.0</ele><time>2026-05-01T08:29:55.95Z</time></trkpt><trkpt lat="45.4157974" lon="7.6320584"><ele>673.0</ele><time>2026-05-01T08:29:58.95Z</time></trkpt><trkpt lat="45.415862" lon="7.6320499"><ele>676.0</ele><time>2026-05-01T08:30:00.952Z</time></trkpt><trkpt lat="45.4159549" lon="7.6320113"><ele>676.0</ele><time>2026-05-01T08:30:02.947Z</time></trkpt><trkpt lat="45.4160489" lon="7.6319786"><ele>676.0</ele><time>2026-05-01T08:30:04.947Z</time></trkpt><trkpt lat="45.4161455" lon="7.631961"><ele>676.0</ele><time>2026-05-01T08:30:06.947Z</time></trkpt><trkpt lat="45.4162233" lon="7.6319641"><ele>676.0</ele><time>2026-05-01T08:30:07.95Z</time></trkpt><trkpt lat="45.4162918" lon="7.6319631"><ele>676.0</ele><time>2026-05-01T08:30:08.951Z</time></trkpt><trkpt lat="45.4164006" lon="7.6319242"><ele>681.0</ele><time>2026-05-01T08:30:10.944Z</time></trkpt><trkpt lat="45.4164868" lon="7.6318674"><ele>686.0</ele><time>2026-05-01T08:30:12.946Z</time></trkpt><trkpt lat="45.4165772" lon="7.6317959"><ele>691.0</ele><time>2026-05-01T08:30:14.944Z</time></trkpt><trkpt lat="45.4166521" lon="7.6317359"><ele>696.0</ele><time>2026-05-01T08:30:17.949Z</time></trkpt><trkpt lat="45.4167054" lon="7.6316715"><ele>701.0</ele><time>2026-05-01T08:30:19.948Z</time></trkpt><trkpt lat="45.4167651" lon="7.6316058"><ele>706.0</ele><time>2026-05-01T08:30:21.948Z</time></trkpt><trkpt lat="45.4168563" lon="7.6315094"><ele>706.0</ele><time>2026-05-01T08:30:23.952Z</time></trkpt><trkpt lat="45.4169129" lon="7.6314502"><ele>706.0</ele><time>2026-05-01T08:30:24.944Z</time></trkpt><trkpt lat="45.4169671" lon="7.631398"><ele>706.0</ele><time>2026-05-01T08:30:25.948Z</time></trkpt><trkpt lat="45.4170655" lon="7.6313175"><ele>706.0</ele><time>2026-05-01T08:30:27.948Z</time></trkpt><trkpt lat="45.4171269" lon="7.6312928"><ele>706.0</ele><time>2026-05-01T08:30:28.949Z</time></trkpt><trkpt lat="45.4172418" lon="7.6312556"><ele>706.0</ele><time>2026-05-01T08:30:30.95Z</time></trkpt><trkpt lat="45.4173399" lon="7.6313039"><ele>706.4285714285714</ele><time>2026-05-01T08:30:32.945Z</time></trkpt><trkpt lat="45.4174073" lon="7.6313631"><ele>706.8571428571429</ele><time>2026-05-01T08:30:34.949Z</time></trkpt><trkpt lat="45.4174541" lon="7.6314271"><ele>707.2857142857143</ele><time>2026-05-01T08:30:36.948Z</time></trkpt><trkpt lat="45.4175344" lon="7.6313799"><ele>707.7142857142858</ele><time>2026-05-01T08:30:41.949Z</time></trkpt><trkpt lat="45.4175611" lon="7.6312932"><ele>708.1428571428571</ele><time>2026-05-01T08:30:43.952Z</time></trkpt><trkpt lat="45.4175753" lon="7.6312043"><ele>708.5714285714287</ele><time>2026-05-01T08:30:45.949Z</time></trkpt><trkpt lat="45.4176269" lon="7.631113"><ele>709.0</ele><time>2026-05-01T08:30:47.947Z</time></trkpt><trkpt lat="45.4176791" lon="7.6310091"><ele>712.0</ele><time>2026-05-01T08:30:49.95Z</time></trkpt><trkpt lat="45.4177294" lon="7.6309359"><ele>715.0</ele><time>2026-05-01T08:30:51.948Z</time></trkpt><trkpt lat="45.4178291" lon="7.6308929"><ele>718.0</ele><time>2026-05-01T08:30:53.941Z</time></trkpt><trkpt lat="45.4178981" lon="7.6308685"><ele>721.0</ele><time>2026-05-01T08:30:54.953Z</time></trkpt><trkpt lat="45.4179707" lon="7.6308401"><ele>724.0</ele><time>2026-05-01T08:30:55.952Z</time></trkpt><trkpt lat="45.418046" lon="7.6308096"><ele>727.0</ele><time>2026-05-01T08:30:56.947Z</time></trkpt><trkpt lat="45.4181289" lon="7.6307558"><ele>727.6666666666667</ele><time>2026-05-01T08:30:57.943Z</time></trkpt><trkpt lat="45.418207" lon="7.6307071"><ele>728.3333333333334</ele><time>2026-05-01T08:30:58.952Z</time></trkpt><trkpt lat="45.4182923" lon="7.6306673"><ele>729.0</ele><time>2026-05-01T08:30:59.949Z</time></trkpt><trkpt lat="45.4183575" lon="7.6306313"><ele>729.6666666666666</ele><time>2026-05-01T08:31:00.955Z</time></trkpt><trkpt lat="45.4184397" lon="7.6305914"><ele>730.3333333333333</ele><time>2026-05-01T08:31:01.948Z</time></trkpt><trkpt lat="45.4185071" lon="7.6305593"><ele>731.0</ele><time>2026-05-01T08:31:02.947Z</time></trkpt><trkpt lat="45.4185799" lon="7.6305522"><ele>731.0</ele><time>2026-05-01T08:31:03.952Z</time></trkpt><trkpt lat="45.418643" lon="7.6305494"><ele>731.0</ele><time>2026-05-01T08:31:04.953Z</time></trkpt><trkpt lat="45.4187024" lon="7.6306008"><ele>731.0</ele><time>2026-05-01T08:31:05.954Z</time></trkpt><trkpt lat="45.4188133" lon="7.6306682"><ele>731.0</ele><time>2026-05-01T08:31:07.952Z</time></trkpt><trkpt lat="45.4188653" lon="7.6307241"><ele>731.0</ele><time>2026-05-01T08:31:08.951Z</time></trkpt><trkpt lat="45.4189681" lon="7.6308033"><ele>731.0</ele><time>2026-05-01T08:31:10.949Z</time></trkpt><trkpt lat="45.4190301" lon="7.6308411"><ele>734.0</ele><time>2026-05-01T08:31:11.954Z</time></trkpt><trkpt lat="45.4191406" lon="7.630879"><ele>737.0</ele><time>2026-05-01T08:31:13.95Z</time></trkpt><trkpt lat="45.4192158" lon="7.6309151"><ele>740.0</ele><time>2026-05-01T08:31:15.949Z</time></trkpt><trkpt lat="45.4192894" lon="7.6309651"><ele>743.0</ele><time>2026-05-01T08:31:18.952Z</time></trkpt><trkpt lat="45.4193539" lon="7.6309592"><ele>746.0</ele><time>2026-05-01T08:31:20.953Z</time></trkpt><trkpt lat="45.4194701" lon="7.630918"><ele>746.0</ele><time>2026-05-01T08:31:23.956Z</time></trkpt><trkpt lat="45.4195222" lon="7.6308598"><ele>746.0</ele><time>2026-05-01T08:31:27.951Z</time></trkpt><trkpt lat="45.4195144" lon="7.6307695"><ele>746.0</ele><time>2026-05-01T08:31:32.948Z</time></trkpt><trkpt lat="45.4194435" lon="7.6307669"><ele>746.0</ele><time>2026-05-01T08:31:47.946Z</time></trkpt><trkpt lat="45.4193832" lon="7.6308401"><ele>746.0</ele><time>2026-05-01T08:31:49.947Z</time></trkpt><trkpt lat="45.4193601" lon="7.6309976"><ele>746.0</ele><time>2026-05-01T08:31:51.948Z</time></trkpt><trkpt lat="45.4193718" lon="7.6311138"><ele>746.5999999999999</ele><time>2026-05-01T08:31:52.949Z</time></trkpt><trkpt lat="45.4193975" lon="7.6312244"><ele>747.2</ele><time>2026-05-01T08:31:53.95Z</time></trkpt><trkpt lat="45.4194412" lon="7.6313619"><ele>747.8</ele><time>2026-05-01T08:31:54.959Z</time></trkpt><trkpt lat="45.4194735" lon="7.6314942"><ele>748.4000000000001</ele><time>2026-05-01T08:31:55.951Z</time></trkpt><trkpt lat="45.419506" lon="7.631614"><ele>749.0</ele><time>2026-05-01T08:31:56.95Z</time></trkpt><trkpt lat="45.4195435" lon="7.6317465"><ele>749.0</ele><time>2026-05-01T08:31:57.948Z</time></trkpt><trkpt lat="45.4195848" lon="7.6318924"><ele>749.0</ele><time>2026-05-01T08:31:58.949Z</time></trkpt><trkpt lat="45.4195926" lon="7.6320763"><ele>749.0</ele><time>2026-05-01T08:31:59.947Z</time></trkpt><trkpt lat="45.4196029" lon="7.6322045"><ele>749.0</ele><time>2026-05-01T08:32:00.952Z</time></trkpt><trkpt lat="45.4196074" lon="7.6323302"><ele>749.0</ele><time>2026-05-01T08:32:01.948Z</time></trkpt><trkpt lat="45.4195941" lon="7.6324586"><ele>749.3333333333333</ele><time>2026-05-01T08:32:02.949Z</time></trkpt><trkpt lat="45.419582" lon="7.6325846"><ele>749.6666666666666</ele><time>2026-05-01T08:32:03.949Z</time></trkpt><trkpt lat="45.4195617" lon="7.6327107"><ele>750.0</ele><time>2026-05-01T08:32:04.947Z</time></trkpt><trkpt lat="45.4195375" lon="7.6328261"><ele>750.3333333333334</ele><time>2026-05-01T08:32:05.947Z</time></trkpt><trkpt lat="45.4195121" lon="7.6329384"><ele>750.6666666666667</ele><time>2026-05-01T08:32:06.951Z</time></trkpt><trkpt lat="45.4194987" lon="7.6330546"><ele>751.0</ele><time>2026-05-01T08:32:07.947Z</time></trkpt><trkpt lat="45.4194855" lon="7.6331727"><ele>753.3333333333334</ele><time>2026-05-01T08:32:08.949Z</time></trkpt><trkpt lat="45.419464" lon="7.6332943"><ele>755.6666666666667</ele><time>2026-05-01T08:32:09.951Z</time></trkpt><trkpt lat="45.419449" lon="7.6334044"><ele>758.0</ele><time>2026-05-01T08:32:10.957Z</time></trkpt><trkpt lat="45.4194209" lon="7.6335052"><ele>760.3333333333334</ele><time>2026-05-01T08:32:11.948Z</time></trkpt><trkpt lat="45.419395" lon="7.633598"><ele>762.6666666666666</ele><time>2026-05-01T08:32:12.943Z</time></trkpt><trkpt lat="45.4193664" lon="7.6337641"><ele>765.0</ele><time>2026-05-01T08:32:14.945Z</time></trkpt><trkpt lat="45.4193547" lon="7.6338752"><ele>767.0</ele><time>2026-05-01T08:32:17.95Z</time></trkpt><trkpt lat="45.4194456" lon="7.6338323"><ele>769.0</ele><time>2026-05-01T08:32:20.957Z</time></trkpt><trkpt lat="45.4195079" lon="7.633809"><ele>771.0</ele><time>2026-05-01T08:32:21.946Z</time></trkpt><trkpt lat="45.4195858" lon="7.6337851"><ele>773.0</ele><time>2026-05-01T08:32:22.94Z</time></trkpt><trkpt lat="45.4196924" lon="7.6337575"><ele>775.0</ele><time>2026-05-01T08:32:23.953Z</time></trkpt><trkpt lat="45.4197854" lon="7.6337535"><ele>777.0</ele><time>2026-05-01T08:32:24.948Z</time></trkpt><trkpt lat="45.4198751" lon="7.6337668"><ele>785.0</ele><time>2026-05-01T08:32:25.95Z</time></trkpt><trkpt lat="45.4199431" lon="7.6337854"><ele>793.0</ele><time>2026-05-01T08:32:26.95Z</time></trkpt><trkpt lat="45.420043" lon="7.6338321"><ele>801.0</ele><time>2026-05-01T08:32:28.951Z</time></trkpt><trkpt lat="45.4201468" lon="7.6339321"><ele>809.0</ele><time>2026-05-01T08:32:30.952Z</time></trkpt><trkpt lat="45.4202776" lon="7.6340678"><ele>809.0</ele><time>2026-05-01T08:32:32.946Z</time></trkpt><trkpt lat="45.4203731" lon="7.6341911"><ele>809.0</ele><time>2026-05-01T08:32:33.953Z</time></trkpt><trkpt lat="45.4204529" lon="7.6343298"><ele>809.0</ele><time>2026-05-01T08:32:34.947Z</time></trkpt><trkpt lat="45.4205131" lon="7.6344662"><ele>809.0</ele><time>2026-05-01T08:32:36.006Z</time></trkpt><trkpt lat="45.4205561" lon="7.634594"><ele>811.5000000000001</ele><time>2026-05-01T08:32:37.006Z</time></trkpt><trkpt lat="45.4205832" lon="7.6347152"><ele>814.0</ele><time>2026-05-01T08:32:37.954Z</time></trkpt><trkpt lat="45.420626" lon="7.634825"><ele>816.5</ele><time>2026-05-01T08:32:38.943Z</time></trkpt><trkpt lat="45.4206589" lon="7.6349276"><ele>819.0</ele><time>2026-05-01T08:32:40.064Z</time></trkpt><trkpt lat="45.4206837" lon="7.635012"><ele>821.5000000000001</ele><time>2026-05-01T08:32:41.023Z</time></trkpt><trkpt lat="45.4207676" lon="7.6351267"><ele>824.0</ele><time>2026-05-01T08:32:42.949Z</time></trkpt><trkpt lat="45.4208649" lon="7.6351856"><ele>824.0</ele><time>2026-05-01T08:32:45.025Z</time></trkpt><trkpt lat="45.4210004" lon="7.6352666"><ele>824.0</ele><time>2026-05-01T08:32:47.945Z</time></trkpt><trkpt lat="45.421017" lon="7.6353649"><ele>824.0</ele><time>2026-05-01T08:32:49.949Z</time></trkpt><trkpt lat="45.4210475" lon="7.6354538"><ele>824.0</ele><time>2026-05-01T08:32:50.944Z</time></trkpt><trkpt lat="45.4210712" lon="7.6356179"><ele>824.0</ele><time>2026-05-01T08:32:52.942Z</time></trkpt><trkpt lat="45.421089" lon="7.6357405"><ele>828.0000000000001</ele><time>2026-05-01T08:32:54.943Z</time></trkpt><trkpt lat="45.4210781" lon="7.6358384"><ele>832.0</ele><time>2026-05-01T08:32:57.941Z</time></trkpt><trkpt lat="45.4210765" lon="7.6359348"><ele>836.0</ele><time>2026-05-01T08:33:04.955Z</time></trkpt><trkpt lat="45.4209865" lon="7.6360116"><ele>840.0</ele><time>2026-05-01T08:33:07.949Z</time></trkpt><trkpt lat="45.420898" lon="7.6360332"><ele>844.0000000000001</ele><time>2026-05-01T08:33:10.956Z</time></trkpt><trkpt lat="45.4207932" lon="7.6360077"><ele>848.0</ele><time>2026-05-01T08:33:12.945Z</time></trkpt><trkpt lat="45.4207023" lon="7.6359937"><ele>848.0000000000001</ele><time>2026-05-01T08:33:14.954Z</time></trkpt><trkpt lat="45.4206259" lon="7.636023"><ele>848.0</ele><time>2026-05-01T08:33:17.946Z</time></trkpt><trkpt lat="45.4206101" lon="7.6361537"><ele>848.0</ele><time>2026-05-01T08:33:21.028Z</time></trkpt><trkpt lat="45.420643" lon="7.6362833"><ele>848.0</ele><time>2026-05-01T08:33:22.962Z</time></trkpt><trkpt lat="45.4206687" lon="7.6364051"><ele>848.0000000000001</ele><time>2026-05-01T08:33:24.949Z</time></trkpt><trkpt lat="45.4206944" lon="7.6365221"><ele>848.0</ele><time>2026-05-01T08:33:26.953Z</time></trkpt><trkpt lat="45.4207066" lon="7.6366615"><ele>852.2</ele><time>2026-05-01T08:33:29.025Z</time></trkpt><trkpt lat="45.420723" lon="7.6368034"><ele>856.4</ele><time>2026-05-01T08:33:31.032Z</time></trkpt><trkpt lat="45.4207402" lon="7.6369285"><ele>860.6000000000001</ele><time>2026-05-01T08:33:32.942Z</time></trkpt><trkpt lat="45.4207663" lon="7.6370968"><ele>864.8000000000001</ele><time>2026-05-01T08:33:34.946Z</time></trkpt><trkpt lat="45.4208008" lon="7.6372168"><ele>869.0</ele><time>2026-05-01T08:33:37.008Z</time></trkpt><trkpt lat="45.4208262" lon="7.6373126"><ele>871.1428571428572</ele><time>2026-05-01T08:33:38.948Z</time></trkpt><trkpt lat="45.4208583" lon="7.6373968"><ele>873.2857142857142</ele><time>2026-05-01T08:33:40.944Z</time></trkpt><trkpt lat="45.4208866" lon="7.63751"><ele>875.4285714285714</ele><time>2026-05-01T08:33:43.946Z</time></trkpt><trkpt lat="45.4209408" lon="7.6375579"><ele>877.5714285714287</ele><time>2026-05-01T08:33:53.942Z</time></trkpt><trkpt lat="45.4209857" lon="7.6376246"><ele>879.7142857142858</ele><time>2026-05-01T08:34:13.948Z</time></trkpt><trkpt lat="45.4210742" lon="7.6376447"><ele>881.8571428571429</ele><time>2026-05-01T08:34:25.95Z</time></trkpt><trkpt lat="45.4211442" lon="7.6376708"><ele>884.0</ele><time>2026-05-01T08:34:55.954Z</time></trkpt><trkpt lat="45.4211029" lon="7.6377979"><ele>886.8333333333334</ele><time>2026-05-01T08:34:59.025Z</time></trkpt><trkpt lat="45.4211007" lon="7.6379926"><ele>889.6666666666667</ele><time>2026-05-01T08:35:00.941Z</time></trkpt><trkpt lat="45.4210943" lon="7.6380845"><ele>892.5</ele><time>2026-05-01T08:35:01.943Z</time></trkpt><trkpt lat="45.4210825" lon="7.6381737"><ele>895.3333333333333</ele><time>2026-05-01T08:35:02.942Z</time></trkpt><trkpt lat="45.4210691" lon="7.6382636"><ele>898.1666666666666</ele><time>2026-05-01T08:35:04.939Z</time></trkpt><trkpt lat="45.421117" lon="7.6383294"><ele>901.0</ele><time>2026-05-01T08:35:08.036Z</time></trkpt><trkpt lat="45.4211545" lon="7.638403"><ele>900.9999999999999</ele><time>2026-05-01T08:35:10.937Z</time></trkpt><trkpt lat="45.4212232" lon="7.6384705"><ele>901.0</ele><time>2026-05-01T08:35:14.935Z</time></trkpt><trkpt lat="45.4212266" lon="7.6385605"><ele>901.0</ele><time>2026-05-01T08:35:17.948Z</time></trkpt><trkpt lat="45.4212078" lon="7.6386765"><ele>901.0</ele><time>2026-05-01T08:35:19.947Z</time></trkpt><trkpt lat="45.4211606" lon="7.6387503"><ele>900.9999999999999</ele><time>2026-05-01T08:35:22.942Z</time></trkpt><trkpt lat="45.4211167" lon="7.6388455"><ele>901.0</ele><time>2026-05-01T08:35:25.939Z</time></trkpt><trkpt lat="45.4211016" lon="7.6389526"><ele>903.8333333333333</ele><time>2026-05-01T08:35:27.941Z</time></trkpt><trkpt lat="45.4210973" lon="7.6390744"><ele>906.6666666666666</ele><time>2026-05-01T08:35:29.943Z</time></trkpt><trkpt lat="45.421103" lon="7.6391776"><ele>909.5</ele><time>2026-05-01T08:35:31.939Z</time></trkpt><trkpt lat="45.4210905" lon="7.6392686"><ele>912.3333333333333</ele><time>2026-05-01T08:35:33.94Z</time></trkpt><trkpt lat="45.4210796" lon="7.6393828"><ele>915.1666666666666</ele><time>2026-05-01T08:35:36.941Z</time></trkpt><trkpt lat="45.4210783" lon="7.6394741"><ele>918.0</ele><time>2026-05-01T08:35:41.94Z</time></trkpt><trkpt lat="45.4211307" lon="7.6395883"><ele>919.8571428571429</ele><time>2026-05-01T08:35:51.934Z</time></trkpt><trkpt lat="45.4212041" lon="7.6396139"><ele>921.7142857142857</ele><time>2026-05-01T08:36:43.937Z</time></trkpt><trkpt lat="45.4212702" lon="7.6396675"><ele>923.5714285714286</ele><time>2026-05-01T08:37:02.944Z</time></trkpt><trkpt lat="45.4213402" lon="7.6396701"><ele>925.4285714285714</ele><time>2026-05-01T08:37:08.946Z</time></trkpt><trkpt lat="45.4213685" lon="7.6395729"><ele>927.2857142857142</ele><time>2026-05-01T08:38:06.014Z</time></trkpt><trkpt lat="45.4214362" lon="7.6395344"><ele>929.1428571428571</ele><time>2026-05-01T08:38:10.94Z</time></trkpt><trkpt lat="45.4214716" lon="7.639459"><ele>931.0</ele><time>2026-05-01T08:38:15.938Z</time></trkpt><trkpt lat="45.421455" lon="7.639371"><ele>930.9999999999999</ele><time>2026-05-01T08:38:20.943Z</time></trkpt><trkpt lat="45.4214601" lon="7.6392679"><ele>931.0</ele><time>2026-05-01T08:38:24.943Z</time></trkpt><trkpt lat="45.4214934" lon="7.63918"><ele>931.0</ele><time>2026-05-01T08:38:29.944Z</time></trkpt><trkpt lat="45.4215544" lon="7.6390082"><ele>931.0</ele><time>2026-05-01T08:38:49.937Z</time></trkpt><trkpt lat="45.4216087" lon="7.6389532"><ele>930.9999999999999</ele><time>2026-05-01T08:38:57.942Z</time></trkpt><trkpt lat="45.4216047" lon="7.6388396"><ele>931.0</ele><time>2026-05-01T08:39:05.944Z</time></trkpt><trkpt lat="45.4215845" lon="7.6387361"><ele>931.0</ele><time>2026-05-01T08:39:14.941Z</time></trkpt><trkpt lat="45.4215461" lon="7.638661"><ele>931.0</ele><time>2026-05-01T08:39:46.942Z</time></trkpt><trkpt lat="45.4215334" lon="7.6385633"><ele>931.0</ele><time>2026-05-01T08:39:58.941Z</time></trkpt><trkpt lat="45.4215359" lon="7.6384323"><ele>931.0</ele><time>2026-05-01T08:40:36.934Z</time></trkpt><trkpt lat="45.4214942" lon="7.6383575"><ele>931.0</ele><time>2026-05-01T08:41:05.94Z</time></trkpt><trkpt lat="45.4214656" lon="7.6382766"><ele>931.0</ele><time>2026-05-01T08:41:25.944Z</time></trkpt><trkpt lat="45.4214747" lon="7.6381725"><ele>931.0</ele><time>2026-05-01T08:41:30.94Z</time></trkpt><trkpt lat="45.4214946" lon="7.6380836"><ele>928.0</ele><time>2026-05-01T08:41:34.935Z</time></trkpt><trkpt lat="45.4215436" lon="7.6380109"><ele>925.0</ele><time>2026-05-01T08:41:40.94Z</time></trkpt><trkpt lat="45.4216074" lon="7.6379679"><ele>922.0</ele><time>2026-05-01T08:41:46.945Z</time></trkpt><trkpt lat="45.4215384" lon="7.6380083"><ele>919.0</ele><time>2026-05-01T08:42:01.939Z</time></trkpt><trkpt lat="45.421521" lon="7.6381031"><ele>916.0</ele><time>2026-05-01T08:42:03.947Z</time></trkpt><trkpt lat="45.4214993" lon="7.6381999"><ele>913.0</ele><time>2026-05-01T08:42:05.948Z</time></trkpt><trkpt lat="45.4214762" lon="7.6383015"><ele>910.0</ele><time>2026-05-01T08:42:08.944Z</time></trkpt><trkpt lat="45.4215388" lon="7.6383491"><ele>909.9999999999999</ele><time>2026-05-01T08:42:23.956Z</time></trkpt><trkpt lat="45.4215868" lon="7.638417"><ele>910.0</ele><time>2026-05-01T08:42:31.031Z</time></trkpt><trkpt lat="45.4216283" lon="7.6384918"><ele>910.0</ele><time>2026-05-01T08:42:33.955Z</time></trkpt><trkpt lat="45.4216182" lon="7.6385833"><ele>910.0</ele><time>2026-05-01T08:42:37.952Z</time></trkpt><trkpt lat="45.421595" lon="7.6386925"><ele>909.9999999999999</ele><time>2026-05-01T08:42:40.961Z</time></trkpt><trkpt lat="45.4215494" lon="7.6388"><ele>910.0</ele><time>2026-05-01T08:42:42.947Z</time></trkpt><trkpt lat="45.4215205" lon="7.6389853"><ele>914.2</ele><time>2026-05-01T08:42:44.952Z</time></trkpt><trkpt lat="45.4215361" lon="7.6390992"><ele>918.4</ele><time>2026-05-01T08:42:45.965Z</time></trkpt><trkpt lat="45.4215288" lon="7.6392622"><ele>922.5999999999999</ele><time>2026-05-01T08:42:48.026Z</time></trkpt><trkpt lat="45.4214879" lon="7.6394109"><ele>926.8</ele><time>2026-05-01T08:42:49.95Z</time></trkpt><trkpt lat="45.4214331" lon="7.6395132"><ele>931.0</ele><time>2026-05-01T08:42:51.954Z</time></trkpt><trkpt lat="45.4213831" lon="7.6396022"><ele>932.4999999999999</ele><time>2026-05-01T08:42:53.95Z</time></trkpt><trkpt lat="45.4213478" lon="7.6396786"><ele>934.0</ele><time>2026-05-01T08:42:56.952Z</time></trkpt><trkpt lat="45.4213534" lon="7.6398062"><ele>935.5</ele><time>2026-05-01T08:43:08.956Z</time></trkpt><trkpt lat="45.4213116" lon="7.6398871"><ele>937.0</ele><time>2026-05-01T08:43:11.959Z</time></trkpt><trkpt lat="45.421344" lon="7.6399865"><ele>938.4999999999999</ele><time>2026-05-01T08:43:15.957Z</time></trkpt><trkpt lat="45.4213728" lon="7.6401021"><ele>940.0</ele><time>2026-05-01T08:43:18.953Z</time></trkpt><trkpt lat="45.4213891" lon="7.6402232"><ele>941.8571428571428</ele><time>2026-05-01T08:43:21.961Z</time></trkpt><trkpt lat="45.4213833" lon="7.6403535"><ele>943.7142857142856</ele><time>2026-05-01T08:43:24.958Z</time></trkpt><trkpt lat="45.4213995" lon="7.6404418"><ele>945.5714285714286</ele><time>2026-05-01T08:43:27.957Z</time></trkpt><trkpt lat="45.4213881" lon="7.6405336"><ele>947.4285714285713</ele><time>2026-05-01T08:43:32.961Z</time></trkpt><trkpt lat="45.4213198" lon="7.6405483"><ele>949.2857142857142</ele><time>2026-05-01T08:43:38.959Z</time></trkpt><trkpt lat="45.4212453" lon="7.6405603"><ele>951.1428571428571</ele><time>2026-05-01T08:43:42.96Z</time></trkpt><trkpt lat="45.4211686" lon="7.6406056"><ele>953.0</ele><time>2026-05-01T08:43:45.959Z</time></trkpt><trkpt lat="45.4210882" lon="7.6406661"><ele>953.0</ele><time>2026-05-01T08:43:48.977Z</time></trkpt><trkpt lat="45.4210171" lon="7.6407221"><ele>953.0</ele><time>2026-05-01T08:43:51.962Z</time></trkpt><trkpt lat="45.4209511" lon="7.6407515"><ele>953.0</ele><time>2026-05-01T08:43:54.959Z</time></trkpt><trkpt lat="45.4208916" lon="7.6407823"><ele>953.0</ele><time>2026-05-01T08:43:57.969Z</time></trkpt><trkpt lat="45.4208183" lon="7.6408089"><ele>953.0</ele><time>2026-05-01T08:44:00.957Z</time></trkpt><trkpt lat="45.4207391" lon="7.6408025"><ele>953.0</ele><time>2026-05-01T08:44:03.961Z</time></trkpt><trkpt lat="45.4206634" lon="7.6407991"><ele>953.0</ele><time>2026-05-01T08:44:06.955Z</time></trkpt><trkpt lat="45.420593" lon="7.6407932"><ele>953.0000000000001</ele><time>2026-05-01T08:44:09.959Z</time></trkpt><trkpt lat="45.4205254" lon="7.6407806"><ele>953.0</ele><time>2026-05-01T08:44:12.963Z</time></trkpt><trkpt lat="45.42045" lon="7.6407744"><ele>953.0</ele><time>2026-05-01T08:44:15.958Z</time></trkpt><trkpt lat="45.42038" lon="7.6407937"><ele>953.0</ele><time>2026-05-01T08:44:18.953Z</time></trkpt><trkpt lat="45.4202927" lon="7.6408248"><ele>953.0000000000001</ele><time>2026-05-01T08:44:21.957Z</time></trkpt><trkpt lat="45.4202132" lon="7.6408365"><ele>953.0</ele><time>2026-05-01T08:44:24.962Z</time></trkpt><trkpt lat="45.4201418" lon="7.640901"><ele>953.5000000000001</ele><time>2026-05-01T08:44:29.956Z</time></trkpt><trkpt lat="45.4200759" lon="7.6409708"><ele>954.0</ele><time>2026-05-01T08:44:32.96Z</time></trkpt><trkpt lat="45.420013" lon="7.6410272"><ele>954.5</ele><time>2026-05-01T08:44:34.961Z</time></trkpt><trkpt lat="45.419951" lon="7.6410957"><ele>955.0</ele><time>2026-05-01T08:44:36.96Z</time></trkpt><trkpt lat="45.4198802" lon="7.6411609"><ele>955.5000000000001</ele><time>2026-05-01T08:44:38.956Z</time></trkpt><trkpt lat="45.4198006" lon="7.6412309"><ele>956.0</ele><time>2026-05-01T08:44:40.959Z</time></trkpt><trkpt lat="45.4197182" lon="7.6413022"><ele>959.1999999999999</ele><time>2026-05-01T08:44:42.96Z</time></trkpt><trkpt lat="45.4196247" lon="7.6413521"><ele>962.3999999999999</ele><time>2026-05-01T08:44:44.963Z</time></trkpt><trkpt lat="45.419535" lon="7.6413899"><ele>965.6</ele><time>2026-05-01T08:44:46.961Z</time></trkpt><trkpt lat="45.4194391" lon="7.6414339"><ele>968.8</ele><time>2026-05-01T08:44:48.957Z</time></trkpt><trkpt lat="45.4193448" lon="7.6414714"><ele>972.0</ele><time>2026-05-01T08:44:50.957Z</time></trkpt><trkpt lat="45.4192812" lon="7.6414987"><ele>972.0</ele><time>2026-05-01T08:44:52.954Z</time></trkpt><trkpt lat="45.4191952" lon="7.6415183"><ele>972.0</ele><time>2026-05-01T08:44:55.959Z</time></trkpt><trkpt lat="45.419131" lon="7.6415094"><ele>972.0</ele><time>2026-05-01T08:44:57.957Z</time></trkpt><trkpt lat="45.4190659" lon="7.6415165"><ele>972.0</ele><time>2026-05-01T08:44:59.959Z</time></trkpt><trkpt lat="45.4190408" lon="7.6414223"><ele>972.0</ele><time>2026-05-01T08:45:03.025Z</time></trkpt><trkpt lat="45.4190491" lon="7.6413029"><ele>972.0</ele><time>2026-05-01T08:45:05.958Z</time></trkpt><trkpt lat="45.4190381" lon="7.6412113"><ele>972.0</ele><time>2026-05-01T08:45:09.96Z</time></trkpt><trkpt lat="45.419039" lon="7.6411189"><ele>970.5</ele><time>2026-05-01T08:45:13.965Z</time></trkpt><trkpt lat="45.4189595" lon="7.641087"><ele>969.0</ele><time>2026-05-01T08:45:25.955Z</time></trkpt><trkpt lat="45.4188943" lon="7.6410729"><ele>967.5</ele><time>2026-05-01T08:45:29.028Z</time></trkpt><trkpt lat="45.4188401" lon="7.6411305"><ele>966.0</ele><time>2026-05-01T08:45:32.95Z</time></trkpt><trkpt lat="45.4187307" lon="7.6411284"><ele>964.5</ele><time>2026-05-01T08:46:04.946Z</time></trkpt><trkpt lat="45.4186978" lon="7.6410463"><ele>963.0</ele><time>2026-05-01T08:46:15.95Z</time></trkpt><trkpt lat="45.4186188" lon="7.6410042"><ele>962.1428571428573</ele><time>2026-05-01T08:52:19.942Z</time></trkpt><trkpt lat="45.4185619" lon="7.6410455"><ele>961.2857142857143</ele><time>2026-05-01T08:53:34.946Z</time></trkpt><trkpt lat="45.4186362" lon="7.6410519"><ele>960.4285714285716</ele><time>2026-05-01T09:11:57.939Z</time></trkpt><trkpt lat="45.4185793" lon="7.6410086"><ele>959.5714285714287</ele><time>2026-05-01T09:16:41.972Z</time></trkpt><trkpt lat="45.4186093" lon="7.6410939"><ele>958.7142857142858</ele><time>2026-05-01T09:19:55.946Z</time></trkpt><trkpt lat="45.4186197" lon="7.6411899"><ele>957.8571428571429</ele><time>2026-05-01T09:21:08.95Z</time></trkpt><trkpt lat="45.4185854" lon="7.6413043"><ele>957.0</ele><time>2026-05-01T09:21:47.944Z</time></trkpt><trkpt lat="45.4185673" lon="7.6414132"><ele>957.0</ele><time>2026-05-01T09:21:50.954Z</time></trkpt><trkpt lat="45.4185482" lon="7.6415281"><ele>957.0000000000001</ele><time>2026-05-01T09:21:53.94Z</time></trkpt><trkpt lat="45.4185289" lon="7.6416255"><ele>957.0</ele><time>2026-05-01T09:21:55.945Z</time></trkpt><trkpt lat="45.4185153" lon="7.641729"><ele>957.0</ele><time>2026-05-01T09:21:57.947Z</time></trkpt><trkpt lat="45.4185131" lon="7.6418243"><ele>957.0000000000001</ele><time>2026-05-01T09:21:59.948Z</time></trkpt><trkpt lat="45.4184982" lon="7.6419137"><ele>957.0</ele><time>2026-05-01T09:22:06.944Z</time></trkpt><trkpt lat="45.4185548" lon="7.6419648"><ele>957.0</ele><time>2026-05-01T09:23:00.949Z</time></trkpt><trkpt lat="45.4186177" lon="7.6419793"><ele>957.5</ele><time>2026-05-01T09:23:04.941Z</time></trkpt><trkpt lat="45.4186789" lon="7.6420548"><ele>958.0</ele><time>2026-05-01T09:23:07.953Z</time></trkpt><trkpt lat="45.418728" lon="7.6421479"><ele>958.5</ele><time>2026-05-01T09:23:10.939Z</time></trkpt><trkpt lat="45.4188012" lon="7.6421558"><ele>959.0</ele><time>2026-05-01T09:23:14.947Z</time></trkpt><trkpt lat="45.4188878" lon="7.642082"><ele>959.5</ele><time>2026-05-01T09:23:17.95Z</time></trkpt><trkpt lat="45.4189733" lon="7.642067"><ele>960.0</ele><time>2026-05-01T09:23:20.95Z</time></trkpt><trkpt lat="45.4190648" lon="7.6420512"><ele>960.0</ele><time>2026-05-01T09:23:23.949Z</time></trkpt><trkpt lat="45.4191369" lon="7.6420388"><ele>960.0</ele><time>2026-05-01T09:23:25.948Z</time></trkpt><trkpt lat="45.4192205" lon="7.6420239"><ele>960.0</ele><time>2026-05-01T09:23:27.941Z</time></trkpt><trkpt lat="45.4193274" lon="7.6420102"><ele>960.0</ele><time>2026-05-01T09:23:29.949Z</time></trkpt><trkpt lat="45.4194544" lon="7.6419675"><ele>960.0</ele><time>2026-05-01T09:23:31.94Z</time></trkpt><trkpt lat="45.4195223" lon="7.6419405"><ele>960.0</ele><time>2026-05-01T09:23:32.947Z</time></trkpt><trkpt lat="45.4195978" lon="7.6419093"><ele>960.0</ele><time>2026-05-01T09:23:33.952Z</time></trkpt><trkpt lat="45.4196746" lon="7.6418769"><ele>960.0</ele><time>2026-05-01T09:23:34.942Z</time></trkpt><trkpt lat="45.4197506" lon="7.6418661"><ele>960.0</ele><time>2026-05-01T09:23:35.943Z</time></trkpt><trkpt lat="45.4198373" lon="7.6418522"><ele>960.0</ele><time>2026-05-01T09:23:36.942Z</time></trkpt><trkpt lat="45.4199377" lon="7.6418397"><ele>960.0</ele><time>2026-05-01T09:23:37.95Z</time></trkpt><trkpt lat="45.4200356" lon="7.6418262"><ele>960.0</ele><time>2026-05-01T09:23:38.949Z</time></trkpt><trkpt lat="45.4201561" lon="7.6418153"><ele>960.0</ele><time>2026-05-01T09:23:39.949Z</time></trkpt><trkpt lat="45.4202783" lon="7.6418152"><ele>960.0</ele><time>2026-05-01T09:23:40.941Z</time></trkpt><trkpt lat="45.4203657" lon="7.6418302"><ele>960.0</ele><time>2026-05-01T09:23:41.946Z</time></trkpt><trkpt lat="45.4204553" lon="7.6418523"><ele>960.0</ele><time>2026-05-01T09:23:42.947Z</time></trkpt><trkpt lat="45.4205464" lon="7.6418851"><ele>958.6</ele><time>2026-05-01T09:23:43.948Z</time></trkpt><trkpt lat="45.4206371" lon="7.6419241"><ele>957.2</ele><time>2026-05-01T09:23:44.944Z</time></trkpt><trkpt lat="45.4207374" lon="7.6419703"><ele>955.8</ele><time>2026-05-01T09:23:45.948Z</time></trkpt><trkpt lat="45.4208329" lon="7.6420252"><ele>954.4</ele><time>2026-05-01T09:23:46.951Z</time></trkpt><trkpt lat="45.4209207" lon="7.6420713"><ele>953.0</ele><time>2026-05-01T09:23:47.944Z</time></trkpt><trkpt lat="45.4210085" lon="7.6421187"><ele>951.0000000000001</ele><time>2026-05-01T09:23:48.943Z</time></trkpt><trkpt lat="45.4210929" lon="7.6421641"><ele>949.0</ele><time>2026-05-01T09:23:49.948Z</time></trkpt><trkpt lat="45.421177" lon="7.6422063"><ele>947.0</ele><time>2026-05-01T09:23:50.945Z</time></trkpt><trkpt lat="45.4212451" lon="7.6422394"><ele>945.0</ele><time>2026-05-01T09:23:51.95Z</time></trkpt><trkpt lat="45.421306" lon="7.642269"><ele>943.0000000000001</ele><time>2026-05-01T09:23:52.945Z</time></trkpt><trkpt lat="45.4214122" lon="7.6423159"><ele>941.0</ele><time>2026-05-01T09:23:54.946Z</time></trkpt><trkpt lat="45.4214934" lon="7.6423331"><ele>941.0000000000001</ele><time>2026-05-01T09:23:56.947Z</time></trkpt><trkpt lat="45.4216117" lon="7.6423201"><ele>941.0</ele><time>2026-05-01T09:23:59.005Z</time></trkpt><trkpt lat="45.4216829" lon="7.6422959"><ele>941.0</ele><time>2026-05-01T09:23:59.944Z</time></trkpt><trkpt lat="45.42176" lon="7.6422777"><ele>941.0</ele><time>2026-05-01T09:24:00.943Z</time></trkpt><trkpt lat="45.4218413" lon="7.6422589"><ele>941.0000000000001</ele><time>2026-05-01T09:24:01.941Z</time></trkpt><trkpt lat="45.4219248" lon="7.6422204"><ele>941.0</ele><time>2026-05-01T09:24:02.945Z</time></trkpt><trkpt lat="45.4220119" lon="7.6421865"><ele>941.0000000000001</ele><time>2026-05-01T09:24:03.943Z</time></trkpt><trkpt lat="45.4220987" lon="7.6421463"><ele>941.0</ele><time>2026-05-01T09:24:04.945Z</time></trkpt><trkpt lat="45.4221753" lon="7.6420932"><ele>941.0</ele><time>2026-05-01T09:24:05.934Z</time></trkpt><trkpt lat="45.4222602" lon="7.6420238"><ele>941.0</ele><time>2026-05-01T09:24:06.95Z</time></trkpt><trkpt lat="45.4223268" lon="7.6419419"><ele>941.0000000000001</ele><time>2026-05-01T09:24:07.946Z</time></trkpt><trkpt lat="45.4223824" lon="7.6418613"><ele>941.0</ele><time>2026-05-01T09:24:09.028Z</time></trkpt><trkpt lat="45.4224467" lon="7.6417848"><ele>943.4</ele><time>2026-05-01T09:24:09.947Z</time></trkpt><trkpt lat="45.4225037" lon="7.6417139"><ele>945.8</ele><time>2026-05-01T09:24:10.947Z</time></trkpt><trkpt lat="45.4225567" lon="7.6416471"><ele>948.1999999999999</ele><time>2026-05-01T09:24:11.945Z</time></trkpt><trkpt lat="45.422653" lon="7.6415191"><ele>950.5999999999999</ele><time>2026-05-01T09:24:13.939Z</time></trkpt><trkpt lat="45.4227557" lon="7.6414011"><ele>953.0</ele><time>2026-05-01T09:24:16.007Z</time></trkpt><trkpt lat="45.4228357" lon="7.6413522"><ele>953.0000000000001</ele><time>2026-05-01T09:24:17.01Z</time></trkpt><trkpt lat="45.4229121" lon="7.6413125"><ele>953.0</ele><time>2026-05-01T09:24:18.01Z</time></trkpt><trkpt lat="45.4229886" lon="7.6412894"><ele>953.0</ele><time>2026-05-01T09:24:19.008Z</time></trkpt><trkpt lat="45.4230563" lon="7.64127"><ele>953.0</ele><time>2026-05-01T09:24:19.951Z</time></trkpt><trkpt lat="45.4231284" lon="7.6412759"><ele>953.0000000000001</ele><time>2026-05-01T09:24:20.949Z</time></trkpt><trkpt lat="45.4232638" lon="7.641306"><ele>953.0</ele><time>2026-05-01T09:24:23.024Z</time></trkpt><trkpt lat="45.4233266" lon="7.6413308"><ele>954.4285714285714</ele><time>2026-05-01T09:24:24.022Z</time></trkpt><trkpt lat="45.4233898" lon="7.6413656"><ele>955.8571428571429</ele><time>2026-05-01T09:24:24.942Z</time></trkpt><trkpt lat="45.4234539" lon="7.6413646"><ele>957.2857142857143</ele><time>2026-05-01T09:24:25.942Z</time></trkpt><trkpt lat="45.4235267" lon="7.6413416"><ele>958.7142857142858</ele><time>2026-05-01T09:24:26.945Z</time></trkpt><trkpt lat="45.4235992" lon="7.6413199"><ele>960.1428571428571</ele><time>2026-05-01T09:24:28.032Z</time></trkpt><trkpt lat="45.4236693" lon="7.6412946"><ele>961.5714285714287</ele><time>2026-05-01T09:24:29.023Z</time></trkpt><trkpt lat="45.4237412" lon="7.6412774"><ele>963.0000000000001</ele><time>2026-05-01T09:24:29.944Z</time></trkpt><trkpt lat="45.4238147" lon="7.6412767"><ele>963.0</ele><time>2026-05-01T09:24:30.94Z</time></trkpt><trkpt lat="45.4239122" lon="7.6413006"><ele>963.0</ele><time>2026-05-01T09:24:33.035Z</time></trkpt><trkpt lat="45.4238457" lon="7.6413682"><ele>963.0</ele><time>2026-05-01T09:24:37.018Z</time></trkpt><trkpt lat="45.4237761" lon="7.6413994"><ele>963.0</ele><time>2026-05-01T09:24:39.014Z</time></trkpt><trkpt lat="45.4237769" lon="7.6414943"><ele>963.0</ele><time>2026-05-01T09:24:40.957Z</time></trkpt><trkpt lat="45.4238532" lon="7.6415935"><ele>963.0</ele><time>2026-05-01T09:24:42.957Z</time></trkpt><trkpt lat="45.4239945" lon="7.6416007"><ele>965.7142857142858</ele><time>2026-05-01T09:24:44.955Z</time></trkpt><trkpt lat="45.4240777" lon="7.6416069"><ele>968.4285714285714</ele><time>2026-05-01T09:24:45.951Z</time></trkpt><trkpt lat="45.424141" lon="7.6416442"><ele>971.1428571428571</ele><time>2026-05-01T09:24:46.953Z</time></trkpt><trkpt lat="45.4241862" lon="7.6417114"><ele>973.8571428571429</ele><time>2026-05-01T09:24:47.953Z</time></trkpt><trkpt lat="45.4242274" lon="7.6417898"><ele>976.5714285714284</ele><time>2026-05-01T09:24:48.956Z</time></trkpt><trkpt lat="45.4242723" lon="7.6418836"><ele>979.2857142857142</ele><time>2026-05-01T09:24:49.955Z</time></trkpt><trkpt lat="45.4243122" lon="7.641967"><ele>982.0</ele><time>2026-05-01T09:24:50.954Z</time></trkpt><trkpt lat="45.4243537" lon="7.642041"><ele>982.0</ele><time>2026-05-01T09:24:51.948Z</time></trkpt><trkpt lat="45.4244499" lon="7.6421638"><ele>982.0</ele><time>2026-05-01T09:24:54.027Z</time></trkpt><trkpt lat="45.4245164" lon="7.6422211"><ele>982.0</ele><time>2026-05-01T09:24:54.948Z</time></trkpt><trkpt lat="45.4245805" lon="7.6422833"><ele>982.0</ele><time>2026-05-01T09:24:55.945Z</time></trkpt><trkpt lat="45.4246429" lon="7.6423311"><ele>982.0</ele><time>2026-05-01T09:24:57.057Z</time></trkpt><trkpt lat="45.4247876" lon="7.6423673"><ele>984.0</ele><time>2026-05-01T09:24:58.954Z</time></trkpt><trkpt lat="45.4248752" lon="7.6423648"><ele>986.0</ele><time>2026-05-01T09:24:59.98Z</time></trkpt><trkpt lat="45.4249733" lon="7.6423422"><ele>988.0</ele><time>2026-05-01T09:25:00.95Z</time></trkpt><trkpt lat="45.42508" lon="7.6423142"><ele>990.0</ele><time>2026-05-01T09:25:02.019Z</time></trkpt><trkpt lat="45.4251864" lon="7.642286"><ele>992.0</ele><time>2026-05-01T09:25:03.018Z</time></trkpt><trkpt lat="45.42528" lon="7.6422714"><ele>992.0</ele><time>2026-05-01T09:25:04.026Z</time></trkpt><trkpt lat="45.4253772" lon="7.6422806"><ele>992.0</ele><time>2026-05-01T09:25:04.945Z</time></trkpt><trkpt lat="45.4254714" lon="7.6423"><ele>992.0</ele><time>2026-05-01T09:25:05.952Z</time></trkpt><trkpt lat="45.42556" lon="7.6423583"><ele>992.0</ele><time>2026-05-01T09:25:07.059Z</time></trkpt><trkpt lat="45.425644" lon="7.6424352"><ele>992.0</ele><time>2026-05-01T09:25:08.014Z</time></trkpt><trkpt lat="45.4257183" lon="7.6425181"><ele>992.6</ele><time>2026-05-01T09:25:09.023Z</time></trkpt><trkpt lat="45.4257939" lon="7.6426104"><ele>993.2</ele><time>2026-05-01T09:25:09.948Z</time></trkpt><trkpt lat="45.4258684" lon="7.6426835"><ele>993.8</ele><time>2026-05-01T09:25:10.948Z</time></trkpt><trkpt lat="45.4259477" lon="7.6427585"><ele>994.4</ele><time>2026-05-01T09:25:11.981Z</time></trkpt><trkpt lat="45.4260371" lon="7.6428243"><ele>995.0</ele><time>2026-05-01T09:25:13.021Z</time></trkpt><trkpt lat="45.4261313" lon="7.6428866"><ele>995.0</ele><time>2026-05-01T09:25:14.019Z</time></trkpt><trkpt lat="45.4262232" lon="7.6429405"><ele>995.0</ele><time>2026-05-01T09:25:14.954Z</time></trkpt><trkpt lat="45.426304" lon="7.6429917"><ele>995.0</ele><time>2026-05-01T09:25:15.958Z</time></trkpt><trkpt lat="45.4263939" lon="7.6430268"><ele>995.0</ele><time>2026-05-01T09:25:17.003Z</time></trkpt><trkpt lat="45.4264806" lon="7.6430398"><ele>995.0</ele><time>2026-05-01T09:25:18.034Z</time></trkpt><trkpt lat="45.4265827" lon="7.6430348"><ele>998.0000000000001</ele><time>2026-05-01T09:25:19.027Z</time></trkpt><trkpt lat="45.4266864" lon="7.6430191"><ele>1001.0</ele><time>2026-05-01T09:25:19.954Z</time></trkpt><trkpt lat="45.426771" lon="7.6430126"><ele>1004.0</ele><time>2026-05-01T09:25:20.953Z</time></trkpt><trkpt lat="45.4268446" lon="7.6430176"><ele>1007.0</ele><time>2026-05-01T09:25:21.95Z</time></trkpt><trkpt lat="45.4269175" lon="7.6430928"><ele>1010.0000000000001</ele><time>2026-05-01T09:25:23.96Z</time></trkpt><trkpt lat="45.4269063" lon="7.6431904"><ele>1013.0</ele><time>2026-05-01T09:25:25.976Z</time></trkpt><trkpt lat="45.4268576" lon="7.6433129"><ele>1013.0000000000001</ele><time>2026-05-01T09:25:27.949Z</time></trkpt><trkpt lat="45.4268455" lon="7.6434644"><ele>1013.0</ele><time>2026-05-01T09:25:29.955Z</time></trkpt><trkpt lat="45.4268562" lon="7.6435573"><ele>1013.0</ele><time>2026-05-01T09:25:30.948Z</time></trkpt><trkpt lat="45.4268904" lon="7.6436511"><ele>1013.0</ele><time>2026-05-01T09:25:31.956Z</time></trkpt><trkpt lat="45.4269428" lon="7.6437258"><ele>1013.0000000000001</ele><time>2026-05-01T09:25:32.95Z</time></trkpt><trkpt lat="45.4270383" lon="7.6438042"><ele>1013.0</ele><time>2026-05-01T09:25:34.958Z</time></trkpt><trkpt lat="45.4271093" lon="7.643795"><ele>1016.4</ele><time>2026-05-01T09:25:35.957Z</time></trkpt><trkpt lat="45.427192" lon="7.6437691"><ele>1019.8</ele><time>2026-05-01T09:25:36.953Z</time></trkpt><trkpt lat="45.4272806" lon="7.6436976"><ele>1023.2</ele><time>2026-05-01T09:25:38.95Z</time></trkpt><trkpt lat="45.4273103" lon="7.6435886"><ele>1026.6</ele><time>2026-05-01T09:25:40.951Z</time></trkpt><trkpt lat="45.4273334" lon="7.643491"><ele>1030.0</ele><time>2026-05-01T09:25:41.969Z</time></trkpt><trkpt lat="45.427356" lon="7.6433344"><ele>1030.8333333333333</ele><time>2026-05-01T09:25:43.947Z</time></trkpt><trkpt lat="45.4273528" lon="7.6432318"><ele>1031.6666666666665</ele><time>2026-05-01T09:25:45.964Z</time></trkpt><trkpt lat="45.4273026" lon="7.6432886"><ele>1032.5</ele><time>2026-05-01T09:25:56.952Z</time></trkpt><trkpt lat="45.4273116" lon="7.6433987"><ele>1033.3333333333333</ele><time>2026-05-01T09:26:00.949Z</time></trkpt><trkpt lat="45.4273722" lon="7.6434577"><ele>1034.1666666666667</ele><time>2026-05-01T09:26:04.956Z</time></trkpt><trkpt lat="45.4274505" lon="7.6434903"><ele>1035.0</ele><time>2026-05-01T09:26:06.956Z</time></trkpt><trkpt lat="45.4275517" lon="7.6435486"><ele>1035.0</ele><time>2026-05-01T09:26:08.954Z</time></trkpt><trkpt lat="45.4276327" lon="7.643622"><ele>1035.0</ele><time>2026-05-01T09:26:10.958Z</time></trkpt><trkpt lat="45.4277098" lon="7.6437334"><ele>1035.0</ele><time>2026-05-01T09:26:12.956Z</time></trkpt><trkpt lat="45.4277393" lon="7.6438132"><ele>1035.0</ele><time>2026-05-01T09:26:13.95Z</time></trkpt><trkpt lat="45.4277805" lon="7.6438934"><ele>1035.0</ele><time>2026-05-01T09:26:14.952Z</time></trkpt><trkpt lat="45.4278086" lon="7.6439781"><ele>1035.0</ele><time>2026-05-01T09:26:15.966Z</time></trkpt><trkpt lat="45.4278374" lon="7.6440597"><ele>1034.0</ele><time>2026-05-01T09:26:16.95Z</time></trkpt><trkpt lat="45.4278725" lon="7.6441392"><ele>1033.0</ele><time>2026-05-01T09:26:17.955Z</time></trkpt><trkpt lat="45.4279185" lon="7.6442053"><ele>1032.0</ele><time>2026-05-01T09:26:18.956Z</time></trkpt><trkpt lat="45.4280044" lon="7.6443159"><ele>1031.0</ele><time>2026-05-01T09:26:20.953Z</time></trkpt><trkpt lat="45.4280907" lon="7.6444194"><ele>1030.0</ele><time>2026-05-01T09:26:22.955Z</time></trkpt><trkpt lat="45.4281473" lon="7.6445944"><ele>1033.7142857142858</ele><time>2026-05-01T09:26:24.957Z</time></trkpt><trkpt lat="45.4281723" lon="7.6446916"><ele>1037.4285714285713</ele><time>2026-05-01T09:26:25.957Z</time></trkpt><trkpt lat="45.4281975" lon="7.6447875"><ele>1041.142857142857</ele><time>2026-05-01T09:26:26.957Z</time></trkpt><trkpt lat="45.4282266" lon="7.6448745"><ele>1044.857142857143</ele><time>2026-05-01T09:26:27.958Z</time></trkpt><trkpt lat="45.428258" lon="7.6449673"><ele>1048.5714285714287</ele><time>2026-05-01T09:26:28.951Z</time></trkpt><trkpt lat="45.4282909" lon="7.6450859"><ele>1052.2857142857142</ele><time>2026-05-01T09:26:29.951Z</time></trkpt><trkpt lat="45.4283064" lon="7.6451859"><ele>1056.0</ele><time>2026-05-01T09:26:30.953Z</time></trkpt><trkpt lat="45.4283057" lon="7.6453439"><ele>1056.0</ele><time>2026-05-01T09:26:32.959Z</time></trkpt><trkpt lat="45.428352" lon="7.6454187"><ele>1056.0</ele><time>2026-05-01T09:26:34.962Z</time></trkpt><trkpt lat="45.4284152" lon="7.6453711"><ele>1056.0</ele><time>2026-05-01T09:26:38.019Z</time></trkpt><trkpt lat="45.4284624" lon="7.6452758"><ele>1056.0</ele><time>2026-05-01T09:26:39.954Z</time></trkpt><trkpt lat="45.4285146" lon="7.6451806"><ele>1056.0</ele><time>2026-05-01T09:26:41.953Z</time></trkpt><trkpt lat="45.4285708" lon="7.6450827"><ele>1056.0</ele><time>2026-05-01T09:26:43.957Z</time></trkpt><trkpt lat="45.4286233" lon="7.6449801"><ele>1056.0</ele><time>2026-05-01T09:26:45.953Z</time></trkpt><trkpt lat="45.4286347" lon="7.6448185"><ele>1056.0</ele><time>2026-05-01T09:26:47.956Z</time></trkpt><trkpt lat="45.4286486" lon="7.6447121"><ele>1056.0</ele><time>2026-05-01T09:26:48.951Z</time></trkpt><trkpt lat="45.4286597" lon="7.6446131"><ele>1056.0</ele><time>2026-05-01T09:26:49.953Z</time></trkpt><trkpt lat="45.4286891" lon="7.6445305"><ele>1056.0</ele><time>2026-05-01T09:26:50.947Z</time></trkpt><trkpt lat="45.4287265" lon="7.6444549"><ele>1056.0</ele><time>2026-05-01T09:26:51.976Z</time></trkpt><trkpt lat="45.428808" lon="7.6443106"><ele>1060.8333333333333</ele><time>2026-05-01T09:26:53.955Z</time></trkpt><trkpt lat="45.4288535" lon="7.6442363"><ele>1065.6666666666667</ele><time>2026-05-01T09:26:54.955Z</time></trkpt><trkpt lat="45.4289066" lon="7.6441584"><ele>1070.5</ele><time>2026-05-01T09:26:55.954Z</time></trkpt><trkpt lat="45.4289487" lon="7.6440736"><ele>1075.3333333333335</ele><time>2026-05-01T09:26:56.957Z</time></trkpt><trkpt lat="45.42897" lon="7.643946"><ele>1080.1666666666667</ele><time>2026-05-01T09:26:57.95Z</time></trkpt><trkpt lat="45.4289708" lon="7.6438089"><ele>1085.0</ele><time>2026-05-01T09:26:58.953Z</time></trkpt><trkpt lat="45.4289661" lon="7.6436842"><ele>1084.8</ele><time>2026-05-01T09:26:59.944Z</time></trkpt><trkpt lat="45.4289412" lon="7.6435515"><ele>1084.6</ele><time>2026-05-01T09:27:00.95Z</time></trkpt><trkpt lat="45.4289119" lon="7.6434169"><ele>1084.4</ele><time>2026-05-01T09:27:01.954Z</time></trkpt><trkpt lat="45.4288811" lon="7.6432844"><ele>1084.2</ele><time>2026-05-01T09:27:02.953Z</time></trkpt><trkpt lat="45.4288514" lon="7.643154"><ele>1084.0</ele><time>2026-05-01T09:27:03.952Z</time></trkpt><trkpt lat="45.428833" lon="7.6430487"><ele>1084.0</ele><time>2026-05-01T09:27:04.95Z</time></trkpt><trkpt lat="45.4288185" lon="7.6429487"><ele>1084.0</ele><time>2026-05-01T09:27:05.958Z</time></trkpt><trkpt lat="45.4287987" lon="7.6428529"><ele>1084.0</ele><time>2026-05-01T09:27:06.949Z</time></trkpt><trkpt lat="45.4288287" lon="7.6427559"><ele>1084.0</ele><time>2026-05-01T09:27:08.951Z</time></trkpt><trkpt lat="45.4288863" lon="7.6427105"><ele>1084.0</ele><time>2026-05-01T09:27:10.952Z</time></trkpt><trkpt lat="45.4289565" lon="7.6426574"><ele>1084.0</ele><time>2026-05-01T09:27:12.957Z</time></trkpt><trkpt lat="45.4290517" lon="7.6425392"><ele>1083.0</ele><time>2026-05-01T09:27:14.95Z</time></trkpt><trkpt lat="45.4290986" lon="7.6424655"><ele>1082.0</ele><time>2026-05-01T09:27:15.954Z</time></trkpt><trkpt lat="45.4291377" lon="7.6423903"><ele>1081.0</ele><time>2026-05-01T09:27:16.958Z</time></trkpt><trkpt lat="45.4291891" lon="7.6423098"><ele>1080.0</ele><time>2026-05-01T09:27:17.958Z</time></trkpt><trkpt lat="45.4292486" lon="7.6422332"><ele>1079.0</ele><time>2026-05-01T09:27:18.955Z</time></trkpt><trkpt lat="45.4293163" lon="7.6421429"><ele>1078.0</ele><time>2026-05-01T09:27:19.952Z</time></trkpt><trkpt lat="45.429379" lon="7.6420581"><ele>1078.0</ele><time>2026-05-01T09:27:20.955Z</time></trkpt><trkpt lat="45.4294365" lon="7.6419731"><ele>1078.0</ele><time>2026-05-01T09:27:21.955Z</time></trkpt><trkpt lat="45.4294774" lon="7.6418944"><ele>1078.0</ele><time>2026-05-01T09:27:22.956Z</time></trkpt><trkpt lat="45.4295063" lon="7.6417952"><ele>1078.0</ele><time>2026-05-01T09:27:23.956Z</time></trkpt><trkpt lat="45.429534" lon="7.6416878"><ele>1078.0</ele><time>2026-05-01T09:27:24.959Z</time></trkpt><trkpt lat="45.4295738" lon="7.6415911"><ele>1078.0</ele><time>2026-05-01T09:27:25.955Z</time></trkpt><trkpt lat="45.4296151" lon="7.6414855"><ele>1081.3333333333333</ele><time>2026-05-01T09:27:26.957Z</time></trkpt><trkpt lat="45.429655" lon="7.6413816"><ele>1084.6666666666665</ele><time>2026-05-01T09:27:27.954Z</time></trkpt><trkpt lat="45.4296863" lon="7.6412733"><ele>1088.0</ele><time>2026-05-01T09:27:28.955Z</time></trkpt><trkpt lat="45.4297161" lon="7.6411692"><ele>1091.3333333333333</ele><time>2026-05-01T09:27:29.955Z</time></trkpt><trkpt lat="45.4297375" lon="7.6410716"><ele>1094.6666666666667</ele><time>2026-05-01T09:27:30.953Z</time></trkpt><trkpt lat="45.4297415" lon="7.6409746"><ele>1098.0</ele><time>2026-05-01T09:27:31.952Z</time></trkpt><trkpt lat="45.4297479" lon="7.640873"><ele>1098.0</ele><time>2026-05-01T09:27:32.953Z</time></trkpt><trkpt lat="45.4297413" lon="7.6407805"><ele>1098.0</ele><time>2026-05-01T09:27:33.948Z</time></trkpt><trkpt lat="45.4297334" lon="7.640617"><ele>1098.0</ele><time>2026-05-01T09:27:35.957Z</time></trkpt><trkpt lat="45.42974" lon="7.6404667"><ele>1098.0</ele><time>2026-05-01T09:27:37.956Z</time></trkpt><trkpt lat="45.4297717" lon="7.6403345"><ele>1098.0</ele><time>2026-05-01T09:27:39.948Z</time></trkpt><trkpt lat="45.4298272" lon="7.6401692"><ele>1098.0</ele><time>2026-05-01T09:27:42.022Z</time></trkpt><trkpt lat="45.4298652" lon="7.6400684"><ele>1098.0</ele><time>2026-05-01T09:27:42.956Z</time></trkpt><trkpt lat="45.4299086" lon="7.6399695"><ele>1098.0</ele><time>2026-05-01T09:27:44.028Z</time></trkpt><trkpt lat="45.4299473" lon="7.6398593"><ele>1098.0</ele><time>2026-05-01T09:27:44.966Z</time></trkpt><trkpt lat="45.4299769" lon="7.6397477"><ele>1098.0</ele><time>2026-05-01T09:27:45.959Z</time></trkpt><trkpt lat="45.4300098" lon="7.6396536"><ele>1098.0</ele><time>2026-05-01T09:27:46.993Z</time></trkpt><trkpt lat="45.4300426" lon="7.6395539"><ele>1097.0</ele><time>2026-05-01T09:27:48.027Z</time></trkpt><trkpt lat="45.43007" lon="7.639461"><ele>1096.0</ele><time>2026-05-01T09:27:48.948Z</time></trkpt><trkpt lat="45.4300983" lon="7.639367"><ele>1095.0</ele><time>2026-05-01T09:27:49.944Z</time></trkpt><trkpt lat="45.4301262" lon="7.6392778"><ele>1094.0</ele><time>2026-05-01T09:27:50.955Z</time></trkpt><trkpt lat="45.4301514" lon="7.6391933"><ele>1093.0</ele><time>2026-05-01T09:27:51.945Z</time></trkpt><trkpt lat="45.4301741" lon="7.639104"><ele>1092.0</ele><time>2026-05-01T09:27:53.035Z</time></trkpt><trkpt lat="45.430212" lon="7.6389371"><ele>1092.0</ele><time>2026-05-01T09:27:54.947Z</time></trkpt><trkpt lat="45.4302324" lon="7.6387858"><ele>1092.0</ele><time>2026-05-01T09:27:56.941Z</time></trkpt><trkpt lat="45.4302614" lon="7.6386475"><ele>1092.0</ele><time>2026-05-01T09:27:58.95Z</time></trkpt><trkpt lat="45.4302867" lon="7.6385582"><ele>1092.0</ele><time>2026-05-01T09:28:00.949Z</time></trkpt><trkpt lat="45.4303304" lon="7.6384516"><ele>1092.0</ele><time>2026-05-01T09:28:03.948Z</time></trkpt><trkpt lat="45.4303754" lon="7.6383497"><ele>1092.0</ele><time>2026-05-01T09:28:06.946Z</time></trkpt><trkpt lat="45.4303875" lon="7.6382432"><ele>1091.6</ele><time>2026-05-01T09:28:08.942Z</time></trkpt><trkpt lat="45.4303961" lon="7.6380874"><ele>1091.2</ele><time>2026-05-01T09:28:10.943Z</time></trkpt><trkpt lat="45.4304102" lon="7.6379432"><ele>1090.8</ele><time>2026-05-01T09:28:12.995Z</time></trkpt><trkpt lat="45.4304479" lon="7.6378085"><ele>1090.4</ele><time>2026-05-01T09:28:14.951Z</time></trkpt><trkpt lat="45.4304939" lon="7.6376804"><ele>1090.0</ele><time>2026-05-01T09:28:16.948Z</time></trkpt><trkpt lat="45.4305558" lon="7.637534"><ele>1100.75</ele><time>2026-05-01T09:28:18.947Z</time></trkpt><trkpt lat="45.4306122" lon="7.6373895"><ele>1111.5</ele><time>2026-05-01T09:28:20.944Z</time></trkpt><trkpt lat="45.4306681" lon="7.6372341"><ele>1122.25</ele><time>2026-05-01T09:28:22.949Z</time></trkpt><trkpt lat="45.4307039" lon="7.6370693"><ele>1133.0</ele><time>2026-05-01T09:28:24.944Z</time></trkpt><trkpt lat="45.4307494" lon="7.6369341"><ele>1133.0</ele><time>2026-05-01T09:28:26.945Z</time></trkpt><trkpt lat="45.430781" lon="7.6368014"><ele>1133.0</ele><time>2026-05-01T09:28:28.95Z</time></trkpt><trkpt lat="45.4307934" lon="7.6366672"><ele>1133.0</ele><time>2026-05-01T09:28:30.949Z</time></trkpt><trkpt lat="45.4307945" lon="7.6365722"><ele>1133.0</ele><time>2026-05-01T09:28:33.948Z</time></trkpt><trkpt lat="45.4307957" lon="7.6364437"><ele>1133.0</ele><time>2026-05-01T09:28:59.949Z</time></trkpt><trkpt lat="45.4308345" lon="7.6363325"><ele>1133.0</ele><time>2026-05-01T09:29:01.949Z</time></trkpt><trkpt lat="45.4309336" lon="7.636184"><ele>1131.3333333333335</ele><time>2026-05-01T09:29:04.022Z</time></trkpt><trkpt lat="45.4310056" lon="7.6361036"><ele>1129.6666666666667</ele><time>2026-05-01T09:29:05.024Z</time></trkpt><trkpt lat="45.4310583" lon="7.6359948"><ele>1128.0</ele><time>2026-05-01T09:29:06.025Z</time></trkpt><trkpt lat="45.4311098" lon="7.6359036"><ele>1126.3333333333333</ele><time>2026-05-01T09:29:06.949Z</time></trkpt><trkpt lat="45.4311426" lon="7.6358215"><ele>1124.6666666666665</ele><time>2026-05-01T09:29:07.947Z</time></trkpt><trkpt lat="45.4311811" lon="7.6357368"><ele>1123.0</ele><time>2026-05-01T09:29:08.94Z</time></trkpt><trkpt lat="45.4312178" lon="7.6356529"><ele>1123.0</ele><time>2026-05-01T09:29:09.946Z</time></trkpt><trkpt lat="45.4312576" lon="7.6355821"><ele>1123.0</ele><time>2026-05-01T09:29:10.943Z</time></trkpt><trkpt lat="45.4313486" lon="7.6354644"><ele>1123.0</ele><time>2026-05-01T09:29:12.941Z</time></trkpt><trkpt lat="45.4314247" lon="7.6353735"><ele>1123.0</ele><time>2026-05-01T09:29:14.943Z</time></trkpt><trkpt lat="45.4314628" lon="7.6352259"><ele>1123.0</ele><time>2026-05-01T09:29:16.944Z</time></trkpt><trkpt lat="45.4314836" lon="7.6351405"><ele>1127.5</ele><time>2026-05-01T09:29:17.941Z</time></trkpt><trkpt lat="45.4314997" lon="7.6350274"><ele>1132.0</ele><time>2026-05-01T09:29:18.942Z</time></trkpt><trkpt lat="45.4315021" lon="7.6349017"><ele>1136.5</ele><time>2026-05-01T09:29:19.946Z</time></trkpt><trkpt lat="45.4315041" lon="7.6347639"><ele>1141.0</ele><time>2026-05-01T09:29:21.023Z</time></trkpt><trkpt lat="45.4315282" lon="7.6346461"><ele>1145.5</ele><time>2026-05-01T09:29:21.984Z</time></trkpt><trkpt lat="45.4315477" lon="7.6345308"><ele>1150.0</ele><time>2026-05-01T09:29:23.023Z</time></trkpt><trkpt lat="45.4315599" lon="7.6344181"><ele>1150.0</ele><time>2026-05-01T09:29:24.012Z</time></trkpt><trkpt lat="45.4315611" lon="7.6343249"><ele>1150.0</ele><time>2026-05-01T09:29:25.018Z</time></trkpt><trkpt lat="45.4315544" lon="7.6342247"><ele>1150.0</ele><time>2026-05-01T09:29:26.018Z</time></trkpt><trkpt lat="45.4315528" lon="7.6341244"><ele>1150.0</ele><time>2026-05-01T09:29:26.949Z</time></trkpt><trkpt lat="45.4315496" lon="7.6340339"><ele>1150.0</ele><time>2026-05-01T09:29:27.951Z</time></trkpt><trkpt lat="45.4315352" lon="7.6338578"><ele>1150.0</ele><time>2026-05-01T09:29:30.021Z</time></trkpt><trkpt lat="45.4315567" lon="7.6337016"><ele>1149.5</ele><time>2026-05-01T09:29:31.944Z</time></trkpt><trkpt lat="45.4315859" lon="7.6336161"><ele>1149.0</ele><time>2026-05-01T09:29:32.941Z</time></trkpt><trkpt lat="45.4316181" lon="7.6335325"><ele>1148.5</ele><time>2026-05-01T09:29:33.941Z</time></trkpt><trkpt lat="45.4316398" lon="7.633434"><ele>1148.0</ele><time>2026-05-01T09:29:35.003Z</time></trkpt><trkpt lat="45.431646" lon="7.6333426"><ele>1147.5</ele><time>2026-05-01T09:29:36.022Z</time></trkpt><trkpt lat="45.4316569" lon="7.6331461"><ele>1147.0</ele><time>2026-05-01T09:29:37.951Z</time></trkpt><trkpt lat="45.4317006" lon="7.6330337"><ele>1147.0</ele><time>2026-05-01T09:29:40.026Z</time></trkpt><trkpt lat="45.4317802" lon="7.6329603"><ele>1147.0</ele><time>2026-05-01T09:29:41.945Z</time></trkpt><trkpt lat="45.431885" lon="7.6329303"><ele>1147.0</ele><time>2026-05-01T09:29:43.981Z</time></trkpt><trkpt lat="45.4319874" lon="7.6328962"><ele>1147.0</ele><time>2026-05-01T09:29:46.042Z</time></trkpt><trkpt lat="45.4320948" lon="7.63288"><ele>1147.0</ele><time>2026-05-01T09:29:47.952Z</time></trkpt><trkpt lat="45.4321867" lon="7.6329054"><ele>1153.2</ele><time>2026-05-01T09:29:49.945Z</time></trkpt><trkpt lat="45.4322682" lon="7.6329525"><ele>1159.4</ele><time>2026-05-01T09:29:51.943Z</time></trkpt><trkpt lat="45.4323718" lon="7.633029"><ele>1165.6</ele><time>2026-05-01T09:29:53.946Z</time></trkpt><trkpt lat="45.4324316" lon="7.6330659"><ele>1171.8</ele><time>2026-05-01T09:29:54.949Z</time></trkpt><trkpt lat="45.4325281" lon="7.6331159"><ele>1178.0</ele><time>2026-05-01T09:29:56.951Z</time></trkpt><trkpt lat="45.4326091" lon="7.6331658"><ele>1178.0</ele><time>2026-05-01T09:29:58.947Z</time></trkpt><trkpt lat="45.4326698" lon="7.6332103"><ele>1178.0</ele><time>2026-05-01T09:30:00.95Z</time></trkpt><trkpt lat="45.43258" lon="7.6331568"><ele>1178.0</ele><time>2026-05-01T09:30:06.948Z</time></trkpt><trkpt lat="45.4325003" lon="7.6331463"><ele>1178.0</ele><time>2026-05-01T09:30:08.946Z</time></trkpt><trkpt lat="45.4323916" lon="7.6331436"><ele>1178.0</ele><time>2026-05-01T09:30:10.945Z</time></trkpt><trkpt lat="45.4322918" lon="7.6331634"><ele>1178.0</ele><time>2026-05-01T09:30:12.951Z</time></trkpt><trkpt lat="45.4322143" lon="7.6332059"><ele>1178.0</ele><time>2026-05-01T09:30:14.955Z</time></trkpt><trkpt lat="45.4321511" lon="7.6332696"><ele>1178.0</ele><time>2026-05-01T09:30:16.947Z</time></trkpt><trkpt lat="45.4321066" lon="7.6333523"><ele>1178.0</ele><time>2026-05-01T09:30:18.953Z</time></trkpt><trkpt lat="45.4320791" lon="7.63347"><ele>1178.0</ele><time>2026-05-01T09:30:20.953Z</time></trkpt><trkpt lat="45.4320722" lon="7.6335885"><ele>1178.0</ele><time>2026-05-01T09:30:22.98Z</time></trkpt><trkpt lat="45.4321145" lon="7.6337191"><ele>1180.5</ele><time>2026-05-01T09:30:24.951Z</time></trkpt><trkpt lat="45.4321385" lon="7.6338408"><ele>1183.0</ele><time>2026-05-01T09:30:26.945Z</time></trkpt><trkpt lat="45.4322136" lon="7.63383"><ele>1185.5</ele><time>2026-05-01T09:30:30.952Z</time></trkpt><trkpt lat="45.4322791" lon="7.6338149"><ele>1188.0</ele><time>2026-05-01T09:30:33.943Z</time></trkpt><trkpt lat="45.4323495" lon="7.6338586"><ele>1190.5</ele><time>2026-05-01T09:30:35.946Z</time></trkpt><trkpt lat="45.4324027" lon="7.6339263"><ele>1193.0</ele><time>2026-05-01T09:30:37.945Z</time></trkpt><trkpt lat="45.4324513" lon="7.6340158"><ele>1192.9999999999998</ele><time>2026-05-01T09:30:40.941Z</time></trkpt><trkpt lat="45.4324961" lon="7.6341087"><ele>1193.0</ele><time>2026-05-01T09:30:42.949Z</time></trkpt><trkpt lat="45.4325433" lon="7.6341812"><ele>1193.0</ele><time>2026-05-01T09:30:44.941Z</time></trkpt><trkpt lat="45.4325972" lon="7.6342349"><ele>1193.0</ele><time>2026-05-01T09:30:46.948Z</time></trkpt><trkpt lat="45.4326435" lon="7.6343029"><ele>1193.0</ele><time>2026-05-01T09:30:48.947Z</time></trkpt><trkpt lat="45.4326947" lon="7.6343589"><ele>1192.9999999999998</ele><time>2026-05-01T09:30:50.947Z</time></trkpt><trkpt lat="45.4327341" lon="7.6344364"><ele>1193.0</ele><time>2026-05-01T09:30:51.948Z</time></trkpt><trkpt lat="45.4327988" lon="7.6345726"><ele>1194.8333333333335</ele><time>2026-05-01T09:30:53.949Z</time></trkpt><trkpt lat="45.4328204" lon="7.6346779"><ele>1196.6666666666667</ele><time>2026-05-01T09:30:55.944Z</time></trkpt><trkpt lat="45.432791" lon="7.6348175"><ele>1198.5</ele><time>2026-05-01T09:30:58.94Z</time></trkpt><trkpt lat="45.43278" lon="7.6349538"><ele>1200.3333333333333</ele><time>2026-05-01T09:31:01.948Z</time></trkpt><trkpt lat="45.4328282" lon="7.6350621"><ele>1202.1666666666665</ele><time>2026-05-01T09:31:04.944Z</time></trkpt><trkpt lat="45.4328551" lon="7.6351626"><ele>1204.0</ele><time>2026-05-01T09:31:06.941Z</time></trkpt><trkpt lat="45.4328832" lon="7.6352893"><ele>1205.7142857142858</ele><time>2026-05-01T09:31:09.946Z</time></trkpt><trkpt lat="45.4329183" lon="7.6353862"><ele>1207.4285714285716</ele><time>2026-05-01T09:31:11.948Z</time></trkpt><trkpt lat="45.4329505" lon="7.635474"><ele>1209.142857142857</ele><time>2026-05-01T09:31:13.945Z</time></trkpt><trkpt lat="45.432979" lon="7.6355649"><ele>1210.857142857143</ele><time>2026-05-01T09:31:16.024Z</time></trkpt><trkpt lat="45.4329906" lon="7.6356559"><ele>1212.5714285714287</ele><time>2026-05-01T09:31:17.95Z</time></trkpt><trkpt lat="45.433003" lon="7.6357684"><ele>1214.2857142857142</ele><time>2026-05-01T09:31:19.948Z</time></trkpt><trkpt lat="45.4330225" lon="7.6358653"><ele>1216.0</ele><time>2026-05-01T09:31:21.949Z</time></trkpt><trkpt lat="45.4330298" lon="7.6359668"><ele>1219.5714285714284</ele><time>2026-05-01T09:31:23.967Z</time></trkpt><trkpt lat="45.4330412" lon="7.6360658"><ele>1223.1428571428573</ele><time>2026-05-01T09:31:25.947Z</time></trkpt><trkpt lat="45.4330566" lon="7.6361592"><ele>1226.7142857142858</ele><time>2026-05-01T09:31:27.952Z</time></trkpt><trkpt lat="45.4330681" lon="7.6362498"><ele>1230.2857142857142</ele><time>2026-05-01T09:31:29.943Z</time></trkpt><trkpt lat="45.4330827" lon="7.6363421"><ele>1233.8571428571427</ele><time>2026-05-01T09:31:31.943Z</time></trkpt><trkpt lat="45.4330701" lon="7.6364673"><ele>1237.4285714285716</ele><time>2026-05-01T09:31:35.021Z</time></trkpt><trkpt lat="45.4330486" lon="7.6365543"><ele>1241.0</ele><time>2026-05-01T09:31:36.959Z</time></trkpt><trkpt lat="45.4330089" lon="7.6366624"><ele>1240.5</ele><time>2026-05-01T09:31:38.968Z</time></trkpt><trkpt lat="45.4329776" lon="7.6367721"><ele>1240.0</ele><time>2026-05-01T09:31:40.943Z</time></trkpt><trkpt lat="45.4329481" lon="7.6368828"><ele>1239.5</ele><time>2026-05-01T09:31:42.941Z</time></trkpt><trkpt lat="45.4329122" lon="7.6369754"><ele>1239.0</ele><time>2026-05-01T09:31:44.963Z</time></trkpt><trkpt lat="45.4328887" lon="7.6370781"><ele>1238.5</ele><time>2026-05-01T09:31:46.95Z</time></trkpt><trkpt lat="45.4328667" lon="7.637182"><ele>1238.0</ele><time>2026-05-01T09:31:48.947Z</time></trkpt><trkpt lat="45.4328556" lon="7.6372764"><ele>1240.5</ele><time>2026-05-01T09:31:50.948Z</time></trkpt><trkpt lat="45.4328621" lon="7.6374117"><ele>1243.0</ele><time>2026-05-01T09:31:53.943Z</time></trkpt><trkpt lat="45.4328849" lon="7.6375286"><ele>1245.5</ele><time>2026-05-01T09:31:55.947Z</time></trkpt><trkpt lat="45.4329223" lon="7.6376534"><ele>1248.0</ele><time>2026-05-01T09:31:57.946Z</time></trkpt><trkpt lat="45.432963" lon="7.6377494"><ele>1250.5</ele><time>2026-05-01T09:31:59.951Z</time></trkpt><trkpt lat="45.432993" lon="7.6378482"><ele>1253.0</ele><time>2026-05-01T09:32:02.945Z</time></trkpt><trkpt lat="45.4329975" lon="7.6379498"><ele>1258.5</ele><time>2026-05-01T09:32:05.952Z</time></trkpt><trkpt lat="45.4330421" lon="7.6380564"><ele>1264.0</ele><time>2026-05-01T09:32:08.936Z</time></trkpt><trkpt lat="45.4330523" lon="7.6381896"><ele>1269.5</ele><time>2026-05-01T09:32:11.945Z</time></trkpt><trkpt lat="45.433047" lon="7.6382838"><ele>1275.0</ele><time>2026-05-01T09:32:15.941Z</time></trkpt><trkpt lat="45.4330851" lon="7.6383642"><ele>1280.5</ele><time>2026-05-01T09:33:15.946Z</time></trkpt><trkpt lat="45.433143" lon="7.6384524"><ele>1286.0</ele><time>2026-05-01T09:33:17.95Z</time></trkpt><trkpt lat="45.4332064" lon="7.638546"><ele>1287.6666666666667</ele><time>2026-05-01T09:33:19.938Z</time></trkpt><trkpt lat="45.4332796" lon="7.6386454"><ele>1289.3333333333335</ele><time>2026-05-01T09:33:21.953Z</time></trkpt><trkpt lat="45.4333498" lon="7.6387555"><ele>1291.0</ele><time>2026-05-01T09:33:23.946Z</time></trkpt><trkpt lat="45.4333793" lon="7.6388474"><ele>1292.6666666666667</ele><time>2026-05-01T09:33:25.945Z</time></trkpt><trkpt lat="45.4333536" lon="7.6389712"><ele>1294.3333333333333</ele><time>2026-05-01T09:33:28.942Z</time></trkpt><trkpt lat="45.4333397" lon="7.6390614"><ele>1296.0</ele><time>2026-05-01T09:33:30.944Z</time></trkpt><trkpt lat="45.4333273" lon="7.639191"><ele>1296.0</ele><time>2026-05-01T09:33:32.948Z</time></trkpt><trkpt lat="45.4333415" lon="7.6392926"><ele>1296.0</ele><time>2026-05-01T09:33:34.945Z</time></trkpt><trkpt lat="45.4333529" lon="7.6394009"><ele>1296.0</ele><time>2026-05-01T09:33:36.95Z</time></trkpt><trkpt lat="45.4333751" lon="7.6395425"><ele>1296.0</ele><time>2026-05-01T09:33:39.016Z</time></trkpt><trkpt lat="45.4334149" lon="7.6396861"><ele>1296.0</ele><time>2026-05-01T09:33:40.953Z</time></trkpt><trkpt lat="45.4334249" lon="7.6398362"><ele>1299.0</ele><time>2026-05-01T09:33:42.951Z</time></trkpt><trkpt lat="45.4334333" lon="7.6399759"><ele>1302.0</ele><time>2026-05-01T09:33:44.95Z</time></trkpt><trkpt lat="45.4334291" lon="7.640113"><ele>1305.0</ele><time>2026-05-01T09:33:46.94Z</time></trkpt><trkpt lat="45.4334267" lon="7.6402581"><ele>1308.0</ele><time>2026-05-01T09:33:48.94Z</time></trkpt><trkpt lat="45.4334306" lon="7.640404"><ele>1311.0</ele><time>2026-05-01T09:33:50.943Z</time></trkpt><trkpt lat="45.4334409" lon="7.6405735"><ele>1312.8</ele><time>2026-05-01T09:33:52.945Z</time></trkpt><trkpt lat="45.4334419" lon="7.6406663"><ele>1314.6</ele><time>2026-05-01T09:33:53.943Z</time></trkpt><trkpt lat="45.4334327" lon="7.6408221"><ele>1316.4</ele><time>2026-05-01T09:33:55.946Z</time></trkpt><trkpt lat="45.4334107" lon="7.6409372"><ele>1318.2</ele><time>2026-05-01T09:33:57.944Z</time></trkpt><trkpt lat="45.433408" lon="7.6410659"><ele>1320.0</ele><time>2026-05-01T09:33:59.949Z</time></trkpt><trkpt lat="45.4334014" lon="7.6412236"><ele>1322.0</ele><time>2026-05-01T09:34:01.952Z</time></trkpt><trkpt lat="45.4333835" lon="7.6413854"><ele>1324.0</ele><time>2026-05-01T09:34:03.943Z</time></trkpt><trkpt lat="45.4333743" lon="7.6415633"><ele>1326.0</ele><time>2026-05-01T09:34:05.948Z</time></trkpt><trkpt lat="45.4333726" lon="7.6416591"><ele>1328.0</ele><time>2026-05-01T09:34:06.943Z</time></trkpt><trkpt lat="45.4333729" lon="7.6417542"><ele>1330.0</ele><time>2026-05-01T09:34:08.029Z</time></trkpt><trkpt lat="45.4333705" lon="7.6418837"><ele>1331.5</ele><time>2026-05-01T09:34:09.027Z</time></trkpt><trkpt lat="45.4333729" lon="7.6420164"><ele>1333.0</ele><time>2026-05-01T09:34:10.027Z</time></trkpt><trkpt lat="45.433381" lon="7.6421646"><ele>1334.5</ele><time>2026-05-01T09:34:10.955Z</time></trkpt><trkpt lat="45.4333936" lon="7.6423011"><ele>1336.0</ele><time>2026-05-01T09:34:11.949Z</time></trkpt><trkpt lat="45.433407" lon="7.6424176"><ele>1337.5</ele><time>2026-05-01T09:34:12.945Z</time></trkpt><trkpt lat="45.4334184" lon="7.6425133"><ele>1339.0</ele><time>2026-05-01T09:34:13.947Z</time></trkpt><trkpt lat="45.4334726" lon="7.6426859"><ele>1339.0</ele><time>2026-05-01T09:34:15.954Z</time></trkpt><trkpt lat="45.4335168" lon="7.6427714"><ele>1339.0</ele><time>2026-05-01T09:34:16.946Z</time></trkpt><trkpt lat="45.4335576" lon="7.6428556"><ele>1339.0</ele><time>2026-05-01T09:34:17.95Z</time></trkpt><trkpt lat="45.4335952" lon="7.6429445"><ele>1339.0</ele><time>2026-05-01T09:34:18.983Z</time></trkpt><trkpt lat="45.4336335" lon="7.6430286"><ele>1339.0</ele><time>2026-05-01T09:34:19.95Z</time></trkpt><trkpt lat="45.433671" lon="7.6431169"><ele>1339.0</ele><time>2026-05-01T09:34:20.95Z</time></trkpt><trkpt lat="45.4337089" lon="7.6432106"><ele>1339.0</ele><time>2026-05-01T09:34:21.949Z</time></trkpt><trkpt lat="45.4337471" lon="7.643314"><ele>1339.142857142857</ele><time>2026-05-01T09:34:22.947Z</time></trkpt><trkpt lat="45.4337839" lon="7.6434093"><ele>1339.2857142857142</ele><time>2026-05-01T09:34:23.938Z</time></trkpt><trkpt lat="45.4338231" lon="7.6434913"><ele>1339.4285714285713</ele><time>2026-05-01T09:34:24.943Z</time></trkpt><trkpt lat="45.4338663" lon="7.6435785"><ele>1339.5714285714284</ele><time>2026-05-01T09:34:25.941Z</time></trkpt><trkpt lat="45.4339056" lon="7.6436632"><ele>1339.7142857142858</ele><time>2026-05-01T09:34:26.956Z</time></trkpt><trkpt lat="45.4339495" lon="7.6437513"><ele>1339.8571428571427</ele><time>2026-05-01T09:34:27.948Z</time></trkpt><trkpt lat="45.4339977" lon="7.6438336"><ele>1340.0</ele><time>2026-05-01T09:34:28.941Z</time></trkpt><trkpt lat="45.4340498" lon="7.643903"><ele>1342.6</ele><time>2026-05-01T09:34:29.967Z</time></trkpt><trkpt lat="45.4341035" lon="7.6439708"><ele>1345.2</ele><time>2026-05-01T09:34:30.939Z</time></trkpt><trkpt lat="45.4341887" lon="7.6440554"><ele>1347.8000000000002</ele><time>2026-05-01T09:34:32.947Z</time></trkpt><trkpt lat="45.4342941" lon="7.6441265"><ele>1350.4</ele><time>2026-05-01T09:34:34.949Z</time></trkpt><trkpt lat="45.4344122" lon="7.6441732"><ele>1353.0</ele><time>2026-05-01T09:34:36.948Z</time></trkpt><trkpt lat="45.4344767" lon="7.644198"><ele>1353.0</ele><time>2026-05-01T09:34:37.95Z</time></trkpt><trkpt lat="45.4346039" lon="7.6442203"><ele>1353.0</ele><time>2026-05-01T09:34:39.95Z</time></trkpt><trkpt lat="45.4346737" lon="7.6442251"><ele>1353.0</ele><time>2026-05-01T09:34:40.947Z</time></trkpt><trkpt lat="45.4347585" lon="7.6442274"><ele>1353.0</ele><time>2026-05-01T09:34:41.95Z</time></trkpt><trkpt lat="45.4348495" lon="7.6442296"><ele>1353.0</ele><time>2026-05-01T09:34:42.948Z</time></trkpt><trkpt lat="45.4349471" lon="7.6442285"><ele>1354.6666666666667</ele><time>2026-05-01T09:34:43.952Z</time></trkpt><trkpt lat="45.435042" lon="7.644232"><ele>1356.3333333333333</ele><time>2026-05-01T09:34:44.945Z</time></trkpt><trkpt lat="45.4351334" lon="7.644232"><ele>1358.0</ele><time>2026-05-01T09:34:45.948Z</time></trkpt><trkpt lat="45.4352195" lon="7.6442336"><ele>1359.6666666666665</ele><time>2026-05-01T09:34:46.946Z</time></trkpt><trkpt lat="45.435304" lon="7.6442375"><ele>1361.3333333333333</ele><time>2026-05-01T09:34:47.949Z</time></trkpt><trkpt lat="45.4353879" lon="7.6442426"><ele>1363.0</ele><time>2026-05-01T09:34:48.949Z</time></trkpt><trkpt lat="45.4354725" lon="7.6442459"><ele>1365.8000000000002</ele><time>2026-05-01T09:34:49.948Z</time></trkpt><trkpt lat="45.4355506" lon="7.6442501"><ele>1368.6</ele><time>2026-05-01T09:34:50.95Z</time></trkpt><trkpt lat="45.4356205" lon="7.6442532"><ele>1371.4</ele><time>2026-05-01T09:34:51.95Z</time></trkpt><trkpt lat="45.4357277" lon="7.6442554"><ele>1374.1999999999998</ele><time>2026-05-01T09:34:53.948Z</time></trkpt><trkpt lat="45.435837" lon="7.6442736"><ele>1377.0</ele><time>2026-05-01T09:34:55.95Z</time></trkpt><trkpt lat="45.4359293" lon="7.6442855"><ele>1377.0</ele><time>2026-05-01T09:34:57.947Z</time></trkpt><trkpt lat="45.4360104" lon="7.6442905"><ele>1377.0</ele><time>2026-05-01T09:34:59.948Z</time></trkpt><trkpt lat="45.436109" lon="7.6442814"><ele>1377.0</ele><time>2026-05-01T09:35:03.017Z</time></trkpt><trkpt lat="45.4361746" lon="7.6443065"><ele>1377.0</ele><time>2026-05-01T09:35:04.951Z</time></trkpt><trkpt lat="45.4362424" lon="7.644307"><ele>1377.0</ele><time>2026-05-01T09:35:06.951Z</time></trkpt><trkpt lat="45.4363238" lon="7.6442791"><ele>1377.0</ele><time>2026-05-01T09:35:09.951Z</time></trkpt><trkpt lat="45.4364044" lon="7.6442441"><ele>1380.1666666666667</ele><time>2026-05-01T09:35:21.944Z</time></trkpt><trkpt lat="45.4364488" lon="7.6441638"><ele>1383.3333333333333</ele><time>2026-05-01T09:35:30.961Z</time></trkpt><trkpt lat="45.4364809" lon="7.6440695"><ele>1386.5</ele><time>2026-05-01T09:35:33.955Z</time></trkpt><trkpt lat="45.4365146" lon="7.6439863"><ele>1389.6666666666665</ele><time>2026-05-01T09:35:35.962Z</time></trkpt><trkpt lat="45.4365836" lon="7.6439155"><ele>1392.8333333333333</ele><time>2026-05-01T09:35:38.961Z</time></trkpt><trkpt lat="45.4366875" lon="7.643968"><ele>1396.0</ele><time>2026-05-01T09:35:41.961Z</time></trkpt><trkpt lat="45.4367678" lon="7.644037"><ele>1395.9999999999998</ele><time>2026-05-01T09:35:43.963Z</time></trkpt><trkpt lat="45.4368223" lon="7.6440953"><ele>1396.0</ele><time>2026-05-01T09:35:45.963Z</time></trkpt><trkpt lat="45.4368227" lon="7.6442003"><ele>1396.0</ele><time>2026-05-01T09:35:49.984Z</time></trkpt><trkpt lat="45.4368622" lon="7.6442714"><ele>1396.0</ele><time>2026-05-01T09:35:52.96Z</time></trkpt><trkpt lat="45.4369152" lon="7.6443244"><ele>1396.0</ele><time>2026-05-01T09:36:29.963Z</time></trkpt><trkpt lat="45.4368743" lon="7.6442281"><ele>1395.9999999999998</ele><time>2026-05-01T09:36:38.959Z</time></trkpt><trkpt lat="45.4368451" lon="7.6441193"><ele>1396.0</ele><time>2026-05-01T09:36:41.965Z</time></trkpt><trkpt lat="45.4369217" lon="7.6440981"><ele>1396.0</ele><time>2026-05-01T09:36:45.956Z</time></trkpt><trkpt lat="45.437009" lon="7.6441288"><ele>1396.0</ele><time>2026-05-01T09:36:48.963Z</time></trkpt><trkpt lat="45.4371108" lon="7.644152"><ele>1396.0</ele><time>2026-05-01T09:36:51.96Z</time></trkpt><trkpt lat="45.43718" lon="7.6441602"><ele>1396.0</ele><time>2026-05-01T09:36:53.965Z</time></trkpt><trkpt lat="45.4372638" lon="7.6441612"><ele>1396.0</ele><time>2026-05-01T09:36:55.964Z</time></trkpt><trkpt lat="45.4373441" lon="7.6441606"><ele>1396.0</ele><time>2026-05-01T09:36:57.962Z</time></trkpt><trkpt lat="45.4374237" lon="7.644184"><ele>1396.0</ele><time>2026-05-01T09:37:00.964Z</time></trkpt><trkpt lat="45.437492" lon="7.6441799"><ele>1396.0</ele><time>2026-05-01T09:37:03.958Z</time></trkpt><trkpt lat="45.4374525" lon="7.6440908"><ele>1396.0</ele><time>2026-05-01T09:39:34.963Z</time></trkpt><trkpt lat="45.4373807" lon="7.6440772"><ele>1396.0</ele><time>2026-05-01T09:39:44.959Z</time></trkpt><trkpt lat="45.4372834" lon="7.6440715"><ele>1396.0</ele><time>2026-05-01T09:39:47.967Z</time></trkpt><trkpt lat="45.4371735" lon="7.644095"><ele>1396.0</ele><time>2026-05-01T09:39:49.964Z</time></trkpt><trkpt lat="45.4370704" lon="7.6441257"><ele>1396.0</ele><time>2026-05-01T09:39:51.962Z</time></trkpt><trkpt lat="45.4369844" lon="7.6441194"><ele>1396.0</ele><time>2026-05-01T09:39:54.962Z</time></trkpt><trkpt lat="45.4369034" lon="7.644083"><ele>1396.0</ele><time>2026-05-01T09:39:57.968Z</time></trkpt><trkpt lat="45.4368393" lon="7.6441167"><ele>1396.0</ele><time>2026-05-01T09:40:00.956Z</time></trkpt><trkpt lat="45.4368679" lon="7.6442187"><ele>1396.0</ele><time>2026-05-01T09:40:12.966Z</time></trkpt><trkpt lat="45.4368982" lon="7.6442975"><ele>1396.0</ele><time>2026-05-01T09:40:15.958Z</time></trkpt><trkpt lat="45.436948" lon="7.6443684"><ele>1397.4</ele><time>2026-05-01T09:40:36.962Z</time></trkpt><trkpt lat="45.4370194" lon="7.6444809"><ele>1398.8</ele><time>2026-05-01T09:40:38.955Z</time></trkpt><trkpt lat="45.4370986" lon="7.6445663"><ele>1400.2</ele><time>2026-05-01T09:40:40.972Z</time></trkpt><trkpt lat="45.437202" lon="7.6445899"><ele>1401.6000000000001</ele><time>2026-05-01T09:40:42.965Z</time></trkpt><trkpt lat="45.4372745" lon="7.6445826"><ele>1403.0</ele><time>2026-05-01T09:40:43.954Z</time></trkpt><trkpt lat="45.4373543" lon="7.6445786"><ele>1403.0</ele><time>2026-05-01T09:40:44.955Z</time></trkpt><trkpt lat="45.4374301" lon="7.6445851"><ele>1403.0</ele><time>2026-05-01T09:40:45.957Z</time></trkpt><trkpt lat="45.4374962" lon="7.6446002"><ele>1403.0</ele><time>2026-05-01T09:40:46.964Z</time></trkpt><trkpt lat="45.4375645" lon="7.6446144"><ele>1403.0</ele><time>2026-05-01T09:40:47.965Z</time></trkpt><trkpt lat="45.4376241" lon="7.6446462"><ele>1403.0</ele><time>2026-05-01T09:40:48.957Z</time></trkpt><trkpt lat="45.43769" lon="7.6447595"><ele>1403.0</ele><time>2026-05-01T09:40:50.956Z</time></trkpt><trkpt lat="45.4377452" lon="7.6448874"><ele>1403.0</ele><time>2026-05-01T09:40:52.957Z</time></trkpt><trkpt lat="45.4377836" lon="7.6449815"><ele>1403.0</ele><time>2026-05-01T09:40:53.956Z</time></trkpt><trkpt lat="45.437824" lon="7.6450904"><ele>1403.0</ele><time>2026-05-01T09:40:54.971Z</time></trkpt><trkpt lat="45.437866" lon="7.6452093"><ele>1403.0</ele><time>2026-05-01T09:40:55.956Z</time></trkpt><trkpt lat="45.4379043" lon="7.6453227"><ele>1403.0</ele><time>2026-05-01T09:40:56.958Z</time></trkpt><trkpt lat="45.4379353" lon="7.6454369"><ele>1403.0</ele><time>2026-05-01T09:40:57.958Z</time></trkpt><trkpt lat="45.4379622" lon="7.6455442"><ele>1404.142857142857</ele><time>2026-05-01T09:40:58.96Z</time></trkpt><trkpt lat="45.4379813" lon="7.645646"><ele>1405.2857142857142</ele><time>2026-05-01T09:40:59.955Z</time></trkpt><trkpt lat="45.4380057" lon="7.6457293"><ele>1406.4285714285716</ele><time>2026-05-01T09:41:00.961Z</time></trkpt><trkpt lat="45.4380544" lon="7.6458023"><ele>1407.5714285714284</ele><time>2026-05-01T09:41:01.962Z</time></trkpt><trkpt lat="45.4381085" lon="7.6458593"><ele>1408.7142857142858</ele><time>2026-05-01T09:41:02.96Z</time></trkpt><trkpt lat="45.4381775" lon="7.6459182"><ele>1409.857142857143</ele><time>2026-05-01T09:41:03.964Z</time></trkpt><trkpt lat="45.4382491" lon="7.6459927"><ele>1411.0</ele><time>2026-05-01T09:41:04.959Z</time></trkpt><trkpt lat="45.4383126" lon="7.6460821"><ele>1406.8333333333333</ele><time>2026-05-01T09:41:05.966Z</time></trkpt><trkpt lat="45.4383655" lon="7.64618"><ele>1402.6666666666665</ele><time>2026-05-01T09:41:06.955Z</time></trkpt><trkpt lat="45.4384224" lon="7.646282"><ele>1398.5</ele><time>2026-05-01T09:41:07.962Z</time></trkpt><trkpt lat="45.4384759" lon="7.6463627"><ele>1394.3333333333333</ele><time>2026-05-01T09:41:08.959Z</time></trkpt><trkpt lat="45.4385379" lon="7.6464374"><ele>1390.1666666666667</ele><time>2026-05-01T09:41:09.963Z</time></trkpt><trkpt lat="45.4386001" lon="7.6465216"><ele>1386.0</ele><time>2026-05-01T09:41:10.959Z</time></trkpt><trkpt lat="45.4386588" lon="7.6465956"><ele>1386.0</ele><time>2026-05-01T09:41:11.96Z</time></trkpt><trkpt lat="45.4387146" lon="7.6466677"><ele>1386.0</ele><time>2026-05-01T09:41:12.964Z</time></trkpt><trkpt lat="45.4387706" lon="7.6467435"><ele>1386.0</ele><time>2026-05-01T09:41:13.963Z</time></trkpt><trkpt lat="45.4388272" lon="7.6468212"><ele>1386.0</ele><time>2026-05-01T09:41:14.961Z</time></trkpt><trkpt lat="45.4388728" lon="7.646891"><ele>1386.0</ele><time>2026-05-01T09:41:15.961Z</time></trkpt><trkpt lat="45.4389232" lon="7.6469593"><ele>1386.0</ele><time>2026-05-01T09:41:16.959Z</time></trkpt><trkpt lat="45.4390142" lon="7.6470766"><ele>1386.8333333333333</ele><time>2026-05-01T09:41:18.962Z</time></trkpt><trkpt lat="45.4390627" lon="7.6471354"><ele>1387.6666666666667</ele><time>2026-05-01T09:41:19.965Z</time></trkpt><trkpt lat="45.4391244" lon="7.6471877"><ele>1388.5</ele><time>2026-05-01T09:41:20.963Z</time></trkpt><trkpt lat="45.4391821" lon="7.6472346"><ele>1389.3333333333335</ele><time>2026-05-01T09:41:21.96Z</time></trkpt><trkpt lat="45.4392396" lon="7.6472823"><ele>1390.1666666666667</ele><time>2026-05-01T09:41:22.963Z</time></trkpt><trkpt lat="45.4392997" lon="7.6473303"><ele>1391.0</ele><time>2026-05-01T09:41:23.953Z</time></trkpt><trkpt lat="45.4394021" lon="7.6474222"><ele>1391.0</ele><time>2026-05-01T09:41:25.954Z</time></trkpt><trkpt lat="45.4395042" lon="7.6474813"><ele>1391.0</ele><time>2026-05-01T09:41:28.065Z</time></trkpt><trkpt lat="45.4395929" lon="7.6474906"><ele>1391.0</ele><time>2026-05-01T09:41:29.96Z</time></trkpt><trkpt lat="45.4396642" lon="7.6474218"><ele>1391.0</ele><time>2026-05-01T09:41:31.961Z</time></trkpt><trkpt lat="45.4397498" lon="7.6473231"><ele>1391.0</ele><time>2026-05-01T09:41:33.958Z</time></trkpt><trkpt lat="45.4398458" lon="7.6472695"><ele>1394.0</ele><time>2026-05-01T09:41:35.962Z</time></trkpt><trkpt lat="45.4399279" lon="7.6472861"><ele>1397.0</ele><time>2026-05-01T09:41:37.957Z</time></trkpt><trkpt lat="45.4400027" lon="7.6473196"><ele>1400.0</ele><time>2026-05-01T09:41:39.962Z</time></trkpt><trkpt lat="45.4400862" lon="7.647361"><ele>1403.0</ele><time>2026-05-01T09:41:41.958Z</time></trkpt><trkpt lat="45.440152" lon="7.647399"><ele>1406.0</ele><time>2026-05-01T09:41:43.962Z</time></trkpt><trkpt lat="45.4402327" lon="7.6474834"><ele>1409.0</ele><time>2026-05-01T09:41:46.964Z</time></trkpt><trkpt lat="45.440302" lon="7.6475628"><ele>1409.0</ele><time>2026-05-01T09:41:48.964Z</time></trkpt><trkpt lat="45.4403924" lon="7.6476487"><ele>1409.0</ele><time>2026-05-01T09:41:50.964Z</time></trkpt><trkpt lat="45.4404886" lon="7.6477516"><ele>1409.0</ele><time>2026-05-01T09:41:52.962Z</time></trkpt><trkpt lat="45.4405748" lon="7.6478444"><ele>1409.0</ele><time>2026-05-01T09:41:54.968Z</time></trkpt><trkpt lat="45.4406644" lon="7.6479179"><ele>1409.0</ele><time>2026-05-01T09:41:56.959Z</time></trkpt><trkpt lat="45.4407763" lon="7.6479585"><ele>1407.1666666666667</ele><time>2026-05-01T09:41:58.963Z</time></trkpt><trkpt lat="45.4408407" lon="7.6479687"><ele>1405.3333333333335</ele><time>2026-05-01T09:41:59.96Z</time></trkpt><trkpt lat="45.4409107" lon="7.6479768"><ele>1403.5</ele><time>2026-05-01T09:42:00.96Z</time></trkpt><trkpt lat="45.4410393" lon="7.6479751"><ele>1401.6666666666667</ele><time>2026-05-01T09:42:02.961Z</time></trkpt><trkpt lat="45.4411063" lon="7.6479527"><ele>1399.8333333333333</ele><time>2026-05-01T09:42:03.962Z</time></trkpt><trkpt lat="45.4411685" lon="7.6479152"><ele>1398.0</ele><time>2026-05-01T09:42:04.965Z</time></trkpt><trkpt lat="45.4412783" lon="7.6478311"><ele>1396.4</ele><time>2026-05-01T09:42:07.017Z</time></trkpt><trkpt lat="45.4413352" lon="7.6477762"><ele>1394.8000000000002</ele><time>2026-05-01T09:42:08.024Z</time></trkpt><trkpt lat="45.441425" lon="7.6477358"><ele>1393.2</ele><time>2026-05-01T09:42:10.02Z</time></trkpt><trkpt lat="45.4414959" lon="7.6478065"><ele>1391.6</ele><time>2026-05-01T09:42:11.965Z</time></trkpt><trkpt lat="45.4415781" lon="7.6478989"><ele>1390.0</ele><time>2026-05-01T09:42:13.962Z</time></trkpt><trkpt lat="45.4416794" lon="7.6479641"><ele>1390.0</ele><time>2026-05-01T09:42:15.96Z</time></trkpt><trkpt lat="45.4417445" lon="7.6480023"><ele>1390.0</ele><time>2026-05-01T09:42:16.96Z</time></trkpt><trkpt lat="45.4418049" lon="7.648049"><ele>1390.0</ele><time>2026-05-01T09:42:17.966Z</time></trkpt><trkpt lat="45.4419047" lon="7.6481241"><ele>1390.0</ele><time>2026-05-01T09:42:19.968Z</time></trkpt><trkpt lat="45.4420072" lon="7.6481721"><ele>1390.0</ele><time>2026-05-01T09:42:21.962Z</time></trkpt><trkpt lat="45.4420961" lon="7.6481954"><ele>1390.6666666666665</ele><time>2026-05-01T09:42:23.963Z</time></trkpt><trkpt lat="45.4421734" lon="7.6482065"><ele>1391.3333333333333</ele><time>2026-05-01T09:42:25.963Z</time></trkpt><trkpt lat="45.4422386" lon="7.6481701"><ele>1392.0</ele><time>2026-05-01T09:42:27.963Z</time></trkpt><trkpt lat="45.4422909" lon="7.648111"><ele>1392.6666666666667</ele><time>2026-05-01T09:42:28.963Z</time></trkpt><trkpt lat="45.4423512" lon="7.6480483"><ele>1393.3333333333335</ele><time>2026-05-01T09:42:29.967Z</time></trkpt><trkpt lat="45.4424257" lon="7.6479784"><ele>1394.0</ele><time>2026-05-01T09:42:30.962Z</time></trkpt><trkpt lat="45.4425113" lon="7.647914"><ele>1394.0</ele><time>2026-05-01T09:42:31.964Z</time></trkpt><trkpt lat="45.4425859" lon="7.6478593"><ele>1394.0</ele><time>2026-05-01T09:42:32.962Z</time></trkpt><trkpt lat="45.4426569" lon="7.6478179"><ele>1394.0</ele><time>2026-05-01T09:42:33.96Z</time></trkpt><trkpt lat="45.442733" lon="7.6477845"><ele>1394.0</ele><time>2026-05-01T09:42:34.961Z</time></trkpt><trkpt lat="45.4428068" lon="7.6477416"><ele>1394.0</ele><time>2026-05-01T09:42:35.954Z</time></trkpt><trkpt lat="45.4428872" lon="7.6477067"><ele>1394.0</ele><time>2026-05-01T09:42:36.961Z</time></trkpt><trkpt lat="45.4429732" lon="7.6476775"><ele>1399.1666666666667</ele><time>2026-05-01T09:42:37.964Z</time></trkpt><trkpt lat="45.4430541" lon="7.6476538"><ele>1404.3333333333335</ele><time>2026-05-01T09:42:39.062Z</time></trkpt><trkpt lat="45.4431342" lon="7.6476415"><ele>1409.5</ele><time>2026-05-01T09:42:40.023Z</time></trkpt><trkpt lat="45.4432056" lon="7.6476426"><ele>1414.6666666666667</ele><time>2026-05-01T09:42:40.961Z</time></trkpt><trkpt lat="45.4433388" lon="7.6476899"><ele>1419.8333333333333</ele><time>2026-05-01T09:42:42.961Z</time></trkpt><trkpt lat="45.4434058" lon="7.6477237"><ele>1425.0</ele><time>2026-05-01T09:42:43.957Z</time></trkpt><trkpt lat="45.4434724" lon="7.6477519"><ele>1425.0</ele><time>2026-05-01T09:42:44.958Z</time></trkpt><trkpt lat="45.4435414" lon="7.6477885"><ele>1425.0</ele><time>2026-05-01T09:42:45.961Z</time></trkpt><trkpt lat="45.4436062" lon="7.6478112"><ele>1425.0</ele><time>2026-05-01T09:42:46.965Z</time></trkpt><trkpt lat="45.4437367" lon="7.6478265"><ele>1425.0</ele><time>2026-05-01T09:42:49.027Z</time></trkpt><trkpt lat="45.4438076" lon="7.6478315"><ele>1425.0</ele><time>2026-05-01T09:42:50.023Z</time></trkpt><trkpt lat="45.4438762" lon="7.6478497"><ele>1425.0</ele><time>2026-05-01T09:42:50.963Z</time></trkpt><trkpt lat="45.4439448" lon="7.6478724"><ele>1426.6666666666667</ele><time>2026-05-01T09:42:51.967Z</time></trkpt><trkpt lat="45.4440022" lon="7.6479165"><ele>1428.3333333333333</ele><time>2026-05-01T09:42:52.964Z</time></trkpt><trkpt lat="45.4440715" lon="7.6480479"><ele>1430.0</ele><time>2026-05-01T09:42:54.962Z</time></trkpt><trkpt lat="45.4441089" lon="7.6481737"><ele>1431.6666666666665</ele><time>2026-05-01T09:42:57.028Z</time></trkpt><trkpt lat="45.4441742" lon="7.648245"><ele>1433.3333333333333</ele><time>2026-05-01T09:42:58.96Z</time></trkpt><trkpt lat="45.4442439" lon="7.6483015"><ele>1435.0</ele><time>2026-05-01T09:43:00.964Z</time></trkpt><trkpt lat="45.4443465" lon="7.6483692"><ele>1435.0</ele><time>2026-05-01T09:43:02.966Z</time></trkpt><trkpt lat="45.4444062" lon="7.6484225"><ele>1435.0</ele><time>2026-05-01T09:43:03.963Z</time></trkpt><trkpt lat="45.4444602" lon="7.648479"><ele>1435.0</ele><time>2026-05-01T09:43:04.966Z</time></trkpt><trkpt lat="45.4445129" lon="7.6485456"><ele>1435.0</ele><time>2026-05-01T09:43:05.959Z</time></trkpt><trkpt lat="45.4445626" lon="7.6486317"><ele>1435.0</ele><time>2026-05-01T09:43:06.961Z</time></trkpt><trkpt lat="45.444627" lon="7.648733"><ele>1435.0</ele><time>2026-05-01T09:43:07.965Z</time></trkpt><trkpt lat="45.4446953" lon="7.6488467"><ele>1439.2</ele><time>2026-05-01T09:43:08.955Z</time></trkpt><trkpt lat="45.4447583" lon="7.6489363"><ele>1443.4</ele><time>2026-05-01T09:43:09.96Z</time></trkpt><trkpt lat="45.4448232" lon="7.6490225"><ele>1447.6</ele><time>2026-05-01T09:43:10.956Z</time></trkpt><trkpt lat="45.4449082" lon="7.6491188"><ele>1451.8</ele><time>2026-05-01T09:43:11.962Z</time></trkpt><trkpt lat="45.4449953" lon="7.649195"><ele>1456.0</ele><time>2026-05-01T09:43:12.957Z</time></trkpt><trkpt lat="45.4450804" lon="7.6492752"><ele>1456.0</ele><time>2026-05-01T09:43:13.959Z</time></trkpt><trkpt lat="45.4451623" lon="7.6493659"><ele>1456.0</ele><time>2026-05-01T09:43:14.959Z</time></trkpt><trkpt lat="45.4452432" lon="7.6494697"><ele>1456.0</ele><time>2026-05-01T09:43:15.961Z</time></trkpt><trkpt lat="45.4453195" lon="7.6495651"><ele>1456.0</ele><time>2026-05-01T09:43:16.959Z</time></trkpt><trkpt lat="45.445403" lon="7.6496572"><ele>1456.0</ele><time>2026-05-01T09:43:17.96Z</time></trkpt><trkpt lat="45.4454975" lon="7.6497393"><ele>1459.0</ele><time>2026-05-01T09:43:19.024Z</time></trkpt><trkpt lat="45.4455964" lon="7.6498113"><ele>1462.0</ele><time>2026-05-01T09:43:19.967Z</time></trkpt><trkpt lat="45.4456777" lon="7.6498663"><ele>1465.0</ele><time>2026-05-01T09:43:20.965Z</time></trkpt><trkpt lat="45.4457559" lon="7.6499144"><ele>1468.0</ele><time>2026-05-01T09:43:21.964Z</time></trkpt><trkpt lat="45.4458557" lon="7.649919"><ele>1471.0</ele><time>2026-05-01T09:43:23.962Z</time></trkpt><trkpt lat="45.4459779" lon="7.6497819"><ele>1471.0</ele><time>2026-05-01T09:43:25.958Z</time></trkpt><trkpt lat="45.4460339" lon="7.649691"><ele>1471.0</ele><time>2026-05-01T09:43:26.971Z</time></trkpt><trkpt lat="45.4460981" lon="7.6495714"><ele>1471.0</ele><time>2026-05-01T09:43:27.965Z</time></trkpt><trkpt lat="45.4461554" lon="7.6494394"><ele>1471.0</ele><time>2026-05-01T09:43:29.018Z</time></trkpt><trkpt lat="45.4462088" lon="7.6493317"><ele>1471.0</ele><time>2026-05-01T09:43:30.027Z</time></trkpt><trkpt lat="45.4462471" lon="7.6492409"><ele>1472.2857142857142</ele><time>2026-05-01T09:43:30.958Z</time></trkpt><trkpt lat="45.4462724" lon="7.6491466"><ele>1473.5714285714287</ele><time>2026-05-01T09:43:31.953Z</time></trkpt><trkpt lat="45.4463029" lon="7.6490336"><ele>1474.8571428571427</ele><time>2026-05-01T09:43:32.956Z</time></trkpt><trkpt lat="45.44631" lon="7.6489342"><ele>1476.142857142857</ele><time>2026-05-01T09:43:33.96Z</time></trkpt><trkpt lat="45.4463157" lon="7.6488425"><ele>1477.4285714285713</ele><time>2026-05-01T09:43:34.957Z</time></trkpt><trkpt lat="45.4463265" lon="7.6487372"><ele>1478.7142857142856</ele><time>2026-05-01T09:43:35.964Z</time></trkpt><trkpt lat="45.4463529" lon="7.6486299"><ele>1480.0</ele><time>2026-05-01T09:43:37.023Z</time></trkpt><trkpt lat="45.4463734" lon="7.6485338"><ele>1485.8333333333333</ele><time>2026-05-01T09:43:38.024Z</time></trkpt><trkpt lat="45.4463832" lon="7.6484439"><ele>1491.6666666666665</ele><time>2026-05-01T09:43:38.962Z</time></trkpt><trkpt lat="45.4463875" lon="7.6483531"><ele>1497.5</ele><time>2026-05-01T09:43:39.966Z</time></trkpt><trkpt lat="45.44637" lon="7.6481744"><ele>1503.3333333333333</ele><time>2026-05-01T09:43:41.958Z</time></trkpt><trkpt lat="45.4463515" lon="7.6480797"><ele>1509.1666666666667</ele><time>2026-05-01T09:43:42.963Z</time></trkpt><trkpt lat="45.4463347" lon="7.647974"><ele>1515.0</ele><time>2026-05-01T09:43:44.051Z</time></trkpt><trkpt lat="45.4463169" lon="7.6478717"><ele>1515.8571428571427</ele><time>2026-05-01T09:43:45.021Z</time></trkpt><trkpt lat="45.4463024" lon="7.6477789"><ele>1516.7142857142858</ele><time>2026-05-01T09:43:45.967Z</time></trkpt><trkpt lat="45.4463093" lon="7.6476787"><ele>1517.5714285714284</ele><time>2026-05-01T09:43:46.958Z</time></trkpt><trkpt lat="45.4463077" lon="7.6475773"><ele>1518.4285714285713</ele><time>2026-05-01T09:43:47.96Z</time></trkpt><trkpt lat="45.4462989" lon="7.6474812"><ele>1519.2857142857142</ele><time>2026-05-01T09:43:48.965Z</time></trkpt><trkpt lat="45.4462951" lon="7.6473818"><ele>1520.142857142857</ele><time>2026-05-01T09:43:49.962Z</time></trkpt><trkpt lat="45.446291" lon="7.6472801"><ele>1521.0</ele><time>2026-05-01T09:43:50.962Z</time></trkpt><trkpt lat="45.4462849" lon="7.647179"><ele>1518.6666666666667</ele><time>2026-05-01T09:43:51.963Z</time></trkpt><trkpt lat="45.4462671" lon="7.6470825"><ele>1516.3333333333333</ele><time>2026-05-01T09:43:53.025Z</time></trkpt><trkpt lat="45.4462287" lon="7.6470036"><ele>1514.0</ele><time>2026-05-01T09:43:54.035Z</time></trkpt><trkpt lat="45.4461679" lon="7.6469321"><ele>1511.6666666666665</ele><time>2026-05-01T09:43:55.025Z</time></trkpt><trkpt lat="45.4460916" lon="7.6468504"><ele>1509.3333333333333</ele><time>2026-05-01T09:43:55.943Z</time></trkpt><trkpt lat="45.4460192" lon="7.6467587"><ele>1507.0</ele><time>2026-05-01T09:43:56.946Z</time></trkpt><trkpt lat="45.4459476" lon="7.6466786"><ele>1507.0</ele><time>2026-05-01T09:43:57.942Z</time></trkpt><trkpt lat="45.4458852" lon="7.6466014"><ele>1507.0</ele><time>2026-05-01T09:43:58.944Z</time></trkpt><trkpt lat="45.4458345" lon="7.6465216"><ele>1507.0</ele><time>2026-05-01T09:43:59.947Z</time></trkpt><trkpt lat="45.4457847" lon="7.6464391"><ele>1507.0</ele><time>2026-05-01T09:44:00.943Z</time></trkpt><trkpt lat="45.4457517" lon="7.6463433"><ele>1507.0</ele><time>2026-05-01T09:44:02.023Z</time></trkpt><trkpt lat="45.4457226" lon="7.646239"><ele>1507.0</ele><time>2026-05-01T09:44:03.026Z</time></trkpt><trkpt lat="45.4456881" lon="7.6461244"><ele>1506.5714285714287</ele><time>2026-05-01T09:44:04.03Z</time></trkpt><trkpt lat="45.4456581" lon="7.6460146"><ele>1506.142857142857</ele><time>2026-05-01T09:44:04.945Z</time></trkpt><trkpt lat="45.4456261" lon="7.6459164"><ele>1505.7142857142858</ele><time>2026-05-01T09:44:05.946Z</time></trkpt><trkpt lat="45.4455931" lon="7.645822"><ele>1505.2857142857142</ele><time>2026-05-01T09:44:06.943Z</time></trkpt><trkpt lat="45.4455535" lon="7.6457443"><ele>1504.8571428571427</ele><time>2026-05-01T09:44:07.947Z</time></trkpt><trkpt lat="45.4455182" lon="7.6456664"><ele>1504.4285714285713</ele><time>2026-05-01T09:44:08.941Z</time></trkpt><trkpt lat="45.4454869" lon="7.6455808"><ele>1504.0</ele><time>2026-05-01T09:44:10.027Z</time></trkpt><trkpt lat="45.4454617" lon="7.6454908"><ele>1504.0</ele><time>2026-05-01T09:44:10.95Z</time></trkpt><trkpt lat="45.445441" lon="7.645399"><ele>1504.0</ele><time>2026-05-01T09:44:11.95Z</time></trkpt><trkpt lat="45.4454191" lon="7.6453056"><ele>1504.0</ele><time>2026-05-01T09:44:12.995Z</time></trkpt><trkpt lat="45.445392" lon="7.6452129"><ele>1504.0</ele><time>2026-05-01T09:44:13.953Z</time></trkpt><trkpt lat="45.4453614" lon="7.6451273"><ele>1504.0</ele><time>2026-05-01T09:44:14.946Z</time></trkpt><trkpt lat="45.4453325" lon="7.6450435"><ele>1504.0</ele><time>2026-05-01T09:44:15.949Z</time></trkpt><trkpt lat="45.4453065" lon="7.6449567"><ele>1504.0</ele><time>2026-05-01T09:44:16.952Z</time></trkpt><trkpt lat="45.4452719" lon="7.6448725"><ele>1506.0</ele><time>2026-05-01T09:44:17.946Z</time></trkpt><trkpt lat="45.4452298" lon="7.6447879"><ele>1508.0</ele><time>2026-05-01T09:44:19.031Z</time></trkpt><trkpt lat="45.4451862" lon="7.644692"><ele>1510.0</ele><time>2026-05-01T09:44:20.026Z</time></trkpt><trkpt lat="45.4451315" lon="7.6445869"><ele>1512.0</ele><time>2026-05-01T09:44:20.955Z</time></trkpt><trkpt lat="45.4450777" lon="7.6444829"><ele>1514.0</ele><time>2026-05-01T09:44:21.939Z</time></trkpt><trkpt lat="45.4450266" lon="7.6443907"><ele>1516.0</ele><time>2026-05-01T09:44:22.952Z</time></trkpt><trkpt lat="45.4449879" lon="7.6443101"><ele>1519.2857142857144</ele><time>2026-05-01T09:44:23.95Z</time></trkpt><trkpt lat="45.4449449" lon="7.6442356"><ele>1522.5714285714287</ele><time>2026-05-01T09:44:24.943Z</time></trkpt><trkpt lat="45.4448947" lon="7.6441592"><ele>1525.857142857143</ele><time>2026-05-01T09:44:25.947Z</time></trkpt><trkpt lat="45.4448354" lon="7.6440806"><ele>1529.1428571428573</ele><time>2026-05-01T09:44:26.943Z</time></trkpt><trkpt lat="45.4447859" lon="7.6440145"><ele>1532.4285714285713</ele><time>2026-05-01T09:44:28.024Z</time></trkpt><trkpt lat="45.4447553" lon="7.6439338"><ele>1535.7142857142858</ele><time>2026-05-01T09:44:29.012Z</time></trkpt><trkpt lat="45.4447354" lon="7.6438399"><ele>1539.0</ele><time>2026-05-01T09:44:30.006Z</time></trkpt><trkpt lat="45.44471" lon="7.6437463"><ele>1539.0</ele><time>2026-05-01T09:44:30.949Z</time></trkpt><trkpt lat="45.4446613" lon="7.643645"><ele>1539.0</ele><time>2026-05-01T09:44:31.951Z</time></trkpt><trkpt lat="45.4446131" lon="7.6435347"><ele>1539.0</ele><time>2026-05-01T09:44:32.953Z</time></trkpt><trkpt lat="45.4445584" lon="7.6434234"><ele>1539.0</ele><time>2026-05-01T09:44:33.947Z</time></trkpt><trkpt lat="45.4445075" lon="7.64332"><ele>1539.0</ele><time>2026-05-01T09:44:34.947Z</time></trkpt><trkpt lat="45.4444623" lon="7.6432433"><ele>1539.0</ele><time>2026-05-01T09:44:35.949Z</time></trkpt><trkpt lat="45.4443664" lon="7.643134"><ele>1539.8000000000002</ele><time>2026-05-01T09:44:38.013Z</time></trkpt><trkpt lat="45.4442518" lon="7.6430581"><ele>1540.6000000000001</ele><time>2026-05-01T09:44:39.952Z</time></trkpt><trkpt lat="45.444175" lon="7.6430362"><ele>1541.4</ele><time>2026-05-01T09:44:40.949Z</time></trkpt><trkpt lat="45.4440928" lon="7.6430123"><ele>1542.2</ele><time>2026-05-01T09:44:41.946Z</time></trkpt><trkpt lat="45.4440079" lon="7.6429791"><ele>1543.0</ele><time>2026-05-01T09:44:42.945Z</time></trkpt><trkpt lat="45.4439286" lon="7.6429399"><ele>1543.0</ele><time>2026-05-01T09:44:43.944Z</time></trkpt><trkpt lat="45.44386" lon="7.6429034"><ele>1543.0</ele><time>2026-05-01T09:44:45.009Z</time></trkpt><trkpt lat="45.4437597" lon="7.6428195"><ele>1543.0</ele><time>2026-05-01T09:44:46.95Z</time></trkpt><trkpt lat="45.4436754" lon="7.6427217"><ele>1543.0</ele><time>2026-05-01T09:44:48.951Z</time></trkpt><trkpt lat="45.4436224" lon="7.64262"><ele>1543.0</ele><time>2026-05-01T09:44:50.95Z</time></trkpt><trkpt lat="45.4435237" lon="7.6425298"><ele>1546.6666666666667</ele><time>2026-05-01T09:44:52.942Z</time></trkpt><trkpt lat="45.4434557" lon="7.6425005"><ele>1550.3333333333335</ele><time>2026-05-01T09:44:54.011Z</time></trkpt><trkpt lat="45.4433738" lon="7.6424756"><ele>1554.0</ele><time>2026-05-01T09:44:54.948Z</time></trkpt><trkpt lat="45.4432984" lon="7.6424494"><ele>1557.6666666666665</ele><time>2026-05-01T09:44:55.949Z</time></trkpt><trkpt lat="45.4432319" lon="7.6424191"><ele>1561.3333333333333</ele><time>2026-05-01T09:44:56.95Z</time></trkpt><trkpt lat="45.4431735" lon="7.6423853"><ele>1565.0</ele><time>2026-05-01T09:44:57.944Z</time></trkpt><trkpt lat="45.4430832" lon="7.6423222"><ele>1565.0</ele><time>2026-05-01T09:44:59.945Z</time></trkpt><trkpt lat="45.4430492" lon="7.6422067"><ele>1565.0</ele><time>2026-05-01T09:45:02.01Z</time></trkpt><trkpt lat="45.4430682" lon="7.642073"><ele>1565.0</ele><time>2026-05-01T09:45:03.946Z</time></trkpt><trkpt lat="45.4431158" lon="7.6419197"><ele>1565.0</ele><time>2026-05-01T09:45:05.951Z</time></trkpt><trkpt lat="45.4431502" lon="7.6417818"><ele>1565.0</ele><time>2026-05-01T09:45:08.017Z</time></trkpt><trkpt lat="45.4431865" lon="7.641655"><ele>1567.6666666666665</ele><time>2026-05-01T09:45:09.953Z</time></trkpt><trkpt lat="45.4432162" lon="7.6415451"><ele>1570.3333333333333</ele><time>2026-05-01T09:45:11.949Z</time></trkpt><trkpt lat="45.443271" lon="7.6414648"><ele>1573.0</ele><time>2026-05-01T09:45:13.947Z</time></trkpt><trkpt lat="45.4433287" lon="7.641406"><ele>1575.6666666666665</ele><time>2026-05-01T09:45:16.946Z</time></trkpt><trkpt lat="45.4433757" lon="7.6413163"><ele>1578.3333333333333</ele><time>2026-05-01T09:50:08.95Z</time></trkpt><trkpt lat="45.4433795" lon="7.6412159"><ele>1581.0</ele><time>2026-05-01T09:50:10.946Z</time></trkpt><trkpt lat="45.4434276" lon="7.641135"><ele>1582.2857142857142</ele><time>2026-05-01T09:50:12.949Z</time></trkpt><trkpt lat="45.4434699" lon="7.6410453"><ele>1583.5714285714284</ele><time>2026-05-01T09:50:14.952Z</time></trkpt><trkpt lat="45.4435042" lon="7.6409374"><ele>1584.857142857143</ele><time>2026-05-01T09:50:16.952Z</time></trkpt><trkpt lat="45.4435562" lon="7.6408466"><ele>1586.142857142857</ele><time>2026-05-01T09:50:18.952Z</time></trkpt><trkpt lat="45.4436016" lon="7.6407641"><ele>1587.4285714285716</ele><time>2026-05-01T09:50:21.014Z</time></trkpt><trkpt lat="45.4436629" lon="7.6407232"><ele>1588.7142857142858</ele><time>2026-05-01T09:50:22.953Z</time></trkpt><trkpt lat="45.4437191" lon="7.6406724"><ele>1590.0</ele><time>2026-05-01T09:50:24.95Z</time></trkpt><trkpt lat="45.4437627" lon="7.6405679"><ele>1590.0</ele><time>2026-05-01T09:50:27.951Z</time></trkpt><trkpt lat="45.4437834" lon="7.640463"><ele>1590.0</ele><time>2026-05-01T09:50:30.945Z</time></trkpt><trkpt lat="45.4437867" lon="7.6403627"><ele>1590.0</ele><time>2026-05-01T09:50:33.947Z</time></trkpt><trkpt lat="45.4438213" lon="7.6402688"><ele>1590.0</ele><time>2026-05-01T09:50:36.952Z</time></trkpt><trkpt lat="45.4438639" lon="7.6401829"><ele>1590.0</ele><time>2026-05-01T09:50:39.947Z</time></trkpt><trkpt lat="45.4439352" lon="7.6401067"><ele>1590.0</ele><time>2026-05-01T09:50:42.943Z</time></trkpt><trkpt lat="45.4440099" lon="7.6401143"><ele>1593.5</ele><time>2026-05-01T09:50:44.968Z</time></trkpt><trkpt lat="45.4440829" lon="7.6401375"><ele>1597.0</ele><time>2026-05-01T09:50:46.941Z</time></trkpt><trkpt lat="45.44415" lon="7.6401329"><ele>1600.5</ele><time>2026-05-01T09:50:48.953Z</time></trkpt><trkpt lat="45.4442425" lon="7.6401029"><ele>1604.0</ele><time>2026-05-01T09:50:51.942Z</time></trkpt><trkpt lat="45.4442964" lon="7.6400426"><ele>1607.5</ele><time>2026-05-01T09:50:53.95Z</time></trkpt><trkpt lat="45.4443942" lon="7.6399613"><ele>1611.0</ele><time>2026-05-01T09:50:55.951Z</time></trkpt><trkpt lat="45.4444631" lon="7.6398774"><ele>1611.0</ele><time>2026-05-01T09:50:57.943Z</time></trkpt><trkpt lat="45.4445273" lon="7.639782"><ele>1611.0</ele><time>2026-05-01T09:50:59.953Z</time></trkpt><trkpt lat="45.4445927" lon="7.6396894"><ele>1611.0</ele><time>2026-05-01T09:51:01.946Z</time></trkpt><trkpt lat="45.4446564" lon="7.6396162"><ele>1611.0</ele><time>2026-05-01T09:51:03.943Z</time></trkpt><trkpt lat="45.4447137" lon="7.6395561"><ele>1611.0</ele><time>2026-05-01T09:51:05.955Z</time></trkpt><trkpt lat="45.4447855" lon="7.6394779"><ele>1611.0</ele><time>2026-05-01T09:51:07.952Z</time></trkpt><trkpt lat="45.4448702" lon="7.6394213"><ele>1615.0</ele><time>2026-05-01T09:51:09.944Z</time></trkpt><trkpt lat="45.4449553" lon="7.6393884"><ele>1619.0</ele><time>2026-05-01T09:51:11.954Z</time></trkpt><trkpt lat="45.4450415" lon="7.6393527"><ele>1623.0</ele><time>2026-05-01T09:51:13.949Z</time></trkpt><trkpt lat="45.4451319" lon="7.6392949"><ele>1627.0</ele><time>2026-05-01T09:51:15.948Z</time></trkpt><trkpt lat="45.4452174" lon="7.6392562"><ele>1631.0</ele><time>2026-05-01T09:51:17.949Z</time></trkpt><trkpt lat="45.4453132" lon="7.639252"><ele>1631.0</ele><time>2026-05-01T09:51:19.949Z</time></trkpt><trkpt lat="45.445411" lon="7.6392311"><ele>1631.0</ele><time>2026-05-01T09:51:21.955Z</time></trkpt><trkpt lat="45.4455118" lon="7.639216"><ele>1631.0</ele><time>2026-05-01T09:51:23.95Z</time></trkpt><trkpt lat="45.4456157" lon="7.6392065"><ele>1631.0</ele><time>2026-05-01T09:51:25.953Z</time></trkpt><trkpt lat="45.445714" lon="7.6391994"><ele>1631.0</ele><time>2026-05-01T09:51:27.941Z</time></trkpt><trkpt lat="45.445816" lon="7.6392019"><ele>1633.4</ele><time>2026-05-01T09:51:29.947Z</time></trkpt><trkpt lat="45.44592" lon="7.6392166"><ele>1635.8</ele><time>2026-05-01T09:51:31.95Z</time></trkpt><trkpt lat="45.4460276" lon="7.6392303"><ele>1638.2</ele><time>2026-05-01T09:51:33.951Z</time></trkpt><trkpt lat="45.4461332" lon="7.6392088"><ele>1640.6000000000001</ele><time>2026-05-01T09:51:35.947Z</time></trkpt><trkpt lat="45.4462333" lon="7.6391811"><ele>1643.0</ele><time>2026-05-01T09:51:37.947Z</time></trkpt><trkpt lat="45.4463361" lon="7.639148"><ele>1647.4</ele><time>2026-05-01T09:51:39.952Z</time></trkpt><trkpt lat="45.4464358" lon="7.6391468"><ele>1651.8000000000002</ele><time>2026-05-01T09:51:41.944Z</time></trkpt><trkpt lat="45.4465308" lon="7.6391172"><ele>1656.2</ele><time>2026-05-01T09:51:43.943Z</time></trkpt><trkpt lat="45.4466189" lon="7.6390657"><ele>1660.6</ele><time>2026-05-01T09:51:45.952Z</time></trkpt><trkpt lat="45.4467061" lon="7.6389929"><ele>1665.0</ele><time>2026-05-01T09:51:47.954Z</time></trkpt><trkpt lat="45.446784" lon="7.6389139"><ele>1665.0</ele><time>2026-05-01T09:51:49.952Z</time></trkpt><trkpt lat="45.4468572" lon="7.6388629"><ele>1665.0</ele><time>2026-05-01T09:51:51.953Z</time></trkpt><trkpt lat="45.4469417" lon="7.6388458"><ele>1665.0</ele><time>2026-05-01T09:51:53.948Z</time></trkpt><trkpt lat="45.447009" lon="7.6388209"><ele>1665.0</ele><time>2026-05-01T09:51:55.952Z</time></trkpt><trkpt lat="45.447077" lon="7.6387512"><ele>1665.0</ele><time>2026-05-01T09:51:58.954Z</time></trkpt><trkpt lat="45.4471077" lon="7.6386457"><ele>1665.0</ele><time>2026-05-01T09:52:02.951Z</time></trkpt><trkpt lat="45.4471603" lon="7.6385924"><ele>1669.5</ele><time>2026-05-01T09:52:04.95Z</time></trkpt><trkpt lat="45.4472429" lon="7.6385937"><ele>1674.0</ele><time>2026-05-01T09:52:07.95Z</time></trkpt><trkpt lat="45.4472988" lon="7.6386698"><ele>1678.5</ele><time>2026-05-01T09:52:10.949Z</time></trkpt><trkpt lat="45.4473727" lon="7.6386828"><ele>1683.0</ele><time>2026-05-01T09:52:13.947Z</time></trkpt><trkpt lat="45.4474509" lon="7.6386573"><ele>1687.5</ele><time>2026-05-01T09:52:16.948Z</time></trkpt><trkpt lat="45.4475086" lon="7.638607"><ele>1692.0</ele><time>2026-05-01T09:52:18.949Z</time></trkpt><trkpt lat="45.447562" lon="7.6385453"><ele>1692.0</ele><time>2026-05-01T09:52:20.95Z</time></trkpt><trkpt lat="45.4476137" lon="7.6384817"><ele>1692.0</ele><time>2026-05-01T09:52:22.942Z</time></trkpt><trkpt lat="45.4476521" lon="7.6383999"><ele>1692.0</ele><time>2026-05-01T09:52:24.947Z</time></trkpt><trkpt lat="45.4476736" lon="7.6383046"><ele>1692.0</ele><time>2026-05-01T09:52:26.949Z</time></trkpt><trkpt lat="45.4477002" lon="7.6381849"><ele>1692.0</ele><time>2026-05-01T09:52:29.948Z</time></trkpt><trkpt lat="45.4477039" lon="7.6380902"><ele>1692.0</ele><time>2026-05-01T09:58:02.943Z</time></trkpt><trkpt lat="45.4477028" lon="7.6382042"><ele>1692.0</ele><time>2026-05-01T10:01:45.944Z</time></trkpt><trkpt lat="45.4476791" lon="7.6382898"><ele>1692.0</ele><time>2026-05-01T10:01:50.95Z</time></trkpt><trkpt lat="45.4476505" lon="7.638383"><ele>1692.0</ele><time>2026-05-01T10:01:54.041Z</time></trkpt><trkpt lat="45.4476002" lon="7.6384507"><ele>1692.0</ele><time>2026-05-01T10:01:56.945Z</time></trkpt><trkpt lat="45.4475363" lon="7.6385392"><ele>1692.0</ele><time>2026-05-01T10:01:59.954Z</time></trkpt><trkpt lat="45.447478" lon="7.6385814"><ele>1692.0</ele><time>2026-05-01T10:02:01.944Z</time></trkpt><trkpt lat="45.4474138" lon="7.6386185"><ele>1692.0</ele><time>2026-05-01T10:02:03.946Z</time></trkpt><trkpt lat="45.4473402" lon="7.6386263"><ele>1692.0</ele><time>2026-05-01T10:02:05.95Z</time></trkpt><trkpt lat="45.4472584" lon="7.638613"><ele>1692.0</ele><time>2026-05-01T10:02:08.953Z</time></trkpt><trkpt lat="45.4471752" lon="7.6385577"><ele>1692.0</ele><time>2026-05-01T10:02:11.949Z</time></trkpt><trkpt lat="45.4471003" lon="7.6385412"><ele>1692.0</ele><time>2026-05-01T10:02:14.943Z</time></trkpt><trkpt lat="45.4470436" lon="7.6386375"><ele>1692.0</ele><time>2026-05-01T10:02:17.948Z</time></trkpt><trkpt lat="45.4470079" lon="7.6387151"><ele>1692.0</ele><time>2026-05-01T10:02:19.952Z</time></trkpt><trkpt lat="45.4469543" lon="7.6387714"><ele>1692.0</ele><time>2026-05-01T10:02:21.945Z</time></trkpt><trkpt lat="45.4468756" lon="7.6387924"><ele>1688.142857142857</ele><time>2026-05-01T10:02:23.947Z</time></trkpt><trkpt lat="45.4468076" lon="7.6388312"><ele>1684.2857142857144</ele><time>2026-05-01T10:02:25.948Z</time></trkpt><trkpt lat="45.4467479" lon="7.6388905"><ele>1680.4285714285716</ele><time>2026-05-01T10:02:27.946Z</time></trkpt><trkpt lat="45.4467033" lon="7.6389571"><ele>1676.5714285714284</ele><time>2026-05-01T10:02:29.951Z</time></trkpt><trkpt lat="45.446632" lon="7.6390053"><ele>1672.7142857142858</ele><time>2026-05-01T10:02:31.95Z</time></trkpt><trkpt lat="45.4465561" lon="7.6390507"><ele>1668.857142857143</ele><time>2026-05-01T10:02:33.945Z</time></trkpt><trkpt lat="45.4464837" lon="7.6390767"><ele>1665.0</ele><time>2026-05-01T10:02:35.956Z</time></trkpt><trkpt lat="45.4463779" lon="7.6390899"><ele>1661.3333333333333</ele><time>2026-05-01T10:02:37.946Z</time></trkpt><trkpt lat="45.446262" lon="7.6391324"><ele>1657.6666666666665</ele><time>2026-05-01T10:02:39.947Z</time></trkpt><trkpt lat="45.4461958" lon="7.6391558"><ele>1654.0</ele><time>2026-05-01T10:02:40.951Z</time></trkpt><trkpt lat="45.4461309" lon="7.6391694"><ele>1650.3333333333333</ele><time>2026-05-01T10:02:41.947Z</time></trkpt><trkpt lat="45.4460528" lon="7.6391695"><ele>1646.6666666666665</ele><time>2026-05-01T10:02:42.946Z</time></trkpt><trkpt lat="45.4459668" lon="7.6391665"><ele>1643.0</ele><time>2026-05-01T10:02:43.946Z</time></trkpt><trkpt lat="45.4458793" lon="7.6391694"><ele>1643.0</ele><time>2026-05-01T10:02:44.947Z</time></trkpt><trkpt lat="45.4457916" lon="7.6391685"><ele>1643.0</ele><time>2026-05-01T10:02:45.946Z</time></trkpt><trkpt lat="45.4457053" lon="7.6391675"><ele>1643.0</ele><time>2026-05-01T10:02:46.946Z</time></trkpt><trkpt lat="45.4456164" lon="7.6391722"><ele>1643.0</ele><time>2026-05-01T10:02:47.945Z</time></trkpt><trkpt lat="45.4455211" lon="7.6391832"><ele>1643.0</ele><time>2026-05-01T10:02:48.942Z</time></trkpt><trkpt lat="45.4454251" lon="7.6391985"><ele>1640.9999999999998</ele><time>2026-05-01T10:02:49.949Z</time></trkpt><trkpt lat="45.4453313" lon="7.6392173"><ele>1639.0</ele><time>2026-05-01T10:02:50.945Z</time></trkpt><trkpt lat="45.4452406" lon="7.6392288"><ele>1637.0</ele><time>2026-05-01T10:02:51.945Z</time></trkpt><trkpt lat="45.445152" lon="7.6392539"><ele>1635.0</ele><time>2026-05-01T10:02:52.949Z</time></trkpt><trkpt lat="45.4450759" lon="7.6392933"><ele>1632.9999999999998</ele><time>2026-05-01T10:02:53.948Z</time></trkpt><trkpt lat="45.4450034" lon="7.6393335"><ele>1631.0</ele><time>2026-05-01T10:02:54.946Z</time></trkpt><trkpt lat="45.4449332" lon="7.639359"><ele>1631.0</ele><time>2026-05-01T10:02:55.949Z</time></trkpt><trkpt lat="45.4448183" lon="7.6394169"><ele>1631.0</ele><time>2026-05-01T10:02:57.945Z</time></trkpt><trkpt lat="45.444738" lon="7.6394965"><ele>1631.0</ele><time>2026-05-01T10:02:59.949Z</time></trkpt><trkpt lat="45.4446569" lon="7.6395755"><ele>1631.0</ele><time>2026-05-01T10:03:01.948Z</time></trkpt><trkpt lat="45.4445621" lon="7.6396866"><ele>1631.0</ele><time>2026-05-01T10:03:03.949Z</time></trkpt><trkpt lat="45.4444738" lon="7.6397988"><ele>1627.6666666666665</ele><time>2026-05-01T10:03:06.017Z</time></trkpt><trkpt lat="45.4444033" lon="7.6399089"><ele>1624.3333333333333</ele><time>2026-05-01T10:03:08.006Z</time></trkpt><trkpt lat="45.4443268" lon="7.6399947"><ele>1621.0</ele><time>2026-05-01T10:03:09.949Z</time></trkpt><trkpt lat="45.4442548" lon="7.6400269"><ele>1617.6666666666665</ele><time>2026-05-01T10:03:11.944Z</time></trkpt><trkpt lat="45.4441785" lon="7.640046"><ele>1614.3333333333333</ele><time>2026-05-01T10:03:15.957Z</time></trkpt><trkpt lat="45.4441053" lon="7.6400643"><ele>1611.0</ele><time>2026-05-01T10:03:18.952Z</time></trkpt><trkpt lat="45.4440344" lon="7.6400533"><ele>1611.0</ele><time>2026-05-01T10:03:21.952Z</time></trkpt><trkpt lat="45.4439564" lon="7.6400706"><ele>1611.0</ele><time>2026-05-01T10:03:24.95Z</time></trkpt><trkpt lat="45.4438834" lon="7.6401051"><ele>1611.0</ele><time>2026-05-01T10:03:27.949Z</time></trkpt><trkpt lat="45.4438286" lon="7.6401691"><ele>1611.0</ele><time>2026-05-01T10:03:30.944Z</time></trkpt><trkpt lat="45.4437849" lon="7.6402647"><ele>1611.0</ele><time>2026-05-01T10:03:33.958Z</time></trkpt><trkpt lat="45.4437392" lon="7.6403668"><ele>1611.0</ele><time>2026-05-01T10:03:36.948Z</time></trkpt><trkpt lat="45.4436985" lon="7.6404676"><ele>1607.5</ele><time>2026-05-01T10:03:39.952Z</time></trkpt><trkpt lat="45.443651" lon="7.6405425"><ele>1604.0</ele><time>2026-05-01T10:03:41.95Z</time></trkpt><trkpt lat="45.4435939" lon="7.6406334"><ele>1600.5</ele><time>2026-05-01T10:03:43.944Z</time></trkpt><trkpt lat="45.4435327" lon="7.6407336"><ele>1597.0</ele><time>2026-05-01T10:03:45.949Z</time></trkpt><trkpt lat="45.443447" lon="7.6408425"><ele>1593.5</ele><time>2026-05-01T10:03:47.944Z</time></trkpt><trkpt lat="45.4433955" lon="7.6408947"><ele>1590.0</ele><time>2026-05-01T10:03:48.943Z</time></trkpt><trkpt lat="45.4433406" lon="7.6409451"><ele>1590.0</ele><time>2026-05-01T10:03:49.948Z</time></trkpt><trkpt lat="45.4432789" lon="7.6409905"><ele>1590.0</ele><time>2026-05-01T10:03:51.01Z</time></trkpt><trkpt lat="45.4432157" lon="7.6410456"><ele>1590.0</ele><time>2026-05-01T10:03:52.032Z</time></trkpt><trkpt lat="45.4431533" lon="7.6410936"><ele>1590.0</ele><time>2026-05-01T10:03:53.007Z</time></trkpt><trkpt lat="45.4430941" lon="7.6411407"><ele>1590.0</ele><time>2026-05-01T10:03:53.944Z</time></trkpt><trkpt lat="45.4430341" lon="7.6411884"><ele>1590.0</ele><time>2026-05-01T10:03:54.951Z</time></trkpt><trkpt lat="45.4429694" lon="7.6412308"><ele>1590.0</ele><time>2026-05-01T10:03:56.04Z</time></trkpt><trkpt lat="45.4429066" lon="7.6412682"><ele>1588.8333333333333</ele><time>2026-05-01T10:03:57.009Z</time></trkpt><trkpt lat="45.4428356" lon="7.6413135"><ele>1587.6666666666665</ele><time>2026-05-01T10:03:58.01Z</time></trkpt><trkpt lat="45.442757" lon="7.6413578"><ele>1586.5</ele><time>2026-05-01T10:03:58.948Z</time></trkpt><trkpt lat="45.4426978" lon="7.6413899"><ele>1585.3333333333333</ele><time>2026-05-01T10:03:59.943Z</time></trkpt><trkpt lat="45.4426093" lon="7.6414116"><ele>1584.1666666666665</ele><time>2026-05-01T10:04:02.017Z</time></trkpt><trkpt lat="45.4425383" lon="7.6414492"><ele>1583.0</ele><time>2026-05-01T10:04:03.949Z</time></trkpt><trkpt lat="45.442454" lon="7.6415468"><ele>1583.0</ele><time>2026-05-01T10:04:06.019Z</time></trkpt><trkpt lat="45.4423785" lon="7.6416638"><ele>1583.0</ele><time>2026-05-01T10:04:08.01Z</time></trkpt><trkpt lat="45.4423056" lon="7.6417551"><ele>1583.0</ele><time>2026-05-01T10:04:09.949Z</time></trkpt><trkpt lat="45.4422208" lon="7.6418348"><ele>1583.0</ele><time>2026-05-01T10:04:11.951Z</time></trkpt><trkpt lat="45.4421499" lon="7.641871"><ele>1583.0</ele><time>2026-05-01T10:04:13.949Z</time></trkpt><trkpt lat="45.4420566" lon="7.64189"><ele>1582.2</ele><time>2026-05-01T10:04:15.948Z</time></trkpt><trkpt lat="45.4419697" lon="7.6419258"><ele>1581.4</ele><time>2026-05-01T10:04:17.946Z</time></trkpt><trkpt lat="45.4418804" lon="7.6419696"><ele>1580.6000000000001</ele><time>2026-05-01T10:04:19.948Z</time></trkpt><trkpt lat="45.4417977" lon="7.6420508"><ele>1579.8000000000002</ele><time>2026-05-01T10:04:22.013Z</time></trkpt><trkpt lat="45.4417086" lon="7.6421068"><ele>1579.0</ele><time>2026-05-01T10:04:23.944Z</time></trkpt><trkpt lat="45.4415926" lon="7.6421594"><ele>1577.2</ele><time>2026-05-01T10:04:25.952Z</time></trkpt><trkpt lat="45.4414746" lon="7.6422305"><ele>1575.4</ele><time>2026-05-01T10:04:28.017Z</time></trkpt><trkpt lat="45.441352" lon="7.6423007"><ele>1573.6</ele><time>2026-05-01T10:04:29.95Z</time></trkpt><trkpt lat="45.4412921" lon="7.6423466"><ele>1571.8</ele><time>2026-05-01T10:04:30.947Z</time></trkpt><trkpt lat="45.4412328" lon="7.6423938"><ele>1570.0</ele><time>2026-05-01T10:04:32.013Z</time></trkpt><trkpt lat="45.4411741" lon="7.6424424"><ele>1567.4</ele><time>2026-05-01T10:04:33.011Z</time></trkpt><trkpt lat="45.44112" lon="7.6424903"><ele>1564.8</ele><time>2026-05-01T10:04:33.95Z</time></trkpt><trkpt lat="45.4410223" lon="7.6425834"><ele>1562.1999999999998</ele><time>2026-05-01T10:04:36.05Z</time></trkpt><trkpt lat="45.4409218" lon="7.642668"><ele>1559.6</ele><time>2026-05-01T10:04:38.018Z</time></trkpt><trkpt lat="45.440835" lon="7.6427348"><ele>1557.0</ele><time>2026-05-01T10:04:39.95Z</time></trkpt><trkpt lat="45.4407674" lon="7.6427862"><ele>1553.4285714285713</ele><time>2026-05-01T10:04:41.943Z</time></trkpt><trkpt lat="45.4406974" lon="7.6428363"><ele>1549.857142857143</ele><time>2026-05-01T10:04:43.95Z</time></trkpt><trkpt lat="45.4406294" lon="7.6428595"><ele>1546.2857142857142</ele><time>2026-05-01T10:04:46.014Z</time></trkpt><trkpt lat="45.4405639" lon="7.642888"><ele>1542.7142857142858</ele><time>2026-05-01T10:04:47.947Z</time></trkpt><trkpt lat="45.4404813" lon="7.6429052"><ele>1539.142857142857</ele><time>2026-05-01T10:04:49.947Z</time></trkpt><trkpt lat="45.4404108" lon="7.6429106"><ele>1535.5714285714284</ele><time>2026-05-01T10:04:51.955Z</time></trkpt><trkpt lat="45.440343" lon="7.6429083"><ele>1532.0</ele><time>2026-05-01T10:04:53.947Z</time></trkpt><trkpt lat="45.4402809" lon="7.6428899"><ele>1531.142857142857</ele><time>2026-05-01T10:04:55.952Z</time></trkpt><trkpt lat="45.4402176" lon="7.6428959"><ele>1530.2857142857142</ele><time>2026-05-01T10:04:57.949Z</time></trkpt><trkpt lat="45.4401477" lon="7.6428963"><ele>1529.4285714285716</ele><time>2026-05-01T10:05:00.028Z</time></trkpt><trkpt lat="45.4400681" lon="7.6429086"><ele>1528.5714285714284</ele><time>2026-05-01T10:05:02.959Z</time></trkpt><trkpt lat="45.4400067" lon="7.6429341"><ele>1527.7142857142858</ele><time>2026-05-01T10:05:05.014Z</time></trkpt><trkpt lat="45.439931" lon="7.6429675"><ele>1526.857142857143</ele><time>2026-05-01T10:05:06.959Z</time></trkpt><trkpt lat="45.4398547" lon="7.6429786"><ele>1526.0</ele><time>2026-05-01T10:05:08.954Z</time></trkpt><trkpt lat="45.4397853" lon="7.6429955"><ele>1526.0</ele><time>2026-05-01T10:05:10.957Z</time></trkpt><trkpt lat="45.4397112" lon="7.6429864"><ele>1526.0</ele><time>2026-05-01T10:05:13.024Z</time></trkpt><trkpt lat="45.4396336" lon="7.6429321"><ele>1526.0</ele><time>2026-05-01T10:05:15.959Z</time></trkpt><trkpt lat="45.4395423" lon="7.6429198"><ele>1526.0</ele><time>2026-05-01T10:05:18.954Z</time></trkpt><trkpt lat="45.4394735" lon="7.6429001"><ele>1526.0</ele><time>2026-05-01T10:05:20.953Z</time></trkpt><trkpt lat="45.4393923" lon="7.6428891"><ele>1526.0</ele><time>2026-05-01T10:05:22.956Z</time></trkpt><trkpt lat="45.439303" lon="7.6429303"><ele>1522.3333333333335</ele><time>2026-05-01T10:05:24.96Z</time></trkpt><trkpt lat="45.4392372" lon="7.643018"><ele>1518.6666666666667</ele><time>2026-05-01T10:05:26.963Z</time></trkpt><trkpt lat="45.4391904" lon="7.6431228"><ele>1515.0</ele><time>2026-05-01T10:05:28.951Z</time></trkpt><trkpt lat="45.4391533" lon="7.6432381"><ele>1511.3333333333333</ele><time>2026-05-01T10:05:30.954Z</time></trkpt><trkpt lat="45.4391026" lon="7.6433336"><ele>1507.6666666666665</ele><time>2026-05-01T10:05:32.971Z</time></trkpt><trkpt lat="45.439035" lon="7.6434136"><ele>1504.0</ele><time>2026-05-01T10:05:35.961Z</time></trkpt><trkpt lat="45.4389674" lon="7.6434997"><ele>1504.0</ele><time>2026-05-01T10:05:37.955Z</time></trkpt><trkpt lat="45.4388967" lon="7.6435757"><ele>1504.0</ele><time>2026-05-01T10:05:39.947Z</time></trkpt><trkpt lat="45.4388407" lon="7.6436387"><ele>1504.0</ele><time>2026-05-01T10:05:41.955Z</time></trkpt><trkpt lat="45.4387595" lon="7.643693"><ele>1504.0</ele><time>2026-05-01T10:05:44.959Z</time></trkpt><trkpt lat="45.4386985" lon="7.6437183"><ele>1504.0</ele><time>2026-05-01T10:05:46.955Z</time></trkpt><trkpt lat="45.4386386" lon="7.6437552"><ele>1504.0</ele><time>2026-05-01T10:05:49.952Z</time></trkpt><trkpt lat="45.4385768" lon="7.6438226"><ele>1498.0</ele><time>2026-05-01T10:05:53.957Z</time></trkpt><trkpt lat="45.4385226" lon="7.6438728"><ele>1492.0</ele><time>2026-05-01T10:06:22.954Z</time></trkpt><trkpt lat="45.4384597" lon="7.6438881"><ele>1486.0</ele><time>2026-05-01T10:06:27.956Z</time></trkpt><trkpt lat="45.4383949" lon="7.6438568"><ele>1480.0</ele><time>2026-05-01T10:06:33.958Z</time></trkpt><trkpt lat="45.4383243" lon="7.6438271"><ele>1474.0</ele><time>2026-05-01T10:06:40.959Z</time></trkpt><trkpt lat="45.4382656" lon="7.6437924"><ele>1468.0</ele><time>2026-05-01T10:06:45.96Z</time></trkpt><trkpt lat="45.4382077" lon="7.6437443"><ele>1462.0</ele><time>2026-05-01T10:06:51.958Z</time></trkpt><trkpt lat="45.4381447" lon="7.6437086"><ele>1462.0</ele><time>2026-05-01T10:06:55.958Z</time></trkpt><trkpt lat="45.438049" lon="7.6436942"><ele>1462.0</ele><time>2026-05-01T10:07:04.956Z</time></trkpt><trkpt lat="45.4379953" lon="7.643747"><ele>1462.0</ele><time>2026-05-01T10:07:09.957Z</time></trkpt><trkpt lat="45.4379298" lon="7.6438257"><ele>1462.0</ele><time>2026-05-01T10:07:15.958Z</time></trkpt><trkpt lat="45.4378855" lon="7.6438955"><ele>1462.0</ele><time>2026-05-01T10:07:19.957Z</time></trkpt><trkpt lat="45.4378186" lon="7.6439157"><ele>1462.0</ele><time>2026-05-01T10:07:22.957Z</time></trkpt><trkpt lat="45.4377395" lon="7.6439388"><ele>1455.8333333333333</ele><time>2026-05-01T10:07:26.954Z</time></trkpt><trkpt lat="45.4376685" lon="7.6439911"><ele>1449.6666666666665</ele><time>2026-05-01T10:07:30.956Z</time></trkpt><trkpt lat="45.4375917" lon="7.6440355"><ele>1443.5</ele><time>2026-05-01T10:07:34.957Z</time></trkpt><trkpt lat="45.4375255" lon="7.6440447"><ele>1437.3333333333333</ele><time>2026-05-01T10:07:37.961Z</time></trkpt><trkpt lat="45.4374483" lon="7.6440323"><ele>1431.1666666666667</ele><time>2026-05-01T10:07:40.958Z</time></trkpt><trkpt lat="45.4373839" lon="7.644024"><ele>1425.0</ele><time>2026-05-01T10:07:42.957Z</time></trkpt><trkpt lat="45.4372958" lon="7.6440442"><ele>1425.0</ele><time>2026-05-01T10:07:44.951Z</time></trkpt><trkpt lat="45.4372065" lon="7.6440613"><ele>1425.0</ele><time>2026-05-01T10:07:46.959Z</time></trkpt><trkpt lat="45.437121" lon="7.6440809"><ele>1425.0</ele><time>2026-05-01T10:07:48.958Z</time></trkpt><trkpt lat="45.4370399" lon="7.6441021"><ele>1425.0</ele><time>2026-05-01T10:07:52.025Z</time></trkpt><trkpt lat="45.4369696" lon="7.6440689"><ele>1425.0</ele><time>2026-05-01T10:07:54.954Z</time></trkpt><trkpt lat="45.4369114" lon="7.644108"><ele>1425.0</ele><time>2026-05-01T10:07:57.953Z</time></trkpt><trkpt lat="45.4369295" lon="7.6442322"><ele>1421.3333333333333</ele><time>2026-05-01T10:08:00.952Z</time></trkpt><trkpt lat="45.4369725" lon="7.6443309"><ele>1417.6666666666667</ele><time>2026-05-01T10:08:02.98Z</time></trkpt><trkpt lat="45.437042" lon="7.6444182"><ele>1414.0</ele><time>2026-05-01T10:08:04.951Z</time></trkpt><trkpt lat="45.4370924" lon="7.6444744"><ele>1410.3333333333335</ele><time>2026-05-01T10:08:06.957Z</time></trkpt><trkpt lat="45.4371332" lon="7.6445453"><ele>1406.6666666666667</ele><time>2026-05-01T10:09:26.95Z</time></trkpt><trkpt lat="45.4372438" lon="7.6445491"><ele>1403.0</ele><time>2026-05-01T10:09:28.952Z</time></trkpt><trkpt lat="45.4373264" lon="7.644541"><ele>1403.0</ele><time>2026-05-01T10:09:29.95Z</time></trkpt><trkpt lat="45.4374057" lon="7.6445357"><ele>1403.0</ele><time>2026-05-01T10:09:30.955Z</time></trkpt><trkpt lat="45.4374853" lon="7.6445452"><ele>1403.0</ele><time>2026-05-01T10:09:31.95Z</time></trkpt><trkpt lat="45.4375544" lon="7.6445709"><ele>1403.0</ele><time>2026-05-01T10:09:32.954Z</time></trkpt><trkpt lat="45.4376466" lon="7.6446663"><ele>1403.0</ele><time>2026-05-01T10:09:34.946Z</time></trkpt><trkpt lat="45.4376998" lon="7.6448221"><ele>1403.0</ele><time>2026-05-01T10:09:36.943Z</time></trkpt><trkpt lat="45.4377299" lon="7.6449218"><ele>1403.0</ele><time>2026-05-01T10:09:37.948Z</time></trkpt><trkpt lat="45.4377663" lon="7.645041"><ele>1403.0</ele><time>2026-05-01T10:09:38.952Z</time></trkpt><trkpt lat="45.4378047" lon="7.6451652"><ele>1403.0</ele><time>2026-05-01T10:09:39.95Z</time></trkpt><trkpt lat="45.4378345" lon="7.6452902"><ele>1403.0</ele><time>2026-05-01T10:09:40.946Z</time></trkpt><trkpt lat="45.4378637" lon="7.6453997"><ele>1403.0</ele><time>2026-05-01T10:09:41.949Z</time></trkpt><trkpt lat="45.437891" lon="7.6455053"><ele>1404.3333333333335</ele><time>2026-05-01T10:09:42.955Z</time></trkpt><trkpt lat="45.4379173" lon="7.6456022"><ele>1405.6666666666667</ele><time>2026-05-01T10:09:43.953Z</time></trkpt><trkpt lat="45.43795" lon="7.6456915"><ele>1407.0</ele><time>2026-05-01T10:09:44.945Z</time></trkpt><trkpt lat="45.437996" lon="7.6457685"><ele>1408.3333333333333</ele><time>2026-05-01T10:09:45.953Z</time></trkpt><trkpt lat="45.4380565" lon="7.6458488"><ele>1409.6666666666665</ele><time>2026-05-01T10:09:46.952Z</time></trkpt><trkpt lat="45.4381342" lon="7.6459162"><ele>1411.0</ele><time>2026-05-01T10:09:47.946Z</time></trkpt><trkpt lat="45.4382196" lon="7.6459835"><ele>1411.0</ele><time>2026-05-01T10:09:48.951Z</time></trkpt><trkpt lat="45.4382914" lon="7.6460619"><ele>1411.0</ele><time>2026-05-01T10:09:49.953Z</time></trkpt><trkpt lat="45.4383563" lon="7.6461425"><ele>1411.0</ele><time>2026-05-01T10:09:50.948Z</time></trkpt><trkpt lat="45.4384119" lon="7.6462403"><ele>1411.0</ele><time>2026-05-01T10:09:51.947Z</time></trkpt><trkpt lat="45.4384721" lon="7.6463295"><ele>1411.0</ele><time>2026-05-01T10:09:52.955Z</time></trkpt><trkpt lat="45.4385342" lon="7.6464221"><ele>1411.0</ele><time>2026-05-01T10:09:53.946Z</time></trkpt><trkpt lat="45.4385965" lon="7.6465156"><ele>1409.5</ele><time>2026-05-01T10:09:54.944Z</time></trkpt><trkpt lat="45.4386586" lon="7.6466039"><ele>1408.0</ele><time>2026-05-01T10:09:55.957Z</time></trkpt><trkpt lat="45.4387213" lon="7.6466869"><ele>1406.5</ele><time>2026-05-01T10:09:56.943Z</time></trkpt><trkpt lat="45.4387832" lon="7.6467754"><ele>1405.0</ele><time>2026-05-01T10:09:57.945Z</time></trkpt><trkpt lat="45.438839" lon="7.6468551"><ele>1403.5</ele><time>2026-05-01T10:09:58.951Z</time></trkpt><trkpt lat="45.4388898" lon="7.6469321"><ele>1402.0</ele><time>2026-05-01T10:09:59.956Z</time></trkpt><trkpt lat="45.4389414" lon="7.647006"><ele>1400.1666666666665</ele><time>2026-05-01T10:10:00.946Z</time></trkpt><trkpt lat="45.4389943" lon="7.6470857"><ele>1398.3333333333333</ele><time>2026-05-01T10:10:01.948Z</time></trkpt><trkpt lat="45.4390505" lon="7.647164"><ele>1396.5</ele><time>2026-05-01T10:10:02.951Z</time></trkpt><trkpt lat="45.4391194" lon="7.6472287"><ele>1394.6666666666667</ele><time>2026-05-01T10:10:03.947Z</time></trkpt><trkpt lat="45.4391944" lon="7.6472822"><ele>1392.8333333333335</ele><time>2026-05-01T10:10:04.95Z</time></trkpt><trkpt lat="45.4392688" lon="7.6473343"><ele>1391.0</ele><time>2026-05-01T10:10:05.956Z</time></trkpt><trkpt lat="45.439341" lon="7.647387"><ele>1391.0</ele><time>2026-05-01T10:10:06.949Z</time></trkpt><trkpt lat="45.4394142" lon="7.6474352"><ele>1391.0</ele><time>2026-05-01T10:10:07.947Z</time></trkpt><trkpt lat="45.4394733" lon="7.6474895"><ele>1391.0</ele><time>2026-05-01T10:10:08.949Z</time></trkpt><trkpt lat="45.4395288" lon="7.6476055"><ele>1391.0</ele><time>2026-05-01T10:10:10.947Z</time></trkpt><trkpt lat="45.4394678" lon="7.6477427"><ele>1391.0</ele><time>2026-05-01T10:10:12.945Z</time></trkpt><trkpt lat="45.439429" lon="7.6478218"><ele>1391.0</ele><time>2026-05-01T10:10:13.947Z</time></trkpt><trkpt lat="45.439394" lon="7.6479124"><ele>1388.6</ele><time>2026-05-01T10:10:14.949Z</time></trkpt><trkpt lat="45.4393686" lon="7.6480078"><ele>1386.1999999999998</ele><time>2026-05-01T10:10:15.947Z</time></trkpt><trkpt lat="45.4393603" lon="7.6480981"><ele>1383.8000000000002</ele><time>2026-05-01T10:10:16.947Z</time></trkpt><trkpt lat="45.4393849" lon="7.6482465"><ele>1381.4</ele><time>2026-05-01T10:10:18.951Z</time></trkpt><trkpt lat="45.4394742" lon="7.6483065"><ele>1379.0</ele><time>2026-05-01T10:10:20.95Z</time></trkpt><trkpt lat="45.4395828" lon="7.6483681"><ele>1378.8333333333335</ele><time>2026-05-01T10:10:22.946Z</time></trkpt><trkpt lat="45.4396925" lon="7.6484488"><ele>1378.6666666666667</ele><time>2026-05-01T10:10:24.944Z</time></trkpt><trkpt lat="45.4397446" lon="7.6485047"><ele>1378.5</ele><time>2026-05-01T10:10:25.987Z</time></trkpt><trkpt lat="45.4397941" lon="7.6485721"><ele>1378.3333333333333</ele><time>2026-05-01T10:10:26.945Z</time></trkpt><trkpt lat="45.4398364" lon="7.6486471"><ele>1378.1666666666665</ele><time>2026-05-01T10:10:27.948Z</time></trkpt><trkpt lat="45.4398798" lon="7.6487209"><ele>1378.0</ele><time>2026-05-01T10:10:28.955Z</time></trkpt><trkpt lat="45.4399366" lon="7.6487994"><ele>1378.0</ele><time>2026-05-01T10:10:29.948Z</time></trkpt><trkpt lat="45.4399987" lon="7.6488554"><ele>1378.0</ele><time>2026-05-01T10:10:30.949Z</time></trkpt><trkpt lat="45.4400697" lon="7.6488974"><ele>1378.0</ele><time>2026-05-01T10:10:31.952Z</time></trkpt><trkpt lat="45.440161" lon="7.6489218"><ele>1378.0</ele><time>2026-05-01T10:10:32.95Z</time></trkpt><trkpt lat="45.4402577" lon="7.6489391"><ele>1378.0</ele><time>2026-05-01T10:10:33.95Z</time></trkpt><trkpt lat="45.4403565" lon="7.6489577"><ele>1378.0</ele><time>2026-05-01T10:10:34.952Z</time></trkpt><trkpt lat="45.4404491" lon="7.648996"><ele>1378.0</ele><time>2026-05-01T10:10:35.947Z</time></trkpt><trkpt lat="45.4405252" lon="7.6490676"><ele>1378.0</ele><time>2026-05-01T10:10:36.948Z</time></trkpt><trkpt lat="45.4405617" lon="7.6491482"><ele>1378.0</ele><time>2026-05-01T10:10:37.951Z</time></trkpt><trkpt lat="45.440557" lon="7.6493151"><ele>1378.0</ele><time>2026-05-01T10:10:39.951Z</time></trkpt><trkpt lat="45.4405225" lon="7.6493902"><ele>1378.0</ele><time>2026-05-01T10:10:40.946Z</time></trkpt><trkpt lat="45.4404641" lon="7.6494532"><ele>1378.0</ele><time>2026-05-01T10:10:41.951Z</time></trkpt><trkpt lat="45.4403964" lon="7.6495154"><ele>1375.2857142857142</ele><time>2026-05-01T10:10:42.953Z</time></trkpt><trkpt lat="45.4403423" lon="7.6495762"><ele>1372.5714285714287</ele><time>2026-05-01T10:10:43.946Z</time></trkpt><trkpt lat="45.4402846" lon="7.6496438"><ele>1369.857142857143</ele><time>2026-05-01T10:10:44.947Z</time></trkpt><trkpt lat="45.4402285" lon="7.6497212"><ele>1367.142857142857</ele><time>2026-05-01T10:10:45.943Z</time></trkpt><trkpt lat="45.4401826" lon="7.6498001"><ele>1364.4285714285713</ele><time>2026-05-01T10:10:46.951Z</time></trkpt><trkpt lat="45.4401429" lon="7.6498903"><ele>1361.7142857142858</ele><time>2026-05-01T10:10:47.951Z</time></trkpt><trkpt lat="45.4401347" lon="7.6499838"><ele>1359.0</ele><time>2026-05-01T10:10:48.949Z</time></trkpt><trkpt lat="45.4401528" lon="7.6500762"><ele>1359.0</ele><time>2026-05-01T10:10:49.949Z</time></trkpt><trkpt lat="45.4401914" lon="7.6501624"><ele>1359.0</ele><time>2026-05-01T10:10:50.952Z</time></trkpt><trkpt lat="45.4402406" lon="7.6502258"><ele>1359.0</ele><time>2026-05-01T10:10:51.943Z</time></trkpt><trkpt lat="45.4403041" lon="7.6502608"><ele>1359.0</ele><time>2026-05-01T10:10:52.953Z</time></trkpt><trkpt lat="45.4403723" lon="7.6502825"><ele>1359.0</ele><time>2026-05-01T10:10:53.947Z</time></trkpt><trkpt lat="45.4404502" lon="7.6502847"><ele>1359.0</ele><time>2026-05-01T10:10:54.95Z</time></trkpt><trkpt lat="45.4405318" lon="7.6502829"><ele>1359.0</ele><time>2026-05-01T10:10:55.951Z</time></trkpt><trkpt lat="45.4406147" lon="7.6502716"><ele>1359.0</ele><time>2026-05-01T10:10:56.953Z</time></trkpt><trkpt lat="45.4406937" lon="7.6502593"><ele>1359.0</ele><time>2026-05-01T10:10:57.949Z</time></trkpt><trkpt lat="45.440776" lon="7.650247"><ele>1359.0</ele><time>2026-05-01T10:10:58.95Z</time></trkpt><trkpt lat="45.4408551" lon="7.6502191"><ele>1359.0</ele><time>2026-05-01T10:10:59.954Z</time></trkpt><trkpt lat="45.4409384" lon="7.6501707"><ele>1359.0</ele><time>2026-05-01T10:11:00.954Z</time></trkpt><trkpt lat="45.4410157" lon="7.6501319"><ele>1359.0</ele><time>2026-05-01T10:11:01.948Z</time></trkpt><trkpt lat="45.4410868" lon="7.6501013"><ele>1359.0</ele><time>2026-05-01T10:11:02.957Z</time></trkpt><trkpt lat="45.4411748" lon="7.6500717"><ele>1359.0</ele><time>2026-05-01T10:11:03.95Z</time></trkpt><trkpt lat="45.4412718" lon="7.6500453"><ele>1359.0</ele><time>2026-05-01T10:11:04.951Z</time></trkpt><trkpt lat="45.4413625" lon="7.6500421"><ele>1359.0</ele><time>2026-05-01T10:11:05.952Z</time></trkpt><trkpt lat="45.4414468" lon="7.6500653"><ele>1359.0</ele><time>2026-05-01T10:11:06.951Z</time></trkpt><trkpt lat="45.4415162" lon="7.6500911"><ele>1359.0</ele><time>2026-05-01T10:11:07.95Z</time></trkpt><trkpt lat="45.441588" lon="7.6501801"><ele>1355.3333333333333</ele><time>2026-05-01T10:11:09.95Z</time></trkpt><trkpt lat="45.4415623" lon="7.6502982"><ele>1351.6666666666667</ele><time>2026-05-01T10:11:11.956Z</time></trkpt><trkpt lat="45.4414536" lon="7.6503328"><ele>1348.0</ele><time>2026-05-01T10:11:13.952Z</time></trkpt><trkpt lat="45.4413891" lon="7.6503436"><ele>1344.3333333333335</ele><time>2026-05-01T10:11:14.946Z</time></trkpt><trkpt lat="45.441314" lon="7.6503314"><ele>1340.6666666666667</ele><time>2026-05-01T10:11:15.954Z</time></trkpt><trkpt lat="45.4412378" lon="7.6503273"><ele>1337.0</ele><time>2026-05-01T10:11:16.948Z</time></trkpt><trkpt lat="45.4411659" lon="7.6503613"><ele>1337.0</ele><time>2026-05-01T10:11:17.949Z</time></trkpt><trkpt lat="45.4411104" lon="7.6504251"><ele>1337.0</ele><time>2026-05-01T10:11:18.944Z</time></trkpt><trkpt lat="45.4410539" lon="7.6504813"><ele>1337.0</ele><time>2026-05-01T10:11:19.947Z</time></trkpt><trkpt lat="45.4409961" lon="7.6505389"><ele>1337.0</ele><time>2026-05-01T10:11:20.95Z</time></trkpt><trkpt lat="45.440944" lon="7.6505922"><ele>1337.0</ele><time>2026-05-01T10:11:21.949Z</time></trkpt><trkpt lat="45.4408923" lon="7.65065"><ele>1337.0</ele><time>2026-05-01T10:11:22.951Z</time></trkpt><trkpt lat="45.4408447" lon="7.6507161"><ele>1337.0</ele><time>2026-05-01T10:11:23.946Z</time></trkpt><trkpt lat="45.440785" lon="7.6507886"><ele>1337.0</ele><time>2026-05-01T10:11:24.948Z</time></trkpt><trkpt lat="45.4407224" lon="7.650877"><ele>1337.0</ele><time>2026-05-01T10:11:25.95Z</time></trkpt><trkpt lat="45.4406492" lon="7.6509644"><ele>1337.0</ele><time>2026-05-01T10:11:26.945Z</time></trkpt><trkpt lat="45.4405683" lon="7.6510619"><ele>1337.0</ele><time>2026-05-01T10:11:27.953Z</time></trkpt><trkpt lat="45.4404978" lon="7.6511651"><ele>1337.0</ele><time>2026-05-01T10:11:28.947Z</time></trkpt><trkpt lat="45.4404376" lon="7.6512605"><ele>1335.1999999999998</ele><time>2026-05-01T10:11:29.946Z</time></trkpt><trkpt lat="45.4403953" lon="7.651355"><ele>1333.4</ele><time>2026-05-01T10:11:30.945Z</time></trkpt><trkpt lat="45.4403712" lon="7.651487"><ele>1331.6</ele><time>2026-05-01T10:11:31.946Z</time></trkpt><trkpt lat="45.4403759" lon="7.6516345"><ele>1329.8000000000002</ele><time>2026-05-01T10:11:32.949Z</time></trkpt><trkpt lat="45.4403735" lon="7.6518001"><ele>1328.0</ele><time>2026-05-01T10:11:33.948Z</time></trkpt><trkpt lat="45.4403819" lon="7.6519862"><ele>1325.0</ele><time>2026-05-01T10:11:34.954Z</time></trkpt><trkpt lat="45.4404029" lon="7.6521468"><ele>1322.0</ele><time>2026-05-01T10:11:35.952Z</time></trkpt><trkpt lat="45.4404384" lon="7.6522934"><ele>1319.0</ele><time>2026-05-01T10:11:36.95Z</time></trkpt><trkpt lat="45.4404686" lon="7.6524359"><ele>1316.0</ele><time>2026-05-01T10:11:37.951Z</time></trkpt><trkpt lat="45.4404937" lon="7.6525454"><ele>1313.0</ele><time>2026-05-01T10:11:38.947Z</time></trkpt><trkpt lat="45.4405292" lon="7.6526584"><ele>1312.0</ele><time>2026-05-01T10:11:39.948Z</time></trkpt><trkpt lat="45.4405813" lon="7.6527514"><ele>1311.0</ele><time>2026-05-01T10:11:40.947Z</time></trkpt><trkpt lat="45.4406408" lon="7.6528228"><ele>1310.0</ele><time>2026-05-01T10:11:41.97Z</time></trkpt><trkpt lat="45.4407289" lon="7.6528659"><ele>1309.0</ele><time>2026-05-01T10:11:42.951Z</time></trkpt><trkpt lat="45.4408286" lon="7.6528887"><ele>1308.0</ele><time>2026-05-01T10:11:43.952Z</time></trkpt><trkpt lat="45.4409269" lon="7.652897"><ele>1306.4</ele><time>2026-05-01T10:11:44.95Z</time></trkpt><trkpt lat="45.4410296" lon="7.6529083"><ele>1304.8000000000002</ele><time>2026-05-01T10:11:45.945Z</time></trkpt><trkpt lat="45.4411283" lon="7.6529156"><ele>1303.2</ele><time>2026-05-01T10:11:46.953Z</time></trkpt><trkpt lat="45.4412252" lon="7.6529196"><ele>1301.6</ele><time>2026-05-01T10:11:47.945Z</time></trkpt><trkpt lat="45.4413216" lon="7.6529286"><ele>1300.0</ele><time>2026-05-01T10:11:48.95Z</time></trkpt><trkpt lat="45.4414131" lon="7.6529402"><ele>1300.0</ele><time>2026-05-01T10:11:49.946Z</time></trkpt><trkpt lat="45.4414923" lon="7.6529498"><ele>1300.0</ele><time>2026-05-01T10:11:50.951Z</time></trkpt><trkpt lat="45.4415668" lon="7.6529491"><ele>1300.0</ele><time>2026-05-01T10:11:51.951Z</time></trkpt><trkpt lat="45.4416315" lon="7.6529526"><ele>1300.0</ele><time>2026-05-01T10:11:52.943Z</time></trkpt><trkpt lat="45.4417488" lon="7.6529427"><ele>1300.0</ele><time>2026-05-01T10:11:54.955Z</time></trkpt><trkpt lat="45.4418193" lon="7.6529427"><ele>1300.0</ele><time>2026-05-01T10:11:55.949Z</time></trkpt><trkpt lat="45.4418926" lon="7.6529475"><ele>1300.0</ele><time>2026-05-01T10:11:56.955Z</time></trkpt><trkpt lat="45.441965" lon="7.6529555"><ele>1300.0</ele><time>2026-05-01T10:11:57.95Z</time></trkpt><trkpt lat="45.4420368" lon="7.6529596"><ele>1300.0</ele><time>2026-05-01T10:11:58.952Z</time></trkpt><trkpt lat="45.442106" lon="7.6529621"><ele>1300.0</ele><time>2026-05-01T10:11:59.945Z</time></trkpt><trkpt lat="45.4421753" lon="7.6529576"><ele>1300.0</ele><time>2026-05-01T10:12:00.947Z</time></trkpt><trkpt lat="45.4422424" lon="7.6529415"><ele>1300.0</ele><time>2026-05-01T10:12:01.942Z</time></trkpt><trkpt lat="45.4423127" lon="7.6529203"><ele>1300.0</ele><time>2026-05-01T10:12:02.947Z</time></trkpt><trkpt lat="45.442376" lon="7.6528891"><ele>1301.4</ele><time>2026-05-01T10:12:03.951Z</time></trkpt><trkpt lat="45.4424393" lon="7.6528659"><ele>1302.8</ele><time>2026-05-01T10:12:04.948Z</time></trkpt><trkpt lat="45.4425566" lon="7.6528791"><ele>1304.1999999999998</ele><time>2026-05-01T10:12:06.947Z</time></trkpt><trkpt lat="45.4426699" lon="7.6529615"><ele>1305.6</ele><time>2026-05-01T10:12:08.948Z</time></trkpt><trkpt lat="45.4427444" lon="7.6530452"><ele>1307.0</ele><time>2026-05-01T10:12:09.95Z</time></trkpt><trkpt lat="45.4428273" lon="7.6531559"><ele>1307.0</ele><time>2026-05-01T10:12:10.955Z</time></trkpt><trkpt lat="45.4429066" lon="7.65327"><ele>1307.0</ele><time>2026-05-01T10:12:11.947Z</time></trkpt><trkpt lat="45.4429861" lon="7.6533927"><ele>1307.0</ele><time>2026-05-01T10:12:12.952Z</time></trkpt><trkpt lat="45.4430633" lon="7.6535273"><ele>1307.0</ele><time>2026-05-01T10:12:13.945Z</time></trkpt><trkpt lat="45.4431406" lon="7.6536642"><ele>1305.75</ele><time>2026-05-01T10:12:14.952Z</time></trkpt><trkpt lat="45.4432114" lon="7.6537976"><ele>1304.5</ele><time>2026-05-01T10:12:15.949Z</time></trkpt><trkpt lat="45.4432789" lon="7.6539332"><ele>1303.25</ele><time>2026-05-01T10:12:16.95Z</time></trkpt><trkpt lat="45.4433469" lon="7.6540699"><ele>1302.0</ele><time>2026-05-01T10:12:17.948Z</time></trkpt><trkpt lat="45.4434055" lon="7.6542065"><ele>1302.0</ele><time>2026-05-01T10:12:18.949Z</time></trkpt><trkpt lat="45.4434535" lon="7.654356"><ele>1302.0</ele><time>2026-05-01T10:12:19.952Z</time></trkpt><trkpt lat="45.4434891" lon="7.6545089"><ele>1302.0</ele><time>2026-05-01T10:12:20.949Z</time></trkpt><trkpt lat="45.4435082" lon="7.6546621"><ele>1302.0</ele><time>2026-05-01T10:12:21.952Z</time></trkpt><trkpt lat="45.4435215" lon="7.6548244"><ele>1301.0</ele><time>2026-05-01T10:12:22.947Z</time></trkpt><trkpt lat="45.4435321" lon="7.6549909"><ele>1300.0</ele><time>2026-05-01T10:12:23.953Z</time></trkpt><trkpt lat="45.4435487" lon="7.6551425"><ele>1299.0</ele><time>2026-05-01T10:12:24.953Z</time></trkpt><trkpt lat="45.4435594" lon="7.6552707"><ele>1298.0</ele><time>2026-05-01T10:12:25.948Z</time></trkpt><trkpt lat="45.4435713" lon="7.655386"><ele>1297.0</ele><time>2026-05-01T10:12:26.951Z</time></trkpt><trkpt lat="45.4435756" lon="7.6554834"><ele>1295.3333333333333</ele><time>2026-05-01T10:12:27.952Z</time></trkpt><trkpt lat="45.4435261" lon="7.6555844"><ele>1293.6666666666665</ele><time>2026-05-01T10:12:29.951Z</time></trkpt><trkpt lat="45.4434432" lon="7.655536"><ele>1292.0</ele><time>2026-05-01T10:12:31.95Z</time></trkpt><trkpt lat="45.4433807" lon="7.6554912"><ele>1290.3333333333333</ele><time>2026-05-01T10:12:32.944Z</time></trkpt><trkpt lat="45.4433042" lon="7.6554582"><ele>1288.6666666666667</ele><time>2026-05-01T10:12:33.943Z</time></trkpt><trkpt lat="45.4432359" lon="7.6554544"><ele>1287.0</ele><time>2026-05-01T10:12:34.95Z</time></trkpt><trkpt lat="45.443168" lon="7.6554637"><ele>1287.0</ele><time>2026-05-01T10:12:36.945Z</time></trkpt><trkpt lat="45.4432536" lon="7.6554839"><ele>1287.0</ele><time>2026-05-01T10:12:51.952Z</time></trkpt><trkpt lat="45.4433751" lon="7.6555085"><ele>1287.0</ele><time>2026-05-01T10:12:53.951Z</time></trkpt><trkpt lat="45.4434415" lon="7.6555426"><ele>1287.0</ele><time>2026-05-01T10:12:54.949Z</time></trkpt><trkpt lat="45.4435044" lon="7.6555782"><ele>1287.0</ele><time>2026-05-01T10:12:55.946Z</time></trkpt><trkpt lat="45.4436026" lon="7.6555748"><ele>1287.0</ele><time>2026-05-01T10:12:57.95Z</time></trkpt><trkpt lat="45.4435085" lon="7.6555875"><ele>1287.0</ele><time>2026-05-01T10:13:05.009Z</time></trkpt><trkpt lat="45.4434499" lon="7.6555326"><ele>1287.0</ele><time>2026-05-01T10:13:05.941Z</time></trkpt><trkpt lat="45.4433873" lon="7.6554901"><ele>1287.0</ele><time>2026-05-01T10:13:06.949Z</time></trkpt><trkpt lat="45.4432791" lon="7.6554712"><ele>1287.0</ele><time>2026-05-01T10:13:08.947Z</time></trkpt><trkpt lat="45.4431955" lon="7.6554987"><ele>1287.0</ele><time>2026-05-01T10:13:10.952Z</time></trkpt><trkpt lat="45.4431612" lon="7.6555854"><ele>1287.0</ele><time>2026-05-01T10:13:21.951Z</time></trkpt><trkpt lat="45.4431369" lon="7.6556797"><ele>1287.0</ele><time>2026-05-01T10:13:22.948Z</time></trkpt><trkpt lat="45.443121" lon="7.6557903"><ele>1287.0</ele><time>2026-05-01T10:13:23.952Z</time></trkpt><trkpt lat="45.4431124" lon="7.655881"><ele>1287.0</ele><time>2026-05-01T10:13:24.956Z</time></trkpt><trkpt lat="45.4431675" lon="7.6560068"><ele>1287.0</ele><time>2026-05-01T10:13:26.952Z</time></trkpt><trkpt lat="45.4432265" lon="7.6560399"><ele>1287.0</ele><time>2026-05-01T10:13:27.949Z</time></trkpt><trkpt lat="45.4432873" lon="7.6560712"><ele>1287.0</ele><time>2026-05-01T10:13:28.953Z</time></trkpt><trkpt lat="45.443342" lon="7.6561327"><ele>1287.0</ele><time>2026-05-01T10:13:29.953Z</time></trkpt><trkpt lat="45.4433838" lon="7.6562112"><ele>1285.5</ele><time>2026-05-01T10:13:30.956Z</time></trkpt><trkpt lat="45.4434074" lon="7.6563116"><ele>1284.0</ele><time>2026-05-01T10:13:31.955Z</time></trkpt><trkpt lat="45.4434334" lon="7.6564328"><ele>1282.5</ele><time>2026-05-01T10:13:32.942Z</time></trkpt><trkpt lat="45.4434562" lon="7.656568"><ele>1281.0</ele><time>2026-05-01T10:13:33.949Z</time></trkpt><trkpt lat="45.4434798" lon="7.6566945"><ele>1279.5</ele><time>2026-05-01T10:13:34.95Z</time></trkpt><trkpt lat="45.4434896" lon="7.656828"><ele>1278.0</ele><time>2026-05-01T10:13:35.953Z</time></trkpt><trkpt lat="45.4434969" lon="7.6569619"><ele>1277.2</ele><time>2026-05-01T10:13:37.018Z</time></trkpt><trkpt lat="45.4434945" lon="7.6571058"><ele>1276.4</ele><time>2026-05-01T10:13:37.945Z</time></trkpt><trkpt lat="45.443489" lon="7.6572561"><ele>1275.6000000000001</ele><time>2026-05-01T10:13:38.95Z</time></trkpt><trkpt lat="45.4434792" lon="7.6574119"><ele>1274.8</ele><time>2026-05-01T10:13:39.95Z</time></trkpt><trkpt lat="45.4434576" lon="7.6575666"><ele>1274.0</ele><time>2026-05-01T10:13:40.951Z</time></trkpt><trkpt lat="45.4434424" lon="7.657719"><ele>1273.2</ele><time>2026-05-01T10:13:41.948Z</time></trkpt><trkpt lat="45.4434342" lon="7.657868"><ele>1272.4</ele><time>2026-05-01T10:13:42.947Z</time></trkpt><trkpt lat="45.4434285" lon="7.6580224"><ele>1271.6</ele><time>2026-05-01T10:13:43.958Z</time></trkpt><trkpt lat="45.4434108" lon="7.6581674"><ele>1270.8</ele><time>2026-05-01T10:13:45.006Z</time></trkpt><trkpt lat="45.4433785" lon="7.6582837"><ele>1270.0</ele><time>2026-05-01T10:13:45.954Z</time></trkpt><trkpt lat="45.4433533" lon="7.6583973"><ele>1270.0</ele><time>2026-05-01T10:13:47.01Z</time></trkpt><trkpt lat="45.4433377" lon="7.6585193"><ele>1270.0</ele><time>2026-05-01T10:13:47.953Z</time></trkpt><trkpt lat="45.4433477" lon="7.658665"><ele>1270.0</ele><time>2026-05-01T10:13:48.95Z</time></trkpt><trkpt lat="45.4433701" lon="7.658816"><ele>1270.0</ele><time>2026-05-01T10:13:50.044Z</time></trkpt><trkpt lat="45.4433829" lon="7.6589623"><ele>1270.0</ele><time>2026-05-01T10:13:51.022Z</time></trkpt><trkpt lat="45.44339" lon="7.6591063"><ele>1268.0</ele><time>2026-05-01T10:13:52.012Z</time></trkpt><trkpt lat="45.4434037" lon="7.6592628"><ele>1266.0</ele><time>2026-05-01T10:13:52.961Z</time></trkpt><trkpt lat="45.4434153" lon="7.6594024"><ele>1264.0</ele><time>2026-05-01T10:13:54.016Z</time></trkpt><trkpt lat="45.4434298" lon="7.6595068"><ele>1262.0</ele><time>2026-05-01T10:13:55.012Z</time></trkpt><trkpt lat="45.4434578" lon="7.6595939"><ele>1260.0</ele><time>2026-05-01T10:13:56.019Z</time></trkpt><trkpt lat="45.4435173" lon="7.6596632"><ele>1258.0</ele><time>2026-05-01T10:13:57.013Z</time></trkpt><trkpt lat="45.4435967" lon="7.6597274"><ele>1255.0</ele><time>2026-05-01T10:13:57.954Z</time></trkpt><trkpt lat="45.4436681" lon="7.6597863"><ele>1252.0</ele><time>2026-05-01T10:13:58.952Z</time></trkpt><trkpt lat="45.4437412" lon="7.6599051"><ele>1249.0</ele><time>2026-05-01T10:14:01.013Z</time></trkpt><trkpt lat="45.4437101" lon="7.6599975"><ele>1246.0</ele><time>2026-05-01T10:14:03.948Z</time></trkpt><trkpt lat="45.4435732" lon="7.6599234"><ele>1243.0</ele><time>2026-05-01T10:14:06.009Z</time></trkpt><trkpt lat="45.4434797" lon="7.6598842"><ele>1243.0</ele><time>2026-05-01T10:14:07.015Z</time></trkpt><trkpt lat="45.4433596" lon="7.6598418"><ele>1243.0</ele><time>2026-05-01T10:14:07.95Z</time></trkpt><trkpt lat="45.4432254" lon="7.6598192"><ele>1243.0</ele><time>2026-05-01T10:14:08.952Z</time></trkpt><trkpt lat="45.443091" lon="7.6597967"><ele>1243.0</ele><time>2026-05-01T10:14:09.953Z</time></trkpt><trkpt lat="45.4429653" lon="7.659769"><ele>1241.4</ele><time>2026-05-01T10:14:10.953Z</time></trkpt><trkpt lat="45.4428435" lon="7.6597516"><ele>1239.8</ele><time>2026-05-01T10:14:11.95Z</time></trkpt><trkpt lat="45.4427314" lon="7.6597678"><ele>1238.2</ele><time>2026-05-01T10:14:12.951Z</time></trkpt><trkpt lat="45.4426283" lon="7.659813"><ele>1236.6</ele><time>2026-05-01T10:14:14Z</time></trkpt><trkpt lat="45.4425302" lon="7.6598663"><ele>1235.0</ele><time>2026-05-01T10:14:14.973Z</time></trkpt><trkpt lat="45.442443" lon="7.6599073"><ele>1235.0</ele><time>2026-05-01T10:14:15.954Z</time></trkpt><trkpt lat="45.4423669" lon="7.6598947"><ele>1235.0</ele><time>2026-05-01T10:14:17.013Z</time></trkpt><trkpt lat="45.4422866" lon="7.6598477"><ele>1235.0</ele><time>2026-05-01T10:14:17.952Z</time></trkpt><trkpt lat="45.4422122" lon="7.6597704"><ele>1235.0</ele><time>2026-05-01T10:14:18.951Z</time></trkpt><trkpt lat="45.4421414" lon="7.6596841"><ele>1235.0</ele><time>2026-05-01T10:14:19.949Z</time></trkpt><trkpt lat="45.4420731" lon="7.659609"><ele>1235.0</ele><time>2026-05-01T10:14:20.947Z</time></trkpt><trkpt lat="45.4420036" lon="7.6595588"><ele>1232.0</ele><time>2026-05-01T10:14:21.949Z</time></trkpt><trkpt lat="45.4418838" lon="7.6595373"><ele>1229.0</ele><time>2026-05-01T10:14:23.951Z</time></trkpt><trkpt lat="45.4418156" lon="7.6596707"><ele>1226.0</ele><time>2026-05-01T10:14:25.971Z</time></trkpt><trkpt lat="45.4417885" lon="7.6598089"><ele>1223.0</ele><time>2026-05-01T10:14:26.956Z</time></trkpt><trkpt lat="45.4417556" lon="7.6599719"><ele>1223.0</ele><time>2026-05-01T10:14:27.948Z</time></trkpt><trkpt lat="45.4417146" lon="7.6601195"><ele>1223.0</ele><time>2026-05-01T10:14:29.013Z</time></trkpt><trkpt lat="45.4416513" lon="7.6602416"><ele>1223.0</ele><time>2026-05-01T10:14:30.016Z</time></trkpt><trkpt lat="45.44159" lon="7.6603384"><ele>1223.0</ele><time>2026-05-01T10:14:31.011Z</time></trkpt><trkpt lat="45.4415532" lon="7.6604463"><ele>1223.0</ele><time>2026-05-01T10:14:32.014Z</time></trkpt><trkpt lat="45.4415165" lon="7.66058"><ele>1221.75</ele><time>2026-05-01T10:14:32.949Z</time></trkpt><trkpt lat="45.441469" lon="7.6607359"><ele>1220.5</ele><time>2026-05-01T10:14:33.945Z</time></trkpt><trkpt lat="45.4414124" lon="7.6608966"><ele>1219.25</ele><time>2026-05-01T10:14:34.97Z</time></trkpt><trkpt lat="45.4413535" lon="7.661053"><ele>1218.0</ele><time>2026-05-01T10:14:35.985Z</time></trkpt><trkpt lat="45.4412904" lon="7.6612094"><ele>1213.5</ele><time>2026-05-01T10:14:36.963Z</time></trkpt><trkpt lat="45.4412343" lon="7.6613686"><ele>1209.0</ele><time>2026-05-01T10:14:37.947Z</time></trkpt><trkpt lat="45.4411849" lon="7.6615347"><ele>1204.5</ele><time>2026-05-01T10:14:39.02Z</time></trkpt><trkpt lat="45.4411388" lon="7.6616964"><ele>1200.0</ele><time>2026-05-01T10:14:40.015Z</time></trkpt><trkpt lat="45.4410891" lon="7.6618486"><ele>1202.0</ele><time>2026-05-01T10:14:41.01Z</time></trkpt><trkpt lat="45.4410336" lon="7.6619936"><ele>1204.0</ele><time>2026-05-01T10:14:42.027Z</time></trkpt><trkpt lat="45.4409854" lon="7.6621201"><ele>1206.0</ele><time>2026-05-01T10:14:42.953Z</time></trkpt><trkpt lat="45.4409431" lon="7.6622488"><ele>1208.0</ele><time>2026-05-01T10:14:43.953Z</time></trkpt><trkpt lat="45.4409021" lon="7.6623788"><ele>1210.0</ele><time>2026-05-01T10:14:44.955Z</time></trkpt><trkpt lat="45.4408639" lon="7.6625128"><ele>1210.0</ele><time>2026-05-01T10:14:46.018Z</time></trkpt><trkpt lat="45.4408377" lon="7.662643"><ele>1210.0</ele><time>2026-05-01T10:14:46.954Z</time></trkpt><trkpt lat="45.4408144" lon="7.6627721"><ele>1210.0</ele><time>2026-05-01T10:14:47.96Z</time></trkpt><trkpt lat="45.4407964" lon="7.6628842"><ele>1210.0</ele><time>2026-05-01T10:14:48.956Z</time></trkpt><trkpt lat="45.4407889" lon="7.662985"><ele>1210.0</ele><time>2026-05-01T10:14:49.954Z</time></trkpt><trkpt lat="45.4407895" lon="7.6630909"><ele>1210.0</ele><time>2026-05-01T10:14:50.964Z</time></trkpt><trkpt lat="45.4407708" lon="7.6632312"><ele>1210.2</ele><time>2026-05-01T10:14:52.958Z</time></trkpt><trkpt lat="45.4407699" lon="7.6633371"><ele>1210.4</ele><time>2026-05-01T10:14:54.955Z</time></trkpt><trkpt lat="45.4407685" lon="7.6634866"><ele>1210.6</ele><time>2026-05-01T10:14:56.955Z</time></trkpt><trkpt lat="45.440771" lon="7.6636439"><ele>1210.8</ele><time>2026-05-01T10:14:58.955Z</time></trkpt><trkpt lat="45.440777" lon="7.6637867"><ele>1211.0</ele><time>2026-05-01T10:15:00.959Z</time></trkpt><trkpt lat="45.4407676" lon="7.6639004"><ele>1209.6666666666667</ele><time>2026-05-01T10:15:02.956Z</time></trkpt><trkpt lat="45.4406959" lon="7.6639573"><ele>1208.3333333333335</ele><time>2026-05-01T10:15:06.029Z</time></trkpt><trkpt lat="45.4406217" lon="7.663942"><ele>1207.0</ele><time>2026-05-01T10:15:07.958Z</time></trkpt><trkpt lat="45.4405466" lon="7.6639655"><ele>1205.6666666666667</ele><time>2026-05-01T10:15:12.026Z</time></trkpt><trkpt lat="45.4406397" lon="7.663932"><ele>1204.3333333333333</ele><time>2026-05-01T10:15:23.958Z</time></trkpt><trkpt lat="45.440712" lon="7.6639135"><ele>1203.0</ele><time>2026-05-01T10:15:26.035Z</time></trkpt><trkpt lat="45.440756" lon="7.663846"><ele>1203.0</ele><time>2026-05-01T10:15:28.956Z</time></trkpt><trkpt lat="45.4407664" lon="7.6637337"><ele>1203.0</ele><time>2026-05-01T10:15:30.959Z</time></trkpt><trkpt lat="45.4407768" lon="7.6635735"><ele>1203.0</ele><time>2026-05-01T10:15:32.958Z</time></trkpt><trkpt lat="45.4407926" lon="7.6634389"><ele>1203.0</ele><time>2026-05-01T10:15:34.96Z</time></trkpt><trkpt lat="45.4407706" lon="7.6633522"><ele>1203.0</ele><time>2026-05-01T10:15:37.022Z</time></trkpt><trkpt lat="45.4407018" lon="7.6633478"><ele>1203.0</ele><time>2026-05-01T10:15:38.96Z</time></trkpt><trkpt lat="45.4406365" lon="7.6634032"><ele>1203.0</ele><time>2026-05-01T10:15:40.96Z</time></trkpt><trkpt lat="45.4405922" lon="7.6635063"><ele>1203.0</ele><time>2026-05-01T10:15:42.961Z</time></trkpt><trkpt lat="45.4405823" lon="7.6636134"><ele>1203.0</ele><time>2026-05-01T10:16:25.963Z</time></trkpt><trkpt lat="45.4405189" lon="7.6636622"><ele>1203.0</ele><time>2026-05-01T10:16:38.917Z</time></trkpt><trkpt lat="45.4404728" lon="7.6637326"><ele>1203.0</ele><time>2026-05-01T10:16:45.961Z</time></trkpt><trkpt lat="45.4404665" lon="7.6638264"><ele>1203.0</ele><time>2026-05-01T10:16:55.956Z</time></trkpt><trkpt lat="45.4404073" lon="7.6638684"><ele>1203.0</ele><time>2026-05-01T10:17:08.957Z</time></trkpt><trkpt lat="45.4403333" lon="7.6637712"><ele>1202.1666666666667</ele><time>2026-05-01T10:17:19.956Z</time></trkpt><trkpt lat="45.4402697" lon="7.6636825"><ele>1201.3333333333333</ele><time>2026-05-01T10:17:20.952Z</time></trkpt><trkpt lat="45.4402075" lon="7.6636117"><ele>1200.5</ele><time>2026-05-01T10:17:21.949Z</time></trkpt><trkpt lat="45.4401453" lon="7.6635455"><ele>1199.6666666666665</ele><time>2026-05-01T10:17:22.949Z</time></trkpt><trkpt lat="45.440092" lon="7.6634876"><ele>1198.8333333333333</ele><time>2026-05-01T10:17:23.946Z</time></trkpt><trkpt lat="45.4400446" lon="7.6634278"><ele>1198.0</ele><time>2026-05-01T10:17:24.954Z</time></trkpt><trkpt lat="45.4399449" lon="7.6633144"><ele>1198.0</ele><time>2026-05-01T10:17:26.946Z</time></trkpt><trkpt lat="45.4398854" lon="7.6632716"><ele>1198.0</ele><time>2026-05-01T10:17:27.948Z</time></trkpt><trkpt lat="45.4398225" lon="7.6632432"><ele>1198.0</ele><time>2026-05-01T10:17:28.951Z</time></trkpt><trkpt lat="45.439748" lon="7.663229"><ele>1198.0</ele><time>2026-05-01T10:17:30.953Z</time></trkpt><trkpt lat="45.4397896" lon="7.663363"><ele>1198.0</ele><time>2026-05-01T10:17:33.955Z</time></trkpt><trkpt lat="45.4398479" lon="7.6634948"><ele>1198.0</ele><time>2026-05-01T10:17:35.961Z</time></trkpt><trkpt lat="45.4399149" lon="7.6636124"><ele>1196.6666666666665</ele><time>2026-05-01T10:17:37.952Z</time></trkpt><trkpt lat="45.4399536" lon="7.6637029"><ele>1195.3333333333333</ele><time>2026-05-01T10:17:39.952Z</time></trkpt><trkpt lat="45.4399569" lon="7.6638052"><ele>1194.0</ele><time>2026-05-01T10:17:42.952Z</time></trkpt><trkpt lat="45.439995" lon="7.6638951"><ele>1192.6666666666667</ele><time>2026-05-01T10:17:46.954Z</time></trkpt><trkpt lat="45.440084" lon="7.6639453"><ele>1191.3333333333335</ele><time>2026-05-01T10:17:49.955Z</time></trkpt><trkpt lat="45.4401548" lon="7.663951"><ele>1190.0</ele><time>2026-05-01T10:17:50.955Z</time></trkpt><trkpt lat="45.4402352" lon="7.663939"><ele>1190.0</ele><time>2026-05-01T10:17:51.957Z</time></trkpt><trkpt lat="45.440309" lon="7.6639074"><ele>1190.0</ele><time>2026-05-01T10:17:52.96Z</time></trkpt><trkpt lat="45.4403971" lon="7.6638786"><ele>1190.0</ele><time>2026-05-01T10:17:54.96Z</time></trkpt><trkpt lat="45.4404665" lon="7.6638724"><ele>1190.0</ele><time>2026-05-01T10:18:04.959Z</time></trkpt><trkpt lat="45.4404366" lon="7.6637901"><ele>1190.0</ele><time>2026-05-01T10:20:51.963Z</time></trkpt><trkpt lat="45.440412" lon="7.6637042"><ele>1190.0</ele><time>2026-05-01T10:21:07.965Z</time></trkpt><trkpt lat="45.4403496" lon="7.6636784"><ele>1190.0</ele><time>2026-05-01T10:21:16.959Z</time></trkpt><trkpt lat="45.4402883" lon="7.663629"><ele>1190.0</ele><time>2026-05-01T10:21:28.96Z</time></trkpt><trkpt lat="45.4402707" lon="7.6635395"><ele>1190.0</ele><time>2026-05-01T10:21:37.957Z</time></trkpt><trkpt lat="45.4402895" lon="7.6636383"><ele>1190.0</ele><time>2026-05-01T10:26:28.022Z</time></trkpt><trkpt lat="45.4403377" lon="7.6636991"><ele>1190.0</ele><time>2026-05-01T10:26:36.947Z</time></trkpt><trkpt lat="45.4403949" lon="7.6637453"><ele>1190.0</ele><time>2026-05-01T10:26:43.948Z</time></trkpt><trkpt lat="45.4404143" lon="7.6638334"><ele>1190.0</ele><time>2026-05-01T10:26:55.942Z</time></trkpt><trkpt lat="45.4404789" lon="7.6638425"><ele>1190.0</ele><time>2026-05-01T10:27:04.921Z</time></trkpt><trkpt lat="45.4405258" lon="7.6639025"><ele>1203.0</ele><time>2026-05-01T11:09:57.95Z</time></trkpt><trkpt lat="45.4405634" lon="7.663823"><ele>1203.0</ele><time>2026-05-01T11:10:50.028Z</time></trkpt></trkseg><trkseg><trkpt lat="45.4405735" lon="7.6636264"><ele>1204.3333333333333</ele><time>2026-05-01T12:00:42.53Z</time></trkpt><trkpt lat="45.4406079" lon="7.6635383"><ele>1205.6666666666667</ele><time>2026-05-01T12:01:42.532Z</time></trkpt><trkpt lat="45.4405791" lon="7.6634463"><ele>1207.0</ele><time>2026-05-01T12:01:44.533Z</time></trkpt><trkpt lat="45.4406385" lon="7.6633597"><ele>1208.3333333333335</ele><time>2026-05-01T12:01:46.536Z</time></trkpt><trkpt lat="45.4407076" lon="7.6632904"><ele>1209.6666666666667</ele><time>2026-05-01T12:01:48.531Z</time></trkpt><trkpt lat="45.44079" lon="7.6632583"><ele>1211.0</ele><time>2026-05-01T12:01:50.527Z</time></trkpt><trkpt lat="45.4408615" lon="7.6632936"><ele>1211.0</ele><time>2026-05-01T12:01:52.538Z</time></trkpt><trkpt lat="45.4409403" lon="7.6633146"><ele>1211.0</ele><time>2026-05-01T12:01:54.538Z</time></trkpt><trkpt lat="45.4410394" lon="7.663315"><ele>1211.0</ele><time>2026-05-01T12:01:56.533Z</time></trkpt><trkpt lat="45.4411365" lon="7.6633114"><ele>1211.0</ele><time>2026-05-01T12:01:58.537Z</time></trkpt><trkpt lat="45.441224" lon="7.6633221"><ele>1211.0</ele><time>2026-05-01T12:02:00.534Z</time></trkpt><trkpt lat="45.4413108" lon="7.6633266"><ele>1209.8</ele><time>2026-05-01T12:02:02.534Z</time></trkpt><trkpt lat="45.4414069" lon="7.6633261"><ele>1208.6</ele><time>2026-05-01T12:02:04.539Z</time></trkpt><trkpt lat="45.4415122" lon="7.6633285"><ele>1207.4</ele><time>2026-05-01T12:02:06.532Z</time></trkpt><trkpt lat="45.4416121" lon="7.6633421"><ele>1206.2</ele><time>2026-05-01T12:02:08.534Z</time></trkpt><trkpt lat="45.4417085" lon="7.6633399"><ele>1205.0</ele><time>2026-05-01T12:02:10.535Z</time></trkpt><trkpt lat="45.441804" lon="7.663335"><ele>1205.0</ele><time>2026-05-01T12:02:12.53Z</time></trkpt><trkpt lat="45.4418987" lon="7.6633277"><ele>1205.0</ele><time>2026-05-01T12:02:14.535Z</time></trkpt><trkpt lat="45.4419934" lon="7.6632967"><ele>1205.0</ele><time>2026-05-01T12:02:16.541Z</time></trkpt><trkpt lat="45.4420873" lon="7.663273"><ele>1205.0</ele><time>2026-05-01T12:02:18.536Z</time></trkpt><trkpt lat="45.4421565" lon="7.6633491"><ele>1205.0</ele><time>2026-05-01T12:02:20.531Z</time></trkpt><trkpt lat="45.442141" lon="7.6634581"><ele>1205.0</ele><time>2026-05-01T12:02:22.61Z</time></trkpt><trkpt lat="45.4420474" lon="7.6635133"><ele>1205.0</ele><time>2026-05-01T12:02:24.599Z</time></trkpt><trkpt lat="45.4419604" lon="7.6635515"><ele>1205.0</ele><time>2026-05-01T12:02:26.536Z</time></trkpt><trkpt lat="45.441876" lon="7.6636006"><ele>1205.0</ele><time>2026-05-01T12:02:28.599Z</time></trkpt><trkpt lat="45.4418166" lon="7.6636315"><ele>1205.0</ele><time>2026-05-01T12:02:29.593Z</time></trkpt><trkpt lat="45.4417041" lon="7.6636937"><ele>1203.2857142857142</ele><time>2026-05-01T12:02:31.539Z</time></trkpt><trkpt lat="45.4416445" lon="7.6637293"><ele>1201.5714285714284</ele><time>2026-05-01T12:02:32.614Z</time></trkpt><trkpt lat="45.4415896" lon="7.6637758"><ele>1199.8571428571427</ele><time>2026-05-01T12:02:33.601Z</time></trkpt><trkpt lat="45.4415416" lon="7.6638425"><ele>1198.142857142857</ele><time>2026-05-01T12:02:34.528Z</time></trkpt><trkpt lat="45.4415041" lon="7.6639259"><ele>1196.4285714285713</ele><time>2026-05-01T12:02:35.534Z</time></trkpt><trkpt lat="45.4414758" lon="7.6640169"><ele>1194.7142857142856</ele><time>2026-05-01T12:02:36.534Z</time></trkpt><trkpt lat="45.4414545" lon="7.6641098"><ele>1193.0</ele><time>2026-05-01T12:02:37.545Z</time></trkpt><trkpt lat="45.4414343" lon="7.6642084"><ele>1193.0</ele><time>2026-05-01T12:02:38.539Z</time></trkpt><trkpt lat="45.4414139" lon="7.6643144"><ele>1193.0</ele><time>2026-05-01T12:02:39.531Z</time></trkpt><trkpt lat="45.4413861" lon="7.6644161"><ele>1193.0</ele><time>2026-05-01T12:02:40.531Z</time></trkpt><trkpt lat="45.4413528" lon="7.6645098"><ele>1193.0</ele><time>2026-05-01T12:02:41.542Z</time></trkpt><trkpt lat="45.4413084" lon="7.6645978"><ele>1193.0</ele><time>2026-05-01T12:02:42.534Z</time></trkpt><trkpt lat="45.4412538" lon="7.664685"><ele>1193.0</ele><time>2026-05-01T12:02:43.536Z</time></trkpt><trkpt lat="45.4412007" lon="7.6647731"><ele>1192.5</ele><time>2026-05-01T12:02:44.568Z</time></trkpt><trkpt lat="45.4411418" lon="7.6648562"><ele>1192.0</ele><time>2026-05-01T12:02:45.533Z</time></trkpt><trkpt lat="45.4410786" lon="7.6649407"><ele>1191.5</ele><time>2026-05-01T12:02:46.538Z</time></trkpt><trkpt lat="45.441017" lon="7.6650173"><ele>1191.0</ele><time>2026-05-01T12:02:47.533Z</time></trkpt><trkpt lat="45.4409509" lon="7.6650876"><ele>1190.5</ele><time>2026-05-01T12:02:48.53Z</time></trkpt><trkpt lat="45.4408779" lon="7.6651429"><ele>1190.0</ele><time>2026-05-01T12:02:49.534Z</time></trkpt><trkpt lat="45.4408008" lon="7.6652024"><ele>1190.0</ele><time>2026-05-01T12:02:50.532Z</time></trkpt><trkpt lat="45.4407232" lon="7.6652544"><ele>1190.0</ele><time>2026-05-01T12:02:51.537Z</time></trkpt><trkpt lat="45.4406399" lon="7.6652976"><ele>1190.0</ele><time>2026-05-01T12:02:52.533Z</time></trkpt><trkpt lat="45.4405528" lon="7.6653177"><ele>1190.0</ele><time>2026-05-01T12:02:53.548Z</time></trkpt><trkpt lat="45.4404643" lon="7.665327"><ele>1190.0</ele><time>2026-05-01T12:02:54.534Z</time></trkpt><trkpt lat="45.4403759" lon="7.6653261"><ele>1190.0</ele><time>2026-05-01T12:02:55.535Z</time></trkpt><trkpt lat="45.440291" lon="7.6653152"><ele>1187.6666666666667</ele><time>2026-05-01T12:02:56.534Z</time></trkpt><trkpt lat="45.4402136" lon="7.6652924"><ele>1185.3333333333335</ele><time>2026-05-01T12:02:57.537Z</time></trkpt><trkpt lat="45.4401475" lon="7.6652654"><ele>1183.0</ele><time>2026-05-01T12:02:58.534Z</time></trkpt><trkpt lat="45.4400537" lon="7.6652157"><ele>1180.6666666666667</ele><time>2026-05-01T12:03:00.537Z</time></trkpt><trkpt lat="45.4400203" lon="7.6653019"><ele>1178.3333333333333</ele><time>2026-05-01T12:03:02.531Z</time></trkpt><trkpt lat="45.4400878" lon="7.6654207"><ele>1176.0</ele><time>2026-05-01T12:03:04.534Z</time></trkpt><trkpt lat="45.4401778" lon="7.665484"><ele>1174.6</ele><time>2026-05-01T12:03:06.575Z</time></trkpt><trkpt lat="45.4402694" lon="7.6655516"><ele>1173.1999999999998</ele><time>2026-05-01T12:03:08.533Z</time></trkpt><trkpt lat="45.4403723" lon="7.6656039"><ele>1171.8000000000002</ele><time>2026-05-01T12:03:10.53Z</time></trkpt><trkpt lat="45.4404813" lon="7.6656483"><ele>1170.4</ele><time>2026-05-01T12:03:12.53Z</time></trkpt><trkpt lat="45.4405913" lon="7.6657053"><ele>1169.0</ele><time>2026-05-01T12:03:14.532Z</time></trkpt><trkpt lat="45.4406563" lon="7.665731"><ele>1169.0</ele><time>2026-05-01T12:03:15.531Z</time></trkpt><trkpt lat="45.4407245" lon="7.66576"><ele>1169.0</ele><time>2026-05-01T12:03:16.536Z</time></trkpt><trkpt lat="45.4407917" lon="7.6657863"><ele>1169.0</ele><time>2026-05-01T12:03:17.531Z</time></trkpt><trkpt lat="45.4408645" lon="7.6658096"><ele>1169.0</ele><time>2026-05-01T12:03:18.537Z</time></trkpt><trkpt lat="45.4409384" lon="7.6658252"><ele>1169.0</ele><time>2026-05-01T12:03:19.535Z</time></trkpt><trkpt lat="45.4410108" lon="7.6658417"><ele>1169.0</ele><time>2026-05-01T12:03:20.538Z</time></trkpt><trkpt lat="45.4410839" lon="7.6658657"><ele>1169.0</ele><time>2026-05-01T12:03:21.538Z</time></trkpt><trkpt lat="45.4411579" lon="7.6658941"><ele>1169.0</ele><time>2026-05-01T12:03:22.536Z</time></trkpt><trkpt lat="45.4412356" lon="7.665919"><ele>1169.0</ele><time>2026-05-01T12:03:23.534Z</time></trkpt><trkpt lat="45.4413175" lon="7.6659504"><ele>1169.0</ele><time>2026-05-01T12:03:24.532Z</time></trkpt><trkpt lat="45.4414015" lon="7.6659845"><ele>1169.0</ele><time>2026-05-01T12:03:25.528Z</time></trkpt><trkpt lat="45.4414844" lon="7.6660317"><ele>1169.0</ele><time>2026-05-01T12:03:26.534Z</time></trkpt><trkpt lat="45.4415631" lon="7.6660883"><ele>1169.0</ele><time>2026-05-01T12:03:27.535Z</time></trkpt><trkpt lat="45.4416437" lon="7.6661725"><ele>1165.6666666666667</ele><time>2026-05-01T12:03:28.526Z</time></trkpt><trkpt lat="45.4417123" lon="7.6662673"><ele>1162.3333333333335</ele><time>2026-05-01T12:03:29.532Z</time></trkpt><trkpt lat="45.4417733" lon="7.6663632"><ele>1159.0</ele><time>2026-05-01T12:03:30.539Z</time></trkpt><trkpt lat="45.4418475" lon="7.6664576"><ele>1155.6666666666667</ele><time>2026-05-01T12:03:31.529Z</time></trkpt><trkpt lat="45.4419138" lon="7.666523"><ele>1152.3333333333333</ele><time>2026-05-01T12:03:32.599Z</time></trkpt><trkpt lat="45.4419837" lon="7.6665689"><ele>1149.0</ele><time>2026-05-01T12:03:33.594Z</time></trkpt><trkpt lat="45.4420434" lon="7.6666143"><ele>1149.0</ele><time>2026-05-01T12:03:34.601Z</time></trkpt><trkpt lat="45.4421119" lon="7.6666231"><ele>1149.0</ele><time>2026-05-01T12:03:35.535Z</time></trkpt><trkpt lat="45.4421902" lon="7.6666196"><ele>1149.0</ele><time>2026-05-01T12:03:36.538Z</time></trkpt><trkpt lat="45.4422747" lon="7.6665974"><ele>1149.0</ele><time>2026-05-01T12:03:37.539Z</time></trkpt><trkpt lat="45.4423623" lon="7.6665615"><ele>1149.0</ele><time>2026-05-01T12:03:38.537Z</time></trkpt><trkpt lat="45.4424507" lon="7.6665185"><ele>1149.0</ele><time>2026-05-01T12:03:39.538Z</time></trkpt><trkpt lat="45.4425482" lon="7.6664735"><ele>1148.3333333333333</ele><time>2026-05-01T12:03:40.536Z</time></trkpt><trkpt lat="45.4426473" lon="7.6664382"><ele>1147.6666666666667</ele><time>2026-05-01T12:03:41.532Z</time></trkpt><trkpt lat="45.4427421" lon="7.6664243"><ele>1147.0</ele><time>2026-05-01T12:03:42.535Z</time></trkpt><trkpt lat="45.4428239" lon="7.6664315"><ele>1146.3333333333335</ele><time>2026-05-01T12:03:43.592Z</time></trkpt><trkpt lat="45.4428889" lon="7.6664772"><ele>1145.6666666666667</ele><time>2026-05-01T12:03:44.6Z</time></trkpt><trkpt lat="45.4429467" lon="7.6665644"><ele>1145.0</ele><time>2026-05-01T12:03:45.533Z</time></trkpt><trkpt lat="45.4429824" lon="7.6666619"><ele>1143.3333333333335</ele><time>2026-05-01T12:03:46.537Z</time></trkpt><trkpt lat="45.4430099" lon="7.6667626"><ele>1141.6666666666667</ele><time>2026-05-01T12:03:47.536Z</time></trkpt><trkpt lat="45.4430307" lon="7.6668619"><ele>1140.0</ele><time>2026-05-01T12:03:48.536Z</time></trkpt><trkpt lat="45.4431127" lon="7.6669915"><ele>1138.3333333333333</ele><time>2026-05-01T12:03:50.537Z</time></trkpt><trkpt lat="45.4431775" lon="7.6670291"><ele>1136.6666666666665</ele><time>2026-05-01T12:03:51.595Z</time></trkpt><trkpt lat="45.4432482" lon="7.6670463"><ele>1135.0</ele><time>2026-05-01T12:03:52.6Z</time></trkpt><trkpt lat="45.443322" lon="7.6670702"><ele>1133.1666666666665</ele><time>2026-05-01T12:03:53.598Z</time></trkpt><trkpt lat="45.4433908" lon="7.6670997"><ele>1131.3333333333333</ele><time>2026-05-01T12:03:54.534Z</time></trkpt><trkpt lat="45.4434635" lon="7.667124"><ele>1129.5</ele><time>2026-05-01T12:03:55.535Z</time></trkpt><trkpt lat="45.4435353" lon="7.6671498"><ele>1127.6666666666667</ele><time>2026-05-01T12:03:56.535Z</time></trkpt><trkpt lat="45.4436073" lon="7.6671761"><ele>1125.8333333333335</ele><time>2026-05-01T12:03:57.536Z</time></trkpt><trkpt lat="45.4436854" lon="7.6672039"><ele>1124.0</ele><time>2026-05-01T12:03:58.532Z</time></trkpt><trkpt lat="45.4437616" lon="7.6672329"><ele>1123.6666666666667</ele><time>2026-05-01T12:03:59.534Z</time></trkpt><trkpt lat="45.4438382" lon="7.6672611"><ele>1123.3333333333335</ele><time>2026-05-01T12:04:00.535Z</time></trkpt><trkpt lat="45.443914" lon="7.6672881"><ele>1123.0</ele><time>2026-05-01T12:04:01.531Z</time></trkpt><trkpt lat="45.4439944" lon="7.6673191"><ele>1122.6666666666667</ele><time>2026-05-01T12:04:02.598Z</time></trkpt><trkpt lat="45.4440742" lon="7.6673528"><ele>1122.3333333333333</ele><time>2026-05-01T12:04:03.593Z</time></trkpt><trkpt lat="45.4441526" lon="7.6674038"><ele>1122.0</ele><time>2026-05-01T12:04:04.599Z</time></trkpt><trkpt lat="45.4442277" lon="7.6674704"><ele>1122.0</ele><time>2026-05-01T12:04:05.536Z</time></trkpt><trkpt lat="45.4442964" lon="7.6675429"><ele>1122.0</ele><time>2026-05-01T12:04:06.53Z</time></trkpt><trkpt lat="45.4443642" lon="7.6676158"><ele>1122.0</ele><time>2026-05-01T12:04:07.553Z</time></trkpt><trkpt lat="45.4444326" lon="7.6676768"><ele>1122.0</ele><time>2026-05-01T12:04:08.597Z</time></trkpt><trkpt lat="45.4445072" lon="7.6677324"><ele>1122.0</ele><time>2026-05-01T12:04:09.606Z</time></trkpt><trkpt lat="45.4445891" lon="7.6677721"><ele>1122.0</ele><time>2026-05-01T12:04:10.533Z</time></trkpt><trkpt lat="45.4446765" lon="7.6678019"><ele>1119.2</ele><time>2026-05-01T12:04:11.533Z</time></trkpt><trkpt lat="45.4447644" lon="7.6678353"><ele>1116.4</ele><time>2026-05-01T12:04:12.535Z</time></trkpt><trkpt lat="45.44485" lon="7.6678596"><ele>1113.6</ele><time>2026-05-01T12:04:13.593Z</time></trkpt><trkpt lat="45.4449202" lon="7.6678866"><ele>1110.8</ele><time>2026-05-01T12:04:14.59Z</time></trkpt><trkpt lat="45.4449988" lon="7.6680021"><ele>1108.0</ele><time>2026-05-01T12:04:16.527Z</time></trkpt><trkpt lat="45.4449519" lon="7.6681378"><ele>1108.0</ele><time>2026-05-01T12:04:18.596Z</time></trkpt><trkpt lat="45.4448501" lon="7.6681777"><ele>1108.0</ele><time>2026-05-01T12:04:20.538Z</time></trkpt><trkpt lat="45.4447444" lon="7.6682031"><ele>1108.0</ele><time>2026-05-01T12:04:22.599Z</time></trkpt><trkpt lat="45.4446224" lon="7.6682321"><ele>1108.0</ele><time>2026-05-01T12:04:24.593Z</time></trkpt><trkpt lat="45.4445539" lon="7.6682405"><ele>1108.0</ele><time>2026-05-01T12:04:25.539Z</time></trkpt><trkpt lat="45.444483" lon="7.6682369"><ele>1107.5</ele><time>2026-05-01T12:04:26.533Z</time></trkpt><trkpt lat="45.4444094" lon="7.6682232"><ele>1107.0</ele><time>2026-05-01T12:04:27.542Z</time></trkpt><trkpt lat="45.4443366" lon="7.6682054"><ele>1106.5</ele><time>2026-05-01T12:04:28.54Z</time></trkpt><trkpt lat="45.4442589" lon="7.6681811"><ele>1106.0</ele><time>2026-05-01T12:04:29.539Z</time></trkpt><trkpt lat="45.4441795" lon="7.6681597"><ele>1105.5</ele><time>2026-05-01T12:04:30.536Z</time></trkpt><trkpt lat="45.4441028" lon="7.6681441"><ele>1105.0</ele><time>2026-05-01T12:04:31.534Z</time></trkpt><trkpt lat="45.4440254" lon="7.6681436"><ele>1105.0</ele><time>2026-05-01T12:04:32.607Z</time></trkpt><trkpt lat="45.4439555" lon="7.6681544"><ele>1105.0</ele><time>2026-05-01T12:04:33.6Z</time></trkpt><trkpt lat="45.4438892" lon="7.6681871"><ele>1105.0</ele><time>2026-05-01T12:04:35.527Z</time></trkpt><trkpt lat="45.4439177" lon="7.6682765"><ele>1105.0</ele><time>2026-05-01T12:04:38.538Z</time></trkpt><trkpt lat="45.4440117" lon="7.6683188"><ele>1105.0</ele><time>2026-05-01T12:04:40.534Z</time></trkpt><trkpt lat="45.4441081" lon="7.6683664"><ele>1105.0</ele><time>2026-05-01T12:04:42.535Z</time></trkpt><trkpt lat="45.4441928" lon="7.6684357"><ele>1105.0</ele><time>2026-05-01T12:04:44.537Z</time></trkpt><trkpt lat="45.4442598" lon="7.6684999"><ele>1105.0</ele><time>2026-05-01T12:04:46.536Z</time></trkpt><trkpt lat="45.4443251" lon="7.6685547"><ele>1105.0</ele><time>2026-05-01T12:04:48.635Z</time></trkpt><trkpt lat="45.4444" lon="7.6686108"><ele>1105.0</ele><time>2026-05-01T12:04:50.534Z</time></trkpt><trkpt lat="45.4445044" lon="7.6686724"><ele>1105.0</ele><time>2026-05-01T12:04:52.534Z</time></trkpt><trkpt lat="45.4445773" lon="7.668691"><ele>1105.0</ele><time>2026-05-01T12:04:53.534Z</time></trkpt><trkpt lat="45.4446522" lon="7.6686948"><ele>1102.6666666666665</ele><time>2026-05-01T12:04:54.537Z</time></trkpt><trkpt lat="45.4447365" lon="7.6686992"><ele>1100.3333333333333</ele><time>2026-05-01T12:04:55.534Z</time></trkpt><trkpt lat="45.444822" lon="7.6687178"><ele>1098.0</ele><time>2026-05-01T12:04:56.598Z</time></trkpt><trkpt lat="45.4449094" lon="7.6687553"><ele>1095.6666666666667</ele><time>2026-05-01T12:04:57.592Z</time></trkpt><trkpt lat="45.4449913" lon="7.6688061"><ele>1093.3333333333335</ele><time>2026-05-01T12:04:58.6Z</time></trkpt><trkpt lat="45.4450561" lon="7.6688916"><ele>1091.0</ele><time>2026-05-01T12:04:59.536Z</time></trkpt><trkpt lat="45.4451127" lon="7.6689936"><ele>1091.0</ele><time>2026-05-01T12:05:00.54Z</time></trkpt><trkpt lat="45.4451707" lon="7.669093"><ele>1091.0</ele><time>2026-05-01T12:05:01.53Z</time></trkpt><trkpt lat="45.4452243" lon="7.6691935"><ele>1091.0</ele><time>2026-05-01T12:05:02.537Z</time></trkpt><trkpt lat="45.4452695" lon="7.6692776"><ele>1091.0</ele><time>2026-05-01T12:05:03.539Z</time></trkpt><trkpt lat="45.4453148" lon="7.6693567"><ele>1091.0</ele><time>2026-05-01T12:05:04.543Z</time></trkpt><trkpt lat="45.4453637" lon="7.6694276"><ele>1091.0</ele><time>2026-05-01T12:05:05.529Z</time></trkpt><trkpt lat="45.4454625" lon="7.6694997"><ele>1092.6666666666667</ele><time>2026-05-01T12:05:07.535Z</time></trkpt><trkpt lat="45.4455775" lon="7.6694828"><ele>1094.3333333333335</ele><time>2026-05-01T12:05:09.528Z</time></trkpt><trkpt lat="45.4456482" lon="7.6694494"><ele>1096.0</ele><time>2026-05-01T12:05:10.532Z</time></trkpt><trkpt lat="45.4457103" lon="7.6694185"><ele>1097.6666666666667</ele><time>2026-05-01T12:05:11.534Z</time></trkpt><trkpt lat="45.4457804" lon="7.6693633"><ele>1099.3333333333333</ele><time>2026-05-01T12:05:12.536Z</time></trkpt><trkpt lat="45.4458408" lon="7.6693122"><ele>1101.0</ele><time>2026-05-01T12:05:13.599Z</time></trkpt><trkpt lat="45.4458936" lon="7.6692511"><ele>1101.0</ele><time>2026-05-01T12:05:14.556Z</time></trkpt><trkpt lat="45.445953" lon="7.6691752"><ele>1101.0</ele><time>2026-05-01T12:05:15.541Z</time></trkpt><trkpt lat="45.4460004" lon="7.6690832"><ele>1101.0</ele><time>2026-05-01T12:05:16.533Z</time></trkpt><trkpt lat="45.4460338" lon="7.6689824"><ele>1101.0</ele><time>2026-05-01T12:05:17.533Z</time></trkpt><trkpt lat="45.4460604" lon="7.6688872"><ele>1101.0</ele><time>2026-05-01T12:05:18.589Z</time></trkpt><trkpt lat="45.4460891" lon="7.6687837"><ele>1101.0</ele><time>2026-05-01T12:05:19.597Z</time></trkpt><trkpt lat="45.4460939" lon="7.6686751"><ele>1101.1666666666667</ele><time>2026-05-01T12:05:20.526Z</time></trkpt><trkpt lat="45.4460842" lon="7.6685646"><ele>1101.3333333333333</ele><time>2026-05-01T12:05:21.535Z</time></trkpt><trkpt lat="45.4460694" lon="7.6684491"><ele>1101.5</ele><time>2026-05-01T12:05:22.574Z</time></trkpt><trkpt lat="45.4460517" lon="7.6683269"><ele>1101.6666666666665</ele><time>2026-05-01T12:05:23.541Z</time></trkpt><trkpt lat="45.4460396" lon="7.6682104"><ele>1101.8333333333333</ele><time>2026-05-01T12:05:24.589Z</time></trkpt><trkpt lat="45.4460395" lon="7.6681049"><ele>1102.0</ele><time>2026-05-01T12:05:25.536Z</time></trkpt><trkpt lat="45.4460494" lon="7.6680072"><ele>1102.0</ele><time>2026-05-01T12:05:26.534Z</time></trkpt><trkpt lat="45.4460595" lon="7.6679097"><ele>1102.0</ele><time>2026-05-01T12:05:27.576Z</time></trkpt><trkpt lat="45.4460896" lon="7.6677965"><ele>1102.0</ele><time>2026-05-01T12:05:29.586Z</time></trkpt><trkpt lat="45.4461535" lon="7.6677794"><ele>1102.0</ele><time>2026-05-01T12:05:31.539Z</time></trkpt><trkpt lat="45.4462791" lon="7.6677779"><ele>1102.0</ele><time>2026-05-01T12:05:33.606Z</time></trkpt><trkpt lat="45.4463462" lon="7.6677919"><ele>1102.0</ele><time>2026-05-01T12:05:34.538Z</time></trkpt><trkpt lat="45.4464099" lon="7.6677979"><ele>1100.6</ele><time>2026-05-01T12:05:35.534Z</time></trkpt><trkpt lat="45.4465083" lon="7.6677779"><ele>1099.2</ele><time>2026-05-01T12:05:37.53Z</time></trkpt><trkpt lat="45.446606" lon="7.6676563"><ele>1097.8</ele><time>2026-05-01T12:05:39.536Z</time></trkpt><trkpt lat="45.4466453" lon="7.6675539"><ele>1096.4</ele><time>2026-05-01T12:05:40.532Z</time></trkpt><trkpt lat="45.4466852" lon="7.6674576"><ele>1095.0</ele><time>2026-05-01T12:05:41.537Z</time></trkpt><trkpt lat="45.4467322" lon="7.667363"><ele>1095.0</ele><time>2026-05-01T12:05:42.626Z</time></trkpt><trkpt lat="45.446794" lon="7.6672927"><ele>1095.0</ele><time>2026-05-01T12:05:43.59Z</time></trkpt><trkpt lat="45.4468516" lon="7.6672086"><ele>1095.0</ele><time>2026-05-01T12:05:44.592Z</time></trkpt><trkpt lat="45.4469126" lon="7.6670991"><ele>1095.0</ele><time>2026-05-01T12:05:45.538Z</time></trkpt><trkpt lat="45.4469854" lon="7.6669733"><ele>1095.0</ele><time>2026-05-01T12:05:46.53Z</time></trkpt><trkpt lat="45.4470623" lon="7.6668141"><ele>1094.75</ele><time>2026-05-01T12:05:47.532Z</time></trkpt><trkpt lat="45.4471302" lon="7.6666382"><ele>1094.5</ele><time>2026-05-01T12:05:48.536Z</time></trkpt><trkpt lat="45.447192" lon="7.6664771"><ele>1094.25</ele><time>2026-05-01T12:05:49.532Z</time></trkpt><trkpt lat="45.4472384" lon="7.6663408"><ele>1094.0</ele><time>2026-05-01T12:05:50.529Z</time></trkpt><trkpt lat="45.4472881" lon="7.6662302"><ele>1094.0</ele><time>2026-05-01T12:05:51.531Z</time></trkpt><trkpt lat="45.447357" lon="7.66612"><ele>1094.0</ele><time>2026-05-01T12:05:52.606Z</time></trkpt><trkpt lat="45.447449" lon="7.6659997"><ele>1094.0</ele><time>2026-05-01T12:05:53.592Z</time></trkpt><trkpt lat="45.4475434" lon="7.6658732"><ele>1094.0</ele><time>2026-05-01T12:05:54.589Z</time></trkpt><trkpt lat="45.4476265" lon="7.6657429"><ele>1098.0</ele><time>2026-05-01T12:05:55.53Z</time></trkpt><trkpt lat="45.4477068" lon="7.6656198"><ele>1102.0</ele><time>2026-05-01T12:05:56.532Z</time></trkpt><trkpt lat="45.4477723" lon="7.6655222"><ele>1106.0</ele><time>2026-05-01T12:05:57.622Z</time></trkpt><trkpt lat="45.4478258" lon="7.6654342"><ele>1110.0</ele><time>2026-05-01T12:05:58.59Z</time></trkpt><trkpt lat="45.4478736" lon="7.6653613"><ele>1114.0</ele><time>2026-05-01T12:05:59.598Z</time></trkpt><trkpt lat="45.4479377" lon="7.6652809"><ele>1117.0</ele><time>2026-05-01T12:06:01.53Z</time></trkpt><trkpt lat="45.4480116" lon="7.6653582"><ele>1120.0</ele><time>2026-05-01T12:06:04.532Z</time></trkpt><trkpt lat="45.448034" lon="7.6654548"><ele>1123.0</ele><time>2026-05-01T12:06:05.532Z</time></trkpt><trkpt lat="45.4480564" lon="7.6655637"><ele>1126.0</ele><time>2026-05-01T12:06:06.524Z</time></trkpt><trkpt lat="45.4480587" lon="7.6656731"><ele>1129.0</ele><time>2026-05-01T12:06:07.589Z</time></trkpt><trkpt lat="45.4480538" lon="7.6657998"><ele>1132.0</ele><time>2026-05-01T12:06:08.565Z</time></trkpt><trkpt lat="45.4480378" lon="7.6659364"><ele>1132.0</ele><time>2026-05-01T12:06:09.531Z</time></trkpt><trkpt lat="45.4480185" lon="7.6660658"><ele>1132.0</ele><time>2026-05-01T12:06:10.529Z</time></trkpt><trkpt lat="45.4480048" lon="7.6661767"><ele>1132.0</ele><time>2026-05-01T12:06:11.53Z</time></trkpt><trkpt lat="45.4480012" lon="7.6662871"><ele>1132.0</ele><time>2026-05-01T12:06:12.527Z</time></trkpt><trkpt lat="45.4479898" lon="7.666401"><ele>1132.0</ele><time>2026-05-01T12:06:13.546Z</time></trkpt><trkpt lat="45.4479866" lon="7.6665175"><ele>1132.0</ele><time>2026-05-01T12:06:14.555Z</time></trkpt><trkpt lat="45.4479831" lon="7.6666341"><ele>1130.3333333333333</ele><time>2026-05-01T12:06:15.522Z</time></trkpt><trkpt lat="45.4479801" lon="7.6667506"><ele>1128.6666666666665</ele><time>2026-05-01T12:06:16.501Z</time></trkpt><trkpt lat="45.4479785" lon="7.6668713"><ele>1127.0</ele><time>2026-05-01T12:06:17.419Z</time></trkpt><trkpt lat="45.447975" lon="7.6669944"><ele>1125.3333333333333</ele><time>2026-05-01T12:06:18.422Z</time></trkpt><trkpt lat="45.4479711" lon="7.6671143"><ele>1123.6666666666667</ele><time>2026-05-01T12:06:19.421Z</time></trkpt><trkpt lat="45.4479739" lon="7.6672344"><ele>1122.0</ele><time>2026-05-01T12:06:20.424Z</time></trkpt><trkpt lat="45.4479844" lon="7.6673593"><ele>1119.6</ele><time>2026-05-01T12:06:21.422Z</time></trkpt><trkpt lat="45.4480042" lon="7.6674945"><ele>1117.2</ele><time>2026-05-01T12:06:22.491Z</time></trkpt><trkpt lat="45.4480359" lon="7.6676236"><ele>1114.8</ele><time>2026-05-01T12:06:23.462Z</time></trkpt><trkpt lat="45.4480938" lon="7.6677685"><ele>1112.4</ele><time>2026-05-01T12:06:24.446Z</time></trkpt><trkpt lat="45.4481516" lon="7.6679312"><ele>1110.0</ele><time>2026-05-01T12:06:25.423Z</time></trkpt><trkpt lat="45.4482102" lon="7.6680998"><ele>1105.25</ele><time>2026-05-01T12:06:26.428Z</time></trkpt><trkpt lat="45.4482698" lon="7.6682502"><ele>1100.5</ele><time>2026-05-01T12:06:27.424Z</time></trkpt><trkpt lat="45.4483115" lon="7.6683858"><ele>1095.75</ele><time>2026-05-01T12:06:28.427Z</time></trkpt><trkpt lat="45.4483648" lon="7.6685345"><ele>1091.0</ele><time>2026-05-01T12:06:29.423Z</time></trkpt><trkpt lat="45.4484064" lon="7.6686788"><ele>1089.3333333333335</ele><time>2026-05-01T12:06:30.424Z</time></trkpt><trkpt lat="45.4484433" lon="7.6688237"><ele>1087.6666666666667</ele><time>2026-05-01T12:06:31.354Z</time></trkpt><trkpt lat="45.4484794" lon="7.6689582"><ele>1086.0</ele><time>2026-05-01T12:06:32.357Z</time></trkpt><trkpt lat="45.4485064" lon="7.6690636"><ele>1084.3333333333333</ele><time>2026-05-01T12:06:33.358Z</time></trkpt><trkpt lat="45.4485329" lon="7.6691637"><ele>1082.6666666666665</ele><time>2026-05-01T12:06:34.353Z</time></trkpt><trkpt lat="45.4485632" lon="7.6692457"><ele>1081.0</ele><time>2026-05-01T12:06:35.358Z</time></trkpt><trkpt lat="45.4486194" lon="7.6694055"><ele>1078.3333333333333</ele><time>2026-05-01T12:06:37.395Z</time></trkpt><trkpt lat="45.448658" lon="7.6694981"><ele>1075.6666666666665</ele><time>2026-05-01T12:06:38.317Z</time></trkpt><trkpt lat="45.4486919" lon="7.6695945"><ele>1073.0</ele><time>2026-05-01T12:06:39.316Z</time></trkpt><trkpt lat="45.4487242" lon="7.6697308"><ele>1070.3333333333333</ele><time>2026-05-01T12:06:40.317Z</time></trkpt><trkpt lat="45.4487539" lon="7.6698543"><ele>1067.6666666666667</ele><time>2026-05-01T12:06:41.319Z</time></trkpt><trkpt lat="45.4487817" lon="7.6699593"><ele>1065.0</ele><time>2026-05-01T12:06:42.32Z</time></trkpt><trkpt lat="45.4488152" lon="7.6700659"><ele>1070.4</ele><time>2026-05-01T12:06:43.339Z</time></trkpt><trkpt lat="45.448889" lon="7.6702396"><ele>1075.8</ele><time>2026-05-01T12:06:45.111Z</time></trkpt><trkpt lat="45.4489264" lon="7.6703169"><ele>1081.2</ele><time>2026-05-01T12:06:46.109Z</time></trkpt><trkpt lat="45.4489735" lon="7.6703894"><ele>1086.6</ele><time>2026-05-01T12:06:47.118Z</time></trkpt><trkpt lat="45.4490129" lon="7.6704663"><ele>1092.0</ele><time>2026-05-01T12:06:48.117Z</time></trkpt><trkpt lat="45.4490978" lon="7.6705829"><ele>1092.0</ele><time>2026-05-01T12:06:50.112Z</time></trkpt><trkpt lat="45.449171" lon="7.6706777"><ele>1092.0</ele><time>2026-05-01T12:06:52.117Z</time></trkpt><trkpt lat="45.4492593" lon="7.6708698"><ele>1092.0</ele><time>2026-05-01T12:06:54.96Z</time></trkpt><trkpt lat="45.4492777" lon="7.6709662"><ele>1092.0</ele><time>2026-05-01T12:06:55.952Z</time></trkpt><trkpt lat="45.4492759" lon="7.6710577"><ele>1092.0</ele><time>2026-05-01T12:06:56.952Z</time></trkpt><trkpt lat="45.4492905" lon="7.6712262"><ele>1089.5</ele><time>2026-05-01T12:06:58.954Z</time></trkpt><trkpt lat="45.4492982" lon="7.6713216"><ele>1087.0</ele><time>2026-05-01T12:06:59.955Z</time></trkpt><trkpt lat="45.4493155" lon="7.6714222"><ele>1084.5</ele><time>2026-05-01T12:07:01.026Z</time></trkpt><trkpt lat="45.4493439" lon="7.6715258"><ele>1082.0</ele><time>2026-05-01T12:07:02.012Z</time></trkpt><trkpt lat="45.4493824" lon="7.671633"><ele>1079.5</ele><time>2026-05-01T12:07:03.021Z</time></trkpt><trkpt lat="45.4494169" lon="7.6717511"><ele>1077.0</ele><time>2026-05-01T12:07:04.026Z</time></trkpt><trkpt lat="45.4494564" lon="7.6718698"><ele>1075.0</ele><time>2026-05-01T12:07:04.953Z</time></trkpt><trkpt lat="45.4494899" lon="7.6719915"><ele>1073.0</ele><time>2026-05-01T12:07:05.959Z</time></trkpt><trkpt lat="45.4495167" lon="7.6721056"><ele>1071.0</ele><time>2026-05-01T12:07:06.978Z</time></trkpt><trkpt lat="45.4495342" lon="7.6722234"><ele>1069.0</ele><time>2026-05-01T12:07:08.025Z</time></trkpt><trkpt lat="45.4495411" lon="7.6723407"><ele>1067.0</ele><time>2026-05-01T12:07:08.946Z</time></trkpt><trkpt lat="45.4495234" lon="7.6724583"><ele>1065.0</ele><time>2026-05-01T12:07:09.942Z</time></trkpt><trkpt lat="45.4494772" lon="7.6725783"><ele>1065.0</ele><time>2026-05-01T12:07:10.948Z</time></trkpt><trkpt lat="45.4494262" lon="7.6726935"><ele>1065.0</ele><time>2026-05-01T12:07:12.01Z</time></trkpt><trkpt lat="45.4493693" lon="7.6728106"><ele>1065.0</ele><time>2026-05-01T12:07:13.021Z</time></trkpt><trkpt lat="45.4493064" lon="7.6729393"><ele>1065.0</ele><time>2026-05-01T12:07:14.019Z</time></trkpt><trkpt lat="45.4492509" lon="7.6730763"><ele>1065.0</ele><time>2026-05-01T12:07:14.948Z</time></trkpt><trkpt lat="45.4491849" lon="7.6732047"><ele>1064.2857142857142</ele><time>2026-05-01T12:07:15.944Z</time></trkpt><trkpt lat="45.4491424" lon="7.6733158"><ele>1063.5714285714284</ele><time>2026-05-01T12:07:16.973Z</time></trkpt><trkpt lat="45.4491318" lon="7.6734056"><ele>1062.8571428571427</ele><time>2026-05-01T12:07:18.011Z</time></trkpt><trkpt lat="45.4491409" lon="7.6734946"><ele>1062.142857142857</ele><time>2026-05-01T12:07:19.009Z</time></trkpt><trkpt lat="45.4491609" lon="7.673599"><ele>1061.4285714285713</ele><time>2026-05-01T12:07:19.95Z</time></trkpt><trkpt lat="45.449202" lon="7.6736868"><ele>1060.7142857142856</ele><time>2026-05-01T12:07:20.944Z</time></trkpt><trkpt lat="45.4492625" lon="7.673757"><ele>1060.0</ele><time>2026-05-01T12:07:22.05Z</time></trkpt><trkpt lat="45.4494149" lon="7.6738028"><ele>1060.6666666666665</ele><time>2026-05-01T12:07:23.952Z</time></trkpt><trkpt lat="45.4494934" lon="7.6738267"><ele>1061.3333333333333</ele><time>2026-05-01T12:07:24.952Z</time></trkpt><trkpt lat="45.4495741" lon="7.6738571"><ele>1062.0</ele><time>2026-05-01T12:07:25.947Z</time></trkpt><trkpt lat="45.4496459" lon="7.6739218"><ele>1062.6666666666667</ele><time>2026-05-01T12:07:26.953Z</time></trkpt><trkpt lat="45.4497185" lon="7.6740043"><ele>1063.3333333333335</ele><time>2026-05-01T12:07:27.947Z</time></trkpt><trkpt lat="45.4497983" lon="7.6740865"><ele>1064.0</ele><time>2026-05-01T12:07:28.949Z</time></trkpt><trkpt lat="45.449879" lon="7.6741686"><ele>1064.0</ele><time>2026-05-01T12:07:29.946Z</time></trkpt><trkpt lat="45.449956" lon="7.6742686"><ele>1064.0</ele><time>2026-05-01T12:07:30.949Z</time></trkpt><trkpt lat="45.4500401" lon="7.6743696"><ele>1064.0</ele><time>2026-05-01T12:07:31.945Z</time></trkpt><trkpt lat="45.4501261" lon="7.6744581"><ele>1064.0</ele><time>2026-05-01T12:07:32.951Z</time></trkpt><trkpt lat="45.4502183" lon="7.6745249"><ele>1064.0</ele><time>2026-05-01T12:07:34.01Z</time></trkpt><trkpt lat="45.4503129" lon="7.674573"><ele>1060.6666666666667</ele><time>2026-05-01T12:07:34.948Z</time></trkpt><trkpt lat="45.4504146" lon="7.6746109"><ele>1057.3333333333335</ele><time>2026-05-01T12:07:35.953Z</time></trkpt><trkpt lat="45.4505022" lon="7.674637"><ele>1054.0</ele><time>2026-05-01T12:07:36.947Z</time></trkpt><trkpt lat="45.4505742" lon="7.674658"><ele>1050.6666666666667</ele><time>2026-05-01T12:07:37.946Z</time></trkpt><trkpt lat="45.4506369" lon="7.6747519"><ele>1047.3333333333333</ele><time>2026-05-01T12:07:39.953Z</time></trkpt><trkpt lat="45.4505776" lon="7.6748157"><ele>1044.0</ele><time>2026-05-01T12:07:40.95Z</time></trkpt><trkpt lat="45.4505111" lon="7.674873"><ele>1044.0</ele><time>2026-05-01T12:07:41.946Z</time></trkpt><trkpt lat="45.450451" lon="7.6749179"><ele>1044.0</ele><time>2026-05-01T12:07:43.007Z</time></trkpt><trkpt lat="45.4503734" lon="7.6750398"><ele>1044.0</ele><time>2026-05-01T12:07:44.95Z</time></trkpt><trkpt lat="45.4502917" lon="7.6751581"><ele>1044.0</ele><time>2026-05-01T12:07:47.039Z</time></trkpt><trkpt lat="45.4502004" lon="7.6752682"><ele>1044.0</ele><time>2026-05-01T12:07:49.014Z</time></trkpt><trkpt lat="45.4501063" lon="7.675378"><ele>1041.6666666666667</ele><time>2026-05-01T12:07:50.95Z</time></trkpt><trkpt lat="45.4500538" lon="7.6754542"><ele>1039.3333333333333</ele><time>2026-05-01T12:07:52.033Z</time></trkpt><trkpt lat="45.450001" lon="7.6755538"><ele>1037.0</ele><time>2026-05-01T12:07:53.008Z</time></trkpt><trkpt lat="45.4499377" lon="7.6756605"><ele>1034.6666666666665</ele><time>2026-05-01T12:07:54.016Z</time></trkpt><trkpt lat="45.4498904" lon="7.6757697"><ele>1032.3333333333333</ele><time>2026-05-01T12:07:54.951Z</time></trkpt><trkpt lat="45.449851" lon="7.6758949"><ele>1030.0</ele><time>2026-05-01T12:07:55.951Z</time></trkpt><trkpt lat="45.4498288" lon="7.6760293"><ele>1027.2</ele><time>2026-05-01T12:07:57.054Z</time></trkpt><trkpt lat="45.4498318" lon="7.6761629"><ele>1024.4</ele><time>2026-05-01T12:07:58.006Z</time></trkpt><trkpt lat="45.4498283" lon="7.6763068"><ele>1021.5999999999999</ele><time>2026-05-01T12:07:58.948Z</time></trkpt><trkpt lat="45.4498241" lon="7.6764532"><ele>1018.8</ele><time>2026-05-01T12:07:59.951Z</time></trkpt><trkpt lat="45.4498161" lon="7.6765998"><ele>1016.0</ele><time>2026-05-01T12:08:00.95Z</time></trkpt><trkpt lat="45.4498049" lon="7.6767448"><ele>1016.0</ele><time>2026-05-01T12:08:01.949Z</time></trkpt><trkpt lat="45.4497943" lon="7.6768914"><ele>1015.9999999999999</ele><time>2026-05-01T12:08:02.952Z</time></trkpt><trkpt lat="45.4497837" lon="7.677031"><ele>1015.9999999999999</ele><time>2026-05-01T12:08:03.946Z</time></trkpt><trkpt lat="45.4497676" lon="7.6771662"><ele>1016.0</ele><time>2026-05-01T12:08:04.947Z</time></trkpt><trkpt lat="45.4497549" lon="7.6773083"><ele>1016.0</ele><time>2026-05-01T12:08:06.016Z</time></trkpt><trkpt lat="45.4497455" lon="7.6774377"><ele>1014.8333333333334</ele><time>2026-05-01T12:08:07.017Z</time></trkpt><trkpt lat="45.449729" lon="7.6775588"><ele>1013.6666666666667</ele><time>2026-05-01T12:08:08.006Z</time></trkpt><trkpt lat="45.4497025" lon="7.6776637"><ele>1012.5</ele><time>2026-05-01T12:08:08.952Z</time></trkpt><trkpt lat="45.449666" lon="7.6777578"><ele>1011.3333333333333</ele><time>2026-05-01T12:08:09.953Z</time></trkpt><trkpt lat="45.4496126" lon="7.6778101"><ele>1010.1666666666666</ele><time>2026-05-01T12:08:10.953Z</time></trkpt><trkpt lat="45.4494943" lon="7.6778785"><ele>1009.0</ele><time>2026-05-01T12:08:12.943Z</time></trkpt><trkpt lat="45.4493879" lon="7.6779122"><ele>1008.6666666666666</ele><time>2026-05-01T12:08:14.94Z</time></trkpt><trkpt lat="45.4493144" lon="7.6778417"><ele>1008.3333333333333</ele><time>2026-05-01T12:08:16.947Z</time></trkpt><trkpt lat="45.449301" lon="7.6777179"><ele>1008.0</ele><time>2026-05-01T12:08:18.946Z</time></trkpt><trkpt lat="45.4492996" lon="7.6775924"><ele>1007.6666666666667</ele><time>2026-05-01T12:08:20.949Z</time></trkpt><trkpt lat="45.4492723" lon="7.6774824"><ele>1007.3333333333334</ele><time>2026-05-01T12:08:23.009Z</time></trkpt><trkpt lat="45.449228" lon="7.677354"><ele>1007.0</ele><time>2026-05-01T12:08:24.951Z</time></trkpt><trkpt lat="45.4492019" lon="7.6772051"><ele>1007.0</ele><time>2026-05-01T12:08:26.987Z</time></trkpt><trkpt lat="45.4491766" lon="7.6770651"><ele>1007.0</ele><time>2026-05-01T12:08:28.945Z</time></trkpt><trkpt lat="45.4491353" lon="7.6769455"><ele>1007.0</ele><time>2026-05-01T12:08:30.97Z</time></trkpt><trkpt lat="45.4490748" lon="7.6768551"><ele>1007.0</ele><time>2026-05-01T12:08:32.952Z</time></trkpt><trkpt lat="45.449008" lon="7.6767682"><ele>1007.0</ele><time>2026-05-01T12:08:34.948Z</time></trkpt><trkpt lat="45.4489263" lon="7.6766902"><ele>1009.4000000000001</ele><time>2026-05-01T12:08:36.95Z</time></trkpt><trkpt lat="45.4488232" lon="7.6766326"><ele>1011.8000000000001</ele><time>2026-05-01T12:08:38.951Z</time></trkpt><trkpt lat="45.4487032" lon="7.6765704"><ele>1014.2</ele><time>2026-05-01T12:08:40.947Z</time></trkpt><trkpt lat="45.4486659" lon="7.6764967"><ele>1016.6</ele><time>2026-05-01T12:08:41.95Z</time></trkpt><trkpt lat="45.4486161" lon="7.6764136"><ele>1019.0</ele><time>2026-05-01T12:08:42.95Z</time></trkpt><trkpt lat="45.4485582" lon="7.6763369"><ele>1018.6666666666667</ele><time>2026-05-01T12:08:43.945Z</time></trkpt><trkpt lat="45.4484939" lon="7.6762592"><ele>1018.3333333333334</ele><time>2026-05-01T12:08:44.949Z</time></trkpt><trkpt lat="45.4484115" lon="7.6762093"><ele>1018.0</ele><time>2026-05-01T12:08:45.948Z</time></trkpt><trkpt lat="45.448328" lon="7.6761716"><ele>1017.6666666666667</ele><time>2026-05-01T12:08:46.946Z</time></trkpt><trkpt lat="45.4482478" lon="7.6761307"><ele>1017.3333333333334</ele><time>2026-05-01T12:08:47.944Z</time></trkpt><trkpt lat="45.4481625" lon="7.6760892"><ele>1017.0</ele><time>2026-05-01T12:08:48.95Z</time></trkpt><trkpt lat="45.4480778" lon="7.6760543"><ele>1017.0</ele><time>2026-05-01T12:08:49.952Z</time></trkpt><trkpt lat="45.4479971" lon="7.6760157"><ele>1017.0</ele><time>2026-05-01T12:08:50.945Z</time></trkpt><trkpt lat="45.447915" lon="7.6759864"><ele>1017.0</ele><time>2026-05-01T12:08:51.949Z</time></trkpt><trkpt lat="45.4478344" lon="7.6759567"><ele>1017.0</ele><time>2026-05-01T12:08:52.948Z</time></trkpt><trkpt lat="45.4477404" lon="7.675927"><ele>1017.0</ele><time>2026-05-01T12:08:53.953Z</time></trkpt><trkpt lat="45.4476463" lon="7.6758948"><ele>1017.0</ele><time>2026-05-01T12:08:54.955Z</time></trkpt><trkpt lat="45.4475457" lon="7.6758626"><ele>1013.3333333333334</ele><time>2026-05-01T12:08:55.949Z</time></trkpt><trkpt lat="45.4474473" lon="7.6758201"><ele>1009.6666666666667</ele><time>2026-05-01T12:08:56.95Z</time></trkpt><trkpt lat="45.4473622" lon="7.6757765"><ele>1006.0</ele><time>2026-05-01T12:08:57.949Z</time></trkpt><trkpt lat="45.4472938" lon="7.6757321"><ele>1002.3333333333334</ele><time>2026-05-01T12:08:58.947Z</time></trkpt><trkpt lat="45.4472449" lon="7.6756614"><ele>998.6666666666667</ele><time>2026-05-01T12:08:59.946Z</time></trkpt><trkpt lat="45.4472168" lon="7.6755568"><ele>995.0</ele><time>2026-05-01T12:09:00.947Z</time></trkpt><trkpt lat="45.4472203" lon="7.675434"><ele>995.0</ele><time>2026-05-01T12:09:01.944Z</time></trkpt><trkpt lat="45.4472431" lon="7.6752979"><ele>995.0</ele><time>2026-05-01T12:09:02.953Z</time></trkpt><trkpt lat="45.4472675" lon="7.6751874"><ele>995.0</ele><time>2026-05-01T12:09:03.946Z</time></trkpt><trkpt lat="45.4472459" lon="7.6750771"><ele>995.0</ele><time>2026-05-01T12:09:05.95Z</time></trkpt><trkpt lat="45.4471514" lon="7.6750914"><ele>995.0</ele><time>2026-05-01T12:09:07.949Z</time></trkpt><trkpt lat="45.4470714" lon="7.6752"><ele>989.1666666666667</ele><time>2026-05-01T12:09:09.949Z</time></trkpt><trkpt lat="45.4470382" lon="7.6752808"><ele>983.3333333333334</ele><time>2026-05-01T12:09:10.947Z</time></trkpt><trkpt lat="45.4469997" lon="7.6753718"><ele>977.5</ele><time>2026-05-01T12:09:11.95Z</time></trkpt><trkpt lat="45.4469572" lon="7.6754753"><ele>971.6666666666667</ele><time>2026-05-01T12:09:12.954Z</time></trkpt><trkpt lat="45.4469085" lon="7.6755844"><ele>965.8333333333334</ele><time>2026-05-01T12:09:13.95Z</time></trkpt><trkpt lat="45.4468748" lon="7.6756964"><ele>960.0</ele><time>2026-05-01T12:09:14.948Z</time></trkpt><trkpt lat="45.4468541" lon="7.675813"><ele>960.0</ele><time>2026-05-01T12:09:15.956Z</time></trkpt><trkpt lat="45.4468339" lon="7.6759253"><ele>960.0</ele><time>2026-05-01T12:09:16.949Z</time></trkpt><trkpt lat="45.4468404" lon="7.6760493"><ele>960.0</ele><time>2026-05-01T12:09:17.948Z</time></trkpt><trkpt lat="45.4468758" lon="7.6761742"><ele>960.0</ele><time>2026-05-01T12:09:18.957Z</time></trkpt><trkpt lat="45.4469192" lon="7.6762986"><ele>960.0</ele><time>2026-05-01T12:09:19.948Z</time></trkpt><trkpt lat="45.4469727" lon="7.6764071"><ele>959.0</ele><time>2026-05-01T12:09:20.946Z</time></trkpt><trkpt lat="45.4470239" lon="7.6765023"><ele>958.0</ele><time>2026-05-01T12:09:21.947Z</time></trkpt><trkpt lat="45.4470741" lon="7.6765951"><ele>957.0</ele><time>2026-05-01T12:09:22.953Z</time></trkpt><trkpt lat="45.4471248" lon="7.6766755"><ele>956.0</ele><time>2026-05-01T12:09:23.953Z</time></trkpt><trkpt lat="45.447179" lon="7.6767487"><ele>955.0</ele><time>2026-05-01T12:09:24.951Z</time></trkpt><trkpt lat="45.4472397" lon="7.6768027"><ele>954.0</ele><time>2026-05-01T12:09:25.945Z</time></trkpt><trkpt lat="45.4472984" lon="7.6768466"><ele>954.0</ele><time>2026-05-01T12:09:26.954Z</time></trkpt><trkpt lat="45.4473589" lon="7.6768919"><ele>953.9999999999999</ele><time>2026-05-01T12:09:27.951Z</time></trkpt><trkpt lat="45.4473897" lon="7.6769918"><ele>954.0</ele><time>2026-05-01T12:09:29.947Z</time></trkpt><trkpt lat="45.447328" lon="7.6770195"><ele>954.0</ele><time>2026-05-01T12:09:31.943Z</time></trkpt><trkpt lat="45.4472353" lon="7.6769826"><ele>953.9999999999999</ele><time>2026-05-01T12:09:33.945Z</time></trkpt><trkpt lat="45.4471737" lon="7.6769505"><ele>954.0</ele><time>2026-05-01T12:09:34.945Z</time></trkpt><trkpt lat="45.447104" lon="7.6769154"><ele>954.0</ele><time>2026-05-01T12:09:35.947Z</time></trkpt><trkpt lat="45.4470292" lon="7.6768866"><ele>954.0</ele><time>2026-05-01T12:09:36.947Z</time></trkpt><trkpt lat="45.4469452" lon="7.676861"><ele>954.0000000000001</ele><time>2026-05-01T12:09:37.946Z</time></trkpt><trkpt lat="45.4468509" lon="7.6768285"><ele>954.0000000000001</ele><time>2026-05-01T12:09:38.946Z</time></trkpt><trkpt lat="45.4467481" lon="7.6767923"><ele>954.0</ele><time>2026-05-01T12:09:39.949Z</time></trkpt><trkpt lat="45.4466392" lon="7.6767688"><ele>954.0</ele><time>2026-05-01T12:09:40.945Z</time></trkpt><trkpt lat="45.446545" lon="7.6767423"><ele>954.0</ele><time>2026-05-01T12:09:41.945Z</time></trkpt><trkpt lat="45.4464543" lon="7.6766978"><ele>954.0000000000001</ele><time>2026-05-01T12:09:42.951Z</time></trkpt><trkpt lat="45.4463609" lon="7.6766193"><ele>954.0000000000001</ele><time>2026-05-01T12:09:43.945Z</time></trkpt><trkpt lat="45.4462774" lon="7.6765411"><ele>954.0</ele><time>2026-05-01T12:09:44.943Z</time></trkpt><trkpt lat="45.4462099" lon="7.6764603"><ele>954.0</ele><time>2026-05-01T12:09:45.947Z</time></trkpt><trkpt lat="45.4461595" lon="7.6763655"><ele>948.8333333333334</ele><time>2026-05-01T12:09:46.947Z</time></trkpt><trkpt lat="45.4461231" lon="7.6762895"><ele>943.6666666666667</ele><time>2026-05-01T12:09:47.942Z</time></trkpt><trkpt lat="45.4460383" lon="7.6762398"><ele>938.5</ele><time>2026-05-01T12:09:49.948Z</time></trkpt><trkpt lat="45.4460185" lon="7.6763969"><ele>933.3333333333334</ele><time>2026-05-01T12:09:52.941Z</time></trkpt><trkpt lat="45.446052" lon="7.6765076"><ele>928.1666666666667</ele><time>2026-05-01T12:09:53.943Z</time></trkpt><trkpt lat="45.4460883" lon="7.6766224"><ele>923.0</ele><time>2026-05-01T12:09:54.951Z</time></trkpt><trkpt lat="45.4461188" lon="7.6767425"><ele>923.0</ele><time>2026-05-01T12:09:55.945Z</time></trkpt><trkpt lat="45.4461494" lon="7.6768608"><ele>923.0</ele><time>2026-05-01T12:09:56.943Z</time></trkpt><trkpt lat="45.4461788" lon="7.6769837"><ele>923.0</ele><time>2026-05-01T12:09:58.007Z</time></trkpt><trkpt lat="45.4462128" lon="7.6771034"><ele>923.0</ele><time>2026-05-01T12:09:59.019Z</time></trkpt><trkpt lat="45.4462519" lon="7.6772208"><ele>923.0</ele><time>2026-05-01T12:09:59.941Z</time></trkpt><trkpt lat="45.4462973" lon="7.6773421"><ele>923.3333333333334</ele><time>2026-05-01T12:10:00.948Z</time></trkpt><trkpt lat="45.4463365" lon="7.6774483"><ele>923.6666666666667</ele><time>2026-05-01T12:10:01.949Z</time></trkpt><trkpt lat="45.4463708" lon="7.6775489"><ele>924.0</ele><time>2026-05-01T12:10:03Z</time></trkpt><trkpt lat="45.4463964" lon="7.6776429"><ele>924.3333333333333</ele><time>2026-05-01T12:10:03.947Z</time></trkpt><trkpt lat="45.4463717" lon="7.6777731"><ele>924.6666666666666</ele><time>2026-05-01T12:10:05.944Z</time></trkpt><trkpt lat="45.44629" lon="7.6777899"><ele>925.0</ele><time>2026-05-01T12:10:07.948Z</time></trkpt><trkpt lat="45.4462095" lon="7.6776793"><ele>923.4</ele><time>2026-05-01T12:10:09.944Z</time></trkpt><trkpt lat="45.4461242" lon="7.6775941"><ele>921.8</ele><time>2026-05-01T12:10:11.955Z</time></trkpt><trkpt lat="45.4460531" lon="7.6776136"><ele>920.2</ele><time>2026-05-01T12:10:13.949Z</time></trkpt><trkpt lat="45.4460277" lon="7.67775"><ele>918.6</ele><time>2026-05-01T12:10:15.941Z</time></trkpt><trkpt lat="45.4460633" lon="7.677935"><ele>917.0</ele><time>2026-05-01T12:10:17.941Z</time></trkpt><trkpt lat="45.4460827" lon="7.6780371"><ele>915.4000000000001</ele><time>2026-05-01T12:10:18.949Z</time></trkpt><trkpt lat="45.4460998" lon="7.6781631"><ele>913.8000000000001</ele><time>2026-05-01T12:10:19.936Z</time></trkpt><trkpt lat="45.4461204" lon="7.6783017"><ele>912.2</ele><time>2026-05-01T12:10:20.946Z</time></trkpt><trkpt lat="45.4461307" lon="7.6784456"><ele>910.6</ele><time>2026-05-01T12:10:21.943Z</time></trkpt><trkpt lat="45.4461396" lon="7.6785952"><ele>909.0</ele><time>2026-05-01T12:10:22.945Z</time></trkpt><trkpt lat="45.4461071" lon="7.6787467"><ele>906.4000000000001</ele><time>2026-05-01T12:10:23.946Z</time></trkpt><trkpt lat="45.4460628" lon="7.678869"><ele>903.8000000000001</ele><time>2026-05-01T12:10:24.957Z</time></trkpt><trkpt lat="45.4460325" lon="7.6790011"><ele>901.1999999999999</ele><time>2026-05-01T12:10:25.945Z</time></trkpt><trkpt lat="45.4460358" lon="7.6791219"><ele>898.5999999999999</ele><time>2026-05-01T12:10:26.95Z</time></trkpt><trkpt lat="45.4460667" lon="7.6792445"><ele>896.0</ele><time>2026-05-01T12:10:27.943Z</time></trkpt><trkpt lat="45.4461216" lon="7.6793399"><ele>896.0000000000001</ele><time>2026-05-01T12:10:28.947Z</time></trkpt><trkpt lat="45.4461826" lon="7.6794177"><ele>896.0</ele><time>2026-05-01T12:10:29.949Z</time></trkpt><trkpt lat="45.4462503" lon="7.6794769"><ele>896.0</ele><time>2026-05-01T12:10:30.947Z</time></trkpt><trkpt lat="45.4463138" lon="7.6795221"><ele>896.0</ele><time>2026-05-01T12:10:32.018Z</time></trkpt><trkpt lat="45.4463792" lon="7.6795806"><ele>896.0000000000001</ele><time>2026-05-01T12:10:32.952Z</time></trkpt><trkpt lat="45.4464554" lon="7.6796572"><ele>896.0</ele><time>2026-05-01T12:10:34.009Z</time></trkpt><trkpt lat="45.4465256" lon="7.679736"><ele>896.8333333333334</ele><time>2026-05-01T12:10:34.95Z</time></trkpt><trkpt lat="45.4466018" lon="7.679821"><ele>897.6666666666667</ele><time>2026-05-01T12:10:35.945Z</time></trkpt><trkpt lat="45.4466738" lon="7.6799169"><ele>898.5</ele><time>2026-05-01T12:10:37.009Z</time></trkpt><trkpt lat="45.4467305" lon="7.6800141"><ele>899.3333333333333</ele><time>2026-05-01T12:10:38.002Z</time></trkpt><trkpt lat="45.4467736" lon="7.6800985"><ele>900.1666666666666</ele><time>2026-05-01T12:10:39.008Z</time></trkpt><trkpt lat="45.4468071" lon="7.6801762"><ele>901.0</ele><time>2026-05-01T12:10:39.95Z</time></trkpt><trkpt lat="45.446797" lon="7.6802702"><ele>895.8</ele><time>2026-05-01T12:10:42.068Z</time></trkpt><trkpt lat="45.4466777" lon="7.6803605"><ele>890.5999999999999</ele><time>2026-05-01T12:10:43.943Z</time></trkpt><trkpt lat="45.4466044" lon="7.6804095"><ele>885.4</ele><time>2026-05-01T12:10:44.945Z</time></trkpt><trkpt lat="45.4465264" lon="7.6804504"><ele>880.2</ele><time>2026-05-01T12:10:46.001Z</time></trkpt><trkpt lat="45.4464426" lon="7.680466"><ele>875.0</ele><time>2026-05-01T12:10:46.984Z</time></trkpt><trkpt lat="45.4463571" lon="7.6804597"><ele>873.6666666666667</ele><time>2026-05-01T12:10:47.943Z</time></trkpt><trkpt lat="45.4462687" lon="7.6804183"><ele>872.3333333333334</ele><time>2026-05-01T12:10:48.945Z</time></trkpt><trkpt lat="45.4461738" lon="7.6803909"><ele>871.0</ele><time>2026-05-01T12:10:49.943Z</time></trkpt><trkpt lat="45.4460844" lon="7.6803741"><ele>869.6666666666667</ele><time>2026-05-01T12:10:50.944Z</time></trkpt><trkpt lat="45.4460001" lon="7.6803492"><ele>868.3333333333334</ele><time>2026-05-01T12:10:51.947Z</time></trkpt><trkpt lat="45.4459237" lon="7.6803247"><ele>867.0</ele><time>2026-05-01T12:10:52.942Z</time></trkpt><trkpt lat="45.4458521" lon="7.6803099"><ele>867.0</ele><time>2026-05-01T12:10:53.962Z</time></trkpt><trkpt lat="45.4457822" lon="7.6802879"><ele>867.0</ele><time>2026-05-01T12:10:54.947Z</time></trkpt><trkpt lat="45.4457166" lon="7.6802715"><ele>867.0</ele><time>2026-05-01T12:10:56.013Z</time></trkpt><trkpt lat="45.4456492" lon="7.6802641"><ele>867.0</ele><time>2026-05-01T12:10:57.003Z</time></trkpt><trkpt lat="45.4455203" lon="7.6802826"><ele>867.0</ele><time>2026-05-01T12:10:58.946Z</time></trkpt><trkpt lat="45.4454507" lon="7.6802914"><ele>867.0</ele><time>2026-05-01T12:10:59.942Z</time></trkpt><trkpt lat="45.4453736" lon="7.6803004"><ele>866.5</ele><time>2026-05-01T12:11:00.945Z</time></trkpt><trkpt lat="45.445307" lon="7.6802972"><ele>866.0</ele><time>2026-05-01T12:11:01.948Z</time></trkpt><trkpt lat="45.4452444" lon="7.6802556"><ele>865.5</ele><time>2026-05-01T12:11:02.942Z</time></trkpt><trkpt lat="45.4451832" lon="7.680176"><ele>865.0</ele><time>2026-05-01T12:11:04.013Z</time></trkpt><trkpt lat="45.4451231" lon="7.6800927"><ele>864.5</ele><time>2026-05-01T12:11:04.948Z</time></trkpt><trkpt lat="45.4450641" lon="7.6800305"><ele>864.0</ele><time>2026-05-01T12:11:05.948Z</time></trkpt><trkpt lat="45.4449619" lon="7.6800251"><ele>864.0</ele><time>2026-05-01T12:11:08.013Z</time></trkpt><trkpt lat="45.4449119" lon="7.6801773"><ele>864.0</ele><time>2026-05-01T12:11:09.951Z</time></trkpt><trkpt lat="45.4449245" lon="7.6802726"><ele>864.0</ele><time>2026-05-01T12:11:10.948Z</time></trkpt><trkpt lat="45.4449516" lon="7.6803564"><ele>864.0</ele><time>2026-05-01T12:11:12.038Z</time></trkpt><trkpt lat="45.4450061" lon="7.6804504"><ele>864.0</ele><time>2026-05-01T12:11:12.944Z</time></trkpt><trkpt lat="45.4450554" lon="7.6805283"><ele>864.0</ele><time>2026-05-01T12:11:13.94Z</time></trkpt><trkpt lat="45.4451012" lon="7.6806279"><ele>862.6</ele><time>2026-05-01T12:11:14.944Z</time></trkpt><trkpt lat="45.4451478" lon="7.6807415"><ele>861.2</ele><time>2026-05-01T12:11:15.945Z</time></trkpt><trkpt lat="45.4451961" lon="7.6808623"><ele>859.8000000000001</ele><time>2026-05-01T12:11:16.943Z</time></trkpt><trkpt lat="45.4452399" lon="7.6809859"><ele>858.4000000000001</ele><time>2026-05-01T12:11:17.945Z</time></trkpt><trkpt lat="45.4452848" lon="7.6811044"><ele>857.0</ele><time>2026-05-01T12:11:18.942Z</time></trkpt><trkpt lat="45.4453341" lon="7.6812187"><ele>856.1666666666667</ele><time>2026-05-01T12:11:19.94Z</time></trkpt><trkpt lat="45.4453891" lon="7.6813233"><ele>855.3333333333334</ele><time>2026-05-01T12:11:20.942Z</time></trkpt><trkpt lat="45.4454552" lon="7.681417"><ele>854.5</ele><time>2026-05-01T12:11:21.946Z</time></trkpt><trkpt lat="45.44552" lon="7.6814971"><ele>853.6666666666667</ele><time>2026-05-01T12:11:22.939Z</time></trkpt><trkpt lat="45.4455809" lon="7.68156"><ele>852.8333333333334</ele><time>2026-05-01T12:11:23.943Z</time></trkpt><trkpt lat="45.445653" lon="7.6816252"><ele>852.0</ele><time>2026-05-01T12:11:24.942Z</time></trkpt><trkpt lat="45.4457308" lon="7.6816973"><ele>852.0</ele><time>2026-05-01T12:11:25.943Z</time></trkpt><trkpt lat="45.4458012" lon="7.6817776"><ele>852.0</ele><time>2026-05-01T12:11:26.947Z</time></trkpt><trkpt lat="45.4458574" lon="7.681857"><ele>852.0</ele><time>2026-05-01T12:11:27.944Z</time></trkpt><trkpt lat="45.4459042" lon="7.6819588"><ele>852.0</ele><time>2026-05-01T12:11:28.942Z</time></trkpt><trkpt lat="45.4459272" lon="7.6820733"><ele>852.0</ele><time>2026-05-01T12:11:29.945Z</time></trkpt><trkpt lat="45.4459186" lon="7.682194"><ele>852.0</ele><time>2026-05-01T12:11:30.943Z</time></trkpt><trkpt lat="45.4458839" lon="7.6822906"><ele>850.1666666666666</ele><time>2026-05-01T12:11:31.938Z</time></trkpt><trkpt lat="45.4458292" lon="7.682357"><ele>848.3333333333333</ele><time>2026-05-01T12:11:32.948Z</time></trkpt><trkpt lat="45.4457583" lon="7.6824016"><ele>846.5</ele><time>2026-05-01T12:11:33.94Z</time></trkpt><trkpt lat="45.4456919" lon="7.6824016"><ele>844.6666666666666</ele><time>2026-05-01T12:11:34.943Z</time></trkpt><trkpt lat="45.4456227" lon="7.6823872"><ele>842.8333333333333</ele><time>2026-05-01T12:11:36.006Z</time></trkpt><trkpt lat="45.4455047" lon="7.6823638"><ele>841.0</ele><time>2026-05-01T12:11:37.951Z</time></trkpt><trkpt lat="45.4453969" lon="7.6823313"><ele>840.3333333333333</ele><time>2026-05-01T12:11:39.949Z</time></trkpt><trkpt lat="45.4452887" lon="7.6823106"><ele>839.6666666666666</ele><time>2026-05-01T12:11:41.941Z</time></trkpt><trkpt lat="45.4452254" lon="7.6823065"><ele>839.0</ele><time>2026-05-01T12:11:42.938Z</time></trkpt><trkpt lat="45.4451568" lon="7.6823116"><ele>838.3333333333333</ele><time>2026-05-01T12:11:43.943Z</time></trkpt><trkpt lat="45.4450868" lon="7.682319"><ele>837.6666666666666</ele><time>2026-05-01T12:11:44.945Z</time></trkpt><trkpt lat="45.445012" lon="7.6823463"><ele>837.0</ele><time>2026-05-01T12:11:45.941Z</time></trkpt><trkpt lat="45.4449392" lon="7.682368"><ele>837.0</ele><time>2026-05-01T12:11:46.949Z</time></trkpt><trkpt lat="45.4448673" lon="7.6823989"><ele>837.0</ele><time>2026-05-01T12:11:47.946Z</time></trkpt><trkpt lat="45.4447976" lon="7.6824295"><ele>837.0</ele><time>2026-05-01T12:11:48.947Z</time></trkpt><trkpt lat="45.4447299" lon="7.6824533"><ele>837.0</ele><time>2026-05-01T12:11:49.943Z</time></trkpt><trkpt lat="45.4446616" lon="7.6824758"><ele>837.0</ele><time>2026-05-01T12:11:50.942Z</time></trkpt><trkpt lat="45.4445823" lon="7.6824865"><ele>837.0</ele><time>2026-05-01T12:11:51.942Z</time></trkpt><trkpt lat="45.4445008" lon="7.6824823"><ele>837.0</ele><time>2026-05-01T12:11:53.007Z</time></trkpt><trkpt lat="45.444418" lon="7.6824512"><ele>835.2</ele><time>2026-05-01T12:11:54.012Z</time></trkpt><trkpt lat="45.4443246" lon="7.6824217"><ele>833.4000000000001</ele><time>2026-05-01T12:11:54.947Z</time></trkpt><trkpt lat="45.4442325" lon="7.6823834"><ele>831.5999999999999</ele><time>2026-05-01T12:11:56.008Z</time></trkpt><trkpt lat="45.4441347" lon="7.6823377"><ele>829.8</ele><time>2026-05-01T12:11:57.007Z</time></trkpt><trkpt lat="45.4440316" lon="7.6822988"><ele>828.0</ele><time>2026-05-01T12:11:58.001Z</time></trkpt><trkpt lat="45.443928" lon="7.6822824"><ele>828.0</ele><time>2026-05-01T12:11:59.005Z</time></trkpt><trkpt lat="45.4438249" lon="7.6822777"><ele>828.0</ele><time>2026-05-01T12:11:59.949Z</time></trkpt><trkpt lat="45.4437168" lon="7.6822951"><ele>828.0</ele><time>2026-05-01T12:12:00.954Z</time></trkpt><trkpt lat="45.4436139" lon="7.6823111"><ele>828.0</ele><time>2026-05-01T12:12:01.969Z</time></trkpt><trkpt lat="45.4435134" lon="7.6823344"><ele>828.0</ele><time>2026-05-01T12:12:02.959Z</time></trkpt><trkpt lat="45.44342" lon="7.682365"><ele>826.6666666666666</ele><time>2026-05-01T12:12:03.956Z</time></trkpt><trkpt lat="45.4433339" lon="7.6823952"><ele>825.3333333333333</ele><time>2026-05-01T12:12:04.951Z</time></trkpt><trkpt lat="45.4432456" lon="7.6824276"><ele>824.0</ele><time>2026-05-01T12:12:05.946Z</time></trkpt><trkpt lat="45.4431548" lon="7.6824623"><ele>822.6666666666666</ele><time>2026-05-01T12:12:06.945Z</time></trkpt><trkpt lat="45.4430804" lon="7.6825046"><ele>821.3333333333333</ele><time>2026-05-01T12:12:07.952Z</time></trkpt><trkpt lat="45.4430275" lon="7.682568"><ele>820.0</ele><time>2026-05-01T12:12:08.941Z</time></trkpt><trkpt lat="45.4429883" lon="7.6826432"><ele>817.2</ele><time>2026-05-01T12:12:09.946Z</time></trkpt><trkpt lat="45.4429858" lon="7.6827885"><ele>814.4</ele><time>2026-05-01T12:12:11.951Z</time></trkpt><trkpt lat="45.4430724" lon="7.6828849"><ele>811.5999999999999</ele><time>2026-05-01T12:12:13.944Z</time></trkpt><trkpt lat="45.4431875" lon="7.6829467"><ele>808.8</ele><time>2026-05-01T12:12:15.943Z</time></trkpt><trkpt lat="45.443251" lon="7.682986"><ele>806.0</ele><time>2026-05-01T12:12:16.941Z</time></trkpt><trkpt lat="45.4433583" lon="7.6830641"><ele>806.0</ele><time>2026-05-01T12:12:19.052Z</time></trkpt><trkpt lat="45.443479" lon="7.6831513"><ele>806.0</ele><time>2026-05-01T12:12:20.947Z</time></trkpt><trkpt lat="45.4435454" lon="7.6832021"><ele>806.0</ele><time>2026-05-01T12:12:21.943Z</time></trkpt><trkpt lat="45.443589" lon="7.683271"><ele>806.0</ele><time>2026-05-01T12:12:22.945Z</time></trkpt><trkpt lat="45.4435853" lon="7.6834418"><ele>806.0</ele><time>2026-05-01T12:12:24.943Z</time></trkpt><trkpt lat="45.4435697" lon="7.6836089"><ele>804.8571428571429</ele><time>2026-05-01T12:12:27.01Z</time></trkpt><trkpt lat="45.4435888" lon="7.683695"><ele>803.7142857142857</ele><time>2026-05-01T12:12:27.953Z</time></trkpt><trkpt lat="45.4436279" lon="7.6837695"><ele>802.5714285714286</ele><time>2026-05-01T12:12:28.947Z</time></trkpt><trkpt lat="45.443692" lon="7.6838221"><ele>801.4285714285714</ele><time>2026-05-01T12:12:29.949Z</time></trkpt><trkpt lat="45.4437683" lon="7.6838579"><ele>800.2857142857142</ele><time>2026-05-01T12:12:30.945Z</time></trkpt><trkpt lat="45.4438326" lon="7.6839044"><ele>799.1428571428571</ele><time>2026-05-01T12:12:31.947Z</time></trkpt><trkpt lat="45.443908" lon="7.68395"><ele>798.0</ele><time>2026-05-01T12:12:32.942Z</time></trkpt><trkpt lat="45.4439812" lon="7.6839905"><ele>798.0</ele><time>2026-05-01T12:12:34.009Z</time></trkpt><trkpt lat="45.4440504" lon="7.6840304"><ele>798.0</ele><time>2026-05-01T12:12:34.948Z</time></trkpt><trkpt lat="45.4441309" lon="7.6840785"><ele>798.0</ele><time>2026-05-01T12:12:35.947Z</time></trkpt><trkpt lat="45.4442139" lon="7.6841192"><ele>798.0</ele><time>2026-05-01T12:12:36.979Z</time></trkpt><trkpt lat="45.444296" lon="7.6841718"><ele>798.0</ele><time>2026-05-01T12:12:38.008Z</time></trkpt><trkpt lat="45.444369" lon="7.6842284"><ele>798.0</ele><time>2026-05-01T12:12:39.011Z</time></trkpt><trkpt lat="45.4444482" lon="7.6842855"><ele>798.0</ele><time>2026-05-01T12:12:39.939Z</time></trkpt><trkpt lat="45.4445256" lon="7.6843499"><ele>798.0</ele><time>2026-05-01T12:12:40.942Z</time></trkpt><trkpt lat="45.4445974" lon="7.6844314"><ele>798.0</ele><time>2026-05-01T12:12:41.97Z</time></trkpt><trkpt lat="45.4446744" lon="7.6845259"><ele>798.0</ele><time>2026-05-01T12:12:43.012Z</time></trkpt><trkpt lat="45.4447429" lon="7.6846553"><ele>798.0</ele><time>2026-05-01T12:12:44.003Z</time></trkpt><trkpt lat="45.4448052" lon="7.6847701"><ele>795.8</ele><time>2026-05-01T12:12:44.946Z</time></trkpt><trkpt lat="45.4448777" lon="7.6848873"><ele>793.5999999999999</ele><time>2026-05-01T12:12:45.944Z</time></trkpt><trkpt lat="45.444945" lon="7.6850041"><ele>791.4000000000001</ele><time>2026-05-01T12:12:47.04Z</time></trkpt><trkpt lat="45.4450149" lon="7.6851104"><ele>789.2</ele><time>2026-05-01T12:12:48.011Z</time></trkpt><trkpt lat="45.4450909" lon="7.6852269"><ele>787.0</ele><time>2026-05-01T12:12:49.007Z</time></trkpt><trkpt lat="45.4451602" lon="7.685327"><ele>788.1666666666666</ele><time>2026-05-01T12:12:49.944Z</time></trkpt><trkpt lat="45.4452265" lon="7.6854083"><ele>789.3333333333333</ele><time>2026-05-01T12:12:50.949Z</time></trkpt><trkpt lat="45.4452819" lon="7.6854781"><ele>790.5</ele><time>2026-05-01T12:12:52.024Z</time></trkpt><trkpt lat="45.4453442" lon="7.6855247"><ele>791.6666666666667</ele><time>2026-05-01T12:12:53.005Z</time></trkpt><trkpt lat="45.4454133" lon="7.6855679"><ele>792.8333333333334</ele><time>2026-05-01T12:12:54.001Z</time></trkpt><trkpt lat="45.4454663" lon="7.6856266"><ele>794.0</ele><time>2026-05-01T12:12:54.947Z</time></trkpt><trkpt lat="45.4455352" lon="7.6857423"><ele>794.0000000000001</ele><time>2026-05-01T12:12:56.991Z</time></trkpt><trkpt lat="45.4455449" lon="7.6858581"><ele>794.0</ele><time>2026-05-01T12:12:59.014Z</time></trkpt><trkpt lat="45.4455001" lon="7.6860028"><ele>794.0</ele><time>2026-05-01T12:13:00.95Z</time></trkpt><trkpt lat="45.4454712" lon="7.6861055"><ele>794.0</ele><time>2026-05-01T12:13:01.937Z</time></trkpt><trkpt lat="45.4454365" lon="7.6862162"><ele>794.0000000000001</ele><time>2026-05-01T12:13:03.007Z</time></trkpt><trkpt lat="45.4454161" lon="7.6863319"><ele>794.0</ele><time>2026-05-01T12:13:04.001Z</time></trkpt><trkpt lat="45.4454207" lon="7.6864806"><ele>793.4000000000001</ele><time>2026-05-01T12:13:05.944Z</time></trkpt><trkpt lat="45.4454703" lon="7.6866297"><ele>792.8</ele><time>2026-05-01T12:13:07.94Z</time></trkpt><trkpt lat="45.4455181" lon="7.6866999"><ele>792.2</ele><time>2026-05-01T12:13:08.947Z</time></trkpt><trkpt lat="45.4455827" lon="7.6867444"><ele>791.5999999999999</ele><time>2026-05-01T12:13:09.945Z</time></trkpt><trkpt lat="45.4457056" lon="7.6868153"><ele>791.0</ele><time>2026-05-01T12:13:10.967Z</time></trkpt><trkpt lat="45.4458565" lon="7.68691"><ele>791.5</ele><time>2026-05-01T12:13:11.966Z</time></trkpt><trkpt lat="45.446002" lon="7.6869948"><ele>792.0</ele><time>2026-05-01T12:13:12.945Z</time></trkpt><trkpt lat="45.446135" lon="7.687068"><ele>792.5</ele><time>2026-05-01T12:13:13.945Z</time></trkpt><trkpt lat="45.4462441" lon="7.6871335"><ele>793.0</ele><time>2026-05-01T12:13:14.949Z</time></trkpt><trkpt lat="45.4463485" lon="7.6872006"><ele>792.9999999999999</ele><time>2026-05-01T12:13:15.944Z</time></trkpt><trkpt lat="45.4464265" lon="7.6872659"><ele>793.0</ele><time>2026-05-01T12:13:16.948Z</time></trkpt><trkpt lat="45.4464979" lon="7.6873438"><ele>793.0</ele><time>2026-05-01T12:13:17.94Z</time></trkpt><trkpt lat="45.4465579" lon="7.687412"><ele>793.0</ele><time>2026-05-01T12:13:18.954Z</time></trkpt><trkpt lat="45.4466207" lon="7.6874755"><ele>792.9999999999999</ele><time>2026-05-01T12:13:19.948Z</time></trkpt><trkpt lat="45.4466852" lon="7.6875591"><ele>793.0</ele><time>2026-05-01T12:13:20.947Z</time></trkpt><trkpt lat="45.446746" lon="7.6876801"><ele>792.0</ele><time>2026-05-01T12:13:21.94Z</time></trkpt><trkpt lat="45.446797" lon="7.6878078"><ele>791.0</ele><time>2026-05-01T12:13:22.942Z</time></trkpt><trkpt lat="45.4468318" lon="7.6879373"><ele>790.0</ele><time>2026-05-01T12:13:23.951Z</time></trkpt><trkpt lat="45.4468461" lon="7.6880884"><ele>789.0</ele><time>2026-05-01T12:13:24.937Z</time></trkpt><trkpt lat="45.4468626" lon="7.68824"><ele>788.0</ele><time>2026-05-01T12:13:25.943Z</time></trkpt><trkpt lat="45.4468682" lon="7.6883918"><ele>788.0000000000001</ele><time>2026-05-01T12:13:26.943Z</time></trkpt><trkpt lat="45.4468763" lon="7.6885289"><ele>788.0</ele><time>2026-05-01T12:13:28.013Z</time></trkpt><trkpt lat="45.4468722" lon="7.6886504"><ele>788.0</ele><time>2026-05-01T12:13:29.008Z</time></trkpt><trkpt lat="45.4468432" lon="7.68876"><ele>788.0</ele><time>2026-05-01T12:13:29.947Z</time></trkpt><trkpt lat="45.4468142" lon="7.6888432"><ele>788.0000000000001</ele><time>2026-05-01T12:13:30.943Z</time></trkpt><trkpt lat="45.4467279" lon="7.688899"><ele>788.0</ele><time>2026-05-01T12:13:32.947Z</time></trkpt><trkpt lat="45.44666" lon="7.6888964"><ele>793.5</ele><time>2026-05-01T12:13:33.949Z</time></trkpt><trkpt lat="45.4465531" lon="7.6888748"><ele>799.0</ele><time>2026-05-01T12:13:34.942Z</time></trkpt><trkpt lat="45.4464306" lon="7.6888398"><ele>804.5</ele><time>2026-05-01T12:13:35.941Z</time></trkpt><trkpt lat="45.4462988" lon="7.6888277"><ele>810.0</ele><time>2026-05-01T12:13:36.974Z</time></trkpt><trkpt lat="45.4461464" lon="7.6888068"><ele>810.0</ele><time>2026-05-01T12:13:37.943Z</time></trkpt><trkpt lat="45.4459755" lon="7.68878"><ele>810.0</ele><time>2026-05-01T12:13:39.028Z</time></trkpt><trkpt lat="45.4458046" lon="7.6887534"><ele>810.0</ele><time>2026-05-01T12:13:39.947Z</time></trkpt><trkpt lat="45.4456498" lon="7.6887229"><ele>810.0</ele><time>2026-05-01T12:13:40.949Z</time></trkpt><trkpt lat="45.4455139" lon="7.6886966"><ele>810.0</ele><time>2026-05-01T12:13:41.943Z</time></trkpt><trkpt lat="45.4453832" lon="7.68866"><ele>810.0</ele><time>2026-05-01T12:13:42.942Z</time></trkpt><trkpt lat="45.4452578" lon="7.6886055"><ele>810.0</ele><time>2026-05-01T12:13:43.94Z</time></trkpt><trkpt lat="45.4451228" lon="7.688555"><ele>805.75</ele><time>2026-05-01T12:13:44.942Z</time></trkpt><trkpt lat="45.4449799" lon="7.688515"><ele>801.5</ele><time>2026-05-01T12:13:45.94Z</time></trkpt><trkpt lat="45.4448405" lon="7.6884987"><ele>797.25</ele><time>2026-05-01T12:13:46.985Z</time></trkpt><trkpt lat="45.4447136" lon="7.6884827"><ele>793.0</ele><time>2026-05-01T12:13:47.937Z</time></trkpt><trkpt lat="45.4445907" lon="7.6884703"><ele>793.0</ele><time>2026-05-01T12:13:48.939Z</time></trkpt><trkpt lat="45.4444742" lon="7.688434"><ele>793.0</ele><time>2026-05-01T12:13:49.942Z</time></trkpt><trkpt lat="45.4443666" lon="7.6884177"><ele>793.0</ele><time>2026-05-01T12:13:50.94Z</time></trkpt><trkpt lat="45.444261" lon="7.6884005"><ele>793.0</ele><time>2026-05-01T12:13:51.942Z</time></trkpt><trkpt lat="45.4441727" lon="7.6883879"><ele>793.0</ele><time>2026-05-01T12:13:52.952Z</time></trkpt><trkpt lat="45.444091" lon="7.6883801"><ele>793.0</ele><time>2026-05-01T12:13:53.948Z</time></trkpt><trkpt lat="45.4440058" lon="7.6883882"><ele>793.0</ele><time>2026-05-01T12:13:54.948Z</time></trkpt><trkpt lat="45.4439063" lon="7.6884291"><ele>793.0</ele><time>2026-05-01T12:13:55.942Z</time></trkpt><trkpt lat="45.4438089" lon="7.6884651"><ele>793.0</ele><time>2026-05-01T12:13:56.94Z</time></trkpt><trkpt lat="45.4437012" lon="7.6884972"><ele>793.0</ele><time>2026-05-01T12:13:57.94Z</time></trkpt><trkpt lat="45.4435779" lon="7.6884986"><ele>793.4</ele><time>2026-05-01T12:13:58.943Z</time></trkpt><trkpt lat="45.4434585" lon="7.6885233"><ele>793.8</ele><time>2026-05-01T12:13:59.942Z</time></trkpt><trkpt lat="45.443351" lon="7.6885485"><ele>794.2</ele><time>2026-05-01T12:14:00.944Z</time></trkpt><trkpt lat="45.4432477" lon="7.6885761"><ele>794.6</ele><time>2026-05-01T12:14:01.936Z</time></trkpt><trkpt lat="45.4431436" lon="7.6886091"><ele>795.0</ele><time>2026-05-01T12:14:02.943Z</time></trkpt><trkpt lat="45.4430355" lon="7.6886401"><ele>802.5</ele><time>2026-05-01T12:14:04.031Z</time></trkpt><trkpt lat="45.4429068" lon="7.688665"><ele>810.0</ele><time>2026-05-01T12:14:04.955Z</time></trkpt><trkpt lat="45.4427786" lon="7.688698"><ele>817.5</ele><time>2026-05-01T12:14:05.953Z</time></trkpt><trkpt lat="45.4426486" lon="7.6887233"><ele>825.0</ele><time>2026-05-01T12:14:06.957Z</time></trkpt><trkpt lat="45.4425191" lon="7.6887458"><ele>825.0</ele><time>2026-05-01T12:14:07.955Z</time></trkpt><trkpt lat="45.4424052" lon="7.6887723"><ele>825.0</ele><time>2026-05-01T12:14:08.952Z</time></trkpt><trkpt lat="45.4423015" lon="7.6888048"><ele>825.0</ele><time>2026-05-01T12:14:09.957Z</time></trkpt><trkpt lat="45.4422102" lon="7.6888297"><ele>825.0</ele><time>2026-05-01T12:14:10.957Z</time></trkpt><trkpt lat="45.4421117" lon="7.6888336"><ele>825.0</ele><time>2026-05-01T12:14:11.951Z</time></trkpt><trkpt lat="45.4420054" lon="7.6888257"><ele>823.2</ele><time>2026-05-01T12:14:13.024Z</time></trkpt><trkpt lat="45.4418962" lon="7.6888177"><ele>821.4</ele><time>2026-05-01T12:14:14.023Z</time></trkpt><trkpt lat="45.4417968" lon="7.6888129"><ele>819.5999999999999</ele><time>2026-05-01T12:14:14.954Z</time></trkpt><trkpt lat="45.4417077" lon="7.6888111"><ele>817.8</ele><time>2026-05-01T12:14:15.955Z</time></trkpt><trkpt lat="45.4415939" lon="7.6887983"><ele>816.0</ele><time>2026-05-01T12:14:16.96Z</time></trkpt><trkpt lat="45.4415215" lon="7.6888035"><ele>816.0</ele><time>2026-05-01T12:14:17.95Z</time></trkpt><trkpt lat="45.4414555" lon="7.6888204"><ele>816.0</ele><time>2026-05-01T12:14:19.021Z</time></trkpt><trkpt lat="45.4413886" lon="7.6888435"><ele>816.0</ele><time>2026-05-01T12:14:19.956Z</time></trkpt><trkpt lat="45.4413288" lon="7.6889019"><ele>816.0</ele><time>2026-05-01T12:14:20.962Z</time></trkpt><trkpt lat="45.4412879" lon="7.6889793"><ele>816.0</ele><time>2026-05-01T12:14:22.064Z</time></trkpt><trkpt lat="45.4412584" lon="7.689076"><ele>816.0</ele><time>2026-05-01T12:14:23.034Z</time></trkpt><trkpt lat="45.4412502" lon="7.6892059"><ele>816.0</ele><time>2026-05-01T12:14:24.019Z</time></trkpt><trkpt lat="45.4412682" lon="7.6893543"><ele>815.1999999999999</ele><time>2026-05-01T12:14:24.962Z</time></trkpt><trkpt lat="45.4412895" lon="7.6894856"><ele>814.4</ele><time>2026-05-01T12:14:25.958Z</time></trkpt><trkpt lat="45.4413105" lon="7.6896127"><ele>813.6</ele><time>2026-05-01T12:14:26.983Z</time></trkpt><trkpt lat="45.4413349" lon="7.6897311"><ele>812.8</ele><time>2026-05-01T12:14:28.023Z</time></trkpt><trkpt lat="45.4414061" lon="7.6898839"><ele>812.0</ele><time>2026-05-01T12:14:29.962Z</time></trkpt><trkpt lat="45.4414574" lon="7.6899523"><ele>812.0</ele><time>2026-05-01T12:14:30.962Z</time></trkpt><trkpt lat="45.4415181" lon="7.6900207"><ele>812.0</ele><time>2026-05-01T12:14:32.063Z</time></trkpt><trkpt lat="45.4415938" lon="7.6900932"><ele>812.0</ele><time>2026-05-01T12:14:33.021Z</time></trkpt><trkpt lat="45.4416595" lon="7.6901927"><ele>812.0</ele><time>2026-05-01T12:14:34.026Z</time></trkpt><trkpt lat="45.4417329" lon="7.6903239"><ele>812.0</ele><time>2026-05-01T12:14:34.957Z</time></trkpt><trkpt lat="45.4417911" lon="7.690476"><ele>808.5</ele><time>2026-05-01T12:14:35.964Z</time></trkpt><trkpt lat="45.4418667" lon="7.6906346"><ele>805.0</ele><time>2026-05-01T12:14:36.976Z</time></trkpt><trkpt lat="45.44194" lon="7.6907903"><ele>801.5</ele><time>2026-05-01T12:14:37.96Z</time></trkpt><trkpt lat="45.4420098" lon="7.6909366"><ele>798.0</ele><time>2026-05-01T12:14:38.959Z</time></trkpt><trkpt lat="45.4420839" lon="7.6910655"><ele>801.5999999999999</ele><time>2026-05-01T12:14:39.963Z</time></trkpt><trkpt lat="45.4421588" lon="7.6911721"><ele>805.1999999999999</ele><time>2026-05-01T12:14:40.96Z</time></trkpt><trkpt lat="45.4422372" lon="7.6912706"><ele>808.8</ele><time>2026-05-01T12:14:41.962Z</time></trkpt><trkpt lat="45.4423114" lon="7.6913654"><ele>812.4</ele><time>2026-05-01T12:14:42.953Z</time></trkpt><trkpt lat="45.4423915" lon="7.6914684"><ele>816.0</ele><time>2026-05-01T12:14:43.96Z</time></trkpt><trkpt lat="45.4424691" lon="7.6915827"><ele>816.0</ele><time>2026-05-01T12:14:44.959Z</time></trkpt><trkpt lat="45.4425358" lon="7.6916919"><ele>816.0</ele><time>2026-05-01T12:14:45.964Z</time></trkpt><trkpt lat="45.44259" lon="7.6918"><ele>816.0</ele><time>2026-05-01T12:14:46.964Z</time></trkpt><trkpt lat="45.4426148" lon="7.6919047"><ele>816.0</ele><time>2026-05-01T12:14:47.953Z</time></trkpt><trkpt lat="45.4426077" lon="7.6920352"><ele>816.0</ele><time>2026-05-01T12:14:49.96Z</time></trkpt><trkpt lat="45.4425429" lon="7.6920825"><ele>816.0</ele><time>2026-05-01T12:14:50.959Z</time></trkpt><trkpt lat="45.4424823" lon="7.6921385"><ele>815.7142857142858</ele><time>2026-05-01T12:14:51.957Z</time></trkpt><trkpt lat="45.4424184" lon="7.6921942"><ele>815.4285714285714</ele><time>2026-05-01T12:14:52.965Z</time></trkpt><trkpt lat="45.4423702" lon="7.6922705"><ele>815.1428571428571</ele><time>2026-05-01T12:14:53.96Z</time></trkpt><trkpt lat="45.4423377" lon="7.6923517"><ele>814.8571428571429</ele><time>2026-05-01T12:14:54.956Z</time></trkpt><trkpt lat="45.4423217" lon="7.6924433"><ele>814.5714285714286</ele><time>2026-05-01T12:14:55.962Z</time></trkpt><trkpt lat="45.4423196" lon="7.6925332"><ele>814.2857142857143</ele><time>2026-05-01T12:14:56.958Z</time></trkpt><trkpt lat="45.4423373" lon="7.6926485"><ele>814.0</ele><time>2026-05-01T12:14:57.957Z</time></trkpt><trkpt lat="45.4423688" lon="7.6928044"><ele>814.0</ele><time>2026-05-01T12:14:58.951Z</time></trkpt><trkpt lat="45.4424134" lon="7.6929811"><ele>814.0</ele><time>2026-05-01T12:14:59.95Z</time></trkpt><trkpt lat="45.442465" lon="7.6931785"><ele>814.0</ele><time>2026-05-01T12:15:00.952Z</time></trkpt><trkpt lat="45.4425025" lon="7.6933592"><ele>814.0</ele><time>2026-05-01T12:15:01.958Z</time></trkpt><trkpt lat="45.4425452" lon="7.6934868"><ele>816.1666666666666</ele><time>2026-05-01T12:15:02.962Z</time></trkpt><trkpt lat="45.4425968" lon="7.6936063"><ele>818.3333333333333</ele><time>2026-05-01T12:15:03.955Z</time></trkpt><trkpt lat="45.4426582" lon="7.6936913"><ele>820.5</ele><time>2026-05-01T12:15:04.956Z</time></trkpt><trkpt lat="45.4427315" lon="7.6937586"><ele>822.6666666666667</ele><time>2026-05-01T12:15:05.957Z</time></trkpt><trkpt lat="45.4427843" lon="7.6938293"><ele>824.8333333333334</ele><time>2026-05-01T12:15:06.961Z</time></trkpt><trkpt lat="45.4427687" lon="7.6939747"><ele>827.0</ele><time>2026-05-01T12:15:08.962Z</time></trkpt><trkpt lat="45.4427185" lon="7.6940327"><ele>827.0</ele><time>2026-05-01T12:15:09.956Z</time></trkpt><trkpt lat="45.4425646" lon="7.6940642"><ele>827.0</ele><time>2026-05-01T12:15:11.954Z</time></trkpt><trkpt lat="45.4424289" lon="7.6940505"><ele>827.0</ele><time>2026-05-01T12:15:12.958Z</time></trkpt><trkpt lat="45.4422775" lon="7.6940363"><ele>827.0</ele><time>2026-05-01T12:15:13.957Z</time></trkpt><trkpt lat="45.4421219" lon="7.6940327"><ele>828.0</ele><time>2026-05-01T12:15:14.963Z</time></trkpt><trkpt lat="45.4419611" lon="7.6940421"><ele>829.0</ele><time>2026-05-01T12:15:15.961Z</time></trkpt><trkpt lat="45.4418178" lon="7.6940428"><ele>830.0</ele><time>2026-05-01T12:15:16.956Z</time></trkpt><trkpt lat="45.4416815" lon="7.6940295"><ele>831.0</ele><time>2026-05-01T12:15:17.956Z</time></trkpt><trkpt lat="45.4415595" lon="7.6939998"><ele>831.0</ele><time>2026-05-01T12:15:18.956Z</time></trkpt><trkpt lat="45.4414408" lon="7.6939809"><ele>831.0</ele><time>2026-05-01T12:15:19.955Z</time></trkpt><trkpt lat="45.4413158" lon="7.6939844"><ele>831.0</ele><time>2026-05-01T12:15:20.983Z</time></trkpt><trkpt lat="45.4411788" lon="7.6940142"><ele>831.0</ele><time>2026-05-01T12:15:21.959Z</time></trkpt><trkpt lat="45.4410452" lon="7.6940473"><ele>831.5999999999999</ele><time>2026-05-01T12:15:22.963Z</time></trkpt><trkpt lat="45.4409185" lon="7.6940789"><ele>832.2</ele><time>2026-05-01T12:15:23.96Z</time></trkpt><trkpt lat="45.4408087" lon="7.6940824"><ele>832.8</ele><time>2026-05-01T12:15:24.96Z</time></trkpt><trkpt lat="45.4407125" lon="7.6940679"><ele>833.4000000000001</ele><time>2026-05-01T12:15:25.958Z</time></trkpt><trkpt lat="45.4406163" lon="7.6940507"><ele>834.0</ele><time>2026-05-01T12:15:26.966Z</time></trkpt><trkpt lat="45.4405238" lon="7.6940352"><ele>832.8333333333334</ele><time>2026-05-01T12:15:27.964Z</time></trkpt><trkpt lat="45.4404257" lon="7.6940453"><ele>831.6666666666667</ele><time>2026-05-01T12:15:28.959Z</time></trkpt><trkpt lat="45.4403315" lon="7.6940622"><ele>830.5</ele><time>2026-05-01T12:15:29.96Z</time></trkpt><trkpt lat="45.4402451" lon="7.6940813"><ele>829.3333333333334</ele><time>2026-05-01T12:15:30.959Z</time></trkpt><trkpt lat="45.4401731" lon="7.6941036"><ele>828.1666666666667</ele><time>2026-05-01T12:15:31.959Z</time></trkpt><trkpt lat="45.440112" lon="7.6941503"><ele>827.0</ele><time>2026-05-01T12:15:32.964Z</time></trkpt><trkpt lat="45.4400544" lon="7.6942259"><ele>827.0000000000001</ele><time>2026-05-01T12:15:33.962Z</time></trkpt><trkpt lat="45.4400083" lon="7.6943331"><ele>827.0</ele><time>2026-05-01T12:15:34.961Z</time></trkpt><trkpt lat="45.4399601" lon="7.6944439"><ele>827.0</ele><time>2026-05-01T12:15:35.963Z</time></trkpt><trkpt lat="45.4399211" lon="7.6945636"><ele>827.0</ele><time>2026-05-01T12:15:36.964Z</time></trkpt><trkpt lat="45.4398873" lon="7.6946769"><ele>827.0000000000001</ele><time>2026-05-01T12:15:37.961Z</time></trkpt><trkpt lat="45.4398573" lon="7.6947707"><ele>827.0</ele><time>2026-05-01T12:15:38.966Z</time></trkpt><trkpt lat="45.4398283" lon="7.6948556"><ele>828.8333333333334</ele><time>2026-05-01T12:15:39.959Z</time></trkpt><trkpt lat="45.4397969" lon="7.6949496"><ele>830.6666666666667</ele><time>2026-05-01T12:15:41.961Z</time></trkpt><trkpt lat="45.4397749" lon="7.6950876"><ele>832.5</ele><time>2026-05-01T12:15:43.966Z</time></trkpt><trkpt lat="45.4397617" lon="7.6951955"><ele>834.3333333333333</ele><time>2026-05-01T12:15:44.96Z</time></trkpt><trkpt lat="45.439761" lon="7.6952949"><ele>836.1666666666666</ele><time>2026-05-01T12:15:45.96Z</time></trkpt><trkpt lat="45.4397725" lon="7.6953849"><ele>838.0</ele><time>2026-05-01T12:15:46.964Z</time></trkpt><trkpt lat="45.4398017" lon="7.69549"><ele>837.8</ele><time>2026-05-01T12:15:47.964Z</time></trkpt><trkpt lat="45.4398461" lon="7.6956093"><ele>837.5999999999999</ele><time>2026-05-01T12:15:48.965Z</time></trkpt><trkpt lat="45.4398656" lon="7.6957305"><ele>837.4000000000001</ele><time>2026-05-01T12:15:49.961Z</time></trkpt><trkpt lat="45.4398801" lon="7.6958479"><ele>837.2</ele><time>2026-05-01T12:15:50.965Z</time></trkpt><trkpt lat="45.4399125" lon="7.6959809"><ele>837.0</ele><time>2026-05-01T12:15:51.961Z</time></trkpt><trkpt lat="45.4399553" lon="7.6961101"><ele>837.0</ele><time>2026-05-01T12:15:52.967Z</time></trkpt><trkpt lat="45.4399962" lon="7.6962369"><ele>837.0</ele><time>2026-05-01T12:15:53.96Z</time></trkpt><trkpt lat="45.4400386" lon="7.696343"><ele>837.0</ele><time>2026-05-01T12:15:54.967Z</time></trkpt><trkpt lat="45.4400825" lon="7.6964327"><ele>837.0</ele><time>2026-05-01T12:15:55.967Z</time></trkpt><trkpt lat="45.4401373" lon="7.696518"><ele>837.0</ele><time>2026-05-01T12:15:56.96Z</time></trkpt><trkpt lat="45.4402025" lon="7.69661"><ele>837.0</ele><time>2026-05-01T12:15:57.958Z</time></trkpt><trkpt lat="45.440273" lon="7.6967059"><ele>837.0</ele><time>2026-05-01T12:15:58.962Z</time></trkpt><trkpt lat="45.4403435" lon="7.696816"><ele>837.0</ele><time>2026-05-01T12:15:59.961Z</time></trkpt><trkpt lat="45.4404106" lon="7.6969395"><ele>837.0</ele><time>2026-05-01T12:16:00.956Z</time></trkpt><trkpt lat="45.4404743" lon="7.6970629"><ele>837.0</ele><time>2026-05-01T12:16:01.959Z</time></trkpt><trkpt lat="45.4405284" lon="7.6972066"><ele>837.0</ele><time>2026-05-01T12:16:02.962Z</time></trkpt><trkpt lat="45.4405781" lon="7.6973317"><ele>838.8333333333334</ele><time>2026-05-01T12:16:03.96Z</time></trkpt><trkpt lat="45.4406298" lon="7.6974354"><ele>840.6666666666667</ele><time>2026-05-01T12:16:04.959Z</time></trkpt><trkpt lat="45.4406838" lon="7.6975332"><ele>842.5</ele><time>2026-05-01T12:16:05.961Z</time></trkpt><trkpt lat="45.4407379" lon="7.6976016"><ele>844.3333333333334</ele><time>2026-05-01T12:16:07.023Z</time></trkpt><trkpt lat="45.4407976" lon="7.6976559"><ele>846.1666666666667</ele><time>2026-05-01T12:16:08.021Z</time></trkpt><trkpt lat="45.4408565" lon="7.6977007"><ele>848.0</ele><time>2026-05-01T12:16:09.023Z</time></trkpt><trkpt lat="45.4409244" lon="7.6977412"><ele>845.4</ele><time>2026-05-01T12:16:09.961Z</time></trkpt><trkpt lat="45.4409945" lon="7.6978077"><ele>842.8</ele><time>2026-05-01T12:16:10.958Z</time></trkpt><trkpt lat="45.44105" lon="7.697889"><ele>840.2</ele><time>2026-05-01T12:16:11.963Z</time></trkpt><trkpt lat="45.4411099" lon="7.6979866"><ele>837.6</ele><time>2026-05-01T12:16:12.965Z</time></trkpt><trkpt lat="45.4411808" lon="7.6981011"><ele>835.0</ele><time>2026-05-01T12:16:13.962Z</time></trkpt><trkpt lat="45.4412673" lon="7.6982091"><ele>834.4</ele><time>2026-05-01T12:16:14.96Z</time></trkpt><trkpt lat="45.4413515" lon="7.6983061"><ele>833.8</ele><time>2026-05-01T12:16:15.958Z</time></trkpt><trkpt lat="45.4414476" lon="7.6983986"><ele>833.2</ele><time>2026-05-01T12:16:16.965Z</time></trkpt><trkpt lat="45.4415356" lon="7.6984758"><ele>832.6</ele><time>2026-05-01T12:16:17.989Z</time></trkpt><trkpt lat="45.4416281" lon="7.6985364"><ele>832.0</ele><time>2026-05-01T12:16:18.962Z</time></trkpt><trkpt lat="45.4417074" lon="7.6985971"><ele>832.0</ele><time>2026-05-01T12:16:19.962Z</time></trkpt><trkpt lat="45.4418037" lon="7.6986551"><ele>832.0</ele><time>2026-05-01T12:16:20.961Z</time></trkpt><trkpt lat="45.441891" lon="7.6987199"><ele>832.0</ele><time>2026-05-01T12:16:21.965Z</time></trkpt><trkpt lat="45.4419878" lon="7.6987851"><ele>832.0</ele><time>2026-05-01T12:16:22.961Z</time></trkpt><trkpt lat="45.4420734" lon="7.6988602"><ele>832.0</ele><time>2026-05-01T12:16:23.958Z</time></trkpt><trkpt lat="45.4421683" lon="7.6989044"><ele>836.6</ele><time>2026-05-01T12:16:24.957Z</time></trkpt><trkpt lat="45.4422572" lon="7.6989263"><ele>841.2</ele><time>2026-05-01T12:16:26.022Z</time></trkpt><trkpt lat="45.4423551" lon="7.698942"><ele>845.8</ele><time>2026-05-01T12:16:27.02Z</time></trkpt><trkpt lat="45.4424412" lon="7.6989807"><ele>850.4</ele><time>2026-05-01T12:16:28.022Z</time></trkpt><trkpt lat="45.4425197" lon="7.6990715"><ele>855.0</ele><time>2026-05-01T12:16:29.022Z</time></trkpt><trkpt lat="45.4425546" lon="7.6991599"><ele>855.0</ele><time>2026-05-01T12:16:29.958Z</time></trkpt><trkpt lat="45.4425686" lon="7.6992487"><ele>855.0</ele><time>2026-05-01T12:16:30.96Z</time></trkpt><trkpt lat="45.4425383" lon="7.6993376"><ele>855.0</ele><time>2026-05-01T12:16:32.059Z</time></trkpt><trkpt lat="45.4424768" lon="7.6994401"><ele>855.0</ele><time>2026-05-01T12:16:33.019Z</time></trkpt><trkpt lat="45.4424082" lon="7.6995496"><ele>855.0</ele><time>2026-05-01T12:16:34.02Z</time></trkpt><trkpt lat="45.442323" lon="7.6996903"><ele>855.6</ele><time>2026-05-01T12:16:34.954Z</time></trkpt><trkpt lat="45.4422551" lon="7.6998342"><ele>856.2</ele><time>2026-05-01T12:16:35.956Z</time></trkpt><trkpt lat="45.442185" lon="7.6999617"><ele>856.8</ele><time>2026-05-01T12:16:37.061Z</time></trkpt><trkpt lat="45.4421058" lon="7.7000533"><ele>857.4</ele><time>2026-05-01T12:16:38.02Z</time></trkpt><trkpt lat="45.4420139" lon="7.7001296"><ele>858.0</ele><time>2026-05-01T12:16:39.022Z</time></trkpt><trkpt lat="45.4419264" lon="7.7002032"><ele>855.8333333333334</ele><time>2026-05-01T12:16:39.959Z</time></trkpt><trkpt lat="45.4418507" lon="7.7002834"><ele>853.6666666666667</ele><time>2026-05-01T12:16:40.96Z</time></trkpt><trkpt lat="45.441778" lon="7.7003774"><ele>851.5</ele><time>2026-05-01T12:16:41.981Z</time></trkpt><trkpt lat="45.4417286" lon="7.7004806"><ele>849.3333333333334</ele><time>2026-05-01T12:16:43.024Z</time></trkpt><trkpt lat="45.4417004" lon="7.7005847"><ele>847.1666666666667</ele><time>2026-05-01T12:16:44.029Z</time></trkpt><trkpt lat="45.4416715" lon="7.7007"><ele>845.0</ele><time>2026-05-01T12:16:44.96Z</time></trkpt><trkpt lat="45.4416519" lon="7.7008207"><ele>845.0</ele><time>2026-05-01T12:16:45.957Z</time></trkpt><trkpt lat="45.441639" lon="7.7009453"><ele>845.0</ele><time>2026-05-01T12:16:46.983Z</time></trkpt><trkpt lat="45.4416501" lon="7.7011113"><ele>845.0</ele><time>2026-05-01T12:16:48.027Z</time></trkpt><trkpt lat="45.4416639" lon="7.701308"><ele>845.0</ele><time>2026-05-01T12:16:49.029Z</time></trkpt><trkpt lat="45.4416617" lon="7.7014936"><ele>845.2</ele><time>2026-05-01T12:16:49.955Z</time></trkpt><trkpt lat="45.4416513" lon="7.7016563"><ele>845.4</ele><time>2026-05-01T12:16:50.966Z</time></trkpt><trkpt lat="45.441629" lon="7.7018134"><ele>845.5999999999999</ele><time>2026-05-01T12:16:52.043Z</time></trkpt><trkpt lat="45.4415957" lon="7.7019547"><ele>845.8</ele><time>2026-05-01T12:16:52.965Z</time></trkpt><trkpt lat="45.4415401" lon="7.702099"><ele>846.0</ele><time>2026-05-01T12:16:53.961Z</time></trkpt><trkpt lat="45.4414884" lon="7.7022193"><ele>845.0</ele><time>2026-05-01T12:16:54.961Z</time></trkpt><trkpt lat="45.4414139" lon="7.7022965"><ele>844.0</ele><time>2026-05-01T12:16:55.958Z</time></trkpt><trkpt lat="45.4413394" lon="7.7023555"><ele>843.0</ele><time>2026-05-01T12:16:56.957Z</time></trkpt><trkpt lat="45.4412369" lon="7.7024072"><ele>842.0</ele><time>2026-05-01T12:16:57.956Z</time></trkpt><trkpt lat="45.4411295" lon="7.7024772"><ele>841.0</ele><time>2026-05-01T12:16:59.025Z</time></trkpt><trkpt lat="45.4410194" lon="7.7025731"><ele>841.0</ele><time>2026-05-01T12:16:59.96Z</time></trkpt><trkpt lat="45.4409115" lon="7.702656"><ele>841.0</ele><time>2026-05-01T12:17:00.957Z</time></trkpt><trkpt lat="45.4408094" lon="7.7027335"><ele>841.0</ele><time>2026-05-01T12:17:01.959Z</time></trkpt><trkpt lat="45.4407094" lon="7.702802"><ele>841.0</ele><time>2026-05-01T12:17:02.954Z</time></trkpt><trkpt lat="45.4406202" lon="7.7028725"><ele>841.0</ele><time>2026-05-01T12:17:03.958Z</time></trkpt><trkpt lat="45.4405607" lon="7.7029595"><ele>841.0</ele><time>2026-05-01T12:17:04.964Z</time></trkpt><trkpt lat="45.4404974" lon="7.7030461"><ele>841.0</ele><time>2026-05-01T12:17:05.957Z</time></trkpt><trkpt lat="45.4404364" lon="7.7031458"><ele>841.0</ele><time>2026-05-01T12:17:07.014Z</time></trkpt><trkpt lat="45.4403662" lon="7.7032579"><ele>841.0</ele><time>2026-05-01T12:17:08.02Z</time></trkpt><trkpt lat="45.4402964" lon="7.703372"><ele>841.0</ele><time>2026-05-01T12:17:09.018Z</time></trkpt><trkpt lat="45.4402288" lon="7.7034858"><ele>841.0</ele><time>2026-05-01T12:17:09.959Z</time></trkpt><trkpt lat="45.4401717" lon="7.7035832"><ele>841.0</ele><time>2026-05-01T12:17:10.959Z</time></trkpt><trkpt lat="45.4401246" lon="7.7036959"><ele>841.0</ele><time>2026-05-01T12:17:12.042Z</time></trkpt><trkpt lat="45.4400902" lon="7.7038163"><ele>841.0</ele><time>2026-05-01T12:17:13.018Z</time></trkpt><trkpt lat="45.4400762" lon="7.7039434"><ele>841.1999999999999</ele><time>2026-05-01T12:17:14.018Z</time></trkpt><trkpt lat="45.4400693" lon="7.7040847"><ele>841.4</ele><time>2026-05-01T12:17:14.957Z</time></trkpt><trkpt lat="45.4400782" lon="7.7042287"><ele>841.6</ele><time>2026-05-01T12:17:15.967Z</time></trkpt><trkpt lat="45.440094" lon="7.7043881"><ele>841.8</ele><time>2026-05-01T12:17:17.047Z</time></trkpt><trkpt lat="45.4401169" lon="7.7045394"><ele>842.0</ele><time>2026-05-01T12:17:18.015Z</time></trkpt><trkpt lat="45.4401315" lon="7.7046824"><ele>842.6</ele><time>2026-05-01T12:17:19.017Z</time></trkpt><trkpt lat="45.4401327" lon="7.7048226"><ele>843.2</ele><time>2026-05-01T12:17:19.957Z</time></trkpt><trkpt lat="45.4401294" lon="7.7049565"><ele>843.8</ele><time>2026-05-01T12:17:20.965Z</time></trkpt><trkpt lat="45.440118" lon="7.7050886"><ele>844.4</ele><time>2026-05-01T12:17:21.973Z</time></trkpt><trkpt lat="45.4400975" lon="7.7052161"><ele>845.0</ele><time>2026-05-01T12:17:23.025Z</time></trkpt><trkpt lat="45.4400789" lon="7.7053408"><ele>845.0000000000001</ele><time>2026-05-01T12:17:24.024Z</time></trkpt><trkpt lat="45.4400789" lon="7.7054491"><ele>845.0</ele><time>2026-05-01T12:17:24.963Z</time></trkpt><trkpt lat="45.4400969" lon="7.7055454"><ele>845.0</ele><time>2026-05-01T12:17:25.966Z</time></trkpt><trkpt lat="45.4401368" lon="7.7056232"><ele>845.0</ele><time>2026-05-01T12:17:27Z</time></trkpt><trkpt lat="45.440192" lon="7.7057011"><ele>845.0000000000001</ele><time>2026-05-01T12:17:28.029Z</time></trkpt><trkpt lat="45.4402618" lon="7.7057665"><ele>845.0</ele><time>2026-05-01T12:17:29.02Z</time></trkpt><trkpt lat="45.4403328" lon="7.7058271"><ele>845.0000000000001</ele><time>2026-05-01T12:17:29.959Z</time></trkpt><trkpt lat="45.4404006" lon="7.7058781"><ele>845.0</ele><time>2026-05-01T12:17:30.957Z</time></trkpt><trkpt lat="45.4404614" lon="7.7059062"><ele>845.0</ele><time>2026-05-01T12:17:31.99Z</time></trkpt><trkpt lat="45.4405661" lon="7.705907"><ele>845.0</ele><time>2026-05-01T12:17:33.961Z</time></trkpt><trkpt lat="45.4406792" lon="7.705917"><ele>845.0000000000001</ele><time>2026-05-01T12:17:35.96Z</time></trkpt><trkpt lat="45.4407313" lon="7.7059679"><ele>845.0</ele><time>2026-05-01T12:17:36.952Z</time></trkpt><trkpt lat="45.4407908" lon="7.706057"><ele>850.75</ele><time>2026-05-01T12:17:37.962Z</time></trkpt><trkpt lat="45.4408451" lon="7.7061637"><ele>856.5</ele><time>2026-05-01T12:17:38.956Z</time></trkpt><trkpt lat="45.4408783" lon="7.706309"><ele>862.25</ele><time>2026-05-01T12:17:39.957Z</time></trkpt><trkpt lat="45.4408993" lon="7.7064944"><ele>868.0</ele><time>2026-05-01T12:17:40.958Z</time></trkpt><trkpt lat="45.4409448" lon="7.7066681"><ele>868.0</ele><time>2026-05-01T12:17:42.028Z</time></trkpt><trkpt lat="45.4409895" lon="7.7068107"><ele>868.0</ele><time>2026-05-01T12:17:42.957Z</time></trkpt><trkpt lat="45.4410344" lon="7.7069488"><ele>868.0</ele><time>2026-05-01T12:17:43.956Z</time></trkpt><trkpt lat="45.4410894" lon="7.7070976"><ele>868.0</ele><time>2026-05-01T12:17:44.959Z</time></trkpt><trkpt lat="45.4411402" lon="7.7072217"><ele>868.0</ele><time>2026-05-01T12:17:45.958Z</time></trkpt><trkpt lat="45.4411835" lon="7.7073141"><ele>867.3333333333333</ele><time>2026-05-01T12:17:46.961Z</time></trkpt><trkpt lat="45.4412204" lon="7.7073946"><ele>866.6666666666666</ele><time>2026-05-01T12:17:48.019Z</time></trkpt><trkpt lat="45.4412601" lon="7.7075305"><ele>866.0</ele><time>2026-05-01T12:17:49.957Z</time></trkpt><trkpt lat="45.4413316" lon="7.7075334"><ele>865.3333333333333</ele><time>2026-05-01T12:21:54.96Z</time></trkpt><trkpt lat="45.4414122" lon="7.7076179"><ele>864.6666666666666</ele><time>2026-05-01T12:21:57.965Z</time></trkpt><trkpt lat="45.441491" lon="7.7076344"><ele>864.0</ele><time>2026-05-01T12:21:58.963Z</time></trkpt><trkpt lat="45.4415626" lon="7.7076551"><ele>865.6</ele><time>2026-05-01T12:21:59.961Z</time></trkpt><trkpt lat="45.4416833" lon="7.7076977"><ele>867.2</ele><time>2026-05-01T12:22:01.961Z</time></trkpt><trkpt lat="45.441793" lon="7.7077203"><ele>868.8000000000001</ele><time>2026-05-01T12:22:03.968Z</time></trkpt><trkpt lat="45.4418843" lon="7.7077521"><ele>870.4000000000001</ele><time>2026-05-01T12:22:05.959Z</time></trkpt><trkpt lat="45.4419897" lon="7.7078081"><ele>872.0</ele><time>2026-05-01T12:22:08.061Z</time></trkpt><trkpt lat="45.4420522" lon="7.7078362"><ele>877.8</ele><time>2026-05-01T12:22:09.024Z</time></trkpt><trkpt lat="45.4421657" lon="7.7078507"><ele>883.6</ele><time>2026-05-01T12:22:10.958Z</time></trkpt><trkpt lat="45.4422806" lon="7.7078725"><ele>889.3999999999999</ele><time>2026-05-01T12:22:12.965Z</time></trkpt><trkpt lat="45.4423979" lon="7.7079638"><ele>895.1999999999999</ele><time>2026-05-01T12:22:14.964Z</time></trkpt><trkpt lat="45.4424554" lon="7.7080403"><ele>901.0</ele><time>2026-05-01T12:22:15.98Z</time></trkpt><trkpt lat="45.4425101" lon="7.708124"><ele>900.9999999999999</ele><time>2026-05-01T12:22:16.957Z</time></trkpt><trkpt lat="45.4425608" lon="7.7082044"><ele>901.0</ele><time>2026-05-01T12:22:17.972Z</time></trkpt><trkpt lat="45.4426059" lon="7.7082759"><ele>901.0</ele><time>2026-05-01T12:22:18.963Z</time></trkpt><trkpt lat="45.4426451" lon="7.7083579"><ele>901.0</ele><time>2026-05-01T12:22:19.964Z</time></trkpt><trkpt lat="45.4426903" lon="7.7084338"><ele>900.9999999999999</ele><time>2026-05-01T12:22:20.958Z</time></trkpt><trkpt lat="45.4427332" lon="7.708511"><ele>901.0</ele><time>2026-05-01T12:22:21.962Z</time></trkpt><trkpt lat="45.4428103" lon="7.7086374"><ele>899.0</ele><time>2026-05-01T12:22:23.958Z</time></trkpt><trkpt lat="45.4428626" lon="7.7087016"><ele>897.0000000000001</ele><time>2026-05-01T12:22:25.021Z</time></trkpt><trkpt lat="45.4429019" lon="7.708772"><ele>895.0</ele><time>2026-05-01T12:22:26.024Z</time></trkpt><trkpt lat="45.4429537" lon="7.7088411"><ele>893.0</ele><time>2026-05-01T12:22:26.963Z</time></trkpt><trkpt lat="45.4429972" lon="7.7089109"><ele>891.0</ele><time>2026-05-01T12:22:27.969Z</time></trkpt><trkpt lat="45.4430447" lon="7.7089942"><ele>889.0</ele><time>2026-05-01T12:22:28.957Z</time></trkpt><trkpt lat="45.4430902" lon="7.7090768"><ele>887.0</ele><time>2026-05-01T12:22:29.963Z</time></trkpt><trkpt lat="45.4431366" lon="7.709154"><ele>889.7142857142857</ele><time>2026-05-01T12:22:30.962Z</time></trkpt><trkpt lat="45.4431768" lon="7.7092236"><ele>892.4285714285713</ele><time>2026-05-01T12:22:31.964Z</time></trkpt><trkpt lat="45.443227" lon="7.7092885"><ele>895.1428571428571</ele><time>2026-05-01T12:22:32.989Z</time></trkpt><trkpt lat="45.4432776" lon="7.7093461"><ele>897.8571428571428</ele><time>2026-05-01T12:22:33.968Z</time></trkpt><trkpt lat="45.4433249" lon="7.7094124"><ele>900.5714285714286</ele><time>2026-05-01T12:22:34.96Z</time></trkpt><trkpt lat="45.4433702" lon="7.7094965"><ele>903.2857142857141</ele><time>2026-05-01T12:22:36.023Z</time></trkpt><trkpt lat="45.4434177" lon="7.7095988"><ele>905.9999999999999</ele><time>2026-05-01T12:22:36.96Z</time></trkpt><trkpt lat="45.4434587" lon="7.7097046"><ele>906.0</ele><time>2026-05-01T12:22:37.956Z</time></trkpt><trkpt lat="45.4434872" lon="7.7098026"><ele>905.9999999999999</ele><time>2026-05-01T12:22:38.956Z</time></trkpt><trkpt lat="45.4435618" lon="7.7099326"><ele>905.9999999999999</ele><time>2026-05-01T12:22:40.96Z</time></trkpt><trkpt lat="45.4436558" lon="7.710006"><ele>906.0</ele><time>2026-05-01T12:22:42.955Z</time></trkpt><trkpt lat="45.4437822" lon="7.7099975"><ele>906.0</ele><time>2026-05-01T12:22:44.95Z</time></trkpt><trkpt lat="45.4438517" lon="7.7099801"><ele>910.1666666666666</ele><time>2026-05-01T12:22:46.024Z</time></trkpt><trkpt lat="45.4439175" lon="7.7099604"><ele>914.3333333333333</ele><time>2026-05-01T12:22:46.954Z</time></trkpt><trkpt lat="45.4439921" lon="7.7099136"><ele>918.5</ele><time>2026-05-01T12:22:47.948Z</time></trkpt><trkpt lat="45.4440657" lon="7.7098561"><ele>922.6666666666666</ele><time>2026-05-01T12:22:49.001Z</time></trkpt><trkpt lat="45.4441349" lon="7.7098013"><ele>926.8333333333333</ele><time>2026-05-01T12:22:50.011Z</time></trkpt><trkpt lat="45.444207" lon="7.7097447"><ele>931.0</ele><time>2026-05-01T12:22:51.013Z</time></trkpt><trkpt lat="45.4442708" lon="7.7096843"><ele>931.0</ele><time>2026-05-01T12:22:51.949Z</time></trkpt><trkpt lat="45.4443301" lon="7.7096207"><ele>930.9999999999999</ele><time>2026-05-01T12:22:52.954Z</time></trkpt><trkpt lat="45.4443828" lon="7.709532"><ele>930.9999999999999</ele><time>2026-05-01T12:22:54.035Z</time></trkpt><trkpt lat="45.4444358" lon="7.70941"><ele>931.0</ele><time>2026-05-01T12:22:55.014Z</time></trkpt><trkpt lat="45.4444892" lon="7.7092867"><ele>931.0</ele><time>2026-05-01T12:22:56.02Z</time></trkpt><trkpt lat="45.444544" lon="7.7091446"><ele>931.0</ele><time>2026-05-01T12:22:56.954Z</time></trkpt><trkpt lat="45.4445977" lon="7.7089925"><ele>931.0</ele><time>2026-05-01T12:22:57.954Z</time></trkpt><trkpt lat="45.4446458" lon="7.7088298"><ele>931.0</ele><time>2026-05-01T12:22:58.969Z</time></trkpt><trkpt lat="45.4446955" lon="7.7086762"><ele>931.0</ele><time>2026-05-01T12:23:00.02Z</time></trkpt><trkpt lat="45.4447439" lon="7.7085242"><ele>931.0</ele><time>2026-05-01T12:23:01.024Z</time></trkpt><trkpt lat="45.4447908" lon="7.7083632"><ele>931.0</ele><time>2026-05-01T12:23:01.943Z</time></trkpt><trkpt lat="45.4448514" lon="7.7082076"><ele>931.0</ele><time>2026-05-01T12:23:02.951Z</time></trkpt><trkpt lat="45.4449115" lon="7.7080577"><ele>931.0</ele><time>2026-05-01T12:23:04.052Z</time></trkpt><trkpt lat="45.4449779" lon="7.7079317"><ele>930.9999999999999</ele><time>2026-05-01T12:23:05.022Z</time></trkpt><trkpt lat="45.4450291" lon="7.7078253"><ele>931.0</ele><time>2026-05-01T12:23:05.974Z</time></trkpt><trkpt lat="45.4450944" lon="7.7077221"><ele>931.0</ele><time>2026-05-01T12:23:06.948Z</time></trkpt><trkpt lat="45.445152" lon="7.707617"><ele>931.0</ele><time>2026-05-01T12:23:07.951Z</time></trkpt><trkpt lat="45.4452087" lon="7.7075278"><ele>930.9999999999999</ele><time>2026-05-01T12:23:08.948Z</time></trkpt><trkpt lat="45.4452524" lon="7.7074514"><ele>931.0</ele><time>2026-05-01T12:23:09.945Z</time></trkpt><trkpt lat="45.4453096" lon="7.70737"><ele>931.0</ele><time>2026-05-01T12:23:10.944Z</time></trkpt><trkpt lat="45.4453945" lon="7.7072971"><ele>930.9999999999999</ele><time>2026-05-01T12:23:11.952Z</time></trkpt><trkpt lat="45.4454795" lon="7.70722"><ele>930.9999999999999</ele><time>2026-05-01T12:23:12.947Z</time></trkpt><trkpt lat="45.4455704" lon="7.7071752"><ele>931.0</ele><time>2026-05-01T12:23:13.956Z</time></trkpt><trkpt lat="45.4456524" lon="7.7071414"><ele>931.0</ele><time>2026-05-01T12:23:14.956Z</time></trkpt><trkpt lat="45.4457395" lon="7.7071273"><ele>930.9999999999999</ele><time>2026-05-01T12:23:15.945Z</time></trkpt><trkpt lat="45.4458203" lon="7.7071234"><ele>931.0</ele><time>2026-05-01T12:23:16.944Z</time></trkpt><trkpt lat="45.445906" lon="7.7071071"><ele>931.0</ele><time>2026-05-01T12:23:17.951Z</time></trkpt><trkpt lat="45.4460047" lon="7.7070599"><ele>931.0</ele><time>2026-05-01T12:23:19.955Z</time></trkpt><trkpt lat="45.4460589" lon="7.7070088"><ele>930.9999999999999</ele><time>2026-05-01T12:23:20.941Z</time></trkpt><trkpt lat="45.4461014" lon="7.7069052"><ele>931.0</ele><time>2026-05-01T12:23:21.942Z</time></trkpt><trkpt lat="45.4461599" lon="7.7067564"><ele>931.5</ele><time>2026-05-01T12:23:22.957Z</time></trkpt><trkpt lat="45.4462209" lon="7.7065959"><ele>932.0</ele><time>2026-05-01T12:23:23.949Z</time></trkpt><trkpt lat="45.4463119" lon="7.7064099"><ele>932.5</ele><time>2026-05-01T12:23:24.948Z</time></trkpt><trkpt lat="45.4463531" lon="7.7062127"><ele>933.0</ele><time>2026-05-01T12:23:25.952Z</time></trkpt><trkpt lat="45.4463925" lon="7.7060059"><ele>936.0</ele><time>2026-05-01T12:23:26.95Z</time></trkpt><trkpt lat="45.4464529" lon="7.7058376"><ele>939.0</ele><time>2026-05-01T12:23:27.945Z</time></trkpt><trkpt lat="45.4465185" lon="7.705677"><ele>942.0</ele><time>2026-05-01T12:23:28.95Z</time></trkpt><trkpt lat="45.4465813" lon="7.7055459"><ele>945.0</ele><time>2026-05-01T12:23:29.943Z</time></trkpt><trkpt lat="45.4466597" lon="7.7054451"><ele>945.0</ele><time>2026-05-01T12:23:31.027Z</time></trkpt><trkpt lat="45.4467023" lon="7.7053706"><ele>945.0</ele><time>2026-05-01T12:23:31.948Z</time></trkpt><trkpt lat="45.4467551" lon="7.7052442"><ele>945.0</ele><time>2026-05-01T12:23:33.967Z</time></trkpt><trkpt lat="45.446869" lon="7.705224"><ele>945.0</ele><time>2026-05-01T12:23:35.95Z</time></trkpt><trkpt lat="45.4469382" lon="7.7052201"><ele>945.0</ele><time>2026-05-01T12:23:36.943Z</time></trkpt><trkpt lat="45.4470012" lon="7.7051916"><ele>945.0</ele><time>2026-05-01T12:23:37.948Z</time></trkpt><trkpt lat="45.4470849" lon="7.7051581"><ele>945.6666666666666</ele><time>2026-05-01T12:23:39.024Z</time></trkpt><trkpt lat="45.4471578" lon="7.705086"><ele>946.3333333333333</ele><time>2026-05-01T12:23:40.018Z</time></trkpt><trkpt lat="45.4472307" lon="7.7050067"><ele>947.0</ele><time>2026-05-01T12:23:41.021Z</time></trkpt><trkpt lat="45.4472948" lon="7.7049344"><ele>947.6666666666666</ele><time>2026-05-01T12:23:41.944Z</time></trkpt><trkpt lat="45.4473383" lon="7.7048669"><ele>948.3333333333333</ele><time>2026-05-01T12:23:42.945Z</time></trkpt><trkpt lat="45.4474212" lon="7.7047422"><ele>949.0</ele><time>2026-05-01T12:23:44.944Z</time></trkpt><trkpt lat="45.4474886" lon="7.7046931"><ele>948.9999999999999</ele><time>2026-05-01T12:23:45.944Z</time></trkpt><trkpt lat="45.4475911" lon="7.7046027"><ele>949.0</ele><time>2026-05-01T12:23:47.951Z</time></trkpt><trkpt lat="45.4476575" lon="7.7045845"><ele>949.0</ele><time>2026-05-01T12:23:48.941Z</time></trkpt><trkpt lat="45.4477331" lon="7.7045674"><ele>949.0</ele><time>2026-05-01T12:23:49.944Z</time></trkpt><trkpt lat="45.4478026" lon="7.7045668"><ele>948.9999999999999</ele><time>2026-05-01T12:23:51.023Z</time></trkpt><trkpt lat="45.447907" lon="7.7045534"><ele>949.0</ele><time>2026-05-01T12:23:53.025Z</time></trkpt><trkpt lat="45.4479959" lon="7.7044587"><ele>949.6666666666666</ele><time>2026-05-01T12:23:55.034Z</time></trkpt><trkpt lat="45.4480586" lon="7.7043972"><ele>950.3333333333333</ele><time>2026-05-01T12:23:55.947Z</time></trkpt><trkpt lat="45.4481297" lon="7.7043348"><ele>951.0</ele><time>2026-05-01T12:23:56.95Z</time></trkpt><trkpt lat="45.4482047" lon="7.7042549"><ele>951.6666666666667</ele><time>2026-05-01T12:23:57.953Z</time></trkpt><trkpt lat="45.4482628" lon="7.7041803"><ele>952.3333333333334</ele><time>2026-05-01T12:23:58.946Z</time></trkpt><trkpt lat="45.4483205" lon="7.7041084"><ele>953.0</ele><time>2026-05-01T12:24:00.023Z</time></trkpt><trkpt lat="45.448398" lon="7.7040489"><ele>953.0</ele><time>2026-05-01T12:24:01.951Z</time></trkpt><trkpt lat="45.4484682" lon="7.7040308"><ele>953.0</ele><time>2026-05-01T12:24:03.954Z</time></trkpt><trkpt lat="45.4485264" lon="7.704071"><ele>953.0</ele><time>2026-05-01T12:24:05.949Z</time></trkpt><trkpt lat="45.4485925" lon="7.7041843"><ele>953.0</ele><time>2026-05-01T12:24:07.955Z</time></trkpt><trkpt lat="45.4486244" lon="7.7042803"><ele>953.0</ele><time>2026-05-01T12:24:08.955Z</time></trkpt><trkpt lat="45.4486547" lon="7.7043626"><ele>953.0</ele><time>2026-05-01T12:24:09.953Z</time></trkpt><trkpt lat="45.4486909" lon="7.7044438"><ele>953.0</ele><time>2026-05-01T12:24:10.955Z</time></trkpt><trkpt lat="45.4487326" lon="7.7045261"><ele>954.0</ele><time>2026-05-01T12:24:11.95Z</time></trkpt><trkpt lat="45.4487825" lon="7.7046325"><ele>955.0</ele><time>2026-05-01T12:24:12.949Z</time></trkpt><trkpt lat="45.4488446" lon="7.7047186"><ele>956.0</ele><time>2026-05-01T12:24:13.957Z</time></trkpt><trkpt lat="45.4489062" lon="7.7047896"><ele>957.0</ele><time>2026-05-01T12:24:14.956Z</time></trkpt><trkpt lat="45.448979" lon="7.7048874"><ele>958.0</ele><time>2026-05-01T12:24:16.954Z</time></trkpt><trkpt lat="45.449079" lon="7.7049245"><ele>957.9999999999999</ele><time>2026-05-01T12:24:18.998Z</time></trkpt><trkpt lat="45.4491766" lon="7.7049769"><ele>958.0</ele><time>2026-05-01T12:24:21.021Z</time></trkpt><trkpt lat="45.4492664" lon="7.7051102"><ele>958.0</ele><time>2026-05-01T12:24:22.942Z</time></trkpt><trkpt lat="45.449299" lon="7.7051888"><ele>958.0</ele><time>2026-05-01T12:24:23.939Z</time></trkpt><trkpt lat="45.4493387" lon="7.7052632"><ele>957.9999999999999</ele><time>2026-05-01T12:24:24.945Z</time></trkpt><trkpt lat="45.4493841" lon="7.7053323"><ele>958.0</ele><time>2026-05-01T12:24:26.007Z</time></trkpt><trkpt lat="45.4494384" lon="7.7054017"><ele>957.3333333333333</ele><time>2026-05-01T12:24:26.942Z</time></trkpt><trkpt lat="45.4494956" lon="7.7054594"><ele>956.6666666666666</ele><time>2026-05-01T12:24:27.945Z</time></trkpt><trkpt lat="45.4495983" lon="7.7055282"><ele>956.0</ele><time>2026-05-01T12:24:30.002Z</time></trkpt><trkpt lat="45.4496871" lon="7.7055722"><ele>955.3333333333333</ele><time>2026-05-01T12:24:31.943Z</time></trkpt><trkpt lat="45.4497506" lon="7.7056057"><ele>954.6666666666666</ele><time>2026-05-01T12:24:33.94Z</time></trkpt><trkpt lat="45.4497784" lon="7.7057072"><ele>954.0</ele><time>2026-05-01T12:24:36.94Z</time></trkpt><trkpt lat="45.4498293" lon="7.7058164"><ele>954.0</ele><time>2026-05-01T12:24:38.94Z</time></trkpt><trkpt lat="45.4498825" lon="7.7058749"><ele>954.0000000000001</ele><time>2026-05-01T12:24:39.938Z</time></trkpt><trkpt lat="45.4499486" lon="7.706007"><ele>954.0000000000001</ele><time>2026-05-01T12:24:41.94Z</time></trkpt><trkpt lat="45.449988" lon="7.7061739"><ele>954.0</ele><time>2026-05-01T12:24:44.023Z</time></trkpt><trkpt lat="45.4500189" lon="7.7062556"><ele>954.0</ele><time>2026-05-01T12:24:45.024Z</time></trkpt><trkpt lat="45.4500778" lon="7.7063907"><ele>955.0</ele><time>2026-05-01T12:24:46.946Z</time></trkpt><trkpt lat="45.4501281" lon="7.7064711"><ele>956.0000000000001</ele><time>2026-05-01T12:24:48.953Z</time></trkpt><trkpt lat="45.4502303" lon="7.7064343"><ele>957.0000000000001</ele><time>2026-05-01T12:24:51.952Z</time></trkpt><trkpt lat="45.4503518" lon="7.7063943"><ele>958.0</ele><time>2026-05-01T12:24:54.049Z</time></trkpt><trkpt lat="45.4504201" lon="7.7063602"><ele>959.0</ele><time>2026-05-01T12:24:54.952Z</time></trkpt><trkpt lat="45.4505363" lon="7.7062909"><ele>959.0000000000001</ele><time>2026-05-01T12:24:56.954Z</time></trkpt><trkpt lat="45.4505975" lon="7.7062587"><ele>959.0</ele><time>2026-05-01T12:24:57.957Z</time></trkpt><trkpt lat="45.4506597" lon="7.706202"><ele>959.0</ele><time>2026-05-01T12:24:59.071Z</time></trkpt><trkpt lat="45.4507845" lon="7.7061183"><ele>959.0</ele><time>2026-05-01T12:25:01.023Z</time></trkpt><trkpt lat="45.4508356" lon="7.7060514"><ele>959.0000000000001</ele><time>2026-05-01T12:25:01.95Z</time></trkpt><trkpt lat="45.4508837" lon="7.7059935"><ele>959.0</ele><time>2026-05-01T12:25:02.95Z</time></trkpt><trkpt lat="45.450936" lon="7.7059287"><ele>961.1666666666667</ele><time>2026-05-01T12:25:03.976Z</time></trkpt><trkpt lat="45.4509889" lon="7.705847"><ele>963.3333333333334</ele><time>2026-05-01T12:25:05.025Z</time></trkpt><trkpt lat="45.4510514" lon="7.7057721"><ele>965.5</ele><time>2026-05-01T12:25:06.023Z</time></trkpt><trkpt lat="45.4511035" lon="7.7056956"><ele>967.6666666666667</ele><time>2026-05-01T12:25:06.941Z</time></trkpt><trkpt lat="45.4511668" lon="7.7056196"><ele>969.8333333333334</ele><time>2026-05-01T12:25:07.944Z</time></trkpt><trkpt lat="45.4512336" lon="7.7055357"><ele>972.0</ele><time>2026-05-01T12:25:09.034Z</time></trkpt><trkpt lat="45.4512946" lon="7.7054626"><ele>974.1666666666666</ele><time>2026-05-01T12:25:10.01Z</time></trkpt><trkpt lat="45.4513631" lon="7.7053929"><ele>976.3333333333333</ele><time>2026-05-01T12:25:11.005Z</time></trkpt><trkpt lat="45.4514278" lon="7.7053393"><ele>978.5</ele><time>2026-05-01T12:25:11.941Z</time></trkpt><trkpt lat="45.4515116" lon="7.7052747"><ele>980.6666666666666</ele><time>2026-05-01T12:25:12.947Z</time></trkpt><trkpt lat="45.4515905" lon="7.7052027"><ele>982.8333333333333</ele><time>2026-05-01T12:25:13.948Z</time></trkpt><trkpt lat="45.4516741" lon="7.705135"><ele>985.0</ele><time>2026-05-01T12:25:15.007Z</time></trkpt><trkpt lat="45.4517399" lon="7.705077"><ele>987.6</ele><time>2026-05-01T12:25:16.007Z</time></trkpt><trkpt lat="45.4518417" lon="7.7050031"><ele>990.2</ele><time>2026-05-01T12:25:17.949Z</time></trkpt><trkpt lat="45.4519399" lon="7.7049136"><ele>992.8</ele><time>2026-05-01T12:25:19.937Z</time></trkpt><trkpt lat="45.4519952" lon="7.7048625"><ele>995.4</ele><time>2026-05-01T12:25:20.948Z</time></trkpt><trkpt lat="45.4520905" lon="7.704753"><ele>998.0</ele><time>2026-05-01T12:25:22.937Z</time></trkpt><trkpt lat="45.452157" lon="7.7046613"><ele>998.1666666666667</ele><time>2026-05-01T12:25:24.939Z</time></trkpt><trkpt lat="45.452212" lon="7.7045665"><ele>998.3333333333334</ele><time>2026-05-01T12:25:27.943Z</time></trkpt><trkpt lat="45.452252" lon="7.7044841"><ele>998.5</ele><time>2026-05-01T12:25:29.947Z</time></trkpt><trkpt lat="45.4523007" lon="7.704382"><ele>998.6666666666667</ele><time>2026-05-01T12:25:32.947Z</time></trkpt><trkpt lat="45.4523399" lon="7.7043115"><ele>998.8333333333334</ele><time>2026-05-01T12:25:34.947Z</time></trkpt><trkpt lat="45.4523881" lon="7.7042089"><ele>999.0</ele><time>2026-05-01T12:25:37.946Z</time></trkpt><trkpt lat="45.4524244" lon="7.7041109"><ele>1000.0</ele><time>2026-05-01T12:25:40.944Z</time></trkpt><trkpt lat="45.4524626" lon="7.7040117"><ele>1001.0000000000001</ele><time>2026-05-01T12:25:43.946Z</time></trkpt><trkpt lat="45.4524688" lon="7.7039208"><ele>1002.0</ele><time>2026-05-01T12:27:05.941Z</time></trkpt><trkpt lat="45.4525182" lon="7.7038629"><ele>1003.0</ele><time>2026-05-01T12:27:08.942Z</time></trkpt><trkpt lat="45.4525174" lon="7.7037731"><ele>1004.0000000000001</ele><time>2026-05-01T12:27:17.937Z</time></trkpt><trkpt lat="45.4524986" lon="7.7036843"><ele>1005.0</ele><time>2026-05-01T12:28:33.951Z</time></trkpt><trkpt lat="45.4525187" lon="7.7035754"><ele>1006.0</ele><time>2026-05-01T12:33:26.949Z</time></trkpt><trkpt lat="45.4524605" lon="7.703632"><ele>1005.9999999999999</ele><time>2026-05-01T12:38:49.938Z</time></trkpt><trkpt lat="45.4523849" lon="7.703716"><ele>1006.0</ele><time>2026-05-01T12:38:53.044Z</time></trkpt><trkpt lat="45.4523067" lon="7.7038654"><ele>1006.0</ele><time>2026-05-01T12:38:54.943Z</time></trkpt><trkpt lat="45.4522625" lon="7.7039512"><ele>1006.0</ele><time>2026-05-01T12:38:55.948Z</time></trkpt><trkpt lat="45.4522186" lon="7.7040423"><ele>1005.9999999999999</ele><time>2026-05-01T12:38:56.948Z</time></trkpt><trkpt lat="45.4521807" lon="7.7041225"><ele>1006.0</ele><time>2026-05-01T12:38:57.953Z</time></trkpt><trkpt lat="45.4521124" lon="7.7042447"><ele>1005.4</ele><time>2026-05-01T12:39:00.005Z</time></trkpt><trkpt lat="45.4520627" lon="7.7043139"><ele>1004.8</ele><time>2026-05-01T12:39:01.948Z</time></trkpt><trkpt lat="45.4520147" lon="7.7043968"><ele>1004.1999999999999</ele><time>2026-05-01T12:39:03.943Z</time></trkpt><trkpt lat="45.4519275" lon="7.7045287"><ele>1003.5999999999999</ele><time>2026-05-01T12:39:06.006Z</time></trkpt><trkpt lat="45.4518223" lon="7.7046362"><ele>1003.0</ele><time>2026-05-01T12:39:07.945Z</time></trkpt><trkpt lat="45.4517333" lon="7.7047381"><ele>1002.0</ele><time>2026-05-01T12:39:09.95Z</time></trkpt><trkpt lat="45.4516786" lon="7.70483"><ele>1001.0</ele><time>2026-05-01T12:39:11.993Z</time></trkpt><trkpt lat="45.4516208" lon="7.7049005"><ele>1000.0</ele><time>2026-05-01T12:39:13.945Z</time></trkpt><trkpt lat="45.451519" lon="7.7049958"><ele>999.0</ele><time>2026-05-01T12:39:16.004Z</time></trkpt><trkpt lat="45.4514324" lon="7.7050918"><ele>998.0</ele><time>2026-05-01T12:39:17.948Z</time></trkpt><trkpt lat="45.4513438" lon="7.7051617"><ele>994.5999999999999</ele><time>2026-05-01T12:39:19.95Z</time></trkpt><trkpt lat="45.4512574" lon="7.7052299"><ele>991.1999999999999</ele><time>2026-05-01T12:39:21.947Z</time></trkpt><trkpt lat="45.451175" lon="7.7053127"><ele>987.8</ele><time>2026-05-01T12:39:23.949Z</time></trkpt><trkpt lat="45.4511069" lon="7.7054186"><ele>984.4</ele><time>2026-05-01T12:39:26.015Z</time></trkpt><trkpt lat="45.4510436" lon="7.7055288"><ele>981.0</ele><time>2026-05-01T12:39:27.951Z</time></trkpt><trkpt lat="45.4509694" lon="7.7056275"><ele>979.1999999999999</ele><time>2026-05-01T12:39:29.948Z</time></trkpt><trkpt lat="45.4509018" lon="7.7057323"><ele>977.3999999999999</ele><time>2026-05-01T12:39:31.95Z</time></trkpt><trkpt lat="45.4508444" lon="7.7058436"><ele>975.6</ele><time>2026-05-01T12:39:33.945Z</time></trkpt><trkpt lat="45.4507767" lon="7.7059733"><ele>973.8</ele><time>2026-05-01T12:39:35.949Z</time></trkpt><trkpt lat="45.4507094" lon="7.7060931"><ele>972.0</ele><time>2026-05-01T12:39:37.95Z</time></trkpt><trkpt lat="45.4506503" lon="7.7061906"><ele>970.1428571428571</ele><time>2026-05-01T12:39:39.948Z</time></trkpt><trkpt lat="45.4505984" lon="7.7062675"><ele>968.2857142857143</ele><time>2026-05-01T12:39:41.948Z</time></trkpt><trkpt lat="45.4505352" lon="7.7063261"><ele>966.4285714285714</ele><time>2026-05-01T12:39:43.938Z</time></trkpt><trkpt lat="45.4504791" lon="7.7063775"><ele>964.5714285714286</ele><time>2026-05-01T12:39:45.95Z</time></trkpt><trkpt lat="45.4504203" lon="7.706425"><ele>962.7142857142858</ele><time>2026-05-01T12:39:47.948Z</time></trkpt><trkpt lat="45.4503758" lon="7.7064909"><ele>960.8571428571429</ele><time>2026-05-01T12:39:49.946Z</time></trkpt><trkpt lat="45.4503197" lon="7.7065482"><ele>959.0</ele><time>2026-05-01T12:40:20.95Z</time></trkpt><trkpt lat="45.4503682" lon="7.7064679"><ele>959.0</ele><time>2026-05-01T12:40:34.951Z</time></trkpt><trkpt lat="45.4504278" lon="7.7064024"><ele>959.0000000000001</ele><time>2026-05-01T12:40:36.938Z</time></trkpt><trkpt lat="45.4505115" lon="7.7063525"><ele>959.0000000000001</ele><time>2026-05-01T12:40:38.944Z</time></trkpt><trkpt lat="45.4505822" lon="7.7062756"><ele>959.0</ele><time>2026-05-01T12:40:40.95Z</time></trkpt><trkpt lat="45.4506534" lon="7.7061634"><ele>959.0</ele><time>2026-05-01T12:40:42.951Z</time></trkpt><trkpt lat="45.4507364" lon="7.7060525"><ele>961.6</ele><time>2026-05-01T12:40:44.947Z</time></trkpt><trkpt lat="45.4508171" lon="7.7059598"><ele>964.2</ele><time>2026-05-01T12:40:46.948Z</time></trkpt><trkpt lat="45.4508743" lon="7.7058293"><ele>966.8000000000001</ele><time>2026-05-01T12:40:48.945Z</time></trkpt><trkpt lat="45.45094" lon="7.7057198"><ele>969.4000000000001</ele><time>2026-05-01T12:40:50.946Z</time></trkpt><trkpt lat="45.4510083" lon="7.7056143"><ele>972.0</ele><time>2026-05-01T12:40:52.95Z</time></trkpt><trkpt lat="45.4510857" lon="7.705512"><ele>972.0</ele><time>2026-05-01T12:40:54.948Z</time></trkpt><trkpt lat="45.4511676" lon="7.7053906"><ele>972.0</ele><time>2026-05-01T12:40:56.95Z</time></trkpt><trkpt lat="45.4512597" lon="7.705275"><ele>972.0</ele><time>2026-05-01T12:40:58.949Z</time></trkpt><trkpt lat="45.451352" lon="7.7051799"><ele>972.0</ele><time>2026-05-01T12:41:00.95Z</time></trkpt><trkpt lat="45.4514535" lon="7.7050885"><ele>977.2</ele><time>2026-05-01T12:41:02.949Z</time></trkpt><trkpt lat="45.4515594" lon="7.7049871"><ele>982.4000000000001</ele><time>2026-05-01T12:41:04.948Z</time></trkpt><trkpt lat="45.4516153" lon="7.7049328"><ele>987.5999999999999</ele><time>2026-05-01T12:41:05.951Z</time></trkpt><trkpt lat="45.4516908" lon="7.7048435"><ele>992.8</ele><time>2026-05-01T12:41:07.946Z</time></trkpt><trkpt lat="45.4517622" lon="7.7047458"><ele>998.0</ele><time>2026-05-01T12:41:09.944Z</time></trkpt><trkpt lat="45.4518137" lon="7.7046912"><ele>998.0000000000001</ele><time>2026-05-01T12:41:10.95Z</time></trkpt><trkpt lat="45.4518696" lon="7.7046361"><ele>998.0</ele><time>2026-05-01T12:41:11.95Z</time></trkpt><trkpt lat="45.451919" lon="7.7045745"><ele>998.0</ele><time>2026-05-01T12:41:12.946Z</time></trkpt><trkpt lat="45.4520053" lon="7.7044431"><ele>998.0</ele><time>2026-05-01T12:41:14.945Z</time></trkpt><trkpt lat="45.452085" lon="7.7043172"><ele>998.0000000000001</ele><time>2026-05-01T12:41:16.948Z</time></trkpt><trkpt lat="45.4521318" lon="7.7042552"><ele>998.0</ele><time>2026-05-01T12:41:17.945Z</time></trkpt><trkpt lat="45.4521779" lon="7.7041919"><ele>999.5999999999999</ele><time>2026-05-01T12:41:18.94Z</time></trkpt><trkpt lat="45.4522649" lon="7.7040426"><ele>1001.1999999999999</ele><time>2026-05-01T12:41:21.007Z</time></trkpt><trkpt lat="45.4523009" lon="7.7039662"><ele>1002.8</ele><time>2026-05-01T12:41:21.949Z</time></trkpt><trkpt lat="45.452375" lon="7.703822"><ele>1004.4</ele><time>2026-05-01T12:41:23.947Z</time></trkpt><trkpt lat="45.4524615" lon="7.7037098"><ele>1006.0</ele><time>2026-05-01T12:41:25.951Z</time></trkpt><trkpt lat="45.4525423" lon="7.7036013"><ele>1007.0</ele><time>2026-05-01T12:41:27.947Z</time></trkpt><trkpt lat="45.452601" lon="7.7035096"><ele>1007.9999999999999</ele><time>2026-05-01T12:41:29.952Z</time></trkpt><trkpt lat="45.4526724" lon="7.7035107"><ele>1008.9999999999999</ele><time>2026-05-01T12:41:32.944Z</time></trkpt><trkpt lat="45.4527289" lon="7.7034556"><ele>1010.0</ele><time>2026-05-01T12:41:34.952Z</time></trkpt><trkpt lat="45.4527724" lon="7.7033113"><ele>1011.0</ele><time>2026-05-01T12:41:36.939Z</time></trkpt><trkpt lat="45.4528236" lon="7.7031657"><ele>1011.0</ele><time>2026-05-01T12:41:38.947Z</time></trkpt><trkpt lat="45.4528837" lon="7.7030295"><ele>1010.9999999999999</ele><time>2026-05-01T12:41:40.945Z</time></trkpt><trkpt lat="45.4529389" lon="7.7028993"><ele>1010.9999999999999</ele><time>2026-05-01T12:41:42.944Z</time></trkpt><trkpt lat="45.4530037" lon="7.7027855"><ele>1011.0</ele><time>2026-05-01T12:41:45.01Z</time></trkpt><trkpt lat="45.4530621" lon="7.7026644"><ele>1011.0</ele><time>2026-05-01T12:41:46.946Z</time></trkpt><trkpt lat="45.4530676" lon="7.7025398"><ele>1014.0</ele><time>2026-05-01T12:41:48.945Z</time></trkpt><trkpt lat="45.4530333" lon="7.7024192"><ele>1017.0</ele><time>2026-05-01T12:41:50.956Z</time></trkpt><trkpt lat="45.4530281" lon="7.7022903"><ele>1020.0</ele><time>2026-05-01T12:41:52.945Z</time></trkpt><trkpt lat="45.4530505" lon="7.7021626"><ele>1023.0</ele><time>2026-05-01T12:41:54.941Z</time></trkpt><trkpt lat="45.4530604" lon="7.7020521"><ele>1026.0</ele><time>2026-05-01T12:41:56.944Z</time></trkpt><trkpt lat="45.4530357" lon="7.7019579"><ele>1029.0</ele><time>2026-05-01T12:41:59.945Z</time></trkpt><trkpt lat="45.4529955" lon="7.7018529"><ele>1030.8333333333333</ele><time>2026-05-01T12:42:29.941Z</time></trkpt><trkpt lat="45.4529264" lon="7.7017714"><ele>1032.6666666666667</ele><time>2026-05-01T12:42:31.951Z</time></trkpt><trkpt lat="45.4528762" lon="7.7017122"><ele>1034.5</ele><time>2026-05-01T12:42:33.009Z</time></trkpt><trkpt lat="45.4528308" lon="7.7016438"><ele>1036.3333333333335</ele><time>2026-05-01T12:42:33.947Z</time></trkpt><trkpt lat="45.4527751" lon="7.7015688"><ele>1038.1666666666667</ele><time>2026-05-01T12:42:34.941Z</time></trkpt><trkpt lat="45.4527156" lon="7.7014965"><ele>1040.0</ele><time>2026-05-01T12:42:35.95Z</time></trkpt><trkpt lat="45.4526436" lon="7.7014285"><ele>1040.0</ele><time>2026-05-01T12:42:36.944Z</time></trkpt><trkpt lat="45.4525671" lon="7.7013656"><ele>1040.0</ele><time>2026-05-01T12:42:37.941Z</time></trkpt><trkpt lat="45.4524848" lon="7.7013101"><ele>1040.0</ele><time>2026-05-01T12:42:38.944Z</time></trkpt><trkpt lat="45.4524124" lon="7.701263"><ele>1040.0</ele><time>2026-05-01T12:42:40.001Z</time></trkpt><trkpt lat="45.4523432" lon="7.7012138"><ele>1040.0</ele><time>2026-05-01T12:42:41.006Z</time></trkpt><trkpt lat="45.4522776" lon="7.7011669"><ele>1040.0</ele><time>2026-05-01T12:42:41.95Z</time></trkpt><trkpt lat="45.4522087" lon="7.7011209"><ele>1039.1666666666667</ele><time>2026-05-01T12:42:42.946Z</time></trkpt><trkpt lat="45.452147" lon="7.7010794"><ele>1038.3333333333335</ele><time>2026-05-01T12:42:43.946Z</time></trkpt><trkpt lat="45.45208" lon="7.7010374"><ele>1037.5</ele><time>2026-05-01T12:42:44.944Z</time></trkpt><trkpt lat="45.4520137" lon="7.7010038"><ele>1036.6666666666667</ele><time>2026-05-01T12:42:45.944Z</time></trkpt><trkpt lat="45.4519479" lon="7.7009736"><ele>1035.8333333333333</ele><time>2026-05-01T12:42:46.948Z</time></trkpt><trkpt lat="45.4518454" lon="7.700917"><ele>1035.0</ele><time>2026-05-01T12:42:48.949Z</time></trkpt><trkpt lat="45.4517682" lon="7.700792"><ele>1035.0</ele><time>2026-05-01T12:42:50.947Z</time></trkpt><trkpt lat="45.4517169" lon="7.7006772"><ele>1035.0</ele><time>2026-05-01T12:42:52.944Z</time></trkpt><trkpt lat="45.4516832" lon="7.7005025"><ele>1035.0</ele><time>2026-05-01T12:42:54.945Z</time></trkpt><trkpt lat="45.4516545" lon="7.7004077"><ele>1035.0</ele><time>2026-05-01T12:42:55.948Z</time></trkpt><trkpt lat="45.4516165" lon="7.7003275"><ele>1035.0</ele><time>2026-05-01T12:42:56.946Z</time></trkpt><trkpt lat="45.4515761" lon="7.7002467"><ele>1035.0</ele><time>2026-05-01T12:42:57.954Z</time></trkpt><trkpt lat="45.4515366" lon="7.7001609"><ele>1035.5</ele><time>2026-05-01T12:42:59.007Z</time></trkpt><trkpt lat="45.4514959" lon="7.7000625"><ele>1036.0</ele><time>2026-05-01T12:42:59.943Z</time></trkpt><trkpt lat="45.4514477" lon="7.6999637"><ele>1036.5</ele><time>2026-05-01T12:43:00.943Z</time></trkpt><trkpt lat="45.4513861" lon="7.6998685"><ele>1037.0</ele><time>2026-05-01T12:43:01.95Z</time></trkpt><trkpt lat="45.4513262" lon="7.6998189"><ele>1037.5</ele><time>2026-05-01T12:43:02.949Z</time></trkpt><trkpt lat="45.4512276" lon="7.6997367"><ele>1038.0</ele><time>2026-05-01T12:43:04.957Z</time></trkpt><trkpt lat="45.451155" lon="7.6996962"><ele>1038.0</ele><time>2026-05-01T12:43:06.003Z</time></trkpt><trkpt lat="45.4510836" lon="7.6996529"><ele>1038.0</ele><time>2026-05-01T12:43:06.951Z</time></trkpt><trkpt lat="45.4510085" lon="7.6996116"><ele>1038.0</ele><time>2026-05-01T12:43:07.949Z</time></trkpt><trkpt lat="45.4509495" lon="7.69956"><ele>1038.0</ele><time>2026-05-01T12:43:08.944Z</time></trkpt><trkpt lat="45.4508749" lon="7.6994785"><ele>1038.0</ele><time>2026-05-01T12:43:10.946Z</time></trkpt><trkpt lat="45.4508083" lon="7.6995065"><ele>1038.0</ele><time>2026-05-01T12:43:12.946Z</time></trkpt><trkpt lat="45.4507268" lon="7.6995686"><ele>1038.0</ele><time>2026-05-01T12:43:15.026Z</time></trkpt><trkpt lat="45.4506131" lon="7.6996199"><ele>1038.0</ele><time>2026-05-01T12:43:16.965Z</time></trkpt><trkpt lat="45.4505502" lon="7.699653"><ele>1038.0</ele><time>2026-05-01T12:43:17.936Z</time></trkpt><trkpt lat="45.4504687" lon="7.6996862"><ele>1038.0</ele><time>2026-05-01T12:43:18.95Z</time></trkpt><trkpt lat="45.4503483" lon="7.6997027"><ele>1038.0</ele><time>2026-05-01T12:43:20.939Z</time></trkpt><trkpt lat="45.4502737" lon="7.6997073"><ele>1038.6</ele><time>2026-05-01T12:43:21.946Z</time></trkpt><trkpt lat="45.4501967" lon="7.6997019"><ele>1039.1999999999998</ele><time>2026-05-01T12:43:22.95Z</time></trkpt><trkpt lat="45.4501206" lon="7.6996973"><ele>1039.8</ele><time>2026-05-01T12:43:23.952Z</time></trkpt><trkpt lat="45.4500484" lon="7.6996855"><ele>1040.3999999999999</ele><time>2026-05-01T12:43:25.024Z</time></trkpt><trkpt lat="45.4499152" lon="7.6996463"><ele>1041.0</ele><time>2026-05-01T12:43:26.956Z</time></trkpt><trkpt lat="45.4498181" lon="7.699582"><ele>1041.0</ele><time>2026-05-01T12:43:28.961Z</time></trkpt><trkpt lat="45.4497433" lon="7.6994713"><ele>1041.0</ele><time>2026-05-01T12:43:30.965Z</time></trkpt><trkpt lat="45.4497308" lon="7.6993474"><ele>1041.0</ele><time>2026-05-01T12:43:32.959Z</time></trkpt><trkpt lat="45.4497129" lon="7.6992097"><ele>1041.0</ele><time>2026-05-01T12:43:34.963Z</time></trkpt><trkpt lat="45.4497218" lon="7.6990723"><ele>1041.0</ele><time>2026-05-01T12:43:36.959Z</time></trkpt><trkpt lat="45.4497436" lon="7.6989255"><ele>1044.1666666666667</ele><time>2026-05-01T12:43:39.023Z</time></trkpt><trkpt lat="45.4498078" lon="7.6988081"><ele>1047.3333333333333</ele><time>2026-05-01T12:43:40.966Z</time></trkpt><trkpt lat="45.4498378" lon="7.6986936"><ele>1050.5</ele><time>2026-05-01T12:43:42.962Z</time></trkpt><trkpt lat="45.4498553" lon="7.6985699"><ele>1053.6666666666665</ele><time>2026-05-01T12:43:45.023Z</time></trkpt><trkpt lat="45.4498859" lon="7.6984634"><ele>1056.8333333333333</ele><time>2026-05-01T12:43:46.95Z</time></trkpt><trkpt lat="45.4499428" lon="7.6983941"><ele>1060.0</ele><time>2026-05-01T12:43:48.95Z</time></trkpt><trkpt lat="45.4499814" lon="7.698309"><ele>1060.0</ele><time>2026-05-01T12:43:50.945Z</time></trkpt><trkpt lat="45.4499948" lon="7.698213"><ele>1060.0</ele><time>2026-05-01T12:43:52.944Z</time></trkpt><trkpt lat="45.4500023" lon="7.6980789"><ele>1060.0</ele><time>2026-05-01T12:43:54.951Z</time></trkpt><trkpt lat="45.4499823" lon="7.6979204"><ele>1060.0</ele><time>2026-05-01T12:43:56.942Z</time></trkpt><trkpt lat="45.449988" lon="7.6977403"><ele>1060.0</ele><time>2026-05-01T12:43:58.946Z</time></trkpt><trkpt lat="45.4500375" lon="7.6976303"><ele>1060.8</ele><time>2026-05-01T12:43:59.949Z</time></trkpt><trkpt lat="45.4500647" lon="7.6975346"><ele>1061.6</ele><time>2026-05-01T12:44:00.946Z</time></trkpt><trkpt lat="45.4500846" lon="7.6973726"><ele>1062.4</ele><time>2026-05-01T12:44:02.949Z</time></trkpt><trkpt lat="45.4500752" lon="7.6972395"><ele>1063.2</ele><time>2026-05-01T12:44:04.949Z</time></trkpt><trkpt lat="45.4500756" lon="7.6971193"><ele>1064.0</ele><time>2026-05-01T12:44:06.947Z</time></trkpt><trkpt lat="45.4500879" lon="7.6969542"><ele>1064.6000000000001</ele><time>2026-05-01T12:44:08.947Z</time></trkpt><trkpt lat="45.4501055" lon="7.6968179"><ele>1065.2</ele><time>2026-05-01T12:44:10.945Z</time></trkpt><trkpt lat="45.4501437" lon="7.6966735"><ele>1065.8000000000002</ele><time>2026-05-01T12:44:12.944Z</time></trkpt><trkpt lat="45.4501849" lon="7.6965813"><ele>1066.4</ele><time>2026-05-01T12:44:14.949Z</time></trkpt><trkpt lat="45.4502512" lon="7.6964679"><ele>1067.0</ele><time>2026-05-01T12:44:16.949Z</time></trkpt><trkpt lat="45.4502505" lon="7.6963519"><ele>1067.0</ele><time>2026-05-01T12:44:17.948Z</time></trkpt><trkpt lat="45.4503074" lon="7.6962177"><ele>1067.0</ele><time>2026-05-01T12:44:19.944Z</time></trkpt><trkpt lat="45.4503435" lon="7.6961358"><ele>1067.0</ele><time>2026-05-01T12:44:20.947Z</time></trkpt><trkpt lat="45.4503888" lon="7.6960513"><ele>1067.0</ele><time>2026-05-01T12:44:21.946Z</time></trkpt><trkpt lat="45.4504604" lon="7.6959926"><ele>1067.0</ele><time>2026-05-01T12:44:23.95Z</time></trkpt><trkpt lat="45.4505638" lon="7.6959415"><ele>1067.0</ele><time>2026-05-01T12:44:25.953Z</time></trkpt><trkpt lat="45.4506263" lon="7.6958771"><ele>1068.0</ele><time>2026-05-01T12:44:26.944Z</time></trkpt><trkpt lat="45.450698" lon="7.6958135"><ele>1069.0</ele><time>2026-05-01T12:44:28.945Z</time></trkpt><trkpt lat="45.4507454" lon="7.6957294"><ele>1070.0</ele><time>2026-05-01T12:44:31.947Z</time></trkpt><trkpt lat="45.4507973" lon="7.6956375"><ele>1071.0</ele><time>2026-05-01T12:44:36.935Z</time></trkpt><trkpt lat="45.450909" lon="7.6955593"><ele>1072.0</ele><time>2026-05-01T12:44:38.945Z</time></trkpt><trkpt lat="45.4509787" lon="7.6955309"><ele>1073.0</ele><time>2026-05-01T12:44:39.941Z</time></trkpt><trkpt lat="45.4510661" lon="7.6954897"><ele>1073.0</ele><time>2026-05-01T12:44:41.029Z</time></trkpt><trkpt lat="45.4511675" lon="7.6954447"><ele>1073.0</ele><time>2026-05-01T12:44:41.943Z</time></trkpt><trkpt lat="45.451264" lon="7.6954128"><ele>1073.0</ele><time>2026-05-01T12:44:42.948Z</time></trkpt><trkpt lat="45.4513576" lon="7.6953838"><ele>1073.0</ele><time>2026-05-01T12:44:43.947Z</time></trkpt><trkpt lat="45.4514534" lon="7.6953466"><ele>1073.0</ele><time>2026-05-01T12:44:44.949Z</time></trkpt><trkpt lat="45.4515406" lon="7.6953079"><ele>1072.3333333333335</ele><time>2026-05-01T12:44:45.944Z</time></trkpt><trkpt lat="45.4516186" lon="7.6952699"><ele>1071.6666666666667</ele><time>2026-05-01T12:44:46.946Z</time></trkpt><trkpt lat="45.4516937" lon="7.6952208"><ele>1071.0</ele><time>2026-05-01T12:44:47.945Z</time></trkpt><trkpt lat="45.4517719" lon="7.695185"><ele>1070.3333333333333</ele><time>2026-05-01T12:44:49.024Z</time></trkpt><trkpt lat="45.4518495" lon="7.6951454"><ele>1069.6666666666665</ele><time>2026-05-01T12:44:50.023Z</time></trkpt><trkpt lat="45.4519387" lon="7.6951102"><ele>1069.0</ele><time>2026-05-01T12:44:51.023Z</time></trkpt><trkpt lat="45.4520226" lon="7.6950743"><ele>1069.0</ele><time>2026-05-01T12:44:51.948Z</time></trkpt><trkpt lat="45.4521076" lon="7.695041"><ele>1069.0</ele><time>2026-05-01T12:44:52.943Z</time></trkpt><trkpt lat="45.4521833" lon="7.695007"><ele>1069.0</ele><time>2026-05-01T12:44:53.943Z</time></trkpt><trkpt lat="45.4522617" lon="7.6949744"><ele>1069.0</ele><time>2026-05-01T12:44:54.945Z</time></trkpt><trkpt lat="45.4523369" lon="7.6949306"><ele>1069.0</ele><time>2026-05-01T12:44:55.94Z</time></trkpt><trkpt lat="45.4524107" lon="7.6948852"><ele>1069.0</ele><time>2026-05-01T12:44:56.944Z</time></trkpt><trkpt lat="45.452484" lon="7.6948338"><ele>1068.2857142857142</ele><time>2026-05-01T12:44:57.95Z</time></trkpt><trkpt lat="45.4525517" lon="7.6947837"><ele>1067.5714285714287</ele><time>2026-05-01T12:44:58.946Z</time></trkpt><trkpt lat="45.4526147" lon="7.6947281"><ele>1066.857142857143</ele><time>2026-05-01T12:45:00.022Z</time></trkpt><trkpt lat="45.4526784" lon="7.6946628"><ele>1066.142857142857</ele><time>2026-05-01T12:45:00.944Z</time></trkpt><trkpt lat="45.4527406" lon="7.6946111"><ele>1065.4285714285716</ele><time>2026-05-01T12:45:01.941Z</time></trkpt><trkpt lat="45.4528011" lon="7.6945501"><ele>1064.7142857142858</ele><time>2026-05-01T12:45:02.945Z</time></trkpt><trkpt lat="45.4528533" lon="7.6944752"><ele>1064.0</ele><time>2026-05-01T12:45:03.948Z</time></trkpt><trkpt lat="45.4529033" lon="7.6943925"><ele>1064.0</ele><time>2026-05-01T12:45:04.942Z</time></trkpt><trkpt lat="45.4529465" lon="7.6942982"><ele>1064.0</ele><time>2026-05-01T12:45:06.022Z</time></trkpt><trkpt lat="45.4529876" lon="7.6942062"><ele>1064.0</ele><time>2026-05-01T12:45:06.954Z</time></trkpt><trkpt lat="45.4530252" lon="7.6941129"><ele>1064.0</ele><time>2026-05-01T12:45:07.957Z</time></trkpt><trkpt lat="45.4530678" lon="7.6940155"><ele>1064.0</ele><time>2026-05-01T12:45:08.977Z</time></trkpt><trkpt lat="45.4531163" lon="7.6939373"><ele>1064.0</ele><time>2026-05-01T12:45:10.03Z</time></trkpt><trkpt lat="45.4531738" lon="7.6938649"><ele>1066.0</ele><time>2026-05-01T12:45:11.025Z</time></trkpt><trkpt lat="45.4532297" lon="7.6937912"><ele>1068.0</ele><time>2026-05-01T12:45:11.96Z</time></trkpt><trkpt lat="45.4532826" lon="7.693721"><ele>1070.0</ele><time>2026-05-01T12:45:12.957Z</time></trkpt><trkpt lat="45.4533386" lon="7.6936545"><ele>1072.0</ele><time>2026-05-01T12:45:14.05Z</time></trkpt><trkpt lat="45.4533964" lon="7.6935991"><ele>1074.0</ele><time>2026-05-01T12:45:14.952Z</time></trkpt><trkpt lat="45.4534569" lon="7.6935734"><ele>1076.0</ele><time>2026-05-01T12:45:16.017Z</time></trkpt><trkpt lat="45.4535201" lon="7.6935809"><ele>1078.0</ele><time>2026-05-01T12:45:16.95Z</time></trkpt><trkpt lat="45.4536387" lon="7.693609"><ele>1078.0</ele><time>2026-05-01T12:45:19.045Z</time></trkpt><trkpt lat="45.4537351" lon="7.6935511"><ele>1078.0</ele><time>2026-05-01T12:45:20.947Z</time></trkpt><trkpt lat="45.4537837" lon="7.6933862"><ele>1078.0</ele><time>2026-05-01T12:45:22.942Z</time></trkpt><trkpt lat="45.4537836" lon="7.6932721"><ele>1078.0</ele><time>2026-05-01T12:45:24.014Z</time></trkpt><trkpt lat="45.453791" lon="7.6931645"><ele>1078.0</ele><time>2026-05-01T12:45:24.944Z</time></trkpt><trkpt lat="45.4537983" lon="7.693064"><ele>1081.1666666666665</ele><time>2026-05-01T12:45:26.023Z</time></trkpt><trkpt lat="45.453805" lon="7.6929601"><ele>1084.3333333333333</ele><time>2026-05-01T12:45:26.949Z</time></trkpt><trkpt lat="45.4538252" lon="7.6928589"><ele>1087.5</ele><time>2026-05-01T12:45:27.941Z</time></trkpt><trkpt lat="45.4538741" lon="7.6927663"><ele>1090.6666666666667</ele><time>2026-05-01T12:45:29.061Z</time></trkpt><trkpt lat="45.4539375" lon="7.692691"><ele>1093.8333333333335</ele><time>2026-05-01T12:45:29.979Z</time></trkpt><trkpt lat="45.4540086" lon="7.6926234"><ele>1097.0</ele><time>2026-05-01T12:45:31.023Z</time></trkpt><trkpt lat="45.45408" lon="7.692564"><ele>1097.0</ele><time>2026-05-01T12:45:31.961Z</time></trkpt><trkpt lat="45.454143" lon="7.6925085"><ele>1097.0</ele><time>2026-05-01T12:45:32.967Z</time></trkpt><trkpt lat="45.4542015" lon="7.6924444"><ele>1097.0</ele><time>2026-05-01T12:45:33.96Z</time></trkpt><trkpt lat="45.4542544" lon="7.6923699"><ele>1097.0</ele><time>2026-05-01T12:45:34.962Z</time></trkpt><trkpt lat="45.4542957" lon="7.6922866"><ele>1097.0</ele><time>2026-05-01T12:45:35.965Z</time></trkpt><trkpt lat="45.4543253" lon="7.6921916"><ele>1097.0</ele><time>2026-05-01T12:45:36.952Z</time></trkpt><trkpt lat="45.4543524" lon="7.6920827"><ele>1097.0</ele><time>2026-05-01T12:45:37.963Z</time></trkpt><trkpt lat="45.4543818" lon="7.6919687"><ele>1096.0</ele><time>2026-05-01T12:45:39.023Z</time></trkpt><trkpt lat="45.4544051" lon="7.6918358"><ele>1095.0</ele><time>2026-05-01T12:45:40.025Z</time></trkpt><trkpt lat="45.4544326" lon="7.6917239"><ele>1094.0</ele><time>2026-05-01T12:45:40.963Z</time></trkpt><trkpt lat="45.4544789" lon="7.6916261"><ele>1093.0</ele><time>2026-05-01T12:45:41.966Z</time></trkpt><trkpt lat="45.4545273" lon="7.6915307"><ele>1092.0</ele><time>2026-05-01T12:45:42.961Z</time></trkpt><trkpt lat="45.4545716" lon="7.6914489"><ele>1091.0</ele><time>2026-05-01T12:45:43.966Z</time></trkpt><trkpt lat="45.4546159" lon="7.6913628"><ele>1096.0</ele><time>2026-05-01T12:45:44.959Z</time></trkpt><trkpt lat="45.4546558" lon="7.6912811"><ele>1101.0</ele><time>2026-05-01T12:45:45.961Z</time></trkpt><trkpt lat="45.4546774" lon="7.6911891"><ele>1106.0</ele><time>2026-05-01T12:45:46.967Z</time></trkpt><trkpt lat="45.4546916" lon="7.6910852"><ele>1111.0</ele><time>2026-05-01T12:45:47.961Z</time></trkpt><trkpt lat="45.4546934" lon="7.6909813"><ele>1116.0</ele><time>2026-05-01T12:45:48.962Z</time></trkpt><trkpt lat="45.4546928" lon="7.6908807"><ele>1121.0</ele><time>2026-05-01T12:45:49.962Z</time></trkpt><trkpt lat="45.4546996" lon="7.6907037"><ele>1121.0</ele><time>2026-05-01T12:45:51.967Z</time></trkpt><trkpt lat="45.4547215" lon="7.6906112"><ele>1121.0</ele><time>2026-05-01T12:45:52.96Z</time></trkpt><trkpt lat="45.4547498" lon="7.6905236"><ele>1121.0</ele><time>2026-05-01T12:45:53.962Z</time></trkpt><trkpt lat="45.4547808" lon="7.6904424"><ele>1121.0</ele><time>2026-05-01T12:45:55.025Z</time></trkpt><trkpt lat="45.4548205" lon="7.6903673"><ele>1121.0</ele><time>2026-05-01T12:45:56.026Z</time></trkpt><trkpt lat="45.4549143" lon="7.6902403"><ele>1121.0</ele><time>2026-05-01T12:45:57.958Z</time></trkpt><trkpt lat="45.4549724" lon="7.6901843"><ele>1119.0</ele><time>2026-05-01T12:45:59.069Z</time></trkpt><trkpt lat="45.4550408" lon="7.6901377"><ele>1117.0</ele><time>2026-05-01T12:46:00.031Z</time></trkpt><trkpt lat="45.4551131" lon="7.6901118"><ele>1115.0</ele><time>2026-05-01T12:46:01.028Z</time></trkpt><trkpt lat="45.4551966" lon="7.6901103"><ele>1113.0</ele><time>2026-05-01T12:46:01.987Z</time></trkpt><trkpt lat="45.4552761" lon="7.6901115"><ele>1111.0</ele><time>2026-05-01T12:46:03.017Z</time></trkpt><trkpt lat="45.4553494" lon="7.6901121"><ele>1109.0</ele><time>2026-05-01T12:46:04.028Z</time></trkpt><trkpt lat="45.4554233" lon="7.6901073"><ele>1112.3333333333335</ele><time>2026-05-01T12:46:05.024Z</time></trkpt><trkpt lat="45.4555037" lon="7.690087"><ele>1115.6666666666667</ele><time>2026-05-01T12:46:06.023Z</time></trkpt><trkpt lat="45.4555787" lon="7.690048"><ele>1119.0</ele><time>2026-05-01T12:46:06.949Z</time></trkpt><trkpt lat="45.4556392" lon="7.6900113"><ele>1122.3333333333333</ele><time>2026-05-01T12:46:08.022Z</time></trkpt><trkpt lat="45.4557376" lon="7.6899142"><ele>1125.6666666666665</ele><time>2026-05-01T12:46:10.021Z</time></trkpt><trkpt lat="45.4557899" lon="7.689857"><ele>1129.0</ele><time>2026-05-01T12:46:10.959Z</time></trkpt><trkpt lat="45.4558461" lon="7.6898091"><ele>1129.0</ele><time>2026-05-01T12:46:11.948Z</time></trkpt><trkpt lat="45.4559135" lon="7.6897691"><ele>1129.0</ele><time>2026-05-01T12:46:12.949Z</time></trkpt><trkpt lat="45.4559885" lon="7.6897296"><ele>1129.0</ele><time>2026-05-01T12:46:13.944Z</time></trkpt><trkpt lat="45.4560736" lon="7.6896925"><ele>1129.0</ele><time>2026-05-01T12:46:14.972Z</time></trkpt><trkpt lat="45.4561685" lon="7.6896524"><ele>1129.0</ele><time>2026-05-01T12:46:15.946Z</time></trkpt><trkpt lat="45.4562632" lon="7.6896148"><ele>1129.0</ele><time>2026-05-01T12:46:16.941Z</time></trkpt><trkpt lat="45.4563506" lon="7.6895761"><ele>1127.4285714285713</ele><time>2026-05-01T12:46:17.945Z</time></trkpt><trkpt lat="45.4564348" lon="7.6895405"><ele>1125.8571428571427</ele><time>2026-05-01T12:46:18.943Z</time></trkpt><trkpt lat="45.4565096" lon="7.6895085"><ele>1124.2857142857142</ele><time>2026-05-01T12:46:19.949Z</time></trkpt><trkpt lat="45.4565709" lon="7.689479"><ele>1122.7142857142858</ele><time>2026-05-01T12:46:21.018Z</time></trkpt><trkpt lat="45.4566314" lon="7.689446"><ele>1121.1428571428573</ele><time>2026-05-01T12:46:21.95Z</time></trkpt><trkpt lat="45.4566944" lon="7.6894114"><ele>1119.5714285714287</ele><time>2026-05-01T12:46:22.95Z</time></trkpt><trkpt lat="45.4567645" lon="7.6893739"><ele>1118.0</ele><time>2026-05-01T12:46:23.983Z</time></trkpt><trkpt lat="45.4568343" lon="7.6893433"><ele>1118.0</ele><time>2026-05-01T12:46:24.948Z</time></trkpt><trkpt lat="45.456895" lon="7.6893074"><ele>1118.0</ele><time>2026-05-01T12:46:25.937Z</time></trkpt><trkpt lat="45.456958" lon="7.6892627"><ele>1118.0</ele><time>2026-05-01T12:46:26.945Z</time></trkpt><trkpt lat="45.4570172" lon="7.6892216"><ele>1118.0</ele><time>2026-05-01T12:46:27.951Z</time></trkpt><trkpt lat="45.4570852" lon="7.6891851"><ele>1118.0</ele><time>2026-05-01T12:46:29.066Z</time></trkpt><trkpt lat="45.4571674" lon="7.6891597"><ele>1118.0</ele><time>2026-05-01T12:46:30.037Z</time></trkpt><trkpt lat="45.4572609" lon="7.689145"><ele>1120.5</ele><time>2026-05-01T12:46:30.952Z</time></trkpt><trkpt lat="45.4573736" lon="7.6891444"><ele>1123.0</ele><time>2026-05-01T12:46:31.955Z</time></trkpt><trkpt lat="45.4575198" lon="7.689163"><ele>1125.5</ele><time>2026-05-01T12:46:32.952Z</time></trkpt><trkpt lat="45.4576853" lon="7.6891841"><ele>1128.0</ele><time>2026-05-01T12:46:33.957Z</time></trkpt><trkpt lat="45.4578572" lon="7.6892166"><ele>1130.75</ele><time>2026-05-01T12:46:34.952Z</time></trkpt><trkpt lat="45.4580085" lon="7.689226"><ele>1133.5</ele><time>2026-05-01T12:46:35.954Z</time></trkpt><trkpt lat="45.4581334" lon="7.689224"><ele>1136.25</ele><time>2026-05-01T12:46:36.947Z</time></trkpt><trkpt lat="45.4582441" lon="7.6892089"><ele>1139.0</ele><time>2026-05-01T12:46:38.023Z</time></trkpt><trkpt lat="45.4583508" lon="7.6891865"><ele>1139.0</ele><time>2026-05-01T12:46:39.023Z</time></trkpt><trkpt lat="45.4584466" lon="7.6891568"><ele>1139.0</ele><time>2026-05-01T12:46:39.962Z</time></trkpt><trkpt lat="45.4585383" lon="7.6891346"><ele>1139.0</ele><time>2026-05-01T12:46:40.956Z</time></trkpt><trkpt lat="45.4586258" lon="7.6891061"><ele>1139.0</ele><time>2026-05-01T12:46:41.958Z</time></trkpt><trkpt lat="45.4587143" lon="7.6890582"><ele>1139.0</ele><time>2026-05-01T12:46:42.957Z</time></trkpt><trkpt lat="45.4587946" lon="7.688999"><ele>1142.6666666666667</ele><time>2026-05-01T12:46:43.962Z</time></trkpt><trkpt lat="45.458875" lon="7.6889307"><ele>1146.3333333333335</ele><time>2026-05-01T12:46:45.025Z</time></trkpt><trkpt lat="45.4589468" lon="7.6888585"><ele>1150.0</ele><time>2026-05-01T12:46:45.948Z</time></trkpt><trkpt lat="45.4590227" lon="7.688804"><ele>1153.6666666666667</ele><time>2026-05-01T12:46:46.945Z</time></trkpt><trkpt lat="45.4591057" lon="7.6887641"><ele>1157.3333333333333</ele><time>2026-05-01T12:46:47.947Z</time></trkpt><trkpt lat="45.4591938" lon="7.688733"><ele>1161.0</ele><time>2026-05-01T12:46:49.029Z</time></trkpt><trkpt lat="45.4592796" lon="7.6887166"><ele>1161.0</ele><time>2026-05-01T12:46:49.975Z</time></trkpt><trkpt lat="45.4593682" lon="7.6887087"><ele>1161.0</ele><time>2026-05-01T12:46:51.024Z</time></trkpt><trkpt lat="45.4594523" lon="7.6887088"><ele>1161.0</ele><time>2026-05-01T12:46:51.954Z</time></trkpt><trkpt lat="45.4595287" lon="7.6887158"><ele>1161.0</ele><time>2026-05-01T12:46:52.951Z</time></trkpt><trkpt lat="45.4596053" lon="7.6887255"><ele>1161.0</ele><time>2026-05-01T12:46:53.968Z</time></trkpt><trkpt lat="45.4596794" lon="7.6887464"><ele>1161.0</ele><time>2026-05-01T12:46:55.021Z</time></trkpt><trkpt lat="45.4597611" lon="7.6887669"><ele>1163.8</ele><time>2026-05-01T12:46:56.023Z</time></trkpt><trkpt lat="45.4598451" lon="7.6887711"><ele>1166.6</ele><time>2026-05-01T12:46:56.944Z</time></trkpt><trkpt lat="45.4599343" lon="7.6887492"><ele>1169.4</ele><time>2026-05-01T12:46:57.954Z</time></trkpt><trkpt lat="45.4600261" lon="7.6887163"><ele>1172.2</ele><time>2026-05-01T12:46:58.97Z</time></trkpt><trkpt lat="45.4601349" lon="7.6886916"><ele>1175.0</ele><time>2026-05-01T12:47:00.023Z</time></trkpt><trkpt lat="45.4602629" lon="7.6886636"><ele>1175.0</ele><time>2026-05-01T12:47:01.02Z</time></trkpt><trkpt lat="45.4603977" lon="7.6886242"><ele>1175.0</ele><time>2026-05-01T12:47:01.945Z</time></trkpt><trkpt lat="45.4605036" lon="7.6885492"><ele>1175.0</ele><time>2026-05-01T12:47:02.946Z</time></trkpt><trkpt lat="45.4605864" lon="7.6884412"><ele>1175.0</ele><time>2026-05-01T12:47:03.958Z</time></trkpt><trkpt lat="45.4606566" lon="7.6883233"><ele>1174.0</ele><time>2026-05-01T12:47:05.023Z</time></trkpt><trkpt lat="45.4607285" lon="7.6882275"><ele>1173.0</ele><time>2026-05-01T12:47:05.947Z</time></trkpt><trkpt lat="45.4608185" lon="7.6881657"><ele>1172.0</ele><time>2026-05-01T12:47:06.953Z</time></trkpt><trkpt lat="45.4609289" lon="7.6881441"><ele>1171.0</ele><time>2026-05-01T12:47:07.948Z</time></trkpt><trkpt lat="45.4610466" lon="7.6881283"><ele>1170.0</ele><time>2026-05-01T12:47:08.951Z</time></trkpt><trkpt lat="45.4611527" lon="7.6881535"><ele>1170.0</ele><time>2026-05-01T12:47:10.02Z</time></trkpt><trkpt lat="45.4612601" lon="7.6882084"><ele>1170.0</ele><time>2026-05-01T12:47:11.021Z</time></trkpt><trkpt lat="45.4613856" lon="7.6883066"><ele>1170.0</ele><time>2026-05-01T12:47:11.944Z</time></trkpt><trkpt lat="45.461518" lon="7.6884228"><ele>1170.0</ele><time>2026-05-01T12:47:12.953Z</time></trkpt><trkpt lat="45.4616618" lon="7.6885664"><ele>1178.6666666666667</ele><time>2026-05-01T12:47:13.949Z</time></trkpt><trkpt lat="45.461823" lon="7.6887212"><ele>1187.3333333333335</ele><time>2026-05-01T12:47:14.949Z</time></trkpt><trkpt lat="45.4619762" lon="7.6888767"><ele>1196.0</ele><time>2026-05-01T12:47:15.952Z</time></trkpt><trkpt lat="45.46211" lon="7.6890267"><ele>1193.3333333333335</ele><time>2026-05-01T12:47:16.951Z</time></trkpt><trkpt lat="45.462235" lon="7.689169"><ele>1190.6666666666667</ele><time>2026-05-01T12:47:17.95Z</time></trkpt><trkpt lat="45.4623478" lon="7.6893193"><ele>1188.0</ele><time>2026-05-01T12:47:18.951Z</time></trkpt><trkpt lat="45.4624545" lon="7.6894646"><ele>1193.25</ele><time>2026-05-01T12:47:20.01Z</time></trkpt><trkpt lat="45.4625661" lon="7.6895829"><ele>1198.5</ele><time>2026-05-01T12:47:20.956Z</time></trkpt><trkpt lat="45.4626777" lon="7.6896726"><ele>1203.75</ele><time>2026-05-01T12:47:21.95Z</time></trkpt><trkpt lat="45.4627787" lon="7.6897497"><ele>1209.0</ele><time>2026-05-01T12:47:22.952Z</time></trkpt><trkpt lat="45.462876" lon="7.6898413"><ele>1207.8</ele><time>2026-05-01T12:47:23.955Z</time></trkpt><trkpt lat="45.4629723" lon="7.6899503"><ele>1206.6000000000001</ele><time>2026-05-01T12:47:24.95Z</time></trkpt><trkpt lat="45.463064" lon="7.6900437"><ele>1205.4</ele><time>2026-05-01T12:47:25.949Z</time></trkpt><trkpt lat="45.4631539" lon="7.6901129"><ele>1204.2</ele><time>2026-05-01T12:47:26.96Z</time></trkpt><trkpt lat="45.4632368" lon="7.6901605"><ele>1203.0</ele><time>2026-05-01T12:47:27.948Z</time></trkpt><trkpt lat="45.4633223" lon="7.6901683"><ele>1203.0</ele><time>2026-05-01T12:47:29.017Z</time></trkpt><trkpt lat="45.4634136" lon="7.6901607"><ele>1203.0</ele><time>2026-05-01T12:47:29.951Z</time></trkpt><trkpt lat="45.4635252" lon="7.6901367"><ele>1203.0</ele><time>2026-05-01T12:47:30.957Z</time></trkpt><trkpt lat="45.4636384" lon="7.6901367"><ele>1203.0</ele><time>2026-05-01T12:47:31.951Z</time></trkpt><trkpt lat="45.4637597" lon="7.6901518"><ele>1203.0</ele><time>2026-05-01T12:47:32.949Z</time></trkpt><trkpt lat="45.4638951" lon="7.690162"><ele>1204.25</ele><time>2026-05-01T12:47:33.947Z</time></trkpt><trkpt lat="45.4640297" lon="7.6901614"><ele>1205.5</ele><time>2026-05-01T12:47:35.012Z</time></trkpt><trkpt lat="45.4641586" lon="7.6901609"><ele>1206.75</ele><time>2026-05-01T12:47:36.029Z</time></trkpt><trkpt lat="45.4642865" lon="7.6901803"><ele>1208.0</ele><time>2026-05-01T12:47:36.951Z</time></trkpt><trkpt lat="45.4644114" lon="7.6901824"><ele>1208.0</ele><time>2026-05-01T12:47:37.958Z</time></trkpt><trkpt lat="45.4645421" lon="7.6901659"><ele>1208.0</ele><time>2026-05-01T12:47:38.968Z</time></trkpt><trkpt lat="45.4646836" lon="7.6901367"><ele>1208.0</ele><time>2026-05-01T12:47:39.967Z</time></trkpt><trkpt lat="45.4648129" lon="7.6900976"><ele>1208.0</ele><time>2026-05-01T12:47:40.954Z</time></trkpt><trkpt lat="45.4649119" lon="7.6900556"><ele>1212.0</ele><time>2026-05-01T12:47:41.957Z</time></trkpt><trkpt lat="45.4649959" lon="7.6900218"><ele>1216.0</ele><time>2026-05-01T12:47:42.963Z</time></trkpt><trkpt lat="45.4650597" lon="7.690076"><ele>1220.0</ele><time>2026-05-01T12:47:45.957Z</time></trkpt><trkpt lat="45.4649949" lon="7.6902"><ele>1224.0</ele><time>2026-05-01T12:47:47.951Z</time></trkpt><trkpt lat="45.4649122" lon="7.6902884"><ele>1228.0</ele><time>2026-05-01T12:47:48.966Z</time></trkpt><trkpt lat="45.4647938" lon="7.6904034"><ele>1228.75</ele><time>2026-05-01T12:47:49.95Z</time></trkpt><trkpt lat="45.4646704" lon="7.6905234"><ele>1229.5</ele><time>2026-05-01T12:47:50.955Z</time></trkpt><trkpt lat="45.4645525" lon="7.6906407"><ele>1230.25</ele><time>2026-05-01T12:47:51.962Z</time></trkpt><trkpt lat="45.4644518" lon="7.6907794"><ele>1231.0</ele><time>2026-05-01T12:47:52.956Z</time></trkpt><trkpt lat="45.4643671" lon="7.6909109"><ele>1231.0</ele><time>2026-05-01T12:47:53.962Z</time></trkpt><trkpt lat="45.4642988" lon="7.6910357"><ele>1231.0</ele><time>2026-05-01T12:47:54.958Z</time></trkpt><trkpt lat="45.4642377" lon="7.6911423"><ele>1231.0</ele><time>2026-05-01T12:47:55.957Z</time></trkpt><trkpt lat="45.464197" lon="7.6912302"><ele>1231.0</ele><time>2026-05-01T12:47:56.955Z</time></trkpt><trkpt lat="45.4642154" lon="7.6913453"><ele>1231.0</ele><time>2026-05-01T12:47:58.96Z</time></trkpt><trkpt lat="45.4643053" lon="7.6913535"><ele>1231.0</ele><time>2026-05-01T12:48:00.963Z</time></trkpt><trkpt lat="45.4644025" lon="7.6912465"><ele>1231.0</ele><time>2026-05-01T12:48:02.959Z</time></trkpt><trkpt lat="45.4644772" lon="7.6911534"><ele>1231.0</ele><time>2026-05-01T12:48:03.956Z</time></trkpt><trkpt lat="45.4645605" lon="7.6910749"><ele>1231.0</ele><time>2026-05-01T12:48:04.959Z</time></trkpt><trkpt lat="45.4646645" lon="7.6910126"><ele>1231.0</ele><time>2026-05-01T12:48:05.963Z</time></trkpt><trkpt lat="45.4647788" lon="7.690966"><ele>1234.75</ele><time>2026-05-01T12:48:06.956Z</time></trkpt><trkpt lat="45.4648998" lon="7.6909336"><ele>1238.5</ele><time>2026-05-01T12:48:07.951Z</time></trkpt><trkpt lat="45.4650224" lon="7.6909045"><ele>1242.25</ele><time>2026-05-01T12:48:08.959Z</time></trkpt><trkpt lat="45.4651437" lon="7.6908778"><ele>1246.0</ele><time>2026-05-01T12:48:09.957Z</time></trkpt><trkpt lat="45.4652606" lon="7.6908454"><ele>1246.0</ele><time>2026-05-01T12:48:11.032Z</time></trkpt><trkpt lat="45.4653769" lon="7.6908033"><ele>1246.0</ele><time>2026-05-01T12:48:11.96Z</time></trkpt><trkpt lat="45.4654771" lon="7.6907657"><ele>1246.0</ele><time>2026-05-01T12:48:12.958Z</time></trkpt><trkpt lat="45.4655688" lon="7.6907386"><ele>1246.0</ele><time>2026-05-01T12:48:13.968Z</time></trkpt><trkpt lat="45.46564" lon="7.6906941"><ele>1246.0</ele><time>2026-05-01T12:48:15.026Z</time></trkpt><trkpt lat="45.4657006" lon="7.6906075"><ele>1248.8</ele><time>2026-05-01T12:48:15.957Z</time></trkpt><trkpt lat="45.465749" lon="7.6904947"><ele>1251.6</ele><time>2026-05-01T12:48:16.955Z</time></trkpt><trkpt lat="45.4657906" lon="7.6903637"><ele>1254.4</ele><time>2026-05-01T12:48:18.021Z</time></trkpt><trkpt lat="45.4658303" lon="7.6902253"><ele>1257.2</ele><time>2026-05-01T12:48:19.025Z</time></trkpt><trkpt lat="45.4658761" lon="7.6900782"><ele>1260.0</ele><time>2026-05-01T12:48:20.016Z</time></trkpt><trkpt lat="45.4659404" lon="7.689943"><ele>1260.0</ele><time>2026-05-01T12:48:21.018Z</time></trkpt><trkpt lat="45.4660109" lon="7.689804"><ele>1260.0</ele><time>2026-05-01T12:48:21.959Z</time></trkpt><trkpt lat="45.4660749" lon="7.6896782"><ele>1260.0</ele><time>2026-05-01T12:48:22.963Z</time></trkpt><trkpt lat="45.4661261" lon="7.6895602"><ele>1260.0</ele><time>2026-05-01T12:48:23.953Z</time></trkpt><trkpt lat="45.4661598" lon="7.6894357"><ele>1260.0</ele><time>2026-05-01T12:48:25.029Z</time></trkpt><trkpt lat="45.4661722" lon="7.6893177"><ele>1259.5</ele><time>2026-05-01T12:48:26.022Z</time></trkpt><trkpt lat="45.4661609" lon="7.6892107"><ele>1259.0</ele><time>2026-05-01T12:48:26.971Z</time></trkpt><trkpt lat="45.4661335" lon="7.6891136"><ele>1258.5</ele><time>2026-05-01T12:48:28.021Z</time></trkpt><trkpt lat="45.4661538" lon="7.6889919"><ele>1258.0</ele><time>2026-05-01T12:48:30.024Z</time></trkpt><trkpt lat="45.4662346" lon="7.6890033"><ele>1257.5</ele><time>2026-05-01T12:48:31.958Z</time></trkpt><trkpt lat="45.4662652" lon="7.6891654"><ele>1257.0</ele><time>2026-05-01T12:48:33.956Z</time></trkpt><trkpt lat="45.4662682" lon="7.6893006"><ele>1257.75</ele><time>2026-05-01T12:48:34.967Z</time></trkpt><trkpt lat="45.4662677" lon="7.6894575"><ele>1258.5</ele><time>2026-05-01T12:48:35.962Z</time></trkpt><trkpt lat="45.4662603" lon="7.6896406"><ele>1259.25</ele><time>2026-05-01T12:48:36.958Z</time></trkpt><trkpt lat="45.4662349" lon="7.689819"><ele>1260.0</ele><time>2026-05-01T12:48:37.953Z</time></trkpt><trkpt lat="45.4662118" lon="7.6899802"><ele>1260.0</ele><time>2026-05-01T12:48:38.957Z</time></trkpt><trkpt lat="45.4661958" lon="7.690127"><ele>1260.0</ele><time>2026-05-01T12:48:39.958Z</time></trkpt><trkpt lat="45.4661989" lon="7.6902524"><ele>1260.0</ele><time>2026-05-01T12:48:40.95Z</time></trkpt><trkpt lat="45.4662191" lon="7.6903665"><ele>1260.0</ele><time>2026-05-01T12:48:41.958Z</time></trkpt><trkpt lat="45.4662581" lon="7.690474"><ele>1260.0</ele><time>2026-05-01T12:48:43.017Z</time></trkpt><trkpt lat="45.4663133" lon="7.6905589"><ele>1260.0</ele><time>2026-05-01T12:48:43.954Z</time></trkpt><trkpt lat="45.4663894" lon="7.6906144"><ele>1264.6</ele><time>2026-05-01T12:48:45.023Z</time></trkpt><trkpt lat="45.4664777" lon="7.6906739"><ele>1269.2</ele><time>2026-05-01T12:48:45.952Z</time></trkpt><trkpt lat="45.4665752" lon="7.6907311"><ele>1273.8000000000002</ele><time>2026-05-01T12:48:46.962Z</time></trkpt><trkpt lat="45.4666725" lon="7.6908086"><ele>1278.4</ele><time>2026-05-01T12:48:47.958Z</time></trkpt><trkpt lat="45.4667647" lon="7.6908911"><ele>1283.0</ele><time>2026-05-01T12:48:48.963Z</time></trkpt><trkpt lat="45.4668539" lon="7.6909625"><ele>1283.0</ele><time>2026-05-01T12:48:49.959Z</time></trkpt><trkpt lat="45.4669474" lon="7.6910187"><ele>1283.0</ele><time>2026-05-01T12:48:51.019Z</time></trkpt><trkpt lat="45.4670511" lon="7.691052"><ele>1283.0</ele><time>2026-05-01T12:48:51.95Z</time></trkpt><trkpt lat="45.467153" lon="7.6910675"><ele>1283.0</ele><time>2026-05-01T12:48:52.945Z</time></trkpt><trkpt lat="45.4672541" lon="7.6911014"><ele>1283.0</ele><time>2026-05-01T12:48:53.976Z</time></trkpt><trkpt lat="45.4673426" lon="7.6911649"><ele>1283.6000000000001</ele><time>2026-05-01T12:48:55.027Z</time></trkpt><trkpt lat="45.4674332" lon="7.6912503"><ele>1284.2</ele><time>2026-05-01T12:48:56.023Z</time></trkpt><trkpt lat="45.4675219" lon="7.6913398"><ele>1284.8</ele><time>2026-05-01T12:48:56.953Z</time></trkpt><trkpt lat="45.4676118" lon="7.691429"><ele>1285.4</ele><time>2026-05-01T12:48:57.953Z</time></trkpt><trkpt lat="45.4677029" lon="7.6915073"><ele>1286.0</ele><time>2026-05-01T12:48:58.972Z</time></trkpt><trkpt lat="45.4678021" lon="7.6915871"><ele>1286.0</ele><time>2026-05-01T12:49:00.032Z</time></trkpt><trkpt lat="45.4679021" lon="7.6916709"><ele>1286.0</ele><time>2026-05-01T12:49:01.029Z</time></trkpt><trkpt lat="45.4680053" lon="7.6917532"><ele>1286.0</ele><time>2026-05-01T12:49:01.951Z</time></trkpt><trkpt lat="45.4681036" lon="7.6918367"><ele>1286.0</ele><time>2026-05-01T12:49:02.946Z</time></trkpt><trkpt lat="45.4681955" lon="7.6919104"><ele>1287.4</ele><time>2026-05-01T12:49:03.955Z</time></trkpt><trkpt lat="45.4682854" lon="7.6919787"><ele>1288.8</ele><time>2026-05-01T12:49:05.025Z</time></trkpt><trkpt lat="45.4683823" lon="7.6920479"><ele>1290.2</ele><time>2026-05-01T12:49:06.02Z</time></trkpt><trkpt lat="45.4684826" lon="7.6921166"><ele>1291.6000000000001</ele><time>2026-05-01T12:49:06.942Z</time></trkpt><trkpt lat="45.4685881" lon="7.692174"><ele>1293.0</ele><time>2026-05-01T12:49:07.949Z</time></trkpt><trkpt lat="45.4686957" lon="7.6922287"><ele>1297.0</ele><time>2026-05-01T12:49:08.945Z</time></trkpt><trkpt lat="45.468808" lon="7.6922795"><ele>1301.0</ele><time>2026-05-01T12:49:10.024Z</time></trkpt><trkpt lat="45.4689235" lon="7.6923269"><ele>1305.0</ele><time>2026-05-01T12:49:11.034Z</time></trkpt><trkpt lat="45.4690426" lon="7.6923906"><ele>1309.0</ele><time>2026-05-01T12:49:11.966Z</time></trkpt><trkpt lat="45.4691629" lon="7.692462"><ele>1309.0</ele><time>2026-05-01T12:49:12.963Z</time></trkpt><trkpt lat="45.4692885" lon="7.6925326"><ele>1309.0</ele><time>2026-05-01T12:49:13.993Z</time></trkpt><trkpt lat="45.4694131" lon="7.6925869"><ele>1309.0</ele><time>2026-05-01T12:49:15.029Z</time></trkpt><trkpt lat="45.4695329" lon="7.6926475"><ele>1309.0</ele><time>2026-05-01T12:49:16.063Z</time></trkpt><trkpt lat="45.4697491" lon="7.6927816"><ele>1309.75</ele><time>2026-05-01T12:49:17.949Z</time></trkpt><trkpt lat="45.4698514" lon="7.6928585"><ele>1310.5</ele><time>2026-05-01T12:49:18.973Z</time></trkpt><trkpt lat="45.4699485" lon="7.6929508"><ele>1311.25</ele><time>2026-05-01T12:49:19.946Z</time></trkpt><trkpt lat="45.4700456" lon="7.6930392"><ele>1312.0</ele><time>2026-05-01T12:49:20.95Z</time></trkpt><trkpt lat="45.4701437" lon="7.6931218"><ele>1312.0</ele><time>2026-05-01T12:49:21.95Z</time></trkpt><trkpt lat="45.4702451" lon="7.6932095"><ele>1312.0</ele><time>2026-05-01T12:49:22.968Z</time></trkpt><trkpt lat="45.4703414" lon="7.6932972"><ele>1312.0</ele><time>2026-05-01T12:49:23.966Z</time></trkpt><trkpt lat="45.470431" lon="7.6933826"><ele>1312.0</ele><time>2026-05-01T12:49:24.947Z</time></trkpt><trkpt lat="45.4705184" lon="7.6934701"><ele>1312.0</ele><time>2026-05-01T12:49:26.009Z</time></trkpt><trkpt lat="45.4705974" lon="7.6935642"><ele>1314.8</ele><time>2026-05-01T12:49:26.965Z</time></trkpt><trkpt lat="45.4706739" lon="7.6936616"><ele>1317.6</ele><time>2026-05-01T12:49:27.946Z</time></trkpt><trkpt lat="45.4707475" lon="7.6937557"><ele>1320.3999999999999</ele><time>2026-05-01T12:49:28.947Z</time></trkpt><trkpt lat="45.4708161" lon="7.6938447"><ele>1323.1999999999998</ele><time>2026-05-01T12:49:29.939Z</time></trkpt><trkpt lat="45.4708867" lon="7.6939296"><ele>1326.0</ele><time>2026-05-01T12:49:30.946Z</time></trkpt><trkpt lat="45.4709561" lon="7.6940067"><ele>1326.0</ele><time>2026-05-01T12:49:31.947Z</time></trkpt><trkpt lat="45.4710291" lon="7.6940719"><ele>1326.0</ele><time>2026-05-01T12:49:32.946Z</time></trkpt><trkpt lat="45.4710936" lon="7.6941238"><ele>1326.0</ele><time>2026-05-01T12:49:33.975Z</time></trkpt><trkpt lat="45.4711582" lon="7.6941711"><ele>1326.0</ele><time>2026-05-01T12:49:34.949Z</time></trkpt><trkpt lat="45.4712191" lon="7.6942104"><ele>1326.0</ele><time>2026-05-01T12:49:35.947Z</time></trkpt><trkpt lat="45.4713275" lon="7.6942475"><ele>1326.0</ele><time>2026-05-01T12:49:37.949Z</time></trkpt><trkpt lat="45.4714171" lon="7.6941703"><ele>1327.0</ele><time>2026-05-01T12:49:39.965Z</time></trkpt><trkpt lat="45.471471" lon="7.694029"><ele>1328.0</ele><time>2026-05-01T12:49:41.946Z</time></trkpt><trkpt lat="45.471504" lon="7.6938563"><ele>1329.0</ele><time>2026-05-01T12:49:43.942Z</time></trkpt><trkpt lat="45.4715165" lon="7.693762"><ele>1330.0</ele><time>2026-05-01T12:49:44.951Z</time></trkpt><trkpt lat="45.4715308" lon="7.6936626"><ele>1331.0</ele><time>2026-05-01T12:49:45.95Z</time></trkpt><trkpt lat="45.4715504" lon="7.6935697"><ele>1332.0</ele><time>2026-05-01T12:49:46.953Z</time></trkpt><trkpt lat="45.4715683" lon="7.6934675"><ele>1332.5</ele><time>2026-05-01T12:49:47.949Z</time></trkpt><trkpt lat="45.4715892" lon="7.6933653"><ele>1333.0</ele><time>2026-05-01T12:49:48.949Z</time></trkpt><trkpt lat="45.4716078" lon="7.6932645"><ele>1333.5</ele><time>2026-05-01T12:49:49.95Z</time></trkpt><trkpt lat="45.471622" lon="7.6931593"><ele>1334.0</ele><time>2026-05-01T12:49:50.949Z</time></trkpt><trkpt lat="45.4716294" lon="7.6930435"><ele>1334.5</ele><time>2026-05-01T12:49:51.948Z</time></trkpt><trkpt lat="45.4716416" lon="7.6929298"><ele>1335.0</ele><time>2026-05-01T12:49:52.947Z</time></trkpt><trkpt lat="45.4716634" lon="7.6928127"><ele>1336.0</ele><time>2026-05-01T12:49:53.943Z</time></trkpt><trkpt lat="45.4716821" lon="7.6926892"><ele>1337.0</ele><time>2026-05-01T12:49:54.949Z</time></trkpt><trkpt lat="45.4717029" lon="7.6925717"><ele>1338.0</ele><time>2026-05-01T12:49:55.952Z</time></trkpt><trkpt lat="45.4717187" lon="7.6924584"><ele>1339.0</ele><time>2026-05-01T12:49:56.95Z</time></trkpt><trkpt lat="45.4717235" lon="7.6923386"><ele>1340.0</ele><time>2026-05-01T12:49:57.95Z</time></trkpt><trkpt lat="45.471725" lon="7.6922223"><ele>1341.0</ele><time>2026-05-01T12:49:58.954Z</time></trkpt><trkpt lat="45.4717323" lon="7.6920818"><ele>1341.0</ele><time>2026-05-01T12:49:59.969Z</time></trkpt><trkpt lat="45.471741" lon="7.6919395"><ele>1341.0</ele><time>2026-05-01T12:50:00.948Z</time></trkpt><trkpt lat="45.4717528" lon="7.6917985"><ele>1341.0</ele><time>2026-05-01T12:50:01.941Z</time></trkpt><trkpt lat="45.4717661" lon="7.6916591"><ele>1341.0</ele><time>2026-05-01T12:50:02.947Z</time></trkpt><trkpt lat="45.4717815" lon="7.6915221"><ele>1341.0</ele><time>2026-05-01T12:50:03.951Z</time></trkpt><trkpt lat="45.4717928" lon="7.6913933"><ele>1342.8333333333333</ele><time>2026-05-01T12:50:04.95Z</time></trkpt><trkpt lat="45.4718019" lon="7.6912628"><ele>1344.6666666666667</ele><time>2026-05-01T12:50:05.944Z</time></trkpt><trkpt lat="45.471808" lon="7.6911373"><ele>1346.5</ele><time>2026-05-01T12:50:06.943Z</time></trkpt><trkpt lat="45.4718102" lon="7.6910189"><ele>1348.3333333333335</ele><time>2026-05-01T12:50:07.954Z</time></trkpt><trkpt lat="45.4718122" lon="7.690907"><ele>1350.1666666666667</ele><time>2026-05-01T12:50:08.945Z</time></trkpt><trkpt lat="45.4718143" lon="7.6907993"><ele>1352.0</ele><time>2026-05-01T12:50:09.94Z</time></trkpt><trkpt lat="45.4717802" lon="7.6906573"><ele>1353.1999999999998</ele><time>2026-05-01T12:50:11.948Z</time></trkpt><trkpt lat="45.4716848" lon="7.6906449"><ele>1354.4</ele><time>2026-05-01T12:50:13.949Z</time></trkpt><trkpt lat="45.4715844" lon="7.6907478"><ele>1355.6</ele><time>2026-05-01T12:50:15.95Z</time></trkpt><trkpt lat="45.4715103" lon="7.6908502"><ele>1356.8000000000002</ele><time>2026-05-01T12:50:17.953Z</time></trkpt><trkpt lat="45.4714492" lon="7.6908232"><ele>1358.0</ele><time>2026-05-01T12:50:19.948Z</time></trkpt><trkpt lat="45.4714114" lon="7.690709"><ele>1358.0</ele><time>2026-05-01T12:50:21.951Z</time></trkpt><trkpt lat="45.4714176" lon="7.6906125"><ele>1358.0</ele><time>2026-05-01T12:50:22.947Z</time></trkpt><trkpt lat="45.4714316" lon="7.6904988"><ele>1358.0</ele><time>2026-05-01T12:50:23.951Z</time></trkpt><trkpt lat="45.4714457" lon="7.6903882"><ele>1358.0</ele><time>2026-05-01T12:50:24.941Z</time></trkpt><trkpt lat="45.4714465" lon="7.6902676"><ele>1358.0</ele><time>2026-05-01T12:50:25.945Z</time></trkpt><trkpt lat="45.4714487" lon="7.6901141"><ele>1358.0</ele><time>2026-05-01T12:50:26.948Z</time></trkpt><trkpt lat="45.4714511" lon="7.6899579"><ele>1359.0</ele><time>2026-05-01T12:50:27.946Z</time></trkpt><trkpt lat="45.4714557" lon="7.6897907"><ele>1360.0</ele><time>2026-05-01T12:50:28.944Z</time></trkpt><trkpt lat="45.4714511" lon="7.6896312"><ele>1361.0</ele><time>2026-05-01T12:50:29.949Z</time></trkpt><trkpt lat="45.4714333" lon="7.6894872"><ele>1362.0</ele><time>2026-05-01T12:50:30.941Z</time></trkpt><trkpt lat="45.4714173" lon="7.6893722"><ele>1363.0</ele><time>2026-05-01T12:50:31.943Z</time></trkpt><trkpt lat="45.4713826" lon="7.6892929"><ele>1368.75</ele><time>2026-05-01T12:50:32.946Z</time></trkpt><trkpt lat="45.471272" lon="7.6891831"><ele>1374.5</ele><time>2026-05-01T12:50:34.941Z</time></trkpt><trkpt lat="45.4711905" lon="7.6891292"><ele>1380.25</ele><time>2026-05-01T12:50:35.944Z</time></trkpt><trkpt lat="45.4710849" lon="7.6890678"><ele>1386.0</ele><time>2026-05-01T12:50:36.943Z</time></trkpt><trkpt lat="45.4709703" lon="7.6890066"><ele>1386.0</ele><time>2026-05-01T12:50:37.944Z</time></trkpt><trkpt lat="45.4708568" lon="7.6889512"><ele>1386.0</ele><time>2026-05-01T12:50:38.947Z</time></trkpt><trkpt lat="45.4707222" lon="7.6889023"><ele>1386.0</ele><time>2026-05-01T12:50:39.945Z</time></trkpt><trkpt lat="45.4705828" lon="7.6888518"><ele>1386.0</ele><time>2026-05-01T12:50:40.944Z</time></trkpt><trkpt lat="45.4704474" lon="7.6888171"><ele>1385.4</ele><time>2026-05-01T12:50:41.944Z</time></trkpt><trkpt lat="45.4703249" lon="7.6888023"><ele>1384.8</ele><time>2026-05-01T12:50:42.944Z</time></trkpt><trkpt lat="45.4702201" lon="7.688778"><ele>1384.2</ele><time>2026-05-01T12:50:43.94Z</time></trkpt><trkpt lat="45.4701519" lon="7.6887696"><ele>1383.6000000000001</ele><time>2026-05-01T12:50:44.94Z</time></trkpt><trkpt lat="45.4700703" lon="7.6887088"><ele>1383.0</ele><time>2026-05-01T12:50:46.946Z</time></trkpt><trkpt lat="45.4700902" lon="7.6886136"><ele>1383.0</ele><time>2026-05-01T12:50:48.947Z</time></trkpt><trkpt lat="45.4701885" lon="7.6885842"><ele>1383.0</ele><time>2026-05-01T12:50:50.945Z</time></trkpt><trkpt lat="45.4702645" lon="7.688598"><ele>1383.0</ele><time>2026-05-01T12:50:51.944Z</time></trkpt><trkpt lat="45.4703391" lon="7.6885909"><ele>1383.0</ele><time>2026-05-01T12:50:52.943Z</time></trkpt><trkpt lat="45.4704088" lon="7.6885697"><ele>1383.0</ele><time>2026-05-01T12:50:53.945Z</time></trkpt><trkpt lat="45.4705318" lon="7.6885471"><ele>1383.0</ele><time>2026-05-01T12:50:55.947Z</time></trkpt><trkpt lat="45.4706048" lon="7.6884916"><ele>1384.8333333333333</ele><time>2026-05-01T12:50:57.947Z</time></trkpt><trkpt lat="45.470569" lon="7.6883928"><ele>1386.6666666666667</ele><time>2026-05-01T12:50:59.949Z</time></trkpt><trkpt lat="45.4704717" lon="7.6883541"><ele>1388.5</ele><time>2026-05-01T12:51:01.945Z</time></trkpt><trkpt lat="45.4704012" lon="7.6883696"><ele>1390.3333333333335</ele><time>2026-05-01T12:51:02.947Z</time></trkpt><trkpt lat="45.470336" lon="7.6883765"><ele>1392.1666666666667</ele><time>2026-05-01T12:51:03.946Z</time></trkpt><trkpt lat="45.4702665" lon="7.6883045"><ele>1394.0</ele><time>2026-05-01T12:51:05.943Z</time></trkpt><trkpt lat="45.470279" lon="7.68818"><ele>1394.0</ele><time>2026-05-01T12:51:07.946Z</time></trkpt><trkpt lat="45.4703174" lon="7.6880994"><ele>1394.0</ele><time>2026-05-01T12:51:08.946Z</time></trkpt><trkpt lat="45.4703699" lon="7.688008"><ele>1394.0</ele><time>2026-05-01T12:51:09.952Z</time></trkpt><trkpt lat="45.4704189" lon="7.6879094"><ele>1394.0</ele><time>2026-05-01T12:51:10.959Z</time></trkpt><trkpt lat="45.4704731" lon="7.6878029"><ele>1394.0</ele><time>2026-05-01T12:51:11.951Z</time></trkpt><trkpt lat="45.4705338" lon="7.6876798"><ele>1394.0</ele><time>2026-05-01T12:51:12.945Z</time></trkpt><trkpt lat="45.4705969" lon="7.6875495"><ele>1398.25</ele><time>2026-05-01T12:51:13.938Z</time></trkpt><trkpt lat="45.4706593" lon="7.6874114"><ele>1402.5</ele><time>2026-05-01T12:51:14.948Z</time></trkpt><trkpt lat="45.4707135" lon="7.687267"><ele>1406.75</ele><time>2026-05-01T12:51:15.946Z</time></trkpt><trkpt lat="45.4707707" lon="7.6871188"><ele>1411.0</ele><time>2026-05-01T12:51:16.947Z</time></trkpt><trkpt lat="45.4708281" lon="7.6869668"><ele>1411.1999999999998</ele><time>2026-05-01T12:51:17.949Z</time></trkpt><trkpt lat="45.4708748" lon="7.6868269"><ele>1411.3999999999999</ele><time>2026-05-01T12:51:18.948Z</time></trkpt><trkpt lat="45.470901" lon="7.6866961"><ele>1411.6</ele><time>2026-05-01T12:51:19.947Z</time></trkpt><trkpt lat="45.4709211" lon="7.6865935"><ele>1411.8</ele><time>2026-05-01T12:51:20.948Z</time></trkpt><trkpt lat="45.4709701" lon="7.6864873"><ele>1412.0</ele><time>2026-05-01T12:51:22.939Z</time></trkpt><trkpt lat="45.471048" lon="7.6865787"><ele>1412.0</ele><time>2026-05-01T12:51:25.948Z</time></trkpt><trkpt lat="45.4710387" lon="7.6867531"><ele>1412.0</ele><time>2026-05-01T12:51:27.951Z</time></trkpt><trkpt lat="45.4710425" lon="7.6868986"><ele>1412.0</ele><time>2026-05-01T12:51:29.951Z</time></trkpt><trkpt lat="45.4710758" lon="7.6870157"><ele>1412.0</ele><time>2026-05-01T12:51:31.946Z</time></trkpt><trkpt lat="45.4711731" lon="7.6870188"><ele>1412.0</ele><time>2026-05-01T12:51:33.951Z</time></trkpt><trkpt lat="45.4712308" lon="7.6869162"><ele>1412.0</ele><time>2026-05-01T12:51:36.009Z</time></trkpt><trkpt lat="45.4712353" lon="7.6868214"><ele>1412.0</ele><time>2026-05-01T12:51:36.949Z</time></trkpt><trkpt lat="45.4712249" lon="7.6867176"><ele>1412.0</ele><time>2026-05-01T12:51:37.951Z</time></trkpt><trkpt lat="45.471223" lon="7.6866074"><ele>1412.0</ele><time>2026-05-01T12:51:38.948Z</time></trkpt><trkpt lat="45.4712363" lon="7.6865078"><ele>1412.0</ele><time>2026-05-01T12:51:39.953Z</time></trkpt><trkpt lat="45.4712695" lon="7.6863376"><ele>1412.0</ele><time>2026-05-01T12:51:41.949Z</time></trkpt><trkpt lat="45.4713003" lon="7.6862591"><ele>1413.0</ele><time>2026-05-01T12:51:42.948Z</time></trkpt><trkpt lat="45.4713372" lon="7.6861829"><ele>1414.0</ele><time>2026-05-01T12:51:43.949Z</time></trkpt><trkpt lat="45.4713873" lon="7.6861118"><ele>1415.0</ele><time>2026-05-01T12:51:44.94Z</time></trkpt><trkpt lat="45.4714379" lon="7.6860559"><ele>1416.0</ele><time>2026-05-01T12:51:45.937Z</time></trkpt><trkpt lat="45.4714836" lon="7.6859805"><ele>1417.0</ele><time>2026-05-01T12:51:46.942Z</time></trkpt><trkpt lat="45.4715206" lon="7.6859006"><ele>1418.0</ele><time>2026-05-01T12:51:47.94Z</time></trkpt><trkpt lat="45.47155" lon="7.6858186"><ele>1419.0</ele><time>2026-05-01T12:51:48.946Z</time></trkpt><trkpt lat="45.4716141" lon="7.6856544"><ele>1420.1666666666667</ele><time>2026-05-01T12:51:50.947Z</time></trkpt><trkpt lat="45.4716492" lon="7.6855629"><ele>1421.3333333333333</ele><time>2026-05-01T12:51:51.946Z</time></trkpt><trkpt lat="45.4716879" lon="7.6854642"><ele>1422.5</ele><time>2026-05-01T12:51:52.944Z</time></trkpt><trkpt lat="45.4717214" lon="7.68537"><ele>1423.6666666666665</ele><time>2026-05-01T12:51:53.948Z</time></trkpt><trkpt lat="45.4717622" lon="7.6852744"><ele>1424.8333333333333</ele><time>2026-05-01T12:51:54.949Z</time></trkpt><trkpt lat="45.4718079" lon="7.6851762"><ele>1426.0</ele><time>2026-05-01T12:51:55.945Z</time></trkpt><trkpt lat="45.4718554" lon="7.6850791"><ele>1427.8333333333333</ele><time>2026-05-01T12:51:56.944Z</time></trkpt><trkpt lat="45.4719078" lon="7.6849799"><ele>1429.6666666666665</ele><time>2026-05-01T12:51:57.951Z</time></trkpt><trkpt lat="45.4719508" lon="7.6848856"><ele>1431.5</ele><time>2026-05-01T12:51:58.948Z</time></trkpt><trkpt lat="45.4719841" lon="7.6847776"><ele>1433.3333333333333</ele><time>2026-05-01T12:51:59.947Z</time></trkpt><trkpt lat="45.472014" lon="7.684668"><ele>1435.1666666666667</ele><time>2026-05-01T12:52:00.949Z</time></trkpt><trkpt lat="45.472049" lon="7.6845562"><ele>1437.0</ele><time>2026-05-01T12:52:01.947Z</time></trkpt><trkpt lat="45.4720907" lon="7.6844552"><ele>1440.0</ele><time>2026-05-01T12:52:02.939Z</time></trkpt><trkpt lat="45.4721301" lon="7.6843625"><ele>1443.0</ele><time>2026-05-01T12:52:03.947Z</time></trkpt><trkpt lat="45.4721903" lon="7.6843008"><ele>1446.0</ele><time>2026-05-01T12:52:04.944Z</time></trkpt><trkpt lat="45.4722569" lon="7.6842387"><ele>1449.0</ele><time>2026-05-01T12:52:05.946Z</time></trkpt><trkpt lat="45.472331" lon="7.684179"><ele>1452.0</ele><time>2026-05-01T12:52:06.948Z</time></trkpt><trkpt lat="45.4724098" lon="7.6841161"><ele>1455.0</ele><time>2026-05-01T12:52:07.945Z</time></trkpt><trkpt lat="45.4724938" lon="7.6840654"><ele>1455.0</ele><time>2026-05-01T12:52:08.946Z</time></trkpt><trkpt lat="45.4725668" lon="7.6840036"><ele>1455.0</ele><time>2026-05-01T12:52:09.949Z</time></trkpt><trkpt lat="45.4726365" lon="7.6839562"><ele>1455.0</ele><time>2026-05-01T12:52:10.948Z</time></trkpt><trkpt lat="45.4726927" lon="7.6839154"><ele>1455.0</ele><time>2026-05-01T12:52:11.944Z</time></trkpt><trkpt lat="45.4727565" lon="7.6838374"><ele>1455.0</ele><time>2026-05-01T12:52:13.944Z</time></trkpt><trkpt lat="45.4727161" lon="7.6837576"><ele>1455.0</ele><time>2026-05-01T12:52:15.946Z</time></trkpt><trkpt lat="45.472596" lon="7.6837643"><ele>1455.0</ele><time>2026-05-01T12:52:17.946Z</time></trkpt><trkpt lat="45.4725128" lon="7.6837887"><ele>1455.0</ele><time>2026-05-01T12:52:18.944Z</time></trkpt><trkpt lat="45.4724263" lon="7.683803"><ele>1455.0</ele><time>2026-05-01T12:52:19.944Z</time></trkpt><trkpt lat="45.4723504" lon="7.6838123"><ele>1455.0</ele><time>2026-05-01T12:52:20.949Z</time></trkpt><trkpt lat="45.4722838" lon="7.6838049"><ele>1455.0</ele><time>2026-05-01T12:52:21.948Z</time></trkpt><trkpt lat="45.4722001" lon="7.6836916"><ele>1455.0</ele><time>2026-05-01T12:52:23.944Z</time></trkpt><trkpt lat="45.472179" lon="7.683577"><ele>1454.75</ele><time>2026-05-01T12:52:24.953Z</time></trkpt><trkpt lat="45.4721567" lon="7.6834329"><ele>1454.5</ele><time>2026-05-01T12:52:25.938Z</time></trkpt><trkpt lat="45.4721082" lon="7.6832623"><ele>1454.25</ele><time>2026-05-01T12:52:26.945Z</time></trkpt><trkpt lat="45.4720658" lon="7.683097"><ele>1454.0</ele><time>2026-05-01T12:52:27.952Z</time></trkpt><trkpt lat="45.4720389" lon="7.6829503"><ele>1454.0</ele><time>2026-05-01T12:52:28.947Z</time></trkpt><trkpt lat="45.4720281" lon="7.6827889"><ele>1454.0</ele><time>2026-05-01T12:52:29.951Z</time></trkpt><trkpt lat="45.4720252" lon="7.6825997"><ele>1454.0</ele><time>2026-05-01T12:52:30.949Z</time></trkpt><trkpt lat="45.4720179" lon="7.6824081"><ele>1454.0</ele><time>2026-05-01T12:52:31.949Z</time></trkpt><trkpt lat="45.4720027" lon="7.6822338"><ele>1457.3333333333335</ele><time>2026-05-01T12:52:32.955Z</time></trkpt><trkpt lat="45.4719815" lon="7.6820521"><ele>1460.6666666666667</ele><time>2026-05-01T12:52:34.066Z</time></trkpt><trkpt lat="45.47195" lon="7.6816628"><ele>1464.0</ele><time>2026-05-01T12:52:35.946Z</time></trkpt><trkpt lat="45.471925" lon="7.681489"><ele>1466.4</ele><time>2026-05-01T12:52:36.944Z</time></trkpt><trkpt lat="45.4719024" lon="7.6813435"><ele>1468.8000000000002</ele><time>2026-05-01T12:52:37.942Z</time></trkpt><trkpt lat="45.471894" lon="7.6812058"><ele>1471.1999999999998</ele><time>2026-05-01T12:52:38.952Z</time></trkpt><trkpt lat="45.4718944" lon="7.6810552"><ele>1473.6</ele><time>2026-05-01T12:52:39.947Z</time></trkpt><trkpt lat="45.4719011" lon="7.6808798"><ele>1476.0</ele><time>2026-05-01T12:52:40.949Z</time></trkpt><trkpt lat="45.4718951" lon="7.6807056"><ele>1478.0</ele><time>2026-05-01T12:52:41.95Z</time></trkpt><trkpt lat="45.4718937" lon="7.680554"><ele>1480.0</ele><time>2026-05-01T12:52:42.949Z</time></trkpt><trkpt lat="45.471905" lon="7.6803939"><ele>1482.0</ele><time>2026-05-01T12:52:43.948Z</time></trkpt><trkpt lat="45.4719229" lon="7.6802207"><ele>1484.0</ele><time>2026-05-01T12:52:44.95Z</time></trkpt><trkpt lat="45.4719392" lon="7.6800659"><ele>1485.5</ele><time>2026-05-01T12:52:45.943Z</time></trkpt><trkpt lat="45.471965" lon="7.6799463"><ele>1487.0</ele><time>2026-05-01T12:52:46.95Z</time></trkpt><trkpt lat="45.4720071" lon="7.6797933"><ele>1488.5</ele><time>2026-05-01T12:52:47.944Z</time></trkpt><trkpt lat="45.47206" lon="7.6796224"><ele>1490.0</ele><time>2026-05-01T12:52:49.028Z</time></trkpt><trkpt lat="45.4720959" lon="7.679445"><ele>1496.4</ele><time>2026-05-01T12:52:50.011Z</time></trkpt><trkpt lat="45.4721153" lon="7.6792755"><ele>1502.8</ele><time>2026-05-01T12:52:50.96Z</time></trkpt><trkpt lat="45.4721265" lon="7.6791142"><ele>1509.1999999999998</ele><time>2026-05-01T12:52:51.943Z</time></trkpt><trkpt lat="45.4721309" lon="7.6789876"><ele>1515.6</ele><time>2026-05-01T12:52:52.946Z</time></trkpt><trkpt lat="45.472171" lon="7.6788399"><ele>1522.0</ele><time>2026-05-01T12:52:54.944Z</time></trkpt><trkpt lat="45.4722868" lon="7.6788078"><ele>1522.0</ele><time>2026-05-01T12:52:56.945Z</time></trkpt><trkpt lat="45.472343" lon="7.6788584"><ele>1522.0</ele><time>2026-05-01T12:52:58.002Z</time></trkpt><trkpt lat="45.4723956" lon="7.6789505"><ele>1522.0</ele><time>2026-05-01T12:52:59.004Z</time></trkpt><trkpt lat="45.4724496" lon="7.6790818"><ele>1522.0</ele><time>2026-05-01T12:53:00.002Z</time></trkpt><trkpt lat="45.4725012" lon="7.679242"><ele>1522.0</ele><time>2026-05-01T12:53:00.94Z</time></trkpt><trkpt lat="45.4725563" lon="7.6794109"><ele>1521.0</ele><time>2026-05-01T12:53:01.947Z</time></trkpt><trkpt lat="45.4726275" lon="7.6795651"><ele>1520.0</ele><time>2026-05-01T12:53:02.933Z</time></trkpt><trkpt lat="45.4727001" lon="7.6797015"><ele>1519.0</ele><time>2026-05-01T12:53:03.944Z</time></trkpt><trkpt lat="45.4727453" lon="7.6798278"><ele>1518.0</ele><time>2026-05-01T12:53:04.943Z</time></trkpt><trkpt lat="45.4727739" lon="7.6799619"><ele>1517.0</ele><time>2026-05-01T12:53:06.005Z</time></trkpt><trkpt lat="45.4727893" lon="7.6800996"><ele>1517.0</ele><time>2026-05-01T12:53:06.945Z</time></trkpt><trkpt lat="45.4728103" lon="7.6802085"><ele>1517.0</ele><time>2026-05-01T12:53:07.943Z</time></trkpt><trkpt lat="45.4728714" lon="7.680249"><ele>1517.0</ele><time>2026-05-01T12:53:09.948Z</time></trkpt><trkpt lat="45.4729245" lon="7.6801443"><ele>1517.0</ele><time>2026-05-01T12:53:11.941Z</time></trkpt><trkpt lat="45.4729296" lon="7.6800406"><ele>1517.0</ele><time>2026-05-01T12:53:12.946Z</time></trkpt><trkpt lat="45.4729333" lon="7.6799003"><ele>1517.0</ele><time>2026-05-01T12:53:14.004Z</time></trkpt><trkpt lat="45.4729348" lon="7.6797337"><ele>1517.0</ele><time>2026-05-01T12:53:15.004Z</time></trkpt><trkpt lat="45.4729428" lon="7.6795879"><ele>1517.0</ele><time>2026-05-01T12:53:16.01Z</time></trkpt><trkpt lat="45.472933" lon="7.679468"><ele>1517.0</ele><time>2026-05-01T12:53:16.969Z</time></trkpt><trkpt lat="45.4729033" lon="7.6793494"><ele>1517.0</ele><time>2026-05-01T12:53:17.941Z</time></trkpt><trkpt lat="45.4728887" lon="7.679226"><ele>1517.0</ele><time>2026-05-01T12:53:18.943Z</time></trkpt><trkpt lat="45.4728874" lon="7.6790904"><ele>1518.0</ele><time>2026-05-01T12:53:19.941Z</time></trkpt><trkpt lat="45.4728888" lon="7.6789325"><ele>1519.0</ele><time>2026-05-01T12:53:20.946Z</time></trkpt><trkpt lat="45.4728851" lon="7.6787866"><ele>1520.0</ele><time>2026-05-01T12:53:21.972Z</time></trkpt><trkpt lat="45.4728713" lon="7.6786549"><ele>1521.0</ele><time>2026-05-01T12:53:22.961Z</time></trkpt><trkpt lat="45.4728469" lon="7.6785352"><ele>1522.0</ele><time>2026-05-01T12:53:23.943Z</time></trkpt><trkpt lat="45.4728284" lon="7.6784171"><ele>1523.1999999999998</ele><time>2026-05-01T12:53:25.01Z</time></trkpt><trkpt lat="45.4728199" lon="7.6783012"><ele>1524.4</ele><time>2026-05-01T12:53:25.944Z</time></trkpt><trkpt lat="45.4728152" lon="7.6781685"><ele>1525.6</ele><time>2026-05-01T12:53:26.95Z</time></trkpt><trkpt lat="45.4728122" lon="7.6780256"><ele>1526.8000000000002</ele><time>2026-05-01T12:53:27.947Z</time></trkpt><trkpt lat="45.4728072" lon="7.6778707"><ele>1528.0</ele><time>2026-05-01T12:53:28.948Z</time></trkpt><trkpt lat="45.4727887" lon="7.6777208"><ele>1529.6000000000001</ele><time>2026-05-01T12:53:29.942Z</time></trkpt><trkpt lat="45.4727725" lon="7.6775549"><ele>1531.2</ele><time>2026-05-01T12:53:31.001Z</time></trkpt><trkpt lat="45.4727544" lon="7.6773835"><ele>1532.8</ele><time>2026-05-01T12:53:31.938Z</time></trkpt><trkpt lat="45.4727344" lon="7.6772259"><ele>1534.4</ele><time>2026-05-01T12:53:32.95Z</time></trkpt><trkpt lat="45.4727235" lon="7.6770943"><ele>1536.0</ele><time>2026-05-01T12:53:33.937Z</time></trkpt><trkpt lat="45.4727222" lon="7.67698"><ele>1537.0</ele><time>2026-05-01T12:53:34.943Z</time></trkpt><trkpt lat="45.4727281" lon="7.6768847"><ele>1538.0</ele><time>2026-05-01T12:53:35.944Z</time></trkpt><trkpt lat="45.4727449" lon="7.676771"><ele>1539.0</ele><time>2026-05-01T12:53:36.943Z</time></trkpt><trkpt lat="45.4727624" lon="7.6766405"><ele>1540.0</ele><time>2026-05-01T12:53:37.944Z</time></trkpt><trkpt lat="45.4727801" lon="7.6764919"><ele>1541.0</ele><time>2026-05-01T12:53:38.938Z</time></trkpt><trkpt lat="45.4727898" lon="7.6763338"><ele>1541.0</ele><time>2026-05-01T12:53:39.94Z</time></trkpt><trkpt lat="45.4727963" lon="7.6761846"><ele>1541.0</ele><time>2026-05-01T12:53:41.006Z</time></trkpt><trkpt lat="45.4728072" lon="7.6760349"><ele>1541.0</ele><time>2026-05-01T12:53:41.945Z</time></trkpt><trkpt lat="45.4728208" lon="7.6758819"><ele>1541.0</ele><time>2026-05-01T12:53:42.943Z</time></trkpt><trkpt lat="45.4728428" lon="7.6756975"><ele>1541.25</ele><time>2026-05-01T12:53:43.944Z</time></trkpt><trkpt lat="45.472857" lon="7.6754931"><ele>1541.5</ele><time>2026-05-01T12:53:44.941Z</time></trkpt><trkpt lat="45.4728741" lon="7.675288"><ele>1541.75</ele><time>2026-05-01T12:53:45.936Z</time></trkpt><trkpt lat="45.4729095" lon="7.6750977"><ele>1542.0</ele><time>2026-05-01T12:53:46.947Z</time></trkpt><trkpt lat="45.4729501" lon="7.6749072"><ele>1553.8</ele><time>2026-05-01T12:53:47.998Z</time></trkpt><trkpt lat="45.4729824" lon="7.6747309"><ele>1565.6</ele><time>2026-05-01T12:53:49.006Z</time></trkpt><trkpt lat="45.473" lon="7.674572"><ele>1577.3999999999999</ele><time>2026-05-01T12:53:49.956Z</time></trkpt><trkpt lat="45.4730034" lon="7.6744447"><ele>1589.1999999999998</ele><time>2026-05-01T12:53:50.967Z</time></trkpt><trkpt lat="45.4729959" lon="7.6743244"><ele>1601.0</ele><time>2026-05-01T12:53:51.942Z</time></trkpt><trkpt lat="45.4729718" lon="7.6742081"><ele>1601.3333333333333</ele><time>2026-05-01T12:53:52.948Z</time></trkpt><trkpt lat="45.4729437" lon="7.6740878"><ele>1601.6666666666665</ele><time>2026-05-01T12:53:53.946Z</time></trkpt><trkpt lat="45.4729223" lon="7.6739638"><ele>1602.0</ele><time>2026-05-01T12:53:54.945Z</time></trkpt><trkpt lat="45.4729324" lon="7.6738542"><ele>1602.3333333333335</ele><time>2026-05-01T12:53:55.945Z</time></trkpt><trkpt lat="45.4729518" lon="7.6737528"><ele>1602.6666666666667</ele><time>2026-05-01T12:53:56.943Z</time></trkpt><trkpt lat="45.4729588" lon="7.6736488"><ele>1603.0</ele><time>2026-05-01T12:53:57.948Z</time></trkpt><trkpt lat="45.4729488" lon="7.6735283"><ele>1597.5000000000002</ele><time>2026-05-01T12:53:59.025Z</time></trkpt><trkpt lat="45.4729344" lon="7.6734038"><ele>1592.0</ele><time>2026-05-01T12:53:59.958Z</time></trkpt><trkpt lat="45.4729175" lon="7.673295"><ele>1586.5</ele><time>2026-05-01T12:54:00.962Z</time></trkpt><trkpt lat="45.4728959" lon="7.6732013"><ele>1581.0</ele><time>2026-05-01T12:54:01.959Z</time></trkpt><trkpt lat="45.4728341" lon="7.6730529"><ele>1575.5000000000002</ele><time>2026-05-01T12:54:03.957Z</time></trkpt><trkpt lat="45.4728859" lon="7.672958"><ele>1570.0</ele><time>2026-05-01T12:54:06.942Z</time></trkpt><trkpt lat="45.4729379" lon="7.673011"><ele>1578.2</ele><time>2026-05-01T12:54:09.021Z</time></trkpt><trkpt lat="45.4729967" lon="7.6731097"><ele>1586.4</ele><time>2026-05-01T12:54:11.021Z</time></trkpt><trkpt lat="45.4730329" lon="7.6732175"><ele>1594.6</ele><time>2026-05-01T12:54:12.952Z</time></trkpt><trkpt lat="45.4730711" lon="7.6733292"><ele>1602.8</ele><time>2026-05-01T12:54:14.948Z</time></trkpt><trkpt lat="45.4731174" lon="7.673448"><ele>1611.0</ele><time>2026-05-01T12:54:16.948Z</time></trkpt><trkpt lat="45.4731485" lon="7.6735837"><ele>1611.0</ele><time>2026-05-01T12:54:19.01Z</time></trkpt><trkpt lat="45.4731658" lon="7.6736733"><ele>1611.0</ele><time>2026-05-01T12:54:19.941Z</time></trkpt><trkpt lat="45.4731975" lon="7.6738173"><ele>1611.0</ele><time>2026-05-01T12:54:21.954Z</time></trkpt><trkpt lat="45.4732776" lon="7.6738089"><ele>1611.0</ele><time>2026-05-01T12:54:23.951Z</time></trkpt><trkpt lat="45.4733218" lon="7.6736769"><ele>1611.0</ele><time>2026-05-01T12:54:25.955Z</time></trkpt><trkpt lat="45.4733208" lon="7.6735626"><ele>1611.0</ele><time>2026-05-01T12:54:26.953Z</time></trkpt><trkpt lat="45.473313" lon="7.6734153"><ele>1611.0</ele><time>2026-05-01T12:54:28.015Z</time></trkpt><trkpt lat="45.4733007" lon="7.6732744"><ele>1611.0</ele><time>2026-05-01T12:54:28.951Z</time></trkpt><trkpt lat="45.4732973" lon="7.67312"><ele>1611.0</ele><time>2026-05-01T12:54:29.95Z</time></trkpt><trkpt lat="45.4732957" lon="7.6729671"><ele>1611.0</ele><time>2026-05-01T12:54:30.951Z</time></trkpt><trkpt lat="45.4732887" lon="7.6728233"><ele>1611.0</ele><time>2026-05-01T12:54:31.947Z</time></trkpt><trkpt lat="45.4732796" lon="7.6726901"><ele>1612.5714285714287</ele><time>2026-05-01T12:54:32.948Z</time></trkpt><trkpt lat="45.4732496" lon="7.6725874"><ele>1614.1428571428573</ele><time>2026-05-01T12:54:33.968Z</time></trkpt><trkpt lat="45.4732124" lon="7.6724964"><ele>1615.7142857142858</ele><time>2026-05-01T12:54:35.012Z</time></trkpt><trkpt lat="45.4731705" lon="7.6724109"><ele>1617.2857142857142</ele><time>2026-05-01T12:54:35.948Z</time></trkpt><trkpt lat="45.4731183" lon="7.6723327"><ele>1618.857142857143</ele><time>2026-05-01T12:54:36.952Z</time></trkpt><trkpt lat="45.4730588" lon="7.6722717"><ele>1620.4285714285713</ele><time>2026-05-01T12:54:37.949Z</time></trkpt><trkpt lat="45.4729904" lon="7.6722366"><ele>1622.0</ele><time>2026-05-01T12:54:38.953Z</time></trkpt><trkpt lat="45.4728945" lon="7.6721545"><ele>1621.9999999999998</ele><time>2026-05-01T12:54:40.954Z</time></trkpt><trkpt lat="45.4728825" lon="7.6720434"><ele>1622.0</ele><time>2026-05-01T12:54:42.955Z</time></trkpt><trkpt lat="45.4729342" lon="7.6719775"><ele>1622.0</ele><time>2026-05-01T12:54:44.95Z</time></trkpt><trkpt lat="45.4730204" lon="7.6720043"><ele>1622.0</ele><time>2026-05-01T12:54:46.942Z</time></trkpt><trkpt lat="45.4730835" lon="7.6720642"><ele>1621.9999999999998</ele><time>2026-05-01T12:54:47.956Z</time></trkpt><trkpt lat="45.4731685" lon="7.6721366"><ele>1622.0</ele><time>2026-05-01T12:54:48.978Z</time></trkpt><trkpt lat="45.4732611" lon="7.6722115"><ele>1621.9999999999998</ele><time>2026-05-01T12:54:49.95Z</time></trkpt><trkpt lat="45.4733503" lon="7.6722874"><ele>1622.0</ele><time>2026-05-01T12:54:50.955Z</time></trkpt><trkpt lat="45.4734203" lon="7.6723537"><ele>1622.0</ele><time>2026-05-01T12:54:51.955Z</time></trkpt><trkpt lat="45.4734675" lon="7.6724189"><ele>1622.0</ele><time>2026-05-01T12:54:52.951Z</time></trkpt><trkpt lat="45.4735039" lon="7.6725072"><ele>1621.9999999999998</ele><time>2026-05-01T12:54:53.958Z</time></trkpt><trkpt lat="45.4735413" lon="7.6726106"><ele>1622.0</ele><time>2026-05-01T12:54:54.952Z</time></trkpt><trkpt lat="45.4735693" lon="7.6727305"><ele>1622.0</ele><time>2026-05-01T12:54:55.949Z</time></trkpt><trkpt lat="45.4736" lon="7.6728353"><ele>1622.0</ele><time>2026-05-01T12:54:56.943Z</time></trkpt><trkpt lat="45.4736681" lon="7.6729196"><ele>1622.0</ele><time>2026-05-01T12:54:58.95Z</time></trkpt><trkpt lat="45.4737183" lon="7.6727812"><ele>1622.0</ele><time>2026-05-01T12:55:01.952Z</time></trkpt><trkpt lat="45.4737043" lon="7.6726641"><ele>1622.0</ele><time>2026-05-01T12:55:02.952Z</time></trkpt><trkpt lat="45.4736947" lon="7.672529"><ele>1622.0</ele><time>2026-05-01T12:55:03.951Z</time></trkpt><trkpt lat="45.4736992" lon="7.6723865"><ele>1622.0</ele><time>2026-05-01T12:55:04.957Z</time></trkpt><trkpt lat="45.4736929" lon="7.6722374"><ele>1622.0</ele><time>2026-05-01T12:55:05.953Z</time></trkpt><trkpt lat="45.4736741" lon="7.6721242"><ele>1622.0</ele><time>2026-05-01T12:55:06.949Z</time></trkpt><trkpt lat="45.473646" lon="7.6720399"><ele>1622.0</ele><time>2026-05-01T12:55:07.951Z</time></trkpt><trkpt lat="45.4736043" lon="7.6719015"><ele>1621.9999999999998</ele><time>2026-05-01T12:55:09.949Z</time></trkpt><trkpt lat="45.4736587" lon="7.671813"><ele>1622.0</ele><time>2026-05-01T12:55:11.945Z</time></trkpt><trkpt lat="45.4737231" lon="7.6718196"><ele>1622.0</ele><time>2026-05-01T12:55:13.949Z</time></trkpt><trkpt lat="45.4737448" lon="7.6719353"><ele>1622.0</ele><time>2026-05-01T12:55:15.952Z</time></trkpt><trkpt lat="45.4737686" lon="7.6720543"><ele>1621.9999999999998</ele><time>2026-05-01T12:55:16.95Z</time></trkpt><trkpt lat="45.4738023" lon="7.6721789"><ele>1622.0</ele><time>2026-05-01T12:55:17.946Z</time></trkpt><trkpt lat="45.4738386" lon="7.6723104"><ele>1628.9999999999998</ele><time>2026-05-01T12:55:18.952Z</time></trkpt><trkpt lat="45.4738749" lon="7.6724467"><ele>1636.0</ele><time>2026-05-01T12:55:19.947Z</time></trkpt><trkpt lat="45.4739095" lon="7.6725807"><ele>1643.0</ele><time>2026-05-01T12:55:20.949Z</time></trkpt><trkpt lat="45.4739439" lon="7.6726818"><ele>1650.0</ele><time>2026-05-01T12:55:21.957Z</time></trkpt><trkpt lat="45.474" lon="7.6727424"><ele>1656.9999999999998</ele><time>2026-05-01T12:55:23.948Z</time></trkpt><trkpt lat="45.4740546" lon="7.6726518"><ele>1664.0</ele><time>2026-05-01T12:55:25.951Z</time></trkpt><trkpt lat="45.4740553" lon="7.672472"><ele>1664.0</ele><time>2026-05-01T12:55:27.949Z</time></trkpt><trkpt lat="45.4740549" lon="7.6723565"><ele>1664.0</ele><time>2026-05-01T12:55:28.949Z</time></trkpt><trkpt lat="45.4740693" lon="7.6722164"><ele>1664.0</ele><time>2026-05-01T12:55:29.953Z</time></trkpt><trkpt lat="45.4740751" lon="7.6720496"><ele>1664.0</ele><time>2026-05-01T12:55:30.952Z</time></trkpt><trkpt lat="45.4740881" lon="7.6718858"><ele>1664.0</ele><time>2026-05-01T12:55:31.958Z</time></trkpt><trkpt lat="45.4740938" lon="7.6717308"><ele>1665.1666666666665</ele><time>2026-05-01T12:55:32.958Z</time></trkpt><trkpt lat="45.4740831" lon="7.671603"><ele>1666.3333333333333</ele><time>2026-05-01T12:55:33.946Z</time></trkpt><trkpt lat="45.4740617" lon="7.6714927"><ele>1667.5</ele><time>2026-05-01T12:55:34.945Z</time></trkpt><trkpt lat="45.4740349" lon="7.6713943"><ele>1668.6666666666665</ele><time>2026-05-01T12:55:35.948Z</time></trkpt><trkpt lat="45.4740044" lon="7.6712997"><ele>1669.8333333333333</ele><time>2026-05-01T12:55:36.951Z</time></trkpt><trkpt lat="45.4739774" lon="7.6712168"><ele>1671.0</ele><time>2026-05-01T12:55:37.957Z</time></trkpt><trkpt lat="45.4739884" lon="7.671101"><ele>1671.0</ele><time>2026-05-01T12:55:39.954Z</time></trkpt><trkpt lat="45.4740578" lon="7.6710754"><ele>1671.0</ele><time>2026-05-01T12:55:41.949Z</time></trkpt><trkpt lat="45.4741297" lon="7.671197"><ele>1671.0</ele><time>2026-05-01T12:55:43.983Z</time></trkpt><trkpt lat="45.4741819" lon="7.6713207"><ele>1671.0</ele><time>2026-05-01T12:55:44.951Z</time></trkpt><trkpt lat="45.474235" lon="7.6714706"><ele>1671.0</ele><time>2026-05-01T12:55:45.955Z</time></trkpt><trkpt lat="45.4742669" lon="7.6716044"><ele>1671.0</ele><time>2026-05-01T12:55:46.947Z</time></trkpt><trkpt lat="45.4742931" lon="7.6716895"><ele>1671.0</ele><time>2026-05-01T12:55:47.952Z</time></trkpt><trkpt lat="45.4743671" lon="7.6717479"><ele>1671.0</ele><time>2026-05-01T12:55:49.944Z</time></trkpt><trkpt lat="45.4744292" lon="7.6716414"><ele>1671.0</ele><time>2026-05-01T12:55:51.948Z</time></trkpt><trkpt lat="45.4744154" lon="7.6715475"><ele>1671.0</ele><time>2026-05-01T12:55:52.952Z</time></trkpt><trkpt lat="45.4743904" lon="7.6714178"><ele>1671.0</ele><time>2026-05-01T12:55:53.943Z</time></trkpt><trkpt lat="45.4743588" lon="7.6712554"><ele>1674.0</ele><time>2026-05-01T12:55:54.954Z</time></trkpt><trkpt lat="45.4743292" lon="7.6710926"><ele>1677.0</ele><time>2026-05-01T12:55:55.952Z</time></trkpt><trkpt lat="45.474299" lon="7.6709555"><ele>1680.0</ele><time>2026-05-01T12:55:56.948Z</time></trkpt><trkpt lat="45.4742561" lon="7.6708247"><ele>1683.0</ele><time>2026-05-01T12:55:57.95Z</time></trkpt><trkpt lat="45.4742146" lon="7.6706952"><ele>1686.0</ele><time>2026-05-01T12:55:58.951Z</time></trkpt><trkpt lat="45.4741745" lon="7.6705823"><ele>1686.0</ele><time>2026-05-01T12:55:59.949Z</time></trkpt><trkpt lat="45.4741428" lon="7.6704855"><ele>1686.0</ele><time>2026-05-01T12:56:00.941Z</time></trkpt><trkpt lat="45.4741413" lon="7.6703022"><ele>1686.0</ele><time>2026-05-01T12:56:02.958Z</time></trkpt><trkpt lat="45.4741646" lon="7.6701837"><ele>1686.0</ele><time>2026-05-01T12:56:03.945Z</time></trkpt><trkpt lat="45.474197" lon="7.6700498"><ele>1686.0</ele><time>2026-05-01T12:56:04.952Z</time></trkpt><trkpt lat="45.4742306" lon="7.6699308"><ele>1688.25</ele><time>2026-05-01T12:56:05.954Z</time></trkpt><trkpt lat="45.4742771" lon="7.6697954"><ele>1690.5</ele><time>2026-05-01T12:56:06.946Z</time></trkpt><trkpt lat="45.4743392" lon="7.6696393"><ele>1692.75</ele><time>2026-05-01T12:56:07.951Z</time></trkpt><trkpt lat="45.4743891" lon="7.6694802"><ele>1695.0</ele><time>2026-05-01T12:56:08.95Z</time></trkpt><trkpt lat="45.4744337" lon="7.6693285"><ele>1695.5</ele><time>2026-05-01T12:56:09.946Z</time></trkpt><trkpt lat="45.4744599" lon="7.6691936"><ele>1696.0</ele><time>2026-05-01T12:56:10.954Z</time></trkpt><trkpt lat="45.4744675" lon="7.6690738"><ele>1696.5</ele><time>2026-05-01T12:56:11.946Z</time></trkpt><trkpt lat="45.4744689" lon="7.6689687"><ele>1697.0</ele><time>2026-05-01T12:56:12.949Z</time></trkpt><trkpt lat="45.4745039" lon="7.6688291"><ele>1697.5</ele><time>2026-05-01T12:56:14.952Z</time></trkpt><trkpt lat="45.4745764" lon="7.6688216"><ele>1698.0</ele><time>2026-05-01T12:56:16.944Z</time></trkpt><trkpt lat="45.474608" lon="7.6689765"><ele>1698.0</ele><time>2026-05-01T12:56:18.947Z</time></trkpt><trkpt lat="45.4745928" lon="7.6690962"><ele>1698.0</ele><time>2026-05-01T12:56:19.949Z</time></trkpt><trkpt lat="45.4745782" lon="7.6692143"><ele>1698.0</ele><time>2026-05-01T12:56:20.956Z</time></trkpt><trkpt lat="45.4745724" lon="7.669322"><ele>1698.0</ele><time>2026-05-01T12:56:21.946Z</time></trkpt><trkpt lat="45.4745876" lon="7.6694323"><ele>1698.0</ele><time>2026-05-01T12:56:22.952Z</time></trkpt><trkpt lat="45.4746049" lon="7.669571"><ele>1698.0</ele><time>2026-05-01T12:56:23.947Z</time></trkpt><trkpt lat="45.4746217" lon="7.6697248"><ele>1705.8000000000002</ele><time>2026-05-01T12:56:24.951Z</time></trkpt><trkpt lat="45.4746347" lon="7.6698657"><ele>1713.6</ele><time>2026-05-01T12:56:25.954Z</time></trkpt><trkpt lat="45.4746409" lon="7.6699657"><ele>1721.3999999999999</ele><time>2026-05-01T12:56:26.95Z</time></trkpt><trkpt lat="45.4746735" lon="7.6700691"><ele>1729.1999999999998</ele><time>2026-05-01T12:56:28.943Z</time></trkpt><trkpt lat="45.4747457" lon="7.6699886"><ele>1737.0</ele><time>2026-05-01T12:56:31.946Z</time></trkpt><trkpt lat="45.4747655" lon="7.6697754"><ele>1737.0</ele><time>2026-05-01T12:56:33.95Z</time></trkpt><trkpt lat="45.4747862" lon="7.6696453"><ele>1737.0</ele><time>2026-05-01T12:56:34.954Z</time></trkpt><trkpt lat="45.4748038" lon="7.6695173"><ele>1737.0</ele><time>2026-05-01T12:56:35.951Z</time></trkpt><trkpt lat="45.4748275" lon="7.6693925"><ele>1737.0</ele><time>2026-05-01T12:56:36.954Z</time></trkpt><trkpt lat="45.4748553" lon="7.669294"><ele>1737.0</ele><time>2026-05-01T12:56:37.952Z</time></trkpt><trkpt lat="45.4749003" lon="7.669191"><ele>1737.0</ele><time>2026-05-01T12:56:38.952Z</time></trkpt><trkpt lat="45.4749563" lon="7.6690449"><ele>1737.0</ele><time>2026-05-01T12:56:39.955Z</time></trkpt><trkpt lat="45.4750208" lon="7.6688739"><ele>1737.0</ele><time>2026-05-01T12:56:40.943Z</time></trkpt><trkpt lat="45.4750932" lon="7.6686997"><ele>1737.0</ele><time>2026-05-01T12:56:41.951Z</time></trkpt><trkpt lat="45.4751537" lon="7.6685321"><ele>1737.0</ele><time>2026-05-01T12:56:42.948Z</time></trkpt><trkpt lat="45.4751984" lon="7.6683966"><ele>1737.0</ele><time>2026-05-01T12:56:43.954Z</time></trkpt><trkpt lat="45.4752222" lon="7.6682979"><ele>1736.9999999999998</ele><time>2026-05-01T12:56:44.948Z</time></trkpt><trkpt lat="45.4752754" lon="7.6682252"><ele>1736.9999999999998</ele><time>2026-05-01T12:56:46.953Z</time></trkpt><trkpt lat="45.4753384" lon="7.6683104"><ele>1737.0</ele><time>2026-05-01T12:56:48.944Z</time></trkpt><trkpt lat="45.4753146" lon="7.6685173"><ele>1737.0</ele><time>2026-05-01T12:56:50.945Z</time></trkpt><trkpt lat="45.4752827" lon="7.6686502"><ele>1737.0</ele><time>2026-05-01T12:56:51.951Z</time></trkpt><trkpt lat="45.4752616" lon="7.6688102"><ele>1737.0</ele><time>2026-05-01T12:56:52.947Z</time></trkpt><trkpt lat="45.4752484" lon="7.6689874"><ele>1737.0</ele><time>2026-05-01T12:56:53.951Z</time></trkpt><trkpt lat="45.4752436" lon="7.6691826"><ele>1737.0</ele><time>2026-05-01T12:56:54.948Z</time></trkpt><trkpt lat="45.4752532" lon="7.6693593"><ele>1737.0</ele><time>2026-05-01T12:56:55.95Z</time></trkpt><trkpt lat="45.4752622" lon="7.6695016"><ele>1736.9999999999998</ele><time>2026-05-01T12:56:56.949Z</time></trkpt><trkpt lat="45.4752761" lon="7.6695972"><ele>1736.9999999999998</ele><time>2026-05-01T12:56:58.95Z</time></trkpt><trkpt lat="45.4753603" lon="7.6695814"><ele>1737.0</ele><time>2026-05-01T12:57:00.947Z</time></trkpt><trkpt lat="45.4754309" lon="7.6694737"><ele>1737.0</ele><time>2026-05-01T12:57:02.951Z</time></trkpt><trkpt lat="45.4754823" lon="7.6693185"><ele>1769.0</ele><time>2026-05-01T12:57:04.947Z</time></trkpt><trkpt lat="45.4754998" lon="7.6691802"><ele>1769.0</ele><time>2026-05-01T12:57:06.952Z</time></trkpt><trkpt lat="45.4754621" lon="7.6690987"><ele>1769.0</ele><time>2026-05-01T12:57:08.946Z</time></trkpt></trkseg><trkseg><trkpt lat="45.4163825" lon="7.6685718"><ele>567.0</ele><time>2026-05-01T15:59:24.023Z</time></trkpt><trkpt lat="45.4164483" lon="7.6685782"><ele>567.0</ele><time>2026-05-01T15:59:40.946Z</time></trkpt><trkpt lat="45.4165281" lon="7.668634"><ele>567.0</ele><time>2026-05-01T16:03:33.94Z</time></trkpt><trkpt lat="45.4164782" lon="7.6685413"><ele>567.0</ele><time>2026-05-01T16:04:44.949Z</time></trkpt><trkpt lat="45.4165094" lon="7.6686315"><ele>567.0</ele><time>2026-05-01T16:04:50.944Z</time></trkpt><trkpt lat="45.4166241" lon="7.668717"><ele>567.0</ele><time>2026-05-01T16:05:26.951Z</time></trkpt><trkpt lat="45.4167048" lon="7.6688107"><ele>566.0</ele><time>2026-05-01T16:05:29.95Z</time></trkpt><trkpt lat="45.4167836" lon="7.668848"><ele>565.0</ele><time>2026-05-01T16:05:30.952Z</time></trkpt><trkpt lat="45.4168757" lon="7.6688943"><ele>564.0</ele><time>2026-05-01T16:05:32.946Z</time></trkpt><trkpt lat="45.4169385" lon="7.6689456"><ele>563.0</ele><time>2026-05-01T16:05:34.939Z</time></trkpt><trkpt lat="45.4170085" lon="7.6690093"><ele>562.0</ele><time>2026-05-01T16:05:36.947Z</time></trkpt><trkpt lat="45.4170915" lon="7.6690888"><ele>561.0</ele><time>2026-05-01T16:05:38.952Z</time></trkpt><trkpt lat="45.4171933" lon="7.6692"><ele>561.0</ele><time>2026-05-01T16:05:40.947Z</time></trkpt><trkpt lat="45.417265" lon="7.6692355"><ele>561.0</ele><time>2026-05-01T16:05:41.941Z</time></trkpt><trkpt lat="45.4173459" lon="7.6692398"><ele>561.0</ele><time>2026-05-01T16:05:42.958Z</time></trkpt><trkpt lat="45.4174162" lon="7.6692463"><ele>561.0</ele><time>2026-05-01T16:05:43.949Z</time></trkpt><trkpt lat="45.4175287" lon="7.6692832"><ele>561.0</ele><time>2026-05-01T16:05:45.966Z</time></trkpt><trkpt lat="45.4175891" lon="7.6693544"><ele>561.0</ele><time>2026-05-01T16:05:46.95Z</time></trkpt><trkpt lat="45.4176259" lon="7.6694346"><ele>559.8333333333334</ele><time>2026-05-01T16:05:47.952Z</time></trkpt><trkpt lat="45.4176501" lon="7.66952"><ele>558.6666666666666</ele><time>2026-05-01T16:05:48.956Z</time></trkpt><trkpt lat="45.4176533" lon="7.6696336"><ele>557.5</ele><time>2026-05-01T16:05:49.945Z</time></trkpt><trkpt lat="45.4176448" lon="7.6697485"><ele>556.3333333333333</ele><time>2026-05-01T16:05:50.953Z</time></trkpt><trkpt lat="45.4176172" lon="7.6698523"><ele>555.1666666666666</ele><time>2026-05-01T16:05:51.948Z</time></trkpt><trkpt lat="45.4175994" lon="7.6699818"><ele>554.0</ele><time>2026-05-01T16:05:52.946Z</time></trkpt><trkpt lat="45.4175624" lon="7.6700954"><ele>554.0</ele><time>2026-05-01T16:05:53.949Z</time></trkpt><trkpt lat="45.4175176" lon="7.6702005"><ele>554.0</ele><time>2026-05-01T16:05:54.954Z</time></trkpt><trkpt lat="45.4174693" lon="7.6703113"><ele>554.0</ele><time>2026-05-01T16:05:55.946Z</time></trkpt><trkpt lat="45.4174184" lon="7.6704138"><ele>554.0</ele><time>2026-05-01T16:05:56.953Z</time></trkpt><trkpt lat="45.4173704" lon="7.6705228"><ele>554.0</ele><time>2026-05-01T16:05:57.95Z</time></trkpt><trkpt lat="45.4173199" lon="7.670631"><ele>554.0</ele><time>2026-05-01T16:05:58.949Z</time></trkpt><trkpt lat="45.4172776" lon="7.6707444"><ele>554.1666666666666</ele><time>2026-05-01T16:05:59.949Z</time></trkpt><trkpt lat="45.4172344" lon="7.6708469"><ele>554.3333333333333</ele><time>2026-05-01T16:06:00.951Z</time></trkpt><trkpt lat="45.4172052" lon="7.6709413"><ele>554.5</ele><time>2026-05-01T16:06:01.956Z</time></trkpt><trkpt lat="45.4171748" lon="7.6710356"><ele>554.6666666666666</ele><time>2026-05-01T16:06:02.947Z</time></trkpt><trkpt lat="45.4171586" lon="7.6711511"><ele>554.8333333333334</ele><time>2026-05-01T16:06:03.949Z</time></trkpt><trkpt lat="45.4171465" lon="7.6712646"><ele>555.0</ele><time>2026-05-01T16:06:04.953Z</time></trkpt><trkpt lat="45.417147" lon="7.6713946"><ele>554.6</ele><time>2026-05-01T16:06:05.944Z</time></trkpt><trkpt lat="45.4171574" lon="7.6715213"><ele>554.2</ele><time>2026-05-01T16:06:06.946Z</time></trkpt><trkpt lat="45.41717" lon="7.6716526"><ele>553.8</ele><time>2026-05-01T16:06:07.948Z</time></trkpt><trkpt lat="45.4171818" lon="7.6717912"><ele>553.4</ele><time>2026-05-01T16:06:08.949Z</time></trkpt><trkpt lat="45.41719" lon="7.6719318"><ele>553.0</ele><time>2026-05-01T16:06:09.947Z</time></trkpt><trkpt lat="45.4171953" lon="7.6720654"><ele>552.0</ele><time>2026-05-01T16:06:10.947Z</time></trkpt><trkpt lat="45.4171992" lon="7.6721981"><ele>551.0</ele><time>2026-05-01T16:06:11.948Z</time></trkpt><trkpt lat="45.4172093" lon="7.6723335"><ele>550.0</ele><time>2026-05-01T16:06:12.956Z</time></trkpt><trkpt lat="45.4172163" lon="7.672466"><ele>549.0</ele><time>2026-05-01T16:06:13.951Z</time></trkpt><trkpt lat="45.4172188" lon="7.672593"><ele>548.0</ele><time>2026-05-01T16:06:14.952Z</time></trkpt><trkpt lat="45.4172217" lon="7.672716"><ele>547.8333333333333</ele><time>2026-05-01T16:06:15.954Z</time></trkpt><trkpt lat="45.4172257" lon="7.6728429"><ele>547.6666666666666</ele><time>2026-05-01T16:06:16.953Z</time></trkpt><trkpt lat="45.4172291" lon="7.6729819"><ele>547.5</ele><time>2026-05-01T16:06:17.945Z</time></trkpt><trkpt lat="45.4172312" lon="7.6731135"><ele>547.3333333333334</ele><time>2026-05-01T16:06:18.952Z</time></trkpt><trkpt lat="45.4172328" lon="7.6732316"><ele>547.1666666666667</ele><time>2026-05-01T16:06:19.952Z</time></trkpt><trkpt lat="45.4172354" lon="7.673348"><ele>547.0</ele><time>2026-05-01T16:06:20.955Z</time></trkpt><trkpt lat="45.4172372" lon="7.673451"><ele>547.0</ele><time>2026-05-01T16:06:21.946Z</time></trkpt><trkpt lat="45.4172367" lon="7.6735539"><ele>547.0</ele><time>2026-05-01T16:06:22.951Z</time></trkpt><trkpt lat="45.4172354" lon="7.6736524"><ele>547.0</ele><time>2026-05-01T16:06:23.948Z</time></trkpt><trkpt lat="45.4172516" lon="7.6737428"><ele>547.0</ele><time>2026-05-01T16:06:24.95Z</time></trkpt><trkpt lat="45.4172756" lon="7.6738311"><ele>547.0</ele><time>2026-05-01T16:06:25.95Z</time></trkpt><trkpt lat="45.417304" lon="7.6739137"><ele>547.0</ele><time>2026-05-01T16:06:26.948Z</time></trkpt><trkpt lat="45.4173301" lon="7.6740566"><ele>547.0</ele><time>2026-05-01T16:06:28.939Z</time></trkpt><trkpt lat="45.4172927" lon="7.6741747"><ele>545.6</ele><time>2026-05-01T16:06:30.943Z</time></trkpt><trkpt lat="45.4172138" lon="7.674282"><ele>544.2</ele><time>2026-05-01T16:06:32.952Z</time></trkpt><trkpt lat="45.4171349" lon="7.6743683"><ele>542.8</ele><time>2026-05-01T16:06:34.952Z</time></trkpt><trkpt lat="45.4170765" lon="7.6744584"><ele>541.4</ele><time>2026-05-01T16:06:36.95Z</time></trkpt><trkpt lat="45.4170421" lon="7.6745891"><ele>540.0</ele><time>2026-05-01T16:06:38.947Z</time></trkpt><trkpt lat="45.4170355" lon="7.6747495"><ele>538.0</ele><time>2026-05-01T16:06:40.949Z</time></trkpt><trkpt lat="45.4170155" lon="7.6748404"><ele>536.0</ele><time>2026-05-01T16:06:41.956Z</time></trkpt><trkpt lat="45.4170021" lon="7.6750154"><ele>534.0</ele><time>2026-05-01T16:06:43.951Z</time></trkpt><trkpt lat="45.4169934" lon="7.6751118"><ele>532.0</ele><time>2026-05-01T16:06:44.949Z</time></trkpt><trkpt lat="45.4169819" lon="7.6752024"><ele>530.0</ele><time>2026-05-01T16:06:45.953Z</time></trkpt><trkpt lat="45.4169672" lon="7.6753112"><ele>528.0</ele><time>2026-05-01T16:06:47.952Z</time></trkpt><trkpt lat="45.4169614" lon="7.6754345"><ele>527.5</ele><time>2026-05-01T16:06:50.95Z</time></trkpt><trkpt lat="45.416931" lon="7.6755235"><ele>527.0</ele><time>2026-05-01T16:07:00.946Z</time></trkpt><trkpt lat="45.4169245" lon="7.6756225"><ele>526.5</ele><time>2026-05-01T16:07:08.944Z</time></trkpt><trkpt lat="45.4168895" lon="7.6757208"><ele>526.0</ele><time>2026-05-01T16:07:11.951Z</time></trkpt><trkpt lat="45.4169232" lon="7.675807"><ele>525.5</ele><time>2026-05-01T16:07:17.952Z</time></trkpt><trkpt lat="45.4168857" lon="7.6758962"><ele>525.0</ele><time>2026-05-01T16:07:48.946Z</time></trkpt><trkpt lat="45.4168544" lon="7.676024"><ele>526.5</ele><time>2026-05-01T16:08:23.025Z</time></trkpt><trkpt lat="45.4167869" lon="7.6761254"><ele>528.0</ele><time>2026-05-01T16:08:24.96Z</time></trkpt><trkpt lat="45.4167211" lon="7.676173"><ele>529.5</ele><time>2026-05-01T16:08:26.959Z</time></trkpt><trkpt lat="45.4166369" lon="7.6762009"><ele>531.0</ele><time>2026-05-01T16:08:29.957Z</time></trkpt><trkpt lat="45.4165689" lon="7.6762546"><ele>532.5</ele><time>2026-05-01T16:08:32.95Z</time></trkpt><trkpt lat="45.4165005" lon="7.6762737"><ele>534.0</ele><time>2026-05-01T16:08:34.953Z</time></trkpt><trkpt lat="45.4164306" lon="7.6763222"><ele>534.0000000000001</ele><time>2026-05-01T16:08:37.949Z</time></trkpt><trkpt lat="45.4163669" lon="7.6763776"><ele>534.0</ele><time>2026-05-01T16:08:41.066Z</time></trkpt><trkpt lat="45.4163013" lon="7.6764478"><ele>534.0</ele><time>2026-05-01T16:08:43.946Z</time></trkpt><trkpt lat="45.416264" lon="7.6765439"><ele>534.0</ele><time>2026-05-01T16:08:47.948Z</time></trkpt><trkpt lat="45.4162008" lon="7.6765531"><ele>534.0</ele><time>2026-05-01T16:08:50.948Z</time></trkpt><trkpt lat="45.4161373" lon="7.6765957"><ele>534.0000000000001</ele><time>2026-05-01T16:08:55.947Z</time></trkpt><trkpt lat="45.4160895" lon="7.6766857"><ele>534.0</ele><time>2026-05-01T16:09:00.043Z</time></trkpt><trkpt lat="45.416018" lon="7.676735"><ele>533.0000000000001</ele><time>2026-05-01T16:09:03.942Z</time></trkpt><trkpt lat="45.4159539" lon="7.6768234"><ele>532.0</ele><time>2026-05-01T16:09:06.946Z</time></trkpt><trkpt lat="45.415896" lon="7.6768906"><ele>531.0</ele><time>2026-05-01T16:09:08.946Z</time></trkpt><trkpt lat="45.4158415" lon="7.6769458"><ele>530.0</ele><time>2026-05-01T16:09:10.947Z</time></trkpt><trkpt lat="45.4157874" lon="7.6770001"><ele>529.0</ele><time>2026-05-01T16:09:13.952Z</time></trkpt><trkpt lat="45.4157367" lon="7.6770644"><ele>528.0000000000001</ele><time>2026-05-01T16:09:19.942Z</time></trkpt><trkpt lat="45.4157017" lon="7.6771471"><ele>527.0</ele><time>2026-05-01T16:09:26.951Z</time></trkpt><trkpt lat="45.4156389" lon="7.6771344"><ele>527.6666666666666</ele><time>2026-05-01T16:09:35.949Z</time></trkpt><trkpt lat="45.4155413" lon="7.6771736"><ele>528.3333333333333</ele><time>2026-05-01T16:10:33.941Z</time></trkpt><trkpt lat="45.4154634" lon="7.6771341"><ele>529.0</ele><time>2026-05-01T16:10:36.946Z</time></trkpt><trkpt lat="45.4153646" lon="7.6771124"><ele>529.6666666666666</ele><time>2026-05-01T16:10:39.025Z</time></trkpt><trkpt lat="45.415295" lon="7.6771496"><ele>530.3333333333334</ele><time>2026-05-01T16:10:40.954Z</time></trkpt><trkpt lat="45.4152295" lon="7.6772189"><ele>531.0</ele><time>2026-05-01T16:10:43.961Z</time></trkpt><trkpt lat="45.4151645" lon="7.6772367"><ele>531.0</ele><time>2026-05-01T16:10:46.024Z</time></trkpt><trkpt lat="45.4150917" lon="7.6772629"><ele>531.0</ele><time>2026-05-01T16:10:48.944Z</time></trkpt><trkpt lat="45.415023" lon="7.6772666"><ele>531.0</ele><time>2026-05-01T16:10:52.943Z</time></trkpt><trkpt lat="45.4149589" lon="7.6772854"><ele>531.0</ele><time>2026-05-01T16:10:55.953Z</time></trkpt><trkpt lat="45.4148818" lon="7.677306"><ele>531.0</ele><time>2026-05-01T16:10:57.944Z</time></trkpt><trkpt lat="45.4148007" lon="7.6773137"><ele>531.0</ele><time>2026-05-01T16:10:59.943Z</time></trkpt><trkpt lat="45.4147402" lon="7.6773463"><ele>531.0</ele><time>2026-05-01T16:11:00.949Z</time></trkpt><trkpt lat="45.4146641" lon="7.6773568"><ele>529.5</ele><time>2026-05-01T16:11:03.029Z</time></trkpt><trkpt lat="45.4145991" lon="7.6773672"><ele>528.0</ele><time>2026-05-01T16:11:04.953Z</time></trkpt><trkpt lat="45.4145245" lon="7.6773859"><ele>526.5</ele><time>2026-05-01T16:11:06.95Z</time></trkpt><trkpt lat="45.4144589" lon="7.6774171"><ele>525.0</ele><time>2026-05-01T16:11:08.954Z</time></trkpt><trkpt lat="45.4143997" lon="7.6774534"><ele>523.5</ele><time>2026-05-01T16:11:10.963Z</time></trkpt><trkpt lat="45.4143223" lon="7.6774831"><ele>522.0</ele><time>2026-05-01T16:11:13.958Z</time></trkpt><trkpt lat="45.4142557" lon="7.6775825"><ele>522.0</ele><time>2026-05-01T16:11:16.954Z</time></trkpt><trkpt lat="45.4141735" lon="7.6775957"><ele>522.0</ele><time>2026-05-01T16:11:19.951Z</time></trkpt><trkpt lat="45.4141036" lon="7.6775833"><ele>522.0</ele><time>2026-05-01T16:11:23.949Z</time></trkpt><trkpt lat="45.4140176" lon="7.677555"><ele>522.0</ele><time>2026-05-01T16:11:26.948Z</time></trkpt><trkpt lat="45.413953" lon="7.6775319"><ele>522.0</ele><time>2026-05-01T16:11:27.955Z</time></trkpt><trkpt lat="45.4138809" lon="7.6775072"><ele>522.0</ele><time>2026-05-01T16:11:28.945Z</time></trkpt><trkpt lat="45.4138028" lon="7.6774841"><ele>521.4285714285714</ele><time>2026-05-01T16:11:29.946Z</time></trkpt><trkpt lat="45.4137312" lon="7.6774626"><ele>520.8571428571429</ele><time>2026-05-01T16:11:31.023Z</time></trkpt><trkpt lat="45.4136522" lon="7.67745"><ele>520.2857142857142</ele><time>2026-05-01T16:11:32.021Z</time></trkpt><trkpt lat="45.4135727" lon="7.6774424"><ele>519.7142857142858</ele><time>2026-05-01T16:11:32.949Z</time></trkpt><trkpt lat="45.4135093" lon="7.6774354"><ele>519.1428571428571</ele><time>2026-05-01T16:11:33.953Z</time></trkpt><trkpt lat="45.4134451" lon="7.6774345"><ele>518.5714285714286</ele><time>2026-05-01T16:11:34.947Z</time></trkpt><trkpt lat="45.413381" lon="7.6774298"><ele>518.0</ele><time>2026-05-01T16:11:35.945Z</time></trkpt><trkpt lat="45.4133163" lon="7.6774333"><ele>518.0</ele><time>2026-05-01T16:11:36.95Z</time></trkpt><trkpt lat="45.4131994" lon="7.6774461"><ele>518.0</ele><time>2026-05-01T16:11:39.02Z</time></trkpt><trkpt lat="45.413112" lon="7.6774142"><ele>518.0</ele><time>2026-05-01T16:11:40.952Z</time></trkpt><trkpt lat="45.4130138" lon="7.6773243"><ele>518.0</ele><time>2026-05-01T16:11:43.054Z</time></trkpt><trkpt lat="45.4129633" lon="7.6772626"><ele>518.0</ele><time>2026-05-01T16:11:44.021Z</time></trkpt><trkpt lat="45.4128946" lon="7.6772108"><ele>518.0</ele><time>2026-05-01T16:11:45.964Z</time></trkpt><trkpt lat="45.4129653" lon="7.6772297"><ele>518.0</ele><time>2026-05-01T16:11:56.957Z</time></trkpt><trkpt lat="45.413027" lon="7.6772583"><ele>518.0</ele><time>2026-05-01T16:11:59.963Z</time></trkpt><trkpt lat="45.4130757" lon="7.677196"><ele>518.0</ele><time>2026-05-01T16:12:03.968Z</time></trkpt><trkpt lat="45.4131245" lon="7.6771118"><ele>518.0</ele><time>2026-05-01T16:12:05.964Z</time></trkpt><trkpt lat="45.413141" lon="7.6770097"><ele>518.0</ele><time>2026-05-01T16:12:07.967Z</time></trkpt><trkpt lat="45.4131067" lon="7.676868"><ele>516.1666666666666</ele><time>2026-05-01T16:12:09.957Z</time></trkpt><trkpt lat="45.4130741" lon="7.6767684"><ele>514.3333333333333</ele><time>2026-05-01T16:12:11.96Z</time></trkpt><trkpt lat="45.4130197" lon="7.6766803"><ele>512.5</ele><time>2026-05-01T16:12:14.95Z</time></trkpt><trkpt lat="45.4129335" lon="7.6766667"><ele>510.66666666666663</ele><time>2026-05-01T16:12:17.943Z</time></trkpt><trkpt lat="45.4128773" lon="7.6766068"><ele>508.8333333333333</ele><time>2026-05-01T16:12:19.949Z</time></trkpt><trkpt lat="45.4128328" lon="7.6765164"><ele>507.0</ele><time>2026-05-01T16:12:21.952Z</time></trkpt><trkpt lat="45.4127734" lon="7.6764615"><ele>506.8333333333333</ele><time>2026-05-01T16:12:24.021Z</time></trkpt><trkpt lat="45.4126899" lon="7.676441"><ele>506.66666666666663</ele><time>2026-05-01T16:12:26.951Z</time></trkpt><trkpt lat="45.412639" lon="7.6763815"><ele>506.5</ele><time>2026-05-01T16:12:28.954Z</time></trkpt><trkpt lat="45.4125776" lon="7.6763248"><ele>506.3333333333333</ele><time>2026-05-01T16:12:35.947Z</time></trkpt><trkpt lat="45.412554" lon="7.6762114"><ele>506.16666666666663</ele><time>2026-05-01T16:12:40.961Z</time></trkpt><trkpt lat="45.4125763" lon="7.6761013"><ele>506.0</ele><time>2026-05-01T16:12:44.947Z</time></trkpt><trkpt lat="45.4125343" lon="7.6760177"><ele>504.4</ele><time>2026-05-01T16:12:47.95Z</time></trkpt><trkpt lat="45.412473" lon="7.6759313"><ele>502.8</ele><time>2026-05-01T16:12:50.957Z</time></trkpt><trkpt lat="45.4124154" lon="7.6758643"><ele>501.19999999999993</ele><time>2026-05-01T16:12:52.959Z</time></trkpt><trkpt lat="45.4123026" lon="7.6757981"><ele>499.59999999999997</ele><time>2026-05-01T16:12:54.956Z</time></trkpt><trkpt lat="45.4122133" lon="7.6757541"><ele>498.0</ele><time>2026-05-01T16:12:55.952Z</time></trkpt><trkpt lat="45.4121054" lon="7.6757135"><ele>497.59999999999997</ele><time>2026-05-01T16:12:56.955Z</time></trkpt><trkpt lat="45.412003" lon="7.6756816"><ele>497.19999999999993</ele><time>2026-05-01T16:12:57.956Z</time></trkpt><trkpt lat="45.4119125" lon="7.6756547"><ele>496.8</ele><time>2026-05-01T16:12:58.953Z</time></trkpt><trkpt lat="45.4118273" lon="7.6756231"><ele>496.4</ele><time>2026-05-01T16:12:59.951Z</time></trkpt><trkpt lat="45.4117403" lon="7.6755916"><ele>496.0</ele><time>2026-05-01T16:13:00.957Z</time></trkpt><trkpt lat="45.4116622" lon="7.6755564"><ele>496.0</ele><time>2026-05-01T16:13:02.025Z</time></trkpt><trkpt lat="45.4115882" lon="7.675519"><ele>496.00000000000006</ele><time>2026-05-01T16:13:03.018Z</time></trkpt><trkpt lat="45.4115199" lon="7.6755102"><ele>496.0</ele><time>2026-05-01T16:13:04.943Z</time></trkpt><trkpt lat="45.4114478" lon="7.6754804"><ele>496.0</ele><time>2026-05-01T16:13:07.948Z</time></trkpt><trkpt lat="45.4113665" lon="7.6754644"><ele>496.00000000000006</ele><time>2026-05-01T16:13:10.945Z</time></trkpt><trkpt lat="45.4113034" lon="7.6754536"><ele>496.0</ele><time>2026-05-01T16:13:14.948Z</time></trkpt><trkpt lat="45.4112575" lon="7.6753854"><ele>496.0</ele><time>2026-05-01T16:13:21.951Z</time></trkpt><trkpt lat="45.4112104" lon="7.6753193"><ele>495.0</ele><time>2026-05-01T16:13:58.945Z</time></trkpt><trkpt lat="45.4112157" lon="7.675423"><ele>494.0</ele><time>2026-05-01T16:14:33.946Z</time></trkpt><trkpt lat="45.4111411" lon="7.6754143"><ele>493.0</ele><time>2026-05-01T16:14:38.943Z</time></trkpt><trkpt lat="45.4110676" lon="7.6753487"><ele>492.0</ele><time>2026-05-01T16:14:41.941Z</time></trkpt><trkpt lat="45.4109891" lon="7.6752365"><ele>491.0</ele><time>2026-05-01T16:14:43.947Z</time></trkpt><trkpt lat="45.410936" lon="7.6751017"><ele>490.20000000000005</ele><time>2026-05-01T16:14:45.941Z</time></trkpt><trkpt lat="45.4109083" lon="7.6750003"><ele>489.40000000000003</ele><time>2026-05-01T16:14:46.946Z</time></trkpt><trkpt lat="45.4108661" lon="7.6748654"><ele>488.6</ele><time>2026-05-01T16:14:47.946Z</time></trkpt><trkpt lat="45.4108156" lon="7.6747276"><ele>487.8</ele><time>2026-05-01T16:14:48.946Z</time></trkpt><trkpt lat="45.4107956" lon="7.6746328"><ele>487.0</ele><time>2026-05-01T16:14:49.948Z</time></trkpt><trkpt lat="45.4107322" lon="7.6744924"><ele>488.00000000000006</ele><time>2026-05-01T16:14:51.948Z</time></trkpt><trkpt lat="45.4107085" lon="7.6743963"><ele>489.0</ele><time>2026-05-01T16:14:52.949Z</time></trkpt><trkpt lat="45.4106863" lon="7.6743113"><ele>490.0</ele><time>2026-05-01T16:14:53.951Z</time></trkpt><trkpt lat="45.4106685" lon="7.6742163"><ele>491.0</ele><time>2026-05-01T16:14:55.949Z</time></trkpt><trkpt lat="45.4106506" lon="7.6741005"><ele>492.00000000000006</ele><time>2026-05-01T16:14:58.941Z</time></trkpt><trkpt lat="45.4106943" lon="7.6739933"><ele>493.0</ele><time>2026-05-01T16:15:01.948Z</time></trkpt><trkpt lat="45.410731" lon="7.6738717"><ele>493.0</ele><time>2026-05-01T16:15:03.944Z</time></trkpt><trkpt lat="45.4107543" lon="7.6737826"><ele>493.0</ele><time>2026-05-01T16:15:05.951Z</time></trkpt><trkpt lat="45.4107663" lon="7.673691"><ele>493.0</ele><time>2026-05-01T16:15:07.943Z</time></trkpt><trkpt lat="45.4108382" lon="7.673692"><ele>493.0</ele><time>2026-05-01T16:15:15.952Z</time></trkpt><trkpt lat="45.4108811" lon="7.6737587"><ele>493.0</ele><time>2026-05-01T16:15:21.952Z</time></trkpt><trkpt lat="45.4109394" lon="7.673812"><ele>493.0</ele><time>2026-05-01T16:15:26.946Z</time></trkpt><trkpt lat="45.4109694" lon="7.6739187"><ele>493.0</ele><time>2026-05-01T16:15:31.949Z</time></trkpt><trkpt lat="45.4110367" lon="7.6739696"><ele>493.00000000000006</ele><time>2026-05-01T16:15:36.95Z</time></trkpt><trkpt lat="45.4111039" lon="7.6739968"><ele>493.0</ele><time>2026-05-01T16:15:39.954Z</time></trkpt><trkpt lat="45.4111806" lon="7.6740519"><ele>493.0</ele><time>2026-05-01T16:15:42.951Z</time></trkpt><trkpt lat="45.4111456" lon="7.6739657"><ele>493.0</ele><time>2026-05-01T16:15:52.951Z</time></trkpt><trkpt lat="45.411085" lon="7.6739344"><ele>493.00000000000006</ele><time>2026-05-01T16:15:55.954Z</time></trkpt><trkpt lat="45.4110173" lon="7.6740067"><ele>493.0</ele><time>2026-05-01T16:15:59.952Z</time></trkpt><trkpt lat="45.4109448" lon="7.6740364"><ele>493.0</ele><time>2026-05-01T16:16:03.95Z</time></trkpt><trkpt lat="45.4108599" lon="7.6740226"><ele>492.99999999999994</ele><time>2026-05-01T16:16:07.945Z</time></trkpt><trkpt lat="45.4107627" lon="7.6739744"><ele>492.99999999999994</ele><time>2026-05-01T16:16:10.954Z</time></trkpt><trkpt lat="45.4106829" lon="7.6739328"><ele>493.0</ele><time>2026-05-01T16:16:12.957Z</time></trkpt><trkpt lat="45.4105755" lon="7.6738146"><ele>493.0</ele><time>2026-05-01T16:16:14.951Z</time></trkpt><trkpt lat="45.4104885" lon="7.6737184"><ele>492.83333333333337</ele><time>2026-05-01T16:16:16.034Z</time></trkpt><trkpt lat="45.4104008" lon="7.6736272"><ele>492.6666666666667</ele><time>2026-05-01T16:16:17.034Z</time></trkpt><trkpt lat="45.4103373" lon="7.6735604"><ele>492.5</ele><time>2026-05-01T16:16:18.036Z</time></trkpt><trkpt lat="45.4102723" lon="7.6734988"><ele>492.33333333333337</ele><time>2026-05-01T16:16:20.033Z</time></trkpt><trkpt lat="45.4101924" lon="7.6734589"><ele>492.1666666666667</ele><time>2026-05-01T16:16:22.028Z</time></trkpt><trkpt lat="45.4101042" lon="7.6734272"><ele>492.0</ele><time>2026-05-01T16:16:24.028Z</time></trkpt><trkpt lat="45.4100306" lon="7.6734127"><ele>492.00000000000006</ele><time>2026-05-01T16:16:27.944Z</time></trkpt><trkpt lat="45.4099635" lon="7.6734285"><ele>492.0</ele><time>2026-05-01T16:16:38.949Z</time></trkpt><trkpt lat="45.4099072" lon="7.6734914"><ele>492.00000000000006</ele><time>2026-05-01T16:17:00.955Z</time></trkpt><trkpt lat="45.4098481" lon="7.6735448"><ele>492.00000000000006</ele><time>2026-05-01T16:17:25.958Z</time></trkpt><trkpt lat="45.4097831" lon="7.6735859"><ele>492.0</ele><time>2026-05-01T16:17:53.933Z</time></trkpt><trkpt lat="45.4097258" lon="7.6735457"><ele>492.00000000000006</ele><time>2026-05-01T16:27:40.988Z</time></trkpt><trkpt lat="45.4096485" lon="7.6735147"><ele>492.00000000000006</ele><time>2026-05-01T16:27:44.95Z</time></trkpt><trkpt lat="45.4095827" lon="7.6734978"><ele>492.3333333333333</ele><time>2026-05-01T16:27:47.95Z</time></trkpt><trkpt lat="45.4095157" lon="7.6735202"><ele>492.66666666666663</ele><time>2026-05-01T16:27:51.954Z</time></trkpt><trkpt lat="45.4094614" lon="7.6734487"><ele>493.0</ele><time>2026-05-01T16:28:05.949Z</time></trkpt><trkpt lat="45.4094629" lon="7.6733556"><ele>493.3333333333333</ele><time>2026-05-01T16:28:08.946Z</time></trkpt><trkpt lat="45.4094411" lon="7.6732521"><ele>493.66666666666663</ele><time>2026-05-01T16:28:13.955Z</time></trkpt><trkpt lat="45.4093523" lon="7.6731345"><ele>494.0</ele><time>2026-05-01T16:28:36.934Z</time></trkpt><trkpt lat="45.4092626" lon="7.6731441"><ele>493.99999999999994</ele><time>2026-05-01T16:28:43.947Z</time></trkpt><trkpt lat="45.4091914" lon="7.6731271"><ele>494.0</ele><time>2026-05-01T16:28:46.951Z</time></trkpt><trkpt lat="45.4092101" lon="7.6730129"><ele>494.0</ele><time>2026-05-01T16:28:50.945Z</time></trkpt><trkpt lat="45.4092526" lon="7.6729273"><ele>494.0</ele><time>2026-05-01T16:28:53.945Z</time></trkpt><trkpt lat="45.4091917" lon="7.6728904"><ele>493.99999999999994</ele><time>2026-05-01T16:28:57.945Z</time></trkpt><trkpt lat="45.4091272" lon="7.6729875"><ele>494.0</ele><time>2026-05-01T16:28:59.949Z</time></trkpt><trkpt lat="45.4090292" lon="7.6730435"><ele>494.0</ele><time>2026-05-01T16:29:00.95Z</time></trkpt><trkpt lat="45.4089441" lon="7.6731449"><ele>494.0</ele><time>2026-05-01T16:29:02.95Z</time></trkpt><trkpt lat="45.4088593" lon="7.6732102"><ele>494.0</ele><time>2026-05-01T16:29:04.95Z</time></trkpt><trkpt lat="45.4087727" lon="7.6732131"><ele>494.0</ele><time>2026-05-01T16:29:06.946Z</time></trkpt><trkpt lat="45.4086713" lon="7.6731885"><ele>494.0</ele><time>2026-05-01T16:29:08.948Z</time></trkpt><trkpt lat="45.4086029" lon="7.6731755"><ele>495.8571428571429</ele><time>2026-05-01T16:29:09.945Z</time></trkpt><trkpt lat="45.4085371" lon="7.6731521"><ele>497.71428571428567</ele><time>2026-05-01T16:29:10.949Z</time></trkpt><trkpt lat="45.40847" lon="7.673146"><ele>499.57142857142856</ele><time>2026-05-01T16:29:12.031Z</time></trkpt><trkpt lat="45.4084046" lon="7.6731501"><ele>501.42857142857144</ele><time>2026-05-01T16:29:13.019Z</time></trkpt><trkpt lat="45.4083367" lon="7.6731706"><ele>503.28571428571433</ele><time>2026-05-01T16:29:14.016Z</time></trkpt><trkpt lat="45.4082673" lon="7.6732157"><ele>505.1428571428571</ele><time>2026-05-01T16:29:14.96Z</time></trkpt><trkpt lat="45.4081955" lon="7.6732599"><ele>507.0</ele><time>2026-05-01T16:29:15.955Z</time></trkpt><trkpt lat="45.4080713" lon="7.6732995"><ele>507.0</ele><time>2026-05-01T16:29:17.964Z</time></trkpt><trkpt lat="45.4079872" lon="7.6732948"><ele>507.0</ele><time>2026-05-01T16:29:18.994Z</time></trkpt><trkpt lat="45.4078751" lon="7.6733197"><ele>507.0</ele><time>2026-05-01T16:29:19.952Z</time></trkpt><trkpt lat="45.4077773" lon="7.6732796"><ele>507.0</ele><time>2026-05-01T16:29:21.023Z</time></trkpt><trkpt lat="45.4077045" lon="7.6732346"><ele>507.0</ele><time>2026-05-01T16:29:22.026Z</time></trkpt><trkpt lat="45.4076466" lon="7.6731948"><ele>507.0</ele><time>2026-05-01T16:29:22.956Z</time></trkpt><trkpt lat="45.4075935" lon="7.6731276"><ele>507.0</ele><time>2026-05-01T16:29:24.029Z</time></trkpt><trkpt lat="45.407536" lon="7.673024"><ele>507.0</ele><time>2026-05-01T16:29:24.956Z</time></trkpt><trkpt lat="45.4074624" lon="7.6729153"><ele>507.0</ele><time>2026-05-01T16:29:25.953Z</time></trkpt><trkpt lat="45.4074262" lon="7.6728095"><ele>507.0</ele><time>2026-05-01T16:29:26.966Z</time></trkpt><trkpt lat="45.4073934" lon="7.6727042"><ele>507.0</ele><time>2026-05-01T16:29:28.025Z</time></trkpt><trkpt lat="45.4073521" lon="7.6726171"><ele>507.0</ele><time>2026-05-01T16:29:29.021Z</time></trkpt><trkpt lat="45.4073038" lon="7.6725481"><ele>508.85714285714283</ele><time>2026-05-01T16:29:29.973Z</time></trkpt><trkpt lat="45.4072517" lon="7.6724732"><ele>510.7142857142858</ele><time>2026-05-01T16:29:30.944Z</time></trkpt><trkpt lat="45.4071969" lon="7.6724168"><ele>512.5714285714287</ele><time>2026-05-01T16:29:32.02Z</time></trkpt><trkpt lat="45.4071274" lon="7.6723891"><ele>514.4285714285714</ele><time>2026-05-01T16:29:33.004Z</time></trkpt><trkpt lat="45.4070625" lon="7.6723449"><ele>516.2857142857143</ele><time>2026-05-01T16:29:33.949Z</time></trkpt><trkpt lat="45.4069989" lon="7.6722897"><ele>518.1428571428572</ele><time>2026-05-01T16:29:34.951Z</time></trkpt><trkpt lat="45.4069258" lon="7.6722304"><ele>520.0</ele><time>2026-05-01T16:29:35.946Z</time></trkpt><trkpt lat="45.4068609" lon="7.672172"><ele>518.8333333333334</ele><time>2026-05-01T16:29:36.945Z</time></trkpt><trkpt lat="45.4068093" lon="7.6721168"><ele>517.6666666666667</ele><time>2026-05-01T16:29:37.941Z</time></trkpt><trkpt lat="45.4067227" lon="7.6720105"><ele>516.5</ele><time>2026-05-01T16:29:39.949Z</time></trkpt><trkpt lat="45.4066788" lon="7.6719444"><ele>515.3333333333334</ele><time>2026-05-01T16:29:40.943Z</time></trkpt><trkpt lat="45.4066395" lon="7.6718728"><ele>514.1666666666666</ele><time>2026-05-01T16:29:41.955Z</time></trkpt><trkpt lat="45.406582" lon="7.6717435"><ele>513.0</ele><time>2026-05-01T16:29:44.024Z</time></trkpt><trkpt lat="45.4065233" lon="7.6716339"><ele>513.0</ele><time>2026-05-01T16:29:45.963Z</time></trkpt><trkpt lat="45.4064461" lon="7.671541"><ele>513.0</ele><time>2026-05-01T16:29:47.965Z</time></trkpt><trkpt lat="45.406306" lon="7.6714535"><ele>513.0</ele><time>2026-05-01T16:29:49.964Z</time></trkpt><trkpt lat="45.4062114" lon="7.6714013"><ele>513.0</ele><time>2026-05-01T16:29:50.962Z</time></trkpt><trkpt lat="45.4060991" lon="7.6713534"><ele>510.75</ele><time>2026-05-01T16:29:51.962Z</time></trkpt><trkpt lat="45.405978" lon="7.6713172"><ele>508.5</ele><time>2026-05-01T16:29:52.962Z</time></trkpt><trkpt lat="45.4058569" lon="7.6712882"><ele>506.25</ele><time>2026-05-01T16:29:53.96Z</time></trkpt><trkpt lat="45.4057445" lon="7.6712579"><ele>504.0</ele><time>2026-05-01T16:29:54.961Z</time></trkpt><trkpt lat="45.4056343" lon="7.6712247"><ele>504.0</ele><time>2026-05-01T16:29:55.963Z</time></trkpt><trkpt lat="45.4055387" lon="7.671188"><ele>504.0</ele><time>2026-05-01T16:29:56.983Z</time></trkpt><trkpt lat="45.405445" lon="7.6711405"><ele>504.0</ele><time>2026-05-01T16:29:57.974Z</time></trkpt><trkpt lat="45.4053516" lon="7.6710966"><ele>504.0</ele><time>2026-05-01T16:29:58.965Z</time></trkpt><trkpt lat="45.4052618" lon="7.6710566"><ele>504.0</ele><time>2026-05-01T16:29:59.963Z</time></trkpt><trkpt lat="45.4051832" lon="7.6710154"><ele>504.1428571428571</ele><time>2026-05-01T16:30:00.96Z</time></trkpt><trkpt lat="45.4051167" lon="7.6709717"><ele>504.2857142857143</ele><time>2026-05-01T16:30:01.958Z</time></trkpt><trkpt lat="45.4050489" lon="7.6709205"><ele>504.42857142857144</ele><time>2026-05-01T16:30:02.961Z</time></trkpt><trkpt lat="45.4049991" lon="7.6708453"><ele>504.57142857142856</ele><time>2026-05-01T16:30:04.032Z</time></trkpt><trkpt lat="45.4049595" lon="7.6707628"><ele>504.71428571428567</ele><time>2026-05-01T16:30:04.948Z</time></trkpt><trkpt lat="45.4049321" lon="7.6706766"><ele>504.85714285714283</ele><time>2026-05-01T16:30:05.949Z</time></trkpt><trkpt lat="45.404931" lon="7.670551"><ele>505.0</ele><time>2026-05-01T16:30:07.944Z</time></trkpt><trkpt lat="45.4050076" lon="7.6704872"><ele>505.00000000000006</ele><time>2026-05-01T16:30:09.944Z</time></trkpt><trkpt lat="45.4050698" lon="7.6704431"><ele>505.0</ele><time>2026-05-01T16:30:10.947Z</time></trkpt><trkpt lat="45.405154" lon="7.6703989"><ele>505.0</ele><time>2026-05-01T16:30:11.972Z</time></trkpt><trkpt lat="45.4052343" lon="7.6703289"><ele>505.0</ele><time>2026-05-01T16:30:12.945Z</time></trkpt><trkpt lat="45.4053068" lon="7.6702508"><ele>505.00000000000006</ele><time>2026-05-01T16:30:14.024Z</time></trkpt><trkpt lat="45.4053651" lon="7.6701919"><ele>505.0</ele><time>2026-05-01T16:30:14.952Z</time></trkpt><trkpt lat="45.4054294" lon="7.6701558"><ele>504.6</ele><time>2026-05-01T16:30:15.95Z</time></trkpt><trkpt lat="45.4055187" lon="7.6701154"><ele>504.2</ele><time>2026-05-01T16:30:18.023Z</time></trkpt><trkpt lat="45.4054627" lon="7.670034"><ele>503.79999999999995</ele><time>2026-05-01T16:30:21.942Z</time></trkpt><trkpt lat="45.4053254" lon="7.6700759"><ele>503.4</ele><time>2026-05-01T16:30:24.029Z</time></trkpt><trkpt lat="45.4052337" lon="7.6701065"><ele>503.0</ele><time>2026-05-01T16:30:24.954Z</time></trkpt><trkpt lat="45.405136" lon="7.6701312"><ele>502.0</ele><time>2026-05-01T16:30:25.954Z</time></trkpt><trkpt lat="45.4050359" lon="7.6701455"><ele>500.99999999999994</ele><time>2026-05-01T16:30:26.953Z</time></trkpt><trkpt lat="45.4049443" lon="7.6701474"><ele>499.99999999999994</ele><time>2026-05-01T16:30:27.949Z</time></trkpt><trkpt lat="45.4048518" lon="7.6701565"><ele>499.0</ele><time>2026-05-01T16:30:28.951Z</time></trkpt><trkpt lat="45.4047662" lon="7.6701622"><ele>498.0</ele><time>2026-05-01T16:30:29.951Z</time></trkpt><trkpt lat="45.4046657" lon="7.6701539"><ele>496.4</ele><time>2026-05-01T16:30:32.026Z</time></trkpt><trkpt lat="45.4046145" lon="7.6700442"><ele>494.79999999999995</ele><time>2026-05-01T16:30:33.954Z</time></trkpt><trkpt lat="45.4046122" lon="7.6699146"><ele>493.2</ele><time>2026-05-01T16:30:34.956Z</time></trkpt><trkpt lat="45.4046087" lon="7.6697652"><ele>491.6</ele><time>2026-05-01T16:30:35.951Z</time></trkpt><trkpt lat="45.4045979" lon="7.6696266"><ele>490.0</ele><time>2026-05-01T16:30:36.949Z</time></trkpt><trkpt lat="45.4045762" lon="7.6695115"><ele>489.4</ele><time>2026-05-01T16:30:38.024Z</time></trkpt><trkpt lat="45.4045397" lon="7.6694145"><ele>488.8</ele><time>2026-05-01T16:30:39.021Z</time></trkpt><trkpt lat="45.4045114" lon="7.669314"><ele>488.20000000000005</ele><time>2026-05-01T16:30:39.954Z</time></trkpt><trkpt lat="45.404432" lon="7.6692208"><ele>487.6</ele><time>2026-05-01T16:30:41.963Z</time></trkpt><trkpt lat="45.4043061" lon="7.6692003"><ele>487.0</ele><time>2026-05-01T16:30:44.058Z</time></trkpt><trkpt lat="45.40414" lon="7.6691238"><ele>487.00000000000006</ele><time>2026-05-01T16:30:46.026Z</time></trkpt><trkpt lat="45.4040752" lon="7.6690453"><ele>487.0</ele><time>2026-05-01T16:30:47.023Z</time></trkpt><trkpt lat="45.4040304" lon="7.6689656"><ele>487.0</ele><time>2026-05-01T16:30:48.029Z</time></trkpt><trkpt lat="45.4039866" lon="7.6688776"><ele>487.0</ele><time>2026-05-01T16:30:48.964Z</time></trkpt><trkpt lat="45.403953" lon="7.6687819"><ele>487.00000000000006</ele><time>2026-05-01T16:30:49.961Z</time></trkpt><trkpt lat="45.4039097" lon="7.6686229"><ele>487.0</ele><time>2026-05-01T16:30:52.053Z</time></trkpt><trkpt lat="45.4038838" lon="7.6684685"><ele>485.20000000000005</ele><time>2026-05-01T16:30:53.962Z</time></trkpt><trkpt lat="45.4038963" lon="7.6683251"><ele>483.40000000000003</ele><time>2026-05-01T16:30:55.964Z</time></trkpt><trkpt lat="45.4039155" lon="7.6681939"><ele>481.59999999999997</ele><time>2026-05-01T16:30:57.949Z</time></trkpt><trkpt lat="45.4039158" lon="7.6680607"><ele>479.79999999999995</ele><time>2026-05-01T16:30:59.949Z</time></trkpt><trkpt lat="45.403911" lon="7.6679229"><ele>478.0</ele><time>2026-05-01T16:31:02.028Z</time></trkpt><trkpt lat="45.4039009" lon="7.6677758"><ele>479.6666666666667</ele><time>2026-05-01T16:31:03.944Z</time></trkpt><trkpt lat="45.4038352" lon="7.6676214"><ele>481.33333333333337</ele><time>2026-05-01T16:31:05.956Z</time></trkpt><trkpt lat="45.4037969" lon="7.6675406"><ele>483.0</ele><time>2026-05-01T16:31:06.951Z</time></trkpt><trkpt lat="45.4037534" lon="7.6674614"><ele>484.66666666666663</ele><time>2026-05-01T16:31:07.956Z</time></trkpt><trkpt lat="45.4037108" lon="7.6673824"><ele>486.3333333333333</ele><time>2026-05-01T16:31:08.948Z</time></trkpt><trkpt lat="45.4036741" lon="7.6673089"><ele>488.0</ele><time>2026-05-01T16:31:09.957Z</time></trkpt><trkpt lat="45.4036375" lon="7.6671702"><ele>487.99999999999994</ele><time>2026-05-01T16:31:12.021Z</time></trkpt><trkpt lat="45.4036388" lon="7.6670393"><ele>488.0</ele><time>2026-05-01T16:31:13.947Z</time></trkpt><trkpt lat="45.4036581" lon="7.6669216"><ele>488.0</ele><time>2026-05-01T16:31:15.948Z</time></trkpt><trkpt lat="45.4036484" lon="7.6668216"><ele>488.0</ele><time>2026-05-01T16:31:18.025Z</time></trkpt><trkpt lat="45.4036265" lon="7.6667354"><ele>487.99999999999994</ele><time>2026-05-01T16:31:19.959Z</time></trkpt><trkpt lat="45.4035672" lon="7.6666294"><ele>488.0</ele><time>2026-05-01T16:31:22.958Z</time></trkpt><trkpt lat="45.4035189" lon="7.6665709"><ele>484.16666666666663</ele><time>2026-05-01T16:31:24.964Z</time></trkpt><trkpt lat="45.4034561" lon="7.6665018"><ele>480.3333333333333</ele><time>2026-05-01T16:31:27.05Z</time></trkpt><trkpt lat="45.4033983" lon="7.6664559"><ele>476.5</ele><time>2026-05-01T16:31:28.952Z</time></trkpt><trkpt lat="45.4033325" lon="7.666416"><ele>472.66666666666663</ele><time>2026-05-01T16:31:30.956Z</time></trkpt><trkpt lat="45.4032514" lon="7.666365"><ele>468.8333333333333</ele><time>2026-05-01T16:31:32.987Z</time></trkpt><trkpt lat="45.4031537" lon="7.6663182"><ele>465.0</ele><time>2026-05-01T16:31:34.97Z</time></trkpt><trkpt lat="45.4030638" lon="7.6662875"><ele>465.0</ele><time>2026-05-01T16:31:36.958Z</time></trkpt><trkpt lat="45.4029784" lon="7.6662552"><ele>465.0</ele><time>2026-05-01T16:31:39.958Z</time></trkpt><trkpt lat="45.4029145" lon="7.6662083"><ele>465.0</ele><time>2026-05-01T16:31:41.96Z</time></trkpt><trkpt lat="45.4028887" lon="7.6661225"><ele>465.0</ele><time>2026-05-01T16:31:44.959Z</time></trkpt><trkpt lat="45.402989" lon="7.6661114"><ele>465.0</ele><time>2026-05-01T16:31:47.945Z</time></trkpt><trkpt lat="45.403058" lon="7.6661186"><ele>465.0</ele><time>2026-05-01T16:31:48.953Z</time></trkpt><trkpt lat="45.4031426" lon="7.6661207"><ele>465.0</ele><time>2026-05-01T16:31:49.946Z</time></trkpt><trkpt lat="45.4032239" lon="7.6661179"><ele>465.0</ele><time>2026-05-01T16:31:50.95Z</time></trkpt><trkpt lat="45.4032874" lon="7.666096"><ele>465.0</ele><time>2026-05-01T16:31:51.949Z</time></trkpt><trkpt lat="45.4033478" lon="7.6660664"><ele>465.0</ele><time>2026-05-01T16:31:52.948Z</time></trkpt><trkpt lat="45.4034308" lon="7.6659237"><ele>465.0</ele><time>2026-05-01T16:31:54.951Z</time></trkpt><trkpt lat="45.4034556" lon="7.6657783"><ele>465.0</ele><time>2026-05-01T16:31:55.955Z</time></trkpt><trkpt lat="45.403496" lon="7.6656213"><ele>460.8333333333333</ele><time>2026-05-01T16:31:56.952Z</time></trkpt><trkpt lat="45.4035506" lon="7.6655039"><ele>456.66666666666663</ele><time>2026-05-01T16:31:57.958Z</time></trkpt><trkpt lat="45.4036059" lon="7.6654128"><ele>452.5</ele><time>2026-05-01T16:31:58.96Z</time></trkpt><trkpt lat="45.4036605" lon="7.6653508"><ele>448.3333333333333</ele><time>2026-05-01T16:31:59.956Z</time></trkpt><trkpt lat="45.4037267" lon="7.6653308"><ele>444.16666666666663</ele><time>2026-05-01T16:32:00.958Z</time></trkpt><trkpt lat="45.4037899" lon="7.6653225"><ele>440.0</ele><time>2026-05-01T16:32:02.026Z</time></trkpt><trkpt lat="45.4039002" lon="7.6652513"><ele>436.8</ele><time>2026-05-01T16:32:04.026Z</time></trkpt><trkpt lat="45.4039312" lon="7.6651147"><ele>433.6</ele><time>2026-05-01T16:32:05.952Z</time></trkpt><trkpt lat="45.4039365" lon="7.6650208"><ele>430.4</ele><time>2026-05-01T16:32:06.949Z</time></trkpt><trkpt lat="45.403937" lon="7.6649122"><ele>427.2</ele><time>2026-05-01T16:32:08.016Z</time></trkpt><trkpt lat="45.4039012" lon="7.6647775"><ele>424.0</ele><time>2026-05-01T16:32:09.024Z</time></trkpt><trkpt lat="45.4038556" lon="7.6646303"><ele>427.79999999999995</ele><time>2026-05-01T16:32:09.95Z</time></trkpt><trkpt lat="45.4038134" lon="7.6644837"><ele>431.59999999999997</ele><time>2026-05-01T16:32:10.947Z</time></trkpt><trkpt lat="45.4037749" lon="7.6643501"><ele>435.4</ele><time>2026-05-01T16:32:11.949Z</time></trkpt><trkpt lat="45.4037425" lon="7.6642104"><ele>439.2</ele><time>2026-05-01T16:32:13.025Z</time></trkpt><trkpt lat="45.4037211" lon="7.6640697"><ele>443.0</ele><time>2026-05-01T16:32:14.029Z</time></trkpt><trkpt lat="45.4037048" lon="7.6639214"><ele>443.0</ele><time>2026-05-01T16:32:14.941Z</time></trkpt><trkpt lat="45.4036938" lon="7.6637695"><ele>443.0</ele><time>2026-05-01T16:32:15.943Z</time></trkpt><trkpt lat="45.4036924" lon="7.6636013"><ele>443.0</ele><time>2026-05-01T16:32:16.947Z</time></trkpt><trkpt lat="45.403688" lon="7.663432"><ele>443.0</ele><time>2026-05-01T16:32:18.027Z</time></trkpt><trkpt lat="45.4036613" lon="7.663261"><ele>441.59999999999997</ele><time>2026-05-01T16:32:19.026Z</time></trkpt><trkpt lat="45.4036331" lon="7.6631029"><ele>440.19999999999993</ele><time>2026-05-01T16:32:19.939Z</time></trkpt><trkpt lat="45.4036051" lon="7.6629626"><ele>438.8</ele><time>2026-05-01T16:32:20.942Z</time></trkpt><trkpt lat="45.403566" lon="7.6628383"><ele>437.4</ele><time>2026-05-01T16:32:21.978Z</time></trkpt><trkpt lat="45.4035274" lon="7.6627105"><ele>436.0</ele><time>2026-05-01T16:32:23.032Z</time></trkpt><trkpt lat="45.4034862" lon="7.6625941"><ele>433.8</ele><time>2026-05-01T16:32:24.025Z</time></trkpt><trkpt lat="45.4034255" lon="7.6624887"><ele>431.6</ele><time>2026-05-01T16:32:24.951Z</time></trkpt><trkpt lat="45.4033358" lon="7.662391"><ele>429.4</ele><time>2026-05-01T16:32:26.03Z</time></trkpt><trkpt lat="45.4032467" lon="7.6622883"><ele>427.2</ele><time>2026-05-01T16:32:27.024Z</time></trkpt><trkpt lat="45.4031522" lon="7.6621782"><ele>425.0</ele><time>2026-05-01T16:32:28.028Z</time></trkpt><trkpt lat="45.4030573" lon="7.662061"><ele>426.5</ele><time>2026-05-01T16:32:28.945Z</time></trkpt><trkpt lat="45.4029579" lon="7.6619368"><ele>428.0</ele><time>2026-05-01T16:32:29.952Z</time></trkpt><trkpt lat="45.4028729" lon="7.6618081"><ele>429.5</ele><time>2026-05-01T16:32:30.953Z</time></trkpt><trkpt lat="45.4027909" lon="7.6616622"><ele>431.0</ele><time>2026-05-01T16:32:31.95Z</time></trkpt><trkpt lat="45.4027137" lon="7.661498"><ele>431.0</ele><time>2026-05-01T16:32:32.949Z</time></trkpt><trkpt lat="45.4026406" lon="7.6613374"><ele>431.0</ele><time>2026-05-01T16:32:33.966Z</time></trkpt><trkpt lat="45.4025748" lon="7.6611841"><ele>431.0</ele><time>2026-05-01T16:32:34.956Z</time></trkpt><trkpt lat="45.4025123" lon="7.6610295"><ele>431.0</ele><time>2026-05-01T16:32:35.949Z</time></trkpt><trkpt lat="45.4024478" lon="7.6608778"><ele>427.5</ele><time>2026-05-01T16:32:37.024Z</time></trkpt><trkpt lat="45.4023865" lon="7.6607319"><ele>424.0</ele><time>2026-05-01T16:32:37.949Z</time></trkpt><trkpt lat="45.4023247" lon="7.6605961"><ele>420.5</ele><time>2026-05-01T16:32:38.951Z</time></trkpt><trkpt lat="45.4022532" lon="7.6604713"><ele>417.0</ele><time>2026-05-01T16:32:39.95Z</time></trkpt><trkpt lat="45.4021858" lon="7.6603466"><ele>416.0</ele><time>2026-05-01T16:32:40.949Z</time></trkpt><trkpt lat="45.4021053" lon="7.6602394"><ele>415.0</ele><time>2026-05-01T16:32:41.947Z</time></trkpt><trkpt lat="45.4020292" lon="7.6601395"><ele>414.0</ele><time>2026-05-01T16:32:43.012Z</time></trkpt><trkpt lat="45.4019447" lon="7.660061"><ele>413.0</ele><time>2026-05-01T16:32:43.95Z</time></trkpt><trkpt lat="45.4018719" lon="7.6599978"><ele>412.0</ele><time>2026-05-01T16:32:44.955Z</time></trkpt><trkpt lat="45.4017908" lon="7.6598859"><ele>412.0</ele><time>2026-05-01T16:32:46.955Z</time></trkpt><trkpt lat="45.4018724" lon="7.6597123"><ele>412.0</ele><time>2026-05-01T16:32:49.951Z</time></trkpt><trkpt lat="45.4019633" lon="7.659654"><ele>412.0</ele><time>2026-05-01T16:32:50.953Z</time></trkpt><trkpt lat="45.4020475" lon="7.6595891"><ele>412.0</ele><time>2026-05-01T16:32:52.024Z</time></trkpt><trkpt lat="45.4021451" lon="7.6595415"><ele>412.0</ele><time>2026-05-01T16:32:53.023Z</time></trkpt><trkpt lat="45.4022414" lon="7.659508"><ele>404.0</ele><time>2026-05-01T16:32:54.026Z</time></trkpt><trkpt lat="45.4023346" lon="7.6594911"><ele>404.0</ele><time>2026-05-01T16:32:54.955Z</time></trkpt><trkpt lat="45.4024225" lon="7.6594713"><ele>404.0</ele><time>2026-05-01T16:32:55.949Z</time></trkpt><trkpt lat="45.4024977" lon="7.6594498"><ele>402.0</ele><time>2026-05-01T16:32:56.95Z</time></trkpt><trkpt lat="45.4025615" lon="7.6594228"><ele>402.0</ele><time>2026-05-01T16:32:58.023Z</time></trkpt><trkpt lat="45.4026582" lon="7.6593886"><ele>402.0</ele><time>2026-05-01T16:32:59.952Z</time></trkpt></trkseg></trk></gpx>